# Wetter Temperatur Luftdruck Luftfeuchtigkeit Sichtweite Windgeschwindigkeit Windrichtung Zeit
1 Clouds 22 1013 74 10000 1.34 246 08:51 14.08.2022
2 Clouds 23 1014 68 10000 4.12 170 06:22 14.08.2022
3 Clouds 25 1015 60 10000 4.12 180 02:49 14.08.2022
4 Clouds 25 1015 54 10000 5.14 190 23:53 13.08.2022
5 Clouds 24 1016 55 10000 1.79 176 22:52 13.08.2022
6 Clouds 24 1017 56 10000 5.36 225 20:58 13.08.2022
7 Clouds 24 1018 56 10000 5.36 225 20:33 13.08.2022
8 Clouds 24 1018 52 10000 6.69 200 19:37 13.08.2022
9 Clouds 24 1020 52 10000 2.68 236 17:42 13.08.2022
10 Clouds 21 1021 57 10000 4.63 180 15:31 13.08.2022
11 Clouds 20 1021 62 10000 1.34 183 14:28 13.08.2022
12 Clouds 19 1021 64 10000 0.45 161 13:40 13.08.2022
13 Clouds 20 1022 62 10000 2.68 167 11:52 13.08.2022
14 Clouds 20 1022 60 10000 1.79 205 10:31 13.08.2022
15 Clouds 21 1022 57 10000 3.6 160 08:45 13.08.2022
16 Clouds 21 1023 63 10000 0.45 212 05:34 13.08.2022
17 Clouds 24 1023 53 10000 1.34 85 23:58 12.08.2022
18 Clouds 25 1024 52 10000 2.24 77 22:20 12.08.2022
19 Clouds 24 1024 56 10000 3.09 310 20:54 12.08.2022
20 Clouds 24 1025 52 10000 2.68 58 19:42 12.08.2022
21 Clouds 24 1026 53 10000 0.89 67 18:48 12.08.2022
22 Clouds 23 1026 57 10000 2.57 190 17:25 12.08.2022
23 Clouds 22 1025 56 10000 3.6 160 16:24 12.08.2022
24 Clouds 18 1024 77 10000 0 0 14:44 12.08.2022
25 Clouds 16 1023 81 10000 3.43 63 12:56 12.08.2022
26 Clouds 16 1023 77 10000 2.06 340 11:19 12.08.2022
27 Clear 18 1024 72 10000 2.57 350 08:31 12.08.2022
28 Clear 19 1024 64 10000 2.68 35 06:56 12.08.2022
29 Clear 20 1023 66 10000 4.02 22 03:35 12.08.2022
30 Clouds 24 1023 56 10000 8.23 30 00:28 12.08.2022
31 Clouds 24 1023 55 10000 8.23 40 23:35 11.08.2022
32 Clouds 25 1023 55 10000 6.69 60 22:28 11.08.2022
33 Clouds 25 1023 52 10000 7.2 30 21:43 11.08.2022
34 Clouds 25 1023 51 10000 7.2 30 21:19 11.08.2022
35 Clouds 25 1023 48 10000 7.72 50 20:27 11.08.2022
36 Clouds 24 1023 49 10000 6.69 60 19:33 11.08.2022
37 Clouds 24 1023 49 10000 7.72 40 18:36 11.08.2022
38 Clouds 24 1022 53 10000 4.02 79 16:38 11.08.2022
39 Clouds 23 1022 55 10000 3.58 90 15:25 11.08.2022
40 Clouds 22 1021 71 10000 1.79 359 13:51 11.08.2022
41 Clouds 22 1020 82 10000 2.57 310 11:26 11.08.2022
42 Clear 22 1020 76 10000 2.57 260 07:49 11.08.2022
43 Clear 25 1020 62 10000 1.02 235 03:57 11.08.2022
44 Clouds 28 1020 51 10000 2.06 120 01:33 11.08.2022
45 Clouds 28 1021 49 10000 3.13 87 22:38 10.08.2022
46 Clouds 28 1021 48 10000 2.24 65 21:44 10.08.2022
47 Clear 28 1022 49 10000 2.68 101 20:55 10.08.2022
48 Clouds 27 1022 50 10000 1.54 140 19:32 10.08.2022
49 Clouds 27 1023 51 10000 1.79 354 18:42 10.08.2022
50 Clear 24 1024 57 10000 1.49 345 16:55 10.08.2022
51 Clouds 15 1022 86 10000 0 0 13:36 10.08.2022
52 Clouds 15 1022 86 10000 0 0 13:36 10.08.2022
53 Clear 14 1020 90 10000 2.33 319 12:46 10.08.2022
54 Clear 15 1020 89 10000 1.33 333 09:56 10.08.2022
55 Clear 16 1020 88 10000 1.25 1 08:35 10.08.2022
56 Clear 16 1022 85 10000 1.98 35 07:21 10.08.2022
57 Clear 20 1020 68 10000 0.45 47 03:35 10.08.2022
58 Clouds 23 1020 59 10000 5.14 60 23:58 09.08.2022
59 Clouds 24 1020 59 10000 5.14 60 23:25 09.08.2022
60 Clouds 24 1021 58 10000 5.66 70 21:37 09.08.2022
61 Clouds 23 1021 56 10000 4.63 40 20:40 09.08.2022
62 Clouds 23 1021 62 10000 5.14 30 18:48 09.08.2022
63 Clouds 22 1021 65 10000 6.69 60 17:31 09.08.2022
64 Clouds 22 1021 65 10000 6.69 60 17:31 09.08.2022
65 Clouds 21 1021 69 10000 5.36 82 16:42 09.08.2022
66 Clouds 20 1020 78 10000 3.6 10 15:59 09.08.2022
67 Clouds 17 1020 89 10000 0.45 348 14:30 09.08.2022
68 Clouds 18 1019 83 10000 0.45 32 10:45 09.08.2022
69 Clouds 19 1019 83 10000 4.38 21 08:51 09.08.2022
70 Clouds 19 1019 82 10000 1.79 33 07:54 09.08.2022
71 Clouds 19 1018 85 10000 2.24 14 04:31 09.08.2022
72 Clouds 19 1015 92 10000 1.79 355 23:58 08.08.2022
73 Mist 21 1015 91 8047 6.69 20 22:58 08.08.2022
74 Mist 21 1015 90 8047 6.69 20 22:35 08.08.2022
75 Clouds 27 1014 79 10000 4.63 270 21:30 08.08.2022
76 Clouds 26 1014 80 10000 5.14 240 19:57 08.08.2022
77 Clouds 25 1013 84 10000 5.14 240 19:22 08.08.2022
78 Rain 25 1013 84 10000 6.69 260 17:47 08.08.2022
79 Rain 23 1014 89 10000 4.47 194 15:46 08.08.2022
80 Clouds 24 1015 86 10000 2.68 277 14:45 08.08.2022
81 Clouds 25 1012 96 2933 4.18 204 12:29 08.08.2022
82 Clouds 25 1014 91 10000 1.79 264 10:23 08.08.2022
83 Clouds 25 1017 90 10000 0.45 207 06:56 08.08.2022
84 Clouds 26 1018 85 9827 2.08 233 03:39 08.08.2022
85 Rain 26 1016 86 10000 1.79 206 22:52 07.08.2022
86 Clouds 26 1017 84 10000 3.09 200 21:41 07.08.2022
87 Rain 25 1018 87 10000 4.63 200 20:54 07.08.2022
88 Rain 24 1019 90 10000 1.34 202 20:18 07.08.2022
89 Rain 24 1020 89 10000 1.34 249 19:50 07.08.2022
90 Clouds 25 1017 81 10000 3.03 253 18:40 07.08.2022
91 Clouds 25 1020 80 10000 3.22 267 17:18 07.08.2022
92 Clouds 25 1018 83 10000 0.89 315 16:38 07.08.2022
93 Clouds 25 1019 82 10000 0.45 234 15:25 07.08.2022
94 Clouds 25 1018 82 10000 0.89 292 13:44 07.08.2022
95 Clouds 25 1019 79 10000 1.34 343 12:19 07.08.2022
96 Clouds 26 1017 83 10000 3.55 208 10:37 07.08.2022
97 Clouds 27 1017 82 10000 3.73 216 08:26 07.08.2022
98 Clouds 30 1018 72 10000 0.89 252 04:26 07.08.2022
99 Clouds 32 1017 62 10000 1.34 242 01:58 07.08.2022
100 Clouds 34 1018 51 10000 5.14 190 22:30 06.08.2022
101 Clouds 34 1018 51 10000 5.14 190 21:43 06.08.2022
102 Clouds 33 1019 54 10000 4.12 230 19:42 06.08.2022
103 Clouds 32 1020 58 10000 4.12 200 18:33 06.08.2022
104 Clouds 31 1019 61 10000 4.12 240 17:39 06.08.2022
105 Clouds 26 1019 77 10000 3.09 220 15:21 06.08.2022
106 Clear 23 1018 90 10000 2.63 212 13:50 06.08.2022
107 Clear 23 1018 90 10000 2.4 214 12:21 06.08.2022
108 Clear 24 1020 88 10000 2.56 199 10:40 06.08.2022
109 Clear 24 1018 89 10000 2.67 204 09:24 06.08.2022
110 Clear 26 1018 79 10000 0.45 202 03:56 06.08.2022
111 Clouds 30 1018 65 10000 4.12 160 00:27 06.08.2022
112 Clouds 29 1019 65 10000 5.66 120 22:34 05.08.2022
113 Clouds 29 1020 66 10000 4.12 90 20:37 05.08.2022
114 Clear 28 1020 67 10000 2.24 22 18:55 05.08.2022
115 Clouds 28 1020 65 10000 3.09 60 18:36 05.08.2022
116 Clouds 26 1020 69 10000 2.68 93 16:52 05.08.2022
117 Clear 24 1020 75 10000 0.45 19 15:24 05.08.2022
118 Clear 22 1020 85 10000 1.59 34 14:35 05.08.2022
119 Clouds 21 1019 87 10000 1.34 13 13:36 05.08.2022
120 Clouds 20 1020 89 10000 0.89 5 13:18 05.08.2022
121 Clouds 21 1019 86 10000 0.89 54 11:29 05.08.2022
122 Clouds 21 1019 86 10000 2.33 35 08:57 05.08.2022
123 Clear 21 1019 84 10000 0.89 35 07:53 05.08.2022
124 Clouds 23 1018 77 10000 4.63 40 04:19 05.08.2022
125 Clouds 26 1017 74 10000 5.14 30 23:36 04.08.2022
126 Clouds 26 1017 75 10000 3.6 50 21:28 04.08.2022
127 Clouds 26 1017 77 10000 0.89 348 20:57 04.08.2022
128 Clouds 26 1017 76 10000 5.14 70 20:37 04.08.2022
129 Clouds 27 1017 73 10000 3.13 128 18:59 04.08.2022
130 Clouds 27 1016 71 10000 2.68 88 18:34 04.08.2022
131 Clouds 24 1016 81 10000 4.12 250 15:53 04.08.2022
132 Clouds 23 1015 83 10000 4.63 220 13:32 04.08.2022
133 Clouds 23 1013 85 10000 3.09 210 11:40 04.08.2022
134 Clouds 23 1013 85 10000 4.12 220 10:22 04.08.2022
135 Clouds 23 1013 85 10000 4.12 220 10:22 04.08.2022
136 Clouds 24 1013 82 10000 6.69 220 07:47 04.08.2022
137 Clouds 26 1010 94 10000 3.43 162 03:29 04.08.2022
138 Clouds 29 1009 51 10000 5.66 240 00:52 04.08.2022
139 Clouds 29 1008 55 10000 4.63 240 23:41 03.08.2022
140 Thunderstorm 30 1009 65 10000 7.2 290 21:34 03.08.2022
141 Clouds 33 1009 57 10000 9.77 260 20:21 03.08.2022
142 Clouds 32 1008 60 10000 7.2 210 19:27 03.08.2022
143 Clouds 29 1010 72 10000 3.13 245 16:53 03.08.2022
144 Clouds 28 1010 75 10000 6.17 220 16:23 03.08.2022
145 Clouds 24 1010 83 10000 5.14 210 13:53 03.08.2022
146 Clear 23 1011 81 10000 2.24 209 10:57 03.08.2022
147 Clear 25 1012 70 10000 2.68 222 07:32 03.08.2022
148 Clear 27 1013 64 10000 1.34 200 04:22 03.08.2022
149 Clouds 28 1012 59 10000 6.17 220 03:24 03.08.2022
150 Clouds 31 1012 54 10000 4.12 230 00:54 03.08.2022
151 Clouds 31 1014 55 10000 4.12 190 22:43 02.08.2022
152 Clouds 31 1014 52 10000 3.13 171 21:52 02.08.2022
153 Clouds 30 1015 54 10000 5.14 170 20:37 02.08.2022
154 Clouds 28 1016 57 10000 2.57 150 18:39 02.08.2022
155 Clouds 24 1015 68 10000 2.06 120 15:27 02.08.2022
156 Clear 19 1014 84 10000 2.94 358 11:30 02.08.2022
157 Clear 21 1013 77 10000 2.65 308 08:59 02.08.2022
158 Clear 22 1013 72 10000 2.8 314 07:52 02.08.2022
159 Clear 23 1012 69 10000 1.04 277 06:42 02.08.2022
160 Clear 25 1013 62 10000 2.24 318 04:54 02.08.2022
161 Clouds 30 1011 50 10000 7.72 300 23:35 01.08.2022
162 Clouds 30 1011 49 10000 6.69 280 22:24 01.08.2022
163 Clouds 30 1011 52 10000 7.2 280 20:52 01.08.2022
164 Clouds 29 1011 58 10000 5.66 290 19:25 01.08.2022
165 Clouds 27 1012 66 10000 3.58 275 18:31 01.08.2022
166 Clouds 26 1010 69 10000 8.23 240 16:53 01.08.2022
167 Clouds 24 1010 73 10000 6.69 250 15:52 01.08.2022
168 Clouds 24 1010 76 10000 4.02 266 15:30 01.08.2022
169 Clouds 23 1011 87 10000 6.05 230 14:20 01.08.2022
170 Clear 23 1011 86 10000 0.89 207 11:50 01.08.2022
171 Clear 23 1013 78 10000 2.24 218 09:40 01.08.2022
172 Clouds 24 1014 73 10000 5.41 191 08:25 01.08.2022
173 Clouds 25 1015 64 10000 2.24 187 04:48 01.08.2022
174 Clear 27 1016 56 10000 2.68 243 02:32 01.08.2022
175 Clear 28 1017 50 10000 3.65 208 00:23 01.08.2022
176 Clouds 29 1017 43 10000 6.17 210 22:39 31.07.2022
177 Clouds 29 1018 43 10000 6.17 240 21:27 31.07.2022
178 Clouds 28 1019 45 10000 4.12 190 19:41 31.07.2022
179 Clouds 27 1019 50 10000 0.89 192 17:48 31.07.2022
180 Clouds 24 1020 61 10000 0.45 195 15:39 31.07.2022
181 Clouds 18 1021 81 10000 2.17 236 13:43 31.07.2022
182 Clouds 18 1021 80 10000 2.34 226 11:58 31.07.2022
183 Clouds 20 1022 73 10000 2.29 216 09:43 31.07.2022
184 Clouds 21 1020 71 10000 1.71 188 07:59 31.07.2022
185 Clouds 25 1020 58 10000 3.09 240 02:58 31.07.2022
186 Clouds 28 1022 48 10000 3.6 220 23:40 30.07.2022
187 Clouds 28 1022 46 10000 5.14 230 22:19 30.07.2022
188 Clouds 28 1022 46 10000 2.06 310 21:48 30.07.2022
189 Clouds 28 1023 47 10000 2.06 190 20:57 30.07.2022
190 Clouds 27 1023 47 10000 1.79 188 19:59 30.07.2022
191 Clear 27 1022 49 10000 2.24 188 18:53 30.07.2022
192 Clouds 26 1023 48 10000 0 0 17:44 30.07.2022
193 Clouds 24 1023 55 10000 0 0 15:54 30.07.2022
194 Clouds 22 1022 63 10000 0 0 15:24 30.07.2022
195 Clear 16 1021 89 10000 2.01 281 13:18 30.07.2022
196 Clear 16 1020 86 10000 2.08 278 12:19 30.07.2022
197 Clear 17 1023 79 10000 2.09 275 10:31 30.07.2022
198 Clear 17 1023 79 10000 2.09 275 10:31 30.07.2022
199 Clear 17 1023 79 10000 2.09 275 10:31 30.07.2022
200 Clear 18 1023 79 10000 2.09 275 10:31 30.07.2022
201 Clear 17 1020 79 10000 2.08 271 09:56 30.07.2022
202 Clear 19 1020 75 10000 2.12 273 07:55 30.07.2022
203 Clear 25 1018 51 10000 2.68 345 02:57 30.07.2022
204 Clouds 25 1019 49 10000 0.45 5 02:24 30.07.2022
205 Clouds 27 1018 48 10000 2.24 95 22:44 29.07.2022
206 Clouds 26 1018 46 10000 5.14 290 21:24 29.07.2022
207 Clouds 26 1018 45 10000 4.63 280 20:39 29.07.2022
208 Clear 25 1019 48 10000 1.79 303 18:18 29.07.2022
209 Clouds 21 1017 62 10000 3.09 310 15:35 29.07.2022
210 Clouds 16 1017 79 10000 2.06 300 13:19 29.07.2022
211 Clear 17 1016 76 10000 0.89 235 11:28 29.07.2022
212 Clear 19 1016 70 10000 1.34 319 08:50 29.07.2022
213 Clouds 20 1016 66 10000 2.57 300 08:18 29.07.2022
214 Clouds 26 1007 49 10000 3.13 287 01:58 29.07.2022
215 Clouds 27 1005 45 10000 4.92 267 22:53 28.07.2022
216 Clouds 27 1009 46 10000 5.66 290 21:28 28.07.2022
217 Clouds 26 1007 45 10000 3.6 290 20:34 28.07.2022
218 Clouds 27 1014 43 10000 5.14 280 19:44 28.07.2022
219 Clouds 26 1013 44 10000 5.14 280 19:24 28.07.2022
220 Clouds 24 1013 57 10000 4.12 280 17:44 28.07.2022
221 Clouds 23 1013 64 10000 3.6 290 16:57 28.07.2022
222 Clouds 22 1013 70 10000 3.6 290 16:28 28.07.2022
223 Clouds 21 1012 74 10000 1.34 306 13:35 28.07.2022
224 Clouds 21 1011 72 10000 2.57 240 11:42 28.07.2022
225 Clear 22 1013 70 10000 2.48 257 06:46 28.07.2022
226 Clear 23 1013 67 10000 2.14 274 05:33 28.07.2022
227 Clear 27 1004 65 10000 4.25 307 02:40 28.07.2022
228 Thunderstorm 26 1005 73 6437 3.09 320 22:56 27.07.2022
229 Clouds 28 1006 61 10000 5.66 220 21:29 27.07.2022
230 Clouds 28 1007 60 10000 4.63 270 19:44 27.07.2022
231 Clouds 26 1007 65 10000 4.63 270 18:41 27.07.2022
232 Clouds 23 1012 77 10000 4.63 260 16:31 27.07.2022
233 Clouds 23 1012 80 10000 3.6 250 15:40 27.07.2022
234 Clouds 22 1013 86 10000 1.79 218 14:41 27.07.2022
235 Drizzle 21 1012 86 8047 2.06 260 12:52 27.07.2022
236 Clouds 21 1014 84 10000 0.89 246 08:55 27.07.2022
237 Clouds 22 1015 81 10000 0.89 243 07:33 27.07.2022
238 Clouds 25 1009 62 10000 4.12 100 02:43 27.07.2022
239 Clouds 26 1010 54 10000 3.09 110 22:39 26.07.2022
240 Clouds 26 1010 52 10000 4.12 120 21:25 26.07.2022
241 Clouds 26 1011 50 10000 1.54 140 20:47 26.07.2022
242 Clouds 26 1011 48 10000 2.57 0 18:46 26.07.2022
243 Clouds 26 1011 48 10000 2.57 0 18:46 26.07.2022
244 Clouds 26 1009 48 10000 2.57 0 18:20 26.07.2022
245 Clouds 24 1017 48 10000 3.6 140 16:54 26.07.2022
246 Clouds 22 1017 52 10000 2.06 140 15:43 26.07.2022
247 Clouds 18 1017 75 10000 2.4 173 14:00 26.07.2022
248 Clouds 17 1017 83 10000 2.48 176 11:47 26.07.2022
249 Clouds 18 1019 79 10000 2.26 159 09:35 26.07.2022
250 Clouds 19 1019 76 10000 1.82 165 07:56 26.07.2022
251 Clouds 23 1018 62 10000 4.63 90 01:44 26.07.2022
252 Clouds 24 1018 61 10000 4.12 100 23:37 25.07.2022
253 Clouds 24 1018 59 10000 4.63 70 22:33 25.07.2022
254 Clouds 24 1012 59 10000 5.66 90 21:43 25.07.2022
255 Clouds 23 1012 60 10000 5.14 80 20:42 25.07.2022
256 Clouds 24 1012 60 10000 5.66 50 19:51 25.07.2022
257 Clouds 24 1019 61 10000 3.13 85 18:23 25.07.2022
258 Clouds 24 1019 62 10000 3.13 53 17:33 25.07.2022
259 Clouds 22 1017 63 10000 2.06 50 15:37 25.07.2022
260 Clouds 19 1017 76 10000 0.45 353 12:33 25.07.2022
261 Clouds 20 1016 70 10000 4.17 343 10:38 25.07.2022
262 Clouds 23 1015 61 10000 0.89 358 06:51 25.07.2022
263 Clouds 30 1011 61 10000 3.09 260 23:56 24.07.2022
264 Clouds 30 1011 64 10000 3.58 315 23:21 24.07.2022
265 Clouds 30 1011 66 10000 5.14 240 22:41 24.07.2022
266 Clouds 28 1011 72 10000 6.17 220 21:30 24.07.2022
267 Clouds 28 1011 73 10000 7.2 230 20:56 24.07.2022
268 Clouds 27 1006 72 10000 2.68 182 20:29 24.07.2022
269 Clouds 27 1006 73 10000 4.02 204 18:57 24.07.2022
270 Clouds 23 1011 87 10000 7.2 190 16:51 24.07.2022
271 Clouds 22 1011 90 10000 8.23 190 15:53 24.07.2022
272 Rain 23 1011 89 10000 2.68 229 14:40 24.07.2022
273 Rain 24 1006 84 10000 1.34 251 13:25 24.07.2022
274 Clouds 25 1003 79 10000 0.45 225 12:19 24.07.2022
275 Clouds 27 1007 71 10000 5.14 230 11:26 24.07.2022
276 Clouds 26 1007 76 10000 5.14 210 09:23 24.07.2022
277 Clouds 26 1007 74 10000 3.6 180 07:53 24.07.2022
278 Clouds 26 1007 74 10000 3.09 190 06:38 24.07.2022
279 Clouds 28 1012 58 10000 1.79 251 02:33 24.07.2022
280 Clouds 30 1014 59 10000 7.2 200 22:31 23.07.2022
281 Clouds 26 1015 83 10000 5.66 200 20:41 23.07.2022
282 Clouds 26 1015 71 10000 5.66 190 18:52 23.07.2022
283 Thunderstorm 24 1015 83 10000 6.17 170 17:48 23.07.2022
284 Clouds 25 1000 70 10000 6.17 170 17:24 23.07.2022
285 Clouds 22 1016 89 10000 3.6 110 15:51 23.07.2022
286 Clouds 21 1015 93 10000 3.6 110 15:20 23.07.2022
287 Clouds 21 1015 90 10000 4.63 120 14:47 23.07.2022
288 Clouds 20 1014 94 10000 1.79 179 13:53 23.07.2022
289 Clouds 22 1014 82 10000 9.77 20 11:47 23.07.2022
290 Clouds 24 1013 83 10000 4.61 150 10:28 23.07.2022
291 Clouds 25 1013 92 7466 2.47 133 09:26 23.07.2022
292 Clouds 25 989 58 10000 3.3 221 05:58 23.07.2022
293 Clear 30 1015 47 10000 3.13 233 02:54 23.07.2022
294 Clouds 32 1015 37 10000 6.17 220 23:57 22.07.2022
295 Clouds 32 1015 33 10000 3.58 238 21:28 22.07.2022
296 Clouds 31 1016 34 10000 1.79 228 19:58 22.07.2022
297 Clear 30 1015 36 10000 2.68 172 18:41 22.07.2022
298 Clouds 28 1009 41 10000 1.54 280 17:38 22.07.2022
299 Clouds 24 1010 57 10000 3.6 310 15:30 22.07.2022
300 Clear 21 1014 71 10000 0.45 337 12:41 22.07.2022
301 Clear 23 1013 65 10000 1.79 343 09:52 22.07.2022
302 Clear 24 1006 64 10000 1.79 342 09:20 22.07.2022
303 Clear 26 1005 62 10000 4.12 290 07:30 22.07.2022
304 Clouds 28 1002 62 10000 5.14 270 04:19 22.07.2022
305 Clouds 33 1009 42 10000 8.75 250 23:27 21.07.2022
306 Clouds 33 1009 42 10000 8.23 250 21:37 21.07.2022
307 Clouds 32 1009 43 10000 5.14 240 19:41 21.07.2022
308 Clouds 31 1009 45 10000 5.14 260 18:29 21.07.2022
309 Clouds 29 1009 48 10000 3.09 270 17:21 21.07.2022
310 Clear 26 1002 59 10000 4.63 290 15:49 21.07.2022
311 Clear 23 1009 65 10000 4.63 280 14:46 21.07.2022
312 Clear 21 1008 67 10000 3.6 270 13:49 21.07.2022
313 Clear 22 1008 65 10000 1.34 301 11:48 21.07.2022
314 Clear 23 1007 64 10000 1.79 290 09:51 21.07.2022
315 Clear 24 1006 63 10000 1.79 308 08:53 21.07.2022
316 Clear 25 1002 63 10000 2.24 288 07:50 21.07.2022
317 Clear 26 1001 66 10000 1.79 304 06:27 21.07.2022
318 Clear 28 1005 57 10000 4.02 312 02:35 21.07.2022
319 Clouds 30 1004 51 10000 4.47 275 22:46 20.07.2022
320 Clear 30 1003 52 10000 4.92 329 22:18 20.07.2022
321 Clouds 30 1003 50 10000 8.23 270 20:46 20.07.2022
322 Clouds 30 1003 47 10000 7.2 250 19:46 20.07.2022
323 Clear 30 1002 48 10000 3.13 243 18:53 20.07.2022
324 Clouds 30 1003 49 10000 7.2 280 18:30 20.07.2022
325 Clouds 29 1002 54 10000 8.75 270 17:24 20.07.2022
326 Clouds 27 1000 71 10000 6.17 230 15:32 20.07.2022
327 Clouds 26 1000 76 10000 6.17 200 14:36 20.07.2022
328 Clear 24 1004 81 10000 5.46 208 12:51 20.07.2022
329 Clouds 26 1005 65 10000 5.66 200 10:57 20.07.2022
330 Clouds 27 1003 66 10000 4.02 189 06:21 20.07.2022
331 Clouds 30 1009 53 10000 5.83 202 01:40 20.07.2022
332 Clouds 31 1009 50 10000 2.68 257 00:41 20.07.2022
333 Clouds 32 1010 46 10000 5.14 220 22:36 19.07.2022
334 Clouds 32 1011 48 10000 2.68 253 21:54 19.07.2022
335 Clouds 31 1012 47 10000 5.14 240 20:49 19.07.2022
336 Clouds 31 1012 48 10000 5.66 220 19:32 19.07.2022
337 Clouds 30 1012 50 10000 4.12 230 18:42 19.07.2022
338 Clouds 29 1013 54 10000 5.14 220 17:54 19.07.2022
339 Smoke 26 1007 65 10000 4.63 250 15:49 19.07.2022
340 Clouds 22 1012 83 10000 2.06 220 13:37 19.07.2022
341 Clear 22 1013 80 10000 3.28 227 11:34 19.07.2022
342 Clear 23 1012 78 10000 0.89 237 09:53 19.07.2022
343 Clear 24 1006 71 10000 0.45 224 08:48 19.07.2022
344 Clear 24 1005 70 10000 0.89 214 07:57 19.07.2022
345 Clear 25 1006 68 10000 2.57 260 07:18 19.07.2022
346 Clear 26 1005 61 10000 2.51 243 05:20 19.07.2022
347 Clear 26 1001 59 10000 2.51 243 04:40 19.07.2022
348 Clouds 31 1012 44 10000 4.12 90 00:18 19.07.2022
349 Clouds 31 1012 43 10000 2.06 90 23:20 18.07.2022
350 Clouds 31 1012 42 10000 3.6 120 22:42 18.07.2022
351 Clouds 31 1013 44 10000 2.24 65 21:26 18.07.2022
352 Clouds 31 1013 43 10000 2.57 10 20:45 18.07.2022
353 Clouds 29 1014 46 10000 3.13 37 18:50 18.07.2022
354 Clear 26 1009 58 10000 4.63 330 16:45 18.07.2022
355 Clear 24 1009 68 10000 3.09 310 15:40 18.07.2022
356 Clear 20 1013 85 10000 1.34 311 13:40 18.07.2022
357 Clear 21 1014 86 10000 0.45 299 12:21 18.07.2022
358 Clouds 21 1012 87 10000 2.06 300 09:56 18.07.2022
359 Clouds 21 1012 87 10000 2.7 339 08:20 18.07.2022
360 Clouds 21 1013 86 10000 0.45 350 06:39 18.07.2022
361 Clouds 23 1007 83 10000 4.12 360 23:19 17.07.2022
362 Mist 23 1007 83 9656 3.6 20 22:32 17.07.2022
363 Haze 23 1007 84 9656 4.63 20 21:43 17.07.2022
364 Clouds 23 1007 84 10000 3.6 10 20:46 17.07.2022
365 Clouds 23 1007 84 10000 3.6 10 20:18 17.07.2022
366 Clouds 23 1007 85 10000 2.24 61 19:26 17.07.2022
367 Clouds 23 1007 85 10000 3.6 20 18:26 17.07.2022
368 Clouds 23 1013 91 10000 2.24 33 17:37 17.07.2022
369 Clouds 22 1013 91 10000 1.79 25 16:50 17.07.2022
370 Clouds 22 1013 91 10000 1.34 60 16:25 17.07.2022
371 Clouds 22 1012 94 10000 1.79 35 14:20 17.07.2022
372 Clouds 21 1012 94 10000 1.34 91 13:24 17.07.2022
373 Mist 21 1012 90 4828 5.66 40 10:34 17.07.2022
374 Clouds 21 1013 91 10000 3.28 29 08:38 17.07.2022
375 Clouds 21 1015 84 10000 2.24 34 02:43 17.07.2022
376 Clouds 22 1015 81 10000 4.63 20 01:47 17.07.2022
377 Clouds 23 1010 74 10000 5.66 30 23:19 16.07.2022
378 Clouds 24 989 69 10000 4.77 39 20:59 16.07.2022
379 Clouds 24 1006 70 10000 4.12 80 19:25 16.07.2022
380 Clouds 23 1009 77 10000 5.66 70 17:53 16.07.2022
381 Clouds 21 1017 89 10000 6.17 70 16:27 16.07.2022
382 Clouds 20 1017 94 10000 2.68 68 13:47 16.07.2022
383 Clouds 21 1017 93 10000 0.89 67 10:40 16.07.2022
384 Clouds 21 1018 94 10000 2.48 122 09:30 16.07.2022
385 Clouds 21 1018 94 10000 0.89 77 08:42 16.07.2022
386 Clouds 21 1018 94 10000 0.45 40 07:51 16.07.2022
387 Clouds 21 1018 93 10000 0.45 210 03:40 16.07.2022
388 Clouds 21 1018 93 10000 1.79 199 01:59 16.07.2022
389 Rain 22 1019 90 10000 0.89 221 23:28 15.07.2022
390 Clouds 22 1019 88 10000 4.42 190 22:38 15.07.2022
391 Clouds 21 1018 90 10000 4.12 150 21:18 15.07.2022
392 Rain 20 1020 93 10000 0.89 221 19:59 15.07.2022
393 Rain 19 1022 91 10000 1.79 261 18:35 15.07.2022
394 Clouds 19 1023 91 10000 3.32 186 17:34 15.07.2022
395 Rain 20 1020 81 10000 2.43 220 14:45 15.07.2022
396 Clouds 20 1021 82 10000 1.61 208 12:48 15.07.2022
397 Clouds 18 1021 83 10000 2.24 138 10:53 15.07.2022
398 Clouds 19 1022 80 10000 1.39 97 08:42 15.07.2022
399 Clouds 20 1022 77 10000 0.45 36 05:55 15.07.2022
400 Clouds 25 1014 57 10000 2.57 20 00:52 15.07.2022
401 Clouds 25 1015 59 10000 3.09 10 23:35 14.07.2022
402 Clouds 25 1015 60 10000 2.24 67 22:42 14.07.2022
403 Clouds 26 1015 59 10000 2.68 78 21:43 14.07.2022
404 Clouds 25 1015 59 10000 3.13 72 21:24 14.07.2022
405 Clouds 25 1015 59 10000 3.58 73 20:43 14.07.2022
406 Clouds 25 1015 59 10000 3.09 40 20:19 14.07.2022
407 Clouds 24 1015 63 10000 3.09 30 18:41 14.07.2022
408 Clouds 22 1021 69 10000 2.57 330 16:21 14.07.2022
409 Clouds 21 1022 73 10000 3.6 350 15:26 14.07.2022
410 Clouds 17 1021 78 10000 2.06 310 13:52 14.07.2022
411 Clear 16 1021 81 10000 0.45 337 12:40 14.07.2022
412 Clear 16 1020 80 10000 0.45 315 11:41 14.07.2022
413 Clear 16 1020 79 10000 0.45 339 11:22 14.07.2022
414 Clear 17 1021 79 10000 2.92 1 09:49 14.07.2022
415 Clear 17 1021 79 10000 2.92 1 09:49 14.07.2022
416 Clear 20 1019 74 10000 0.89 46 05:25 14.07.2022
417 Clouds 23 1017 66 10000 5.66 50 01:22 14.07.2022
418 Clouds 24 1017 64 10000 6.17 40 00:52 14.07.2022
419 Clouds 25 1011 60 10000 4.63 70 22:32 13.07.2022
420 Clear 25 1010 62 10000 4.02 81 21:54 13.07.2022
421 Clouds 25 1011 64 10000 6.69 30 20:45 13.07.2022
422 Clouds 26 1009 62 10000 6.17 330 19:21 13.07.2022
423 Clouds 26 1010 55 10000 5.14 290 17:42 13.07.2022
424 Clouds 25 1007 57 10000 0.89 324 16:29 13.07.2022
425 Clouds 23 1015 72 10000 4.18 274 15:24 13.07.2022
426 Clear 20 1015 76 10000 1.34 274 12:55 13.07.2022
427 Clear 20 1015 75 10000 2.99 268 10:45 13.07.2022
428 Clear 21 1015 72 10000 2.75 269 09:58 13.07.2022
429 Clouds 21 1015 70 10000 2.57 260 09:21 13.07.2022
430 Clear 22 1015 64 10000 2.66 282 06:19 13.07.2022
431 Clouds 28 1006 48 10000 0.45 0 01:27 13.07.2022
432 Clouds 29 1012 44 10000 5.14 310 23:42 12.07.2022
433 Clouds 29 1012 39 10000 4.92 332 21:57 12.07.2022
434 Clouds 29 1012 41 10000 6.26 294 21:29 12.07.2022
435 Clouds 29 1013 42 10000 5.66 320 20:41 12.07.2022
436 Clouds 28 1013 47 10000 4.63 300 19:26 12.07.2022
437 Clouds 25 1007 51 10000 3.6 300 17:49 12.07.2022
438 Clear 23 1012 64 10000 2.24 322 15:57 12.07.2022
439 Clear 21 1011 70 10000 4.92 331 14:31 12.07.2022
440 Clear 21 1010 71 10000 0.89 308 12:29 12.07.2022
441 Clear 21 1010 70 10000 1.79 323 11:22 12.07.2022
442 Clear 22 1010 73 10000 1.34 294 09:42 12.07.2022
443 Clear 23 1010 72 10000 0.89 334 08:23 12.07.2022
444 Clear 25 1004 67 10000 3.13 287 06:49 12.07.2022
445 Clear 26 1004 62 10000 2.24 268 05:42 12.07.2022
446 Rain 28 1003 70 10000 1.34 221 02:32 12.07.2022
447 Clouds 29 1009 64 10000 5.66 230 23:28 11.07.2022
448 Clouds 29 1009 64 10000 7.2 210 22:31 11.07.2022
449 Clouds 26 1006 68 10000 7.72 210 20:41 11.07.2022
450 Clouds 25 1007 79 10000 5.69 239 19:44 11.07.2022
451 Clouds 24 1008 81 10000 5.23 234 18:32 11.07.2022
452 Clouds 24 1008 81 10000 5.23 234 18:32 11.07.2022
453 Clouds 24 1011 72 10000 3.13 236 17:49 11.07.2022
454 Clouds 24 1011 65 10000 1.79 246 16:20 11.07.2022
455 Clouds 23 1011 65 10000 5.66 220 14:41 11.07.2022
456 Clear 22 1012 71 10000 0.89 238 11:59 11.07.2022
457 Clear 22 1012 67 10000 0.89 223 10:35 11.07.2022
458 Clouds 23 1012 63 10000 3.09 210 09:43 11.07.2022
459 Clear 23 1013 62 10000 0.45 235 08:34 11.07.2022
460 Clear 24 1014 62 10000 3.18 212 06:44 11.07.2022
461 Clouds 29 1010 42 10000 4.12 220 00:22 11.07.2022
462 Clouds 29 1010 41 10000 4.12 250 23:28 10.07.2022
463 Clouds 29 1011 36 10000 3.6 150 22:21 10.07.2022
464 Clear 28 1011 37 10000 2.24 118 20:54 10.07.2022
465 Clouds 28 1013 39 10000 3.13 49 19:50 10.07.2022
466 Clear 27 1009 43 10000 1.34 204 18:53 10.07.2022
467 Clouds 26 1014 43 10000 2.06 0 17:41 10.07.2022
468 Clear 26 989 53 10000 1.58 99 16:58 10.07.2022
469 Clouds 24 1021 55 10000 2.06 170 16:20 10.07.2022
470 Clouds 19 1021 85 10000 0 0 14:33 10.07.2022
471 Clouds 15 1020 91 10000 1.8 90 12:33 10.07.2022
472 Clouds 15 1020 88 10000 1.92 69 11:34 10.07.2022
473 Clouds 17 1022 82 10000 2.68 47 09:28 10.07.2022
474 Clouds 17 1023 79 10000 2.68 47 08:38 10.07.2022
475 Clear 19 1022 71 10000 2.68 34 05:36 10.07.2022
476 Clouds 24 1023 54 10000 6.69 10 23:32 09.07.2022
477 Clouds 24 1023 56 10000 7.2 20 22:26 09.07.2022
478 Clouds 24 1023 56 10000 7.2 20 22:26 09.07.2022
479 Clouds 24 1022 56 10000 5.66 30 21:40 09.07.2022
480 Clouds 23 1023 58 10000 5.14 30 19:19 09.07.2022
481 Clouds 23 1023 59 10000 5.14 60 18:25 09.07.2022
482 Clouds 23 1023 60 10000 6.17 70 17:18 09.07.2022
483 Clear 22 1023 62 10000 3.58 28 15:56 09.07.2022
484 Clouds 22 1023 61 10000 5.14 70 15:36 09.07.2022
485 Clear 21 1022 63 10000 2.24 56 14:21 09.07.2022
486 Clouds 20 1021 65 10000 7.2 70 13:28 09.07.2022
487 Clouds 20 1020 80 10000 2.68 43 11:40 09.07.2022
488 Clouds 20 1020 83 10000 2.68 84 10:25 09.07.2022
489 Clear 21 1020 83 10000 4.02 87 09:23 09.07.2022
490 Clouds 21 1020 85 10000 3.58 49 07:43 09.07.2022
491 Clouds 21 1019 84 10000 7.2 30 04:38 09.07.2022
492 Clouds 23 1018 83 10000 2.24 334 23:40 08.07.2022
493 Clouds 24 1017 82 10000 1.34 43 22:18 08.07.2022
494 Clouds 23 1016 87 10000 4.08 51 21:26 08.07.2022
495 Clouds 24 1017 83 10000 5.66 80 20:35 08.07.2022
496 Clouds 24 1010 79 10000 2.68 77 19:38 08.07.2022
497 Clouds 24 1011 79 10000 5.14 90 17:45 08.07.2022
498 Clouds 25 1011 77 10000 4.63 60 16:24 08.07.2022
499 Clouds 24 1017 83 10000 1.34 97 14:50 08.07.2022
500 Clouds 23 1017 83 10000 0.45 171 12:42 08.07.2022
501 Clouds 23 1015 82 10000 3.31 125 10:47 08.07.2022
502 Clouds 23 1016 83 10000 2.86 124 09:58 08.07.2022
503 Clouds 23 1017 81 10000 1.8 155 06:59 08.07.2022
504 Clouds 24 1017 77 10000 5.14 70 05:37 08.07.2022
505 Clouds 28 1008 63 10000 6.69 90 00:40 08.07.2022
506 Clouds 29 1016 63 10000 5.14 90 22:52 07.07.2022
507 Clouds 29 1016 62 10000 3.09 70 21:48 07.07.2022
508 Clouds 28 1012 63 10000 3.6 80 19:34 07.07.2022
509 Clouds 27 1012 67 10000 3.09 140 17:43 07.07.2022
510 Clouds 25 1012 71 10000 3.6 120 16:21 07.07.2022
511 Clouds 22 1018 90 10000 2.24 73 14:21 07.07.2022
512 Clouds 20 1018 92 10000 0.45 359 12:43 07.07.2022
513 Clouds 20 1018 92 10000 0.45 353 12:23 07.07.2022
514 Clouds 21 1018 90 10000 0.89 45 11:33 07.07.2022
515 Clouds 20 1018 91 10000 0.89 25 10:45 07.07.2022
516 Clouds 20 1018 91 10000 0.45 350 10:27 07.07.2022
517 Clouds 20 1017 89 10000 2.24 26 09:22 07.07.2022
518 Clouds 20 1017 87 10000 1.34 352 05:57 07.07.2022
519 Clouds 25 1010 74 10000 3.13 19 00:18 07.07.2022
520 Clouds 25 1011 74 10000 4.63 20 23:36 06.07.2022
521 Clouds 24 1010 75 10000 4.63 20 23:18 06.07.2022
522 Clouds 24 1011 74 10000 4.63 10 22:47 06.07.2022
523 Clouds 24 1011 74 10000 4.63 10 22:47 06.07.2022
524 Clouds 24 1011 75 10000 4.63 10 22:28 06.07.2022
525 Clouds 25 1010 71 10000 4.12 40 20:19 06.07.2022
526 Clouds 24 1010 76 10000 5.14 30 18:48 06.07.2022
527 Clouds 22 1015 86 10000 4.63 20 17:21 06.07.2022
528 Clouds 21 1015 92 10000 3.6 20 15:50 06.07.2022
529 Rain 21 1014 94 10000 1.79 84 12:44 06.07.2022
530 Clouds 21 1013 94 10000 0.89 5 11:52 06.07.2022
531 Clouds 21 1012 93 10000 1.34 190 10:48 06.07.2022
532 Clouds 22 1015 89 4453 3.13 333 08:46 06.07.2022
533 Clouds 22 1013 87 3879 3.13 136 07:43 06.07.2022
534 Clouds 22 1013 86 10000 2.24 22 06:43 06.07.2022
535 Clouds 30 1003 67 10000 4.63 80 22:52 05.07.2022
536 Clouds 31 1003 65 10000 4.63 80 22:34 05.07.2022
537 Clouds 32 1012 67 10000 2.57 0 20:45 05.07.2022
538 Clouds 31 1013 68 10000 3.6 260 19:54 05.07.2022
539 Clouds 32 1013 67 10000 3.6 260 19:35 05.07.2022
540 Clouds 31 1012 67 10000 4.12 270 17:49 05.07.2022
541 Clouds 30 1012 70 10000 4.12 270 17:18 05.07.2022
542 Clouds 28 999 73 10000 6.17 240 15:48 05.07.2022
543 Clouds 26 1006 81 10000 5.66 220 14:44 05.07.2022
544 Clouds 24 1013 90 10000 3.6 200 12:53 05.07.2022
545 Clouds 23 1012 90 10000 3.6 200 12:21 05.07.2022
546 Clouds 22 1012 90 10000 4.63 200 10:45 05.07.2022
547 Clouds 22 1012 91 10000 4.12 200 09:44 05.07.2022
548 Thunderstorm 22 1015 83 2816 5.66 310 08:20 05.07.2022
549 Smoke 26 1007 73 10000 6.17 210 06:47 05.07.2022
550 Clouds 25 1002 75 10000 5.97 200 04:28 05.07.2022
551 Rain 26 1007 69 10000 5.48 189 00:47 05.07.2022
552 Clouds 27 1008 66 10000 4.12 170 23:37 04.07.2022
553 Clouds 26 1008 66 10000 3.6 180 22:54 04.07.2022
554 Rain 28 1007 56 10000 2.68 200 21:56 04.07.2022
555 Clouds 29 1018 50 10000 1.34 215 20:55 04.07.2022
556 Clouds 29 1018 49 10000 1.34 217 20:35 04.07.2022
557 Clouds 30 1018 46 10000 6.17 200 19:56 04.07.2022
558 Clouds 30 1018 47 10000 6.17 200 19:36 04.07.2022
559 Clouds 30 1019 46 10000 7.72 210 18:34 04.07.2022
560 Clouds 28 1011 50 10000 2.57 190 16:42 04.07.2022
561 Clouds 25 1002 57 10000 3.09 190 15:34 04.07.2022
562 Clouds 22 1019 66 10000 2.06 140 13:41 04.07.2022
563 Clear 20 1021 71 10000 2.83 170 12:38 04.07.2022
564 Clear 22 1021 66 10000 2.29 175 10:39 04.07.2022
565 Clear 22 1020 66 10000 2.43 173 10:18 04.07.2022
566 Clear 22 1021 64 10000 2.57 151 08:31 04.07.2022
567 Clear 24 1021 60 10000 2.49 139 05:36 04.07.2022
568 Clouds 29 1020 46 10000 4.63 70 00:43 04.07.2022
569 Clouds 29 1021 43 10000 4.12 80 23:27 03.07.2022
570 Clouds 29 1021 41 10000 4.12 80 22:23 03.07.2022
571 Clouds 29 1009 48 10000 5.66 80 20:42 03.07.2022
572 Clouds 29 1013 47 10000 3.13 65 19:42 03.07.2022
573 Clouds 29 1013 47 10000 2.06 0 19:23 03.07.2022
574 Clear 27 1013 48 10000 1.79 108 17:45 03.07.2022
575 Clear 27 1013 49 10000 1.79 2 16:58 03.07.2022
576 Clear 24 1021 55 10000 3.09 310 15:25 03.07.2022
577 Clouds 23 1021 59 10000 2.57 330 14:37 03.07.2022
578 Clouds 21 1021 66 10000 1.54 290 13:49 03.07.2022
579 Clouds 20 1021 64 10000 1.35 355 12:42 03.07.2022
580 Clouds 20 1021 59 10000 1.21 345 11:40 03.07.2022
581 Clouds 21 1020 53 10000 1.26 323 10:40 03.07.2022
582 Clouds 21 1019 49 10000 0.98 299 09:59 03.07.2022
583 Clouds 23 1019 43 10000 2.57 200 07:37 03.07.2022
584 Clouds 24 1019 41 10000 1.34 197 05:26 03.07.2022
585 Clouds 27 1007 36 10000 5.14 120 00:25 03.07.2022
586 Clouds 28 1007 38 10000 5.66 100 22:36 02.07.2022
587 Clouds 28 1018 35 10000 5.14 60 21:43 02.07.2022
588 Clouds 28 1008 38 10000 4.12 80 20:20 02.07.2022
589 Clouds 28 1002 39 10000 3.6 20 19:49 02.07.2022
590 Clouds 26 1004 41 10000 2.68 110 17:58 02.07.2022
591 Clouds 26 1008 41 10000 2.06 360 17:37 02.07.2022
592 Clouds 23 1018 49 10000 3.09 350 15:37 02.07.2022
593 Clear 16 1017 91 10000 2.16 315 12:49 02.07.2022
594 Clear 17 1016 90 10000 1.83 292 11:28 02.07.2022
595 Clear 17 1017 86 10000 1.83 292 10:48 02.07.2022
596 Clear 17 1016 89 10000 1.14 290 09:49 02.07.2022
597 Clear 18 1015 85 10000 1.68 321 08:37 02.07.2022
598 Clouds 18 1015 83 10000 1.33 317 08:18 02.07.2022
599 Clouds 23 1015 61 10000 0.45 202 02:53 02.07.2022
600 Clouds 23 1015 57 10000 0 0 00:27 02.07.2022
601 Clouds 23 1015 61 10000 2.11 10 22:59 01.07.2022
602 Clouds 23 1016 59 10000 3.09 110 22:26 01.07.2022
603 Clouds 23 1016 60 10000 4.12 130 21:37 01.07.2022
604 Clouds 22 1017 60 10000 2.57 140 20:58 01.07.2022
605 Clouds 24 1000 59 10000 6.69 30 19:48 01.07.2022
606 Clouds 25 1000 55 10000 6.69 30 19:22 01.07.2022
607 Clouds 26 1005 56 10000 2.57 250 16:38 01.07.2022
608 Clouds 24 1013 59 10000 3.91 260 14:21 01.07.2022
609 Clouds 23 1013 61 10000 4.12 210 13:23 01.07.2022
610 Clouds 23 1013 61 10000 4.86 252 10:53 01.07.2022
611 Clouds 25 1005 53 10000 4.63 220 10:19 01.07.2022
612 Clouds 27 1000 50 10000 3.6 210 06:20 01.07.2022
613 Clouds 31 1013 38 10000 5.79 213 01:57 01.07.2022
614 Clouds 33 1015 34 10000 1.79 247 23:34 30.06.2022
615 Clouds 33 1016 36 10000 3.13 223 22:47 30.06.2022
616 Clouds 33 1015 37 10000 4.02 213 22:27 30.06.2022
617 Clouds 33 1016 37 10000 8.23 210 21:51 30.06.2022
618 Clouds 32 1017 40 10000 6.69 220 20:45 30.06.2022
619 Clouds 31 1017 42 10000 2.68 231 20:18 30.06.2022
620 Clouds 31 1017 42 10000 7.2 220 19:47 30.06.2022
621 Clouds 30 1018 43 10000 6.69 230 18:49 30.06.2022
622 Clouds 29 1018 46 10000 8.23 230 17:49 30.06.2022
623 Clouds 29 1019 47 10000 8.23 230 17:18 30.06.2022
624 Clouds 26 1012 52 10000 5.66 230 15:56 30.06.2022
625 Clouds 23 1019 64 10000 4.12 210 13:58 30.06.2022
626 Clouds 22 1020 67 10000 4.12 210 13:19 30.06.2022
627 Clouds 22 1020 69 10000 3.6 210 12:33 30.06.2022
628 Clear 23 1021 70 10000 0.45 237 10:49 30.06.2022
629 Clear 24 1021 68 10000 1.34 233 09:47 30.06.2022
630 Clear 25 1010 65 10000 4.46 218 08:31 30.06.2022
631 Clear 24 1013 65 10000 2.57 200 07:41 30.06.2022
632 Clear 25 1021 61 10000 0.45 202 03:53 30.06.2022
633 Clouds 28 1013 51 10000 4.12 70 23:39 29.06.2022
634 Clouds 28 1013 49 10000 5.14 90 22:42 29.06.2022
635 Clouds 29 1013 48 10000 5.14 90 22:19 29.06.2022
636 Clouds 29 1022 45 10000 3.58 109 20:35 29.06.2022
637 Clouds 29 1022 44 10000 3.13 81 19:57 29.06.2022
638 Clouds 28 1023 46 10000 2.57 260 18:46 29.06.2022
639 Clouds 26 1013 49 10000 5.14 280 17:38 29.06.2022
640 Clear 25 1005 54 10000 1.79 285 16:24 29.06.2022
641 Clouds 20 1021 73 10000 4.12 210 13:52 29.06.2022
642 Clouds 19 1021 82 10000 4 239 12:38 29.06.2022
643 Clouds 21 1021 61 10000 4.63 220 10:18 29.06.2022
644 Clouds 22 1021 59 10000 4.12 230 09:27 29.06.2022
645 Clear 23 1021 51 10000 3.6 240 06:32 29.06.2022
646 Clouds 25 1012 44 10000 4.63 230 04:44 29.06.2022
647 Clouds 29 1022 33 10000 3.13 292 00:54 29.06.2022
648 Clouds 29 1022 33 10000 2.68 245 00:35 29.06.2022
649 Clouds 30 1021 31 10000 5.14 250 22:52 28.06.2022
650 Clouds 29 1022 32 10000 5.14 250 22:18 28.06.2022
651 Clouds 29 1022 32 10000 5.66 230 21:49 28.06.2022
652 Clouds 29 1023 34 10000 1.34 281 21:29 28.06.2022
653 Clear 28 1024 37 10000 3.36 221 19:56 28.06.2022
654 Clouds 28 1024 37 10000 5.14 250 19:31 28.06.2022
655 Clear 27 1015 43 10000 4.12 220 18:40 28.06.2022
656 Clouds 25 1015 46 10000 4.63 230 17:25 28.06.2022
657 Clear 22 1026 46 10000 1.34 217 15:55 28.06.2022
658 Clouds 19 1025 50 10000 4.12 210 14:52 28.06.2022
659 Clouds 18 1025 54 10000 4.12 210 14:19 28.06.2022
660 Clouds 17 1025 57 10000 4.12 210 13:45 28.06.2022
661 Clear 15 1026 62 10000 0.45 225 12:35 28.06.2022
662 Clear 16 1025 59 10000 0.45 202 10:40 28.06.2022
663 Clear 16 1025 65 10000 2.45 179 08:56 28.06.2022
664 Clear 16 1025 66 10000 2.45 179 08:37 28.06.2022
665 Clear 17 1025 65 10000 2.45 175 07:20 28.06.2022
666 Clouds 20 1024 56 10000 3.6 90 03:55 28.06.2022
667 Clouds 24 1024 43 10000 4.63 90 23:53 27.06.2022
668 Clouds 24 1024 41 10000 4.63 90 23:27 27.06.2022
669 Clouds 24 1024 39 10000 4.12 350 22:25 27.06.2022
670 Clouds 24 1024 37 10000 4.63 340 21:30 27.06.2022
671 Clouds 24 1024 37 10000 6.17 340 20:34 27.06.2022
672 Clouds 23 1025 35 10000 7.2 300 18:52 27.06.2022
673 Clouds 22 1025 39 10000 6.69 310 17:44 27.06.2022
674 Clear 20 1024 43 10000 3.6 340 15:50 27.06.2022
675 Clear 18 1024 52 10000 3.6 330 14:25 27.06.2022
676 Clear 16 1024 61 10000 3.13 355 12:58 27.06.2022
677 Clear 16 1024 62 10000 2.24 334 12:36 27.06.2022
678 Clear 17 1023 61 10000 0.89 292 09:53 27.06.2022
679 Clear 18 1023 58 10000 0.45 292 08:43 27.06.2022
680 Clouds 18 1023 57 10000 4.19 319 07:52 27.06.2022
681 Clouds 20 1023 49 10000 1.34 344 06:28 27.06.2022
682 Clouds 25 1018 42 10000 0.89 309 01:26 27.06.2022
683 Clouds 26 1018 39 10000 8.23 290 23:27 26.06.2022
684 Clear 26 1019 40 10000 4.47 320 21:40 26.06.2022
685 Clouds 26 1018 39 10000 8.23 310 20:33 26.06.2022
686 Clouds 25 1018 46 10000 5.66 280 18:38 26.06.2022
687 Clouds 25 1018 50 10000 5.66 280 18:20 26.06.2022
688 Clouds 23 1017 72 10000 6.17 330 15:37 26.06.2022
689 Clouds 22 1017 82 10000 4.63 300 14:33 26.06.2022
690 Clouds 21 1015 91 10000 4.63 322 13:27 26.06.2022
691 Clouds 21 1017 89 10000 4.63 322 12:37 26.06.2022
692 Clouds 22 1017 85 10000 0.89 296 10:53 26.06.2022
693 Clouds 22 1016 84 10000 2.33 246 10:22 26.06.2022
694 Clouds 23 1016 81 10000 2.61 253 08:36 26.06.2022
695 Clouds 23 1015 76 10000 3.05 178 06:50 26.06.2022
696 Clouds 25 1015 62 10000 0.45 220 00:38 26.06.2022
697 Clouds 25 1014 60 10000 5.66 190 00:19 26.06.2022
698 Clouds 25 1014 63 10000 7.72 180 23:31 25.06.2022
699 Clouds 25 1015 65 10000 9.26 200 22:48 25.06.2022
700 Clouds 24 1015 67 10000 9.26 200 22:25 25.06.2022
701 Clouds 21 1014 83 10000 8.23 180 21:21 25.06.2022
702 Thunderstorm 20 1014 81 10000 8.75 190 20:48 25.06.2022
703 Rain 19 1016 86 4828 7.72 180 20:25 25.06.2022
704 Rain 20 1018 84 10000 0.89 228 18:24 25.06.2022
705 Rain 21 1018 70 10000 3.6 240 17:27 25.06.2022
706 Rain 23 1018 56 10000 4.12 220 16:28 25.06.2022
707 Clouds 23 1017 54 10000 3.09 180 14:43 25.06.2022
708 Clouds 21 1016 57 10000 3.12 170 12:51 25.06.2022
709 Clouds 21 1017 57 10000 3.12 170 12:32 25.06.2022
710 Clouds 22 1017 59 10000 3.27 171 09:35 25.06.2022
711 Clouds 22 1002 58 10000 3.06 170 08:55 25.06.2022
712 Clear 23 1002 58 10000 3.4 157 08:20 25.06.2022
713 Clear 24 1003 55 10000 3.22 146 06:36 25.06.2022
714 Clouds 31 1008 35 10000 4.63 90 01:31 25.06.2022
715 Clouds 32 1017 33 10000 5.66 100 23:58 24.06.2022
716 Clouds 32 1017 32 10000 2.24 116 22:29 24.06.2022
717 Clouds 32 1017 32 10000 2.06 190 21:28 24.06.2022
718 Clouds 32 1018 32 10000 2.68 142 20:24 24.06.2022
719 Clouds 31 1018 33 10000 2.06 280 19:37 24.06.2022
720 Clouds 31 1017 34 10000 2.06 280 19:18 24.06.2022
721 Clouds 30 1007 35 10000 2.06 310 18:31 24.06.2022
722 Clouds 30 1003 34 10000 0.89 57 17:57 24.06.2022
723 Clouds 28 1007 36 10000 3.09 240 16:46 24.06.2022
724 Clouds 23 1001 46 10000 2.57 200 14:50 24.06.2022
725 Clouds 22 1017 51 10000 2.57 200 14:23 24.06.2022
726 Clouds 20 1018 54 10000 0 0 13:41 24.06.2022
727 Clear 18 1018 64 10000 2.45 205 11:41 24.06.2022
728 Clear 18 1017 64 10000 2.34 182 10:36 24.06.2022
729 Clear 19 1017 61 10000 2.29 172 09:42 24.06.2022
730 Clear 19 1017 61 10000 2.25 165 08:53 24.06.2022
731 Clear 19 1018 62 10000 2.17 151 07:57 24.06.2022
732 Clear 20 1018 56 10000 2.07 157 06:43 24.06.2022
733 Clear 21 1018 55 10000 2.29 158 06:20 24.06.2022
734 Clouds 23 1017 46 10000 3.6 110 04:41 24.06.2022
735 Clouds 28 1018 36 10000 5.66 80 23:24 23.06.2022
736 Clouds 28 1018 34 10000 4.63 90 22:42 23.06.2022
737 Clear 28 1019 36 10000 1.79 93 20:59 23.06.2022
738 Clouds 28 1019 36 10000 3.13 90 20:36 23.06.2022
739 Clouds 28 1019 37 10000 4.63 90 19:40 23.06.2022
740 Clouds 27 1019 44 10000 2.57 100 18:26 23.06.2022
741 Clouds 26 1019 47 10000 3.6 100 17:33 23.06.2022
742 Clouds 24 1020 56 10000 3.09 100 16:23 23.06.2022
743 Clouds 23 1019 62 10000 3.6 100 15:25 23.06.2022
744 Clouds 21 1019 66 10000 4.12 50 14:18 23.06.2022
745 Clouds 20 1019 62 10000 1.79 40 11:33 23.06.2022
746 Clouds 20 1017 63 10000 2.57 330 10:40 23.06.2022
747 Clouds 21 1017 67 10000 2.62 1 09:19 23.06.2022
748 Clouds 26 1017 46 10000 3.6 100 03:51 23.06.2022
749 Clouds 31 1016 36 10000 7.72 310 00:27 23.06.2022
750 Clouds 31 1017 32 10000 4.12 290 23:43 22.06.2022
751 Clouds 31 1017 34 10000 4.63 300 22:50 22.06.2022
752 Clouds 31 1018 34 10000 4.12 300 21:27 22.06.2022
753 Clouds 31 1018 32 10000 3.13 48 20:48 22.06.2022
754 Clouds 30 1018 34 10000 3.58 331 20:18 22.06.2022
755 Clouds 29 1019 38 10000 3.6 300 18:57 22.06.2022
756 Clouds 27 1019 43 10000 3.09 320 17:29 22.06.2022
757 Clouds 27 1019 44 10000 4.63 360 16:40 22.06.2022
758 Clouds 26 1019 52 10000 3.92 329 15:28 22.06.2022
759 Clouds 26 1019 53 10000 2.24 12 14:40 22.06.2022
760 Clouds 25 1017 58 10000 3.33 323 13:45 22.06.2022
761 Clouds 26 1018 47 10000 3.6 330 13:23 22.06.2022
762 Clouds 24 1016 86 10000 3.33 306 11:50 22.06.2022
763 Clouds 24 1016 87 10000 3.71 300 10:58 22.06.2022
764 Clouds 24 1016 87 10000 3.71 300 10:58 22.06.2022
765 Clouds 26 1015 85 10000 3.73 299 10:26 22.06.2022
766 Clouds 29 1015 58 10000 3.6 280 08:48 22.06.2022
767 Clouds 30 999 57 10000 5.66 240 06:21 22.06.2022
768 Clouds 34 998 44 10000 6.17 240 01:50 22.06.2022
769 Clouds 36 1015 32 10000 8.23 240 00:56 22.06.2022
770 Clear 36 1016 39 10000 7.72 230 22:40 21.06.2022
771 Clear 35 1017 38 10000 5.66 240 20:40 21.06.2022
772 Clear 34 1018 42 10000 4.63 270 18:53 21.06.2022
773 Clear 32 1019 46 10000 6.69 260 17:42 21.06.2022
774 Clear 27 1002 58 10000 5.66 240 15:21 21.06.2022
775 Clear 23 1009 58 10000 0.45 235 11:56 21.06.2022
776 Clear 24 1009 54 10000 1.79 216 10:27 21.06.2022
777 Clear 25 1003 51 10000 4.59 232 08:51 21.06.2022
778 Clear 25 1017 47 10000 4.63 220 07:35 21.06.2022
779 Clouds 28 1000 37 10000 4.63 230 04:40 21.06.2022
780 Clouds 35 1019 28 10000 6.69 240 23:27 20.06.2022
781 Clouds 34 1019 31 10000 3.6 240 21:59 20.06.2022
782 Clouds 34 1019 32 10000 3.6 240 21:32 20.06.2022
783 Clouds 33 1020 33 10000 5.14 210 20:25 20.06.2022
784 Clear 31 1005 37 10000 0.45 253 18:56 20.06.2022
785 Clouds 29 1021 39 10000 3.09 260 18:24 20.06.2022
786 Clouds 28 1021 41 10000 4.63 220 17:41 20.06.2022
787 Clouds 25 1010 47 10000 5.66 230 16:24 20.06.2022
788 Clouds 22 1014 54 10000 2.57 200 14:36 20.06.2022
789 Clouds 19 1021 60 10000 4.12 210 11:47 20.06.2022
790 Clear 20 1019 57 10000 4.36 230 09:55 20.06.2022
791 Clear 20 1019 53 10000 4.31 227 08:46 20.06.2022
792 Clouds 21 1019 51 10000 4.14 219 07:36 20.06.2022
793 Clouds 24 1020 34 10000 3.34 201 04:30 20.06.2022
794 Clouds 28 1021 32 10000 6.17 250 01:32 20.06.2022
795 Clouds 29 1022 30 10000 4.63 230 23:48 19.06.2022
796 Clouds 29 1023 31 10000 4.12 180 22:20 19.06.2022
797 Clouds 28 1024 32 10000 2.06 0 21:42 19.06.2022
798 Clouds 28 1024 33 10000 5.14 190 20:52 19.06.2022
799 Clouds 27 1025 35 10000 3.6 200 19:49 19.06.2022
800 Clouds 26 1025 38 10000 3.6 200 19:25 19.06.2022
801 Clouds 24 1026 45 10000 4.63 190 18:32 19.06.2022
802 Clouds 23 1026 47 10000 3.6 200 17:43 19.06.2022
803 Clouds 23 1026 47 10000 3.6 200 17:20 19.06.2022
804 Clouds 21 1026 47 10000 3.09 200 16:28 19.06.2022
805 Clouds 19 1026 55 10000 1.34 207 15:35 19.06.2022
806 Clouds 16 1026 63 10000 0.45 247 14:42 19.06.2022
807 Clouds 14 1026 70 10000 0 0 13:52 19.06.2022
808 Clouds 12 1023 80 10000 1.72 192 12:22 19.06.2022
809 Clouds 12 1024 77 10000 0.59 109 10:53 19.06.2022
810 Clouds 12 1026 73 10000 0.37 36 09:31 19.06.2022
811 Clouds 13 1026 70 10000 0.82 67 08:35 19.06.2022
812 Clouds 14 1026 61 10000 0.89 67 07:30 19.06.2022
813 Clouds 15 1026 53 10000 2.68 53 04:27 19.06.2022
814 Clouds 19 1025 42 10000 5.66 30 01:28 19.06.2022
815 Clouds 20 1025 37 10000 5.14 20 00:23 19.06.2022
816 Clouds 21 1026 34 10000 6.17 40 23:35 18.06.2022
817 Clouds 21 1026 33 10000 6.17 20 22:33 18.06.2022
818 Clear 21 1027 39 10000 2.24 56 20:54 18.06.2022
819 Clouds 21 1026 43 10000 5.66 60 20:24 18.06.2022
820 Clouds 21 1026 48 10000 5.66 40 19:21 18.06.2022
821 Clouds 20 1026 50 10000 5.14 360 18:42 18.06.2022
822 Clouds 20 1026 51 10000 5.66 50 17:29 18.06.2022
823 Clouds 19 1026 51 10000 4.63 30 16:20 18.06.2022
824 Clear 18 1025 50 10000 4.12 20 15:18 18.06.2022
825 Clear 17 1024 54 10000 4.63 40 14:41 18.06.2022
826 Clear 16 1023 68 10000 1.34 70 12:46 18.06.2022
827 Clear 16 1023 64 10000 2.68 61 11:29 18.06.2022
828 Clear 17 1023 60 10000 2.24 77 10:25 18.06.2022
829 Clear 18 1022 61 10000 3.58 70 09:19 18.06.2022
830 Clear 18 1022 62 10000 3.13 58 07:58 18.06.2022
831 Clear 20 1021 55 10000 4.47 32 06:24 18.06.2022
832 Clear 25 1018 44 10000 0.45 108 02:53 18.06.2022
833 Clouds 27 1017 42 10000 3.09 50 01:23 18.06.2022
834 Clear 27 1016 43 10000 2.68 88 00:41 18.06.2022
835 Clear 28 1017 40 10000 3.58 92 23:43 17.06.2022
836 Clear 29 1017 39 10000 2.24 48 22:49 17.06.2022
837 Clouds 28 1017 38 10000 4.12 280 20:33 17.06.2022
838 Clouds 28 1017 37 10000 5.14 310 19:25 17.06.2022
839 Clouds 27 1018 38 10000 5.66 330 18:24 17.06.2022
840 Clear 27 1018 39 10000 2.68 324 17:22 17.06.2022
841 Clouds 26 1010 44 10000 4.12 310 16:38 17.06.2022
842 Clear 25 1019 50 10000 1.79 298 15:42 17.06.2022
843 Clouds 23 1018 56 10000 3.09 270 14:46 17.06.2022
844 Clear 22 1018 59 10000 2.24 331 14:18 17.06.2022
845 Clouds 21 1016 63 10000 2.57 280 13:41 17.06.2022
846 Clouds 20 1015 65 10000 2.57 260 12:42 17.06.2022
847 Clear 20 1015 65 10000 3.42 302 11:56 17.06.2022
848 Clear 21 1015 61 10000 2.06 280 11:34 17.06.2022
849 Clear 23 1015 56 10000 3.77 308 09:49 17.06.2022
850 Clear 24 1000 51 10000 4.3 305 08:27 17.06.2022
851 Clear 26 984 46 10000 4.28 304 06:51 17.06.2022
852 Clear 28 983 42 10000 4.93 280 04:49 17.06.2022
853 Clear 31 995 31 10000 8.75 280 02:41 17.06.2022
854 Clear 34 997 28 10000 4.47 295 00:26 17.06.2022
855 Clear 34 1013 27 10000 4.02 297 22:43 16.06.2022
856 Clear 34 1014 25 10000 4.02 278 21:23 16.06.2022
857 Clear 34 1014 23 10000 1.79 280 20:58 16.06.2022
858 Clouds 34 1014 25 10000 6.69 240 20:36 16.06.2022
859 Clear 33 1015 32 10000 2.68 270 19:53 16.06.2022
860 Clouds 31 1004 43 10000 5.66 230 18:27 16.06.2022
861 Clouds 30 1007 49 10000 4.12 240 17:43 16.06.2022
862 Clouds 28 1005 55 10000 4.12 230 16:39 16.06.2022
863 Clouds 25 1004 74 10000 4.12 240 15:24 16.06.2022
864 Clouds 24 1004 85 10000 3.09 240 14:46 16.06.2022
865 Clouds 23 1015 92 10000 2.57 260 13:32 16.06.2022
866 Clouds 23 1014 93 10000 2.42 239 12:36 16.06.2022
867 Clouds 23 1013 92 10000 2.19 238 11:52 16.06.2022
868 Clouds 23 1013 92 10000 2.21 268 10:56 16.06.2022
869 Clouds 24 998 87 10000 2.9 276 10:27 16.06.2022
870 Mist 24 1013 85 3219 4.63 300 09:21 16.06.2022
871 Clouds 25 1002 77 10000 1.34 338 08:30 16.06.2022
872 Clouds 29 994 50 10000 7.2 220 07:26 16.06.2022
873 Clouds 31 1009 50 10000 7.26 210 04:50 16.06.2022
874 Clouds 34 1009 41 10000 7.04 202 02:21 16.06.2022
875 Clouds 34 1009 39 10000 7.04 202 01:42 16.06.2022
876 Clouds 35 1009 37 10000 7.16 202 01:21 16.06.2022
877 Clouds 35 1009 37 10000 7.16 202 01:21 16.06.2022
878 Clear 35 980 38 10000 7.65 202 23:47 15.06.2022
879 Clear 35 980 39 10000 7.65 202 23:47 15.06.2022
880 Clouds 36 1010 41 10000 7.54 206 22:42 15.06.2022
881 Clouds 35 1012 43 10000 6.69 200 21:23 15.06.2022
882 Clouds 34 1013 47 10000 1.79 243 20:45 15.06.2022
883 Clouds 34 1013 48 10000 7.72 240 20:27 15.06.2022
884 Clouds 33 1013 51 10000 6.69 210 19:30 15.06.2022
885 Clouds 32 1003 54 10000 0.89 228 17:56 15.06.2022
886 Clouds 31 1013 56 10000 6.17 220 17:32 15.06.2022
887 Clouds 29 1003 61 10000 5.66 220 15:38 15.06.2022
888 Clouds 27 983 68 10000 4.05 221 14:23 15.06.2022
889 Clouds 27 983 68 10000 4.74 220 12:54 15.06.2022
890 Clear 27 982 69 10000 4.76 221 12:28 15.06.2022
891 Clear 28 982 66 10000 5.08 222 10:27 15.06.2022
892 Clear 28 982 63 10000 5.08 222 09:45 15.06.2022
893 Clear 29 981 60 10000 4.99 211 08:50 15.06.2022
894 Clear 30 981 56 10000 4.94 211 06:36 15.06.2022
895 Clear 30 981 52 10000 5.18 209 04:47 15.06.2022
896 Clear 35 1009 56 10000 5.62 208 01:55 15.06.2022
897 Clear 36 1009 40 10000 8.23 220 00:51 15.06.2022
898 Clear 36 980 42 10000 6.23 215 23:40 14.06.2022
899 Clear 36 980 41 10000 6.02 217 23:21 14.06.2022
900 Clear 36 1010 43 10000 7.2 210 22:23 14.06.2022
901 Clear 36 1010 44 10000 6.17 210 21:40 14.06.2022
902 Clear 36 1011 47 10000 0.89 232 20:56 14.06.2022
903 Clouds 36 1012 50 10000 6.17 240 20:32 14.06.2022
904 Clouds 34 1012 54 10000 5.66 210 19:22 14.06.2022
905 Clouds 33 1011 60 10000 6.17 220 18:25 14.06.2022
906 Clouds 31 1012 66 10000 5.14 220 16:49 14.06.2022
907 Clouds 29 995 68 10000 4.63 210 15:50 14.06.2022
908 Clouds 29 995 68 10000 4.63 210 15:31 14.06.2022
909 Clouds 26 995 82 10000 4.12 210 14:40 14.06.2022
910 Clouds 24 1001 87 10000 3.6 200 13:46 14.06.2022
911 Clouds 23 1000 83 10000 2.06 190 12:48 14.06.2022
912 Clouds 22 1003 83 10000 0 0 11:46 14.06.2022
913 Clouds 23 1002 83 10000 2.06 350 10:49 14.06.2022
914 Clouds 23 1002 83 10000 2.06 350 10:49 14.06.2022
915 Clouds 23 1002 83 10000 2.06 350 10:24 14.06.2022
916 Clouds 24 1002 84 10000 0.45 353 08:49 14.06.2022
917 Clouds 23 999 87 10000 1.54 160 07:50 14.06.2022
918 Clouds 23 995 85 10000 2.33 212 05:56 14.06.2022
919 Clouds 25 999 83 10000 8.23 150 03:20 14.06.2022
920 Clouds 24 1007 97 121 5.68 81 01:31 14.06.2022
921 Clouds 31 1009 58 10000 3.09 60 23:48 13.06.2022
922 Clouds 26 1010 71 10000 4.63 110 22:27 13.06.2022
923 Clouds 26 1010 71 10000 2.68 38 21:59 13.06.2022
924 Clouds 30 1012 64 10000 4.12 100 20:43 13.06.2022
925 Clouds 29 1012 62 10000 5.14 110 19:39 13.06.2022
926 Clouds 28 1004 61 10000 4.12 120 18:36 13.06.2022
927 Clouds 27 1005 61 10000 3.6 110 17:48 13.06.2022
928 Clouds 25 1005 63 10000 3.6 110 17:18 13.06.2022
929 Clouds 22 1004 66 10000 0.89 160 15:53 13.06.2022
930 Clouds 18 1013 69 10000 3.6 100 14:47 13.06.2022
931 Clouds 16 1014 75 10000 2.8 83 13:59 13.06.2022
932 Clouds 15 1015 76 10000 0.89 67 12:59 13.06.2022
933 Clouds 15 1014 72 10000 0.89 52 11:45 13.06.2022
934 Clouds 15 1015 71 10000 0.45 88 10:34 13.06.2022
935 Clouds 14 1015 71 10000 1.79 37 09:42 13.06.2022
936 Clear 14 1014 69 10000 0.89 22 08:27 13.06.2022
937 Clear 14 1014 69 10000 1.79 87 06:34 13.06.2022
938 Clouds 15 1013 69 10000 5.14 40 04:23 13.06.2022
939 Clouds 18 1012 69 10000 4.63 20 01:44 13.06.2022
940 Clouds 18 1012 69 10000 4.63 20 01:18 13.06.2022
941 Clouds 19 1012 68 10000 5.14 10 23:37 12.06.2022
942 Clouds 20 1012 70 10000 5.14 30 22:29 12.06.2022
943 Clouds 20 1012 69 10000 5.14 30 21:45 12.06.2022
944 Clouds 19 1013 71 10000 3.6 30 20:49 12.06.2022
945 Clouds 18 1013 75 10000 6.17 40 19:43 12.06.2022
946 Clouds 16 1013 81 10000 5.66 50 18:53 12.06.2022
947 Clouds 16 1013 77 10000 4.63 30 17:20 12.06.2022
948 Clouds 17 1012 85 10000 5.14 40 15:34 12.06.2022
949 Clouds 18 1011 84 10000 2.24 39 14:50 12.06.2022
950 Clouds 19 1009 86 10000 1.54 40 14:18 12.06.2022
951 Clouds 19 1010 87 10000 0 0 13:44 12.06.2022
952 Clouds 18 1008 91 10000 1.6 41 12:22 12.06.2022
953 Clouds 18 1010 89 10000 1.58 2 10:46 12.06.2022
954 Clouds 18 1007 88 10000 0.93 296 09:37 12.06.2022
955 Clouds 18 1007 85 10000 0.93 296 08:50 12.06.2022
956 Clouds 19 1008 82 10000 1.83 177 07:51 12.06.2022
957 Clouds 19 1007 79 10000 0.92 124 06:27 12.06.2022
958 Clouds 22 1007 71 10000 0.53 232 03:44 12.06.2022
959 Clouds 23 1009 68 10000 0.89 249 02:25 12.06.2022
960 Clouds 23 1009 68 10000 0.45 247 01:35 12.06.2022
961 Clouds 23 1008 66 10000 1.34 270 00:44 12.06.2022
962 Clouds 23 1009 64 10000 0.45 247 00:18 12.06.2022
963 Clouds 23 1010 65 10000 1.34 234 23:18 11.06.2022
964 Clouds 23 1009 64 10000 4.63 220 22:35 11.06.2022
965 Clouds 23 1010 64 10000 3.6 190 21:18 11.06.2022
966 Clouds 23 1011 65 10000 5.14 210 20:26 11.06.2022
967 Clouds 22 1011 66 10000 5.66 220 19:36 11.06.2022
968 Clouds 22 1012 64 10000 4.63 200 18:44 11.06.2022
969 Clouds 22 1012 65 10000 2.24 220 18:25 11.06.2022
970 Clouds 21 1012 66 10000 3.09 190 17:47 11.06.2022
971 Clouds 21 1012 67 10000 3.09 190 17:25 11.06.2022
972 Clouds 20 1013 69 10000 3.6 210 16:42 11.06.2022
973 Clouds 19 1014 74 10000 0.45 202 15:57 11.06.2022
974 Mist 17 1013 86 8047 2.57 220 14:43 11.06.2022
975 Mist 16 1013 89 2414 2.57 220 13:50 11.06.2022
976 Clouds 15 1012 88 10000 2.06 200 11:55 11.06.2022
977 Clouds 15 1013 86 10000 2.57 220 10:30 11.06.2022
978 Clouds 15 1013 87 10000 3.09 210 09:41 11.06.2022
979 Clouds 15 1014 86 10000 2.96 225 08:37 11.06.2022
980 Clouds 16 1015 83 10000 2.52 233 06:33 11.06.2022
981 Clouds 15 1012 82 10000 3.37 243 05:33 11.06.2022
982 Clouds 19 1014 72 10000 1.79 270 02:55 11.06.2022
983 Clouds 19 1013 75 10000 4.12 280 01:41 11.06.2022
984 Clouds 19 1014 76 10000 0.45 282 00:55 11.06.2022
985 Clouds 21 1013 60 10000 0.45 45 23:25 10.06.2022
986 Clouds 21 1014 60 10000 5.14 350 22:20 10.06.2022
987 Clouds 21 1014 61 10000 2.24 10 21:22 10.06.2022
988 Clouds 22 1014 43 10000 4.47 19 20:37 10.06.2022
989 Clouds 25 1013 33 10000 3.6 230 20:19 10.06.2022
990 Clouds 26 1013 29 10000 3.6 250 19:19 10.06.2022
991 Clouds 25 1013 34 10000 5.14 250 18:29 10.06.2022
992 Clouds 24 1014 39 10000 4.12 230 17:43 10.06.2022
993 Clouds 24 1014 43 10000 4.12 230 17:21 10.06.2022
994 Clouds 23 1014 42 10000 4.63 200 16:25 10.06.2022
995 Clouds 22 1014 47 10000 2.57 220 15:37 10.06.2022
996 Clouds 16 1015 66 10000 1.17 267 13:57 10.06.2022
997 Clouds 14 1015 71 10000 3.09 220 12:51 10.06.2022
998 Clouds 14 1014 67 10000 1.54 220 11:53 10.06.2022
999 Clouds 14 1015 71 10000 1.54 282 10:45 10.06.2022
1000 Clouds 15 1015 71 10000 1.49 256 09:54 10.06.2022
1001 Clouds 15 1016 71 10000 1.58 252 08:42 10.06.2022
1002 Clouds 16 1016 68 10000 1.94 214 07:30 10.06.2022
1003 Clouds 16 1016 68 10000 1.95 207 06:45 10.06.2022
1004 Clouds 17 1017 65 10000 1.83 196 06:26 10.06.2022
1005 Clouds 20 1016 54 10000 1.6 121 03:56 10.06.2022
1006 Clouds 23 1015 45 10000 1.79 96 01:42 10.06.2022
1007 Clouds 25 1014 35 10000 3.58 340 00:32 10.06.2022
1008 Clouds 25 1014 33 10000 2.68 342 23:47 09.06.2022
1009 Clouds 25 1015 34 10000 6.69 280 22:18 09.06.2022
1010 Clouds 25 1015 35 10000 5.66 290 21:37 09.06.2022
1011 Clouds 25 1015 39 10000 6.69 310 20:55 09.06.2022
1012 Clouds 24 1015 40 10000 6.69 310 20:21 09.06.2022
1013 Clouds 23 1016 51 10000 5.66 260 19:29 09.06.2022
1014 Clouds 22 1016 57 10000 7.72 250 18:34 09.06.2022
1015 Clouds 19 1017 67 10000 2.24 251 16:56 09.06.2022
1016 Clouds 17 1017 74 10000 0.89 274 15:54 09.06.2022
1017 Clouds 13 1015 89 10000 3.09 230 14:38 09.06.2022
1018 Clear 12 1015 93 10000 2.47 262 13:55 09.06.2022
1019 Clouds 11 1016 92 10000 1.54 250 13:28 09.06.2022
1020 Clouds 11 1015 90 10000 0 0 12:21 09.06.2022
1021 Clouds 11 1015 89 10000 2.06 290 11:19 09.06.2022
1022 Clouds 12 1015 87 10000 0.89 12 09:50 09.06.2022
1023 Clouds 12 1015 88 10000 2.68 20 09:31 09.06.2022
1024 Clouds 13 1015 89 10000 3.03 343 07:56 09.06.2022
1025 Clouds 13 1015 88 10000 2.24 19 06:41 09.06.2022
1026 Clouds 14 1013 86 10000 3.58 30 03:22 09.06.2022
1027 Clouds 16 1010 84 10000 4.63 90 23:49 08.06.2022
1028 Clouds 15 1010 91 10000 1.79 129 22:58 08.06.2022
1029 Rain 14 1010 90 10000 5.66 60 22:27 08.06.2022
1030 Thunderstorm 14 1012 90 4828 6.17 40 21:56 08.06.2022
1031 Rain 15 1012 88 2773 1.79 33 21:23 08.06.2022
1032 Rain 16 1013 77 3568 3.13 52 20:22 08.06.2022
1033 Clouds 17 1010 72 4400 1.12 134 19:39 08.06.2022
1034 Clouds 18 1010 69 4400 1.12 134 18:47 08.06.2022
1035 Clouds 20 1012 52 10000 5.14 150 17:25 08.06.2022
1036 Clouds 18 1012 51 10000 3.6 170 15:48 08.06.2022
1037 Clouds 16 1014 69 10000 3.09 120 13:52 08.06.2022
1038 Clouds 14 1016 84 10000 2.19 141 12:22 08.06.2022
1039 Clouds 14 1015 86 10000 2.19 141 11:33 08.06.2022
1040 Clouds 13 1015 87 10000 0 0 10:20 08.06.2022
1041 Clear 14 1017 86 10000 1.37 151 09:22 08.06.2022
1042 Clear 14 1017 84 10000 1.37 151 08:40 08.06.2022
1043 Clouds 14 1016 80 10000 0.45 135 06:35 08.06.2022
1044 Clouds 16 1016 78 10000 0.45 202 03:58 08.06.2022
1045 Clouds 20 1015 60 10000 2.57 60 00:45 08.06.2022
1046 Clouds 21 1015 59 10000 3.6 90 23:29 07.06.2022
1047 Clouds 20 1015 61 10000 5.14 20 22:45 07.06.2022
1048 Clouds 20 1015 61 10000 5.14 20 22:26 07.06.2022
1049 Clouds 20 1015 63 10000 4.12 70 21:34 07.06.2022
1050 Clear 19 1016 67 10000 1.79 78 20:58 07.06.2022
1051 Clouds 19 1015 69 10000 4.12 40 20:32 07.06.2022
1052 Clouds 17 1015 76 10000 3.13 29 19:45 07.06.2022
1053 Clouds 15 1014 82 10000 6.17 30 18:24 07.06.2022
1054 Clouds 14 1014 87 10000 4.63 30 17:27 07.06.2022
1055 Clouds 13 1013 88 10000 6.17 40 16:43 07.06.2022
1056 Clouds 13 1013 88 10000 4.12 360 15:54 07.06.2022
1057 Clouds 13 1012 87 10000 4.12 360 15:26 07.06.2022
1058 Clouds 14 1012 87 10000 6.17 30 14:51 07.06.2022
1059 Clouds 13 1012 88 10000 3.13 45 14:32 07.06.2022
1060 Clouds 13 1010 92 10000 4.71 357 13:31 07.06.2022
1061 Clouds 13 1011 92 10000 4.71 357 12:52 07.06.2022
1062 Drizzle 13 1009 92 10000 4.63 10 11:47 07.06.2022
1063 Rain 13 1010 91 5434 0.89 16 10:27 07.06.2022
1064 Clouds 14 1009 91 5421 2.24 17 08:50 07.06.2022
1065 Clouds 14 1010 90 10000 3.13 26 07:34 07.06.2022
1066 Clouds 14 1009 89 10000 5.66 360 06:18 07.06.2022
1067 Thunderstorm 19 1007 78 10000 4.92 37 03:31 07.06.2022
1068 Clouds 24 1004 67 10000 2.06 240 00:45 07.06.2022
1069 Clouds 24 1006 65 10000 3.6 200 23:41 06.06.2022
1070 Clouds 24 1007 64 10000 2.24 247 22:53 06.06.2022
1071 Clouds 23 1007 75 10000 1.34 266 21:57 06.06.2022
1072 Rain 20 1007 85 10000 4.63 210 20:42 06.06.2022
1073 Rain 19 1008 85 10000 4.12 210 19:24 06.06.2022
1074 Rain 19 1008 85 10000 3.6 180 18:47 06.06.2022
1075 Rain 19 1009 88 10000 1.79 210 17:57 06.06.2022
1076 Rain 18 1009 86 10000 0.89 243 16:57 06.06.2022
1077 Rain 18 1008 79 8529 1.34 292 15:52 06.06.2022
1078 Clouds 19 1009 64 10000 0.89 292 14:59 06.06.2022
1079 Clouds 20 1006 61 10000 3.09 250 14:18 06.06.2022
1080 Clouds 19 1006 60 10000 2.44 171 13:20 06.06.2022
1081 Clouds 19 1006 54 10000 3.09 190 12:34 06.06.2022
1082 Clouds 18 1006 64 10000 2.57 180 11:47 06.06.2022
1083 Clouds 18 1009 69 10000 1.53 180 09:53 06.06.2022
1084 Clouds 19 1009 66 10000 4.23 167 08:57 06.06.2022
1085 Clouds 18 1009 72 10000 0.89 225 08:28 06.06.2022
1086 Clouds 18 1008 71 10000 0 0 07:20 06.06.2022
1087 Clouds 19 1009 64 10000 2.06 110 04:39 06.06.2022
1088 Clouds 21 1009 57 10000 0.89 95 01:57 06.06.2022
1089 Clouds 22 1010 54 10000 2.68 97 00:57 06.06.2022
1090 Clouds 22 1010 52 10000 4.12 90 00:34 06.06.2022
1091 Clouds 23 1010 51 10000 5.14 80 23:20 05.06.2022
1092 Clouds 23 1010 48 10000 4.63 50 22:26 05.06.2022
1093 Clouds 24 1012 52 10000 4.63 60 20:29 05.06.2022
1094 Clouds 23 1012 52 10000 1.54 190 19:26 05.06.2022
1095 Clouds 22 1012 49 10000 1.54 80 18:20 05.06.2022
1096 Clouds 21 1013 48 10000 3.09 110 17:39 05.06.2022
1097 Clouds 21 1012 49 10000 3.09 110 17:21 05.06.2022
1098 Clouds 20 1013 53 10000 3.6 120 16:47 05.06.2022
1099 Clouds 18 1013 56 10000 3.09 80 15:41 05.06.2022
1100 Clouds 17 1012 61 10000 5.56 99 14:21 05.06.2022
1101 Clouds 16 1012 58 10000 3.75 94 12:23 05.06.2022
1102 Clouds 16 1013 61 10000 4.16 93 11:30 05.06.2022
1103 Clouds 16 1013 64 10000 2.95 92 10:24 05.06.2022
1104 Clouds 15 1015 63 10000 3.6 120 09:44 05.06.2022
1105 Clouds 15 1015 68 10000 0.89 37 08:25 05.06.2022
1106 Clouds 15 1016 66 10000 0.89 51 06:47 05.06.2022
1107 Clouds 16 1015 61 10000 3.6 30 05:20 05.06.2022
1108 Clouds 17 1016 48 10000 2.24 80 02:58 05.06.2022
1109 Clouds 18 1016 49 10000 1.34 70 01:30 05.06.2022
1110 Clouds 19 1016 41 10000 3.6 100 23:43 04.06.2022
1111 Clouds 18 1017 48 10000 4.12 50 21:31 04.06.2022
1112 Clouds 18 1018 54 10000 3.6 50 19:49 04.06.2022
1113 Clouds 19 1017 51 10000 2.57 110 17:50 04.06.2022
1114 Clouds 19 1018 42 10000 2.31 46 16:22 04.06.2022
1115 Clouds 18 1018 46 10000 0 0 15:51 04.06.2022
1116 Clear 16 1016 57 10000 2.25 23 14:22 04.06.2022
1117 Clear 12 1015 74 10000 2.05 52 11:48 04.06.2022
1118 Clear 13 1015 69 10000 2.08 24 10:57 04.06.2022
1119 Clear 13 1015 69 10000 2.08 12 10:20 04.06.2022
1120 Clear 14 1017 58 10000 2.08 12 09:41 04.06.2022
1121 Clear 14 1017 59 10000 2.56 6 08:40 04.06.2022
1122 Clear 15 1016 55 10000 2.93 336 07:27 04.06.2022
1123 Clear 20 1016 39 10000 0.89 160 04:33 04.06.2022
1124 Clear 19 1016 40 10000 0.45 157 04:33 04.06.2022
1125 Clear 20 1016 39 10000 0.89 160 04:33 04.06.2022
1126 Clear 19 1016 40 10000 0.45 157 04:33 04.06.2022
1127 Smoke 27 1013 17 10000 6.17 280 00:48 04.06.2022
1128 Clouds 27 1013 17 10000 7.2 290 23:31 03.06.2022
1129 Clouds 27 1013 19 10000 8.23 290 22:28 03.06.2022
1130 Clear 26 1014 21 10000 4.92 296 20:42 03.06.2022
1131 Clear 26 1014 21 10000 4.92 296 20:42 03.06.2022
1132 Clear 26 1014 23 10000 4.92 290 20:18 03.06.2022
1133 Clouds 24 1014 31 10000 3.6 270 17:32 03.06.2022
1134 Clouds 22 1014 42 10000 3.6 250 16:34 03.06.2022
1135 Clouds 18 1014 52 10000 4.12 250 14:53 03.06.2022
1136 Clouds 16 1015 53 10000 0.89 288 12:52 03.06.2022
1137 Clouds 16 1013 54 10000 2.57 210 10:36 03.06.2022
1138 Clear 16 1013 55 10000 3.6 230 09:37 03.06.2022
1139 Clear 16 1015 60 10000 3.01 245 07:54 03.06.2022
1140 Clear 16 1015 58 10000 2.6 246 07:26 03.06.2022
1141 Clear 17 1015 56 10000 2.65 244 06:31 03.06.2022
1142 Clouds 18 1015 54 10000 2.03 212 04:40 03.06.2022
1143 Clouds 24 1013 35 10000 5.14 280 00:22 03.06.2022
1144 Clouds 24 1013 36 10000 2.57 0 22:35 02.06.2022
1145 Clouds 24 1013 37 10000 4.12 320 21:34 02.06.2022
1146 Clouds 24 1014 39 10000 2.57 320 20:22 02.06.2022
1147 Clouds 23 1014 38 10000 5.14 300 19:42 02.06.2022
1148 Clouds 23 1014 39 10000 5.14 300 19:19 02.06.2022
1149 Clouds 21 1015 56 10000 4.12 300 16:47 02.06.2022
1150 Clouds 20 1015 59 10000 4.12 300 16:27 02.06.2022
1151 Clouds 15 1014 90 10000 2.28 342 13:56 02.06.2022
1152 Clouds 14 1015 90 10000 1.79 0 13:29 02.06.2022
1153 Clouds 15 1015 87 10000 2 356 11:22 02.06.2022
1154 Rain 15 1015 83 10000 1.34 301 10:20 02.06.2022
1155 Clouds 15 1014 82 10000 1.31 333 09:27 02.06.2022
1156 Clouds 15 1016 78 10000 1.71 358 08:26 02.06.2022
1157 Clouds 14 1016 80 10000 2.19 3 06:59 02.06.2022
1158 Clouds 15 1015 74 10000 1.54 110 04:40 02.06.2022
1159 Clouds 17 1015 67 10000 4.12 60 02:30 02.06.2022
1160 Clouds 20 1015 61 10000 3.6 80 23:43 01.06.2022
1161 Clouds 20 1015 61 10000 3.6 80 23:43 01.06.2022
1162 Clouds 20 1015 61 10000 3.6 80 23:43 01.06.2022
1163 Clouds 20 1015 61 10000 3.6 80 23:43 01.06.2022
1164 Clouds 20 1015 61 10000 3.6 80 23:43 01.06.2022
1165 Clouds 20 1015 61 10000 3.6 80 23:43 01.06.2022
1166 Clouds 20 1016 62 10000 3.6 90 22:23 01.06.2022
1167 Clouds 20 1016 63 10000 5.14 100 21:32 01.06.2022
1168 Clouds 21 1016 63 10000 4.63 100 20:40 01.06.2022
1169 Clouds 20 1017 67 10000 3.58 102 19:53 01.06.2022
1170 Clouds 21 1016 64 10000 4.12 40 19:19 01.06.2022
1171 Clouds 20 1016 67 10000 5.14 20 17:44 01.06.2022
1172 Clouds 20 1016 72 10000 5.14 360 16:33 01.06.2022
1173 Clouds 19 1016 79 10000 1.34 356 14:52 01.06.2022
1174 Clouds 20 1015 92 10000 3.94 341 13:45 01.06.2022
1175 Clouds 21 1014 93 10000 1.54 250 12:26 01.06.2022
1176 Mist 22 1014 88 6437 6.17 250 09:40 01.06.2022
1177 Rain 23 1012 80 10000 2.49 276 08:38 01.06.2022
1178 Clouds 24 1013 90 10000 3.25 260 07:22 01.06.2022
1179 Clouds 27 1013 57 10000 4.12 240 05:22 01.06.2022
1180 Clouds 30 1011 68 10000 6.06 211 00:22 01.06.2022
1181 Clouds 29 1012 68 10000 6.35 204 23:26 31.05.2022
1182 Clouds 29 1012 67 10000 6.91 223 22:36 31.05.2022
1183 Clouds 29 1012 56 10000 6.91 223 21:45 31.05.2022
1184 Clouds 28 1012 72 10000 6.1 218 20:45 31.05.2022
1185 Clouds 29 1012 55 10000 6.46 213 19:57 31.05.2022
1186 Clouds 28 1012 57 10000 6.22 210 18:50 31.05.2022
1187 Clouds 28 1012 54 10000 7.72 230 17:50 31.05.2022
1188 Clouds 27 1005 58 10000 7.2 220 16:53 31.05.2022
1189 Clouds 26 1013 62 10000 6.17 210 15:40 31.05.2022
1190 Clouds 23 1013 70 10000 6.69 200 13:52 31.05.2022
1191 Clouds 23 1013 68 10000 4.63 200 12:20 31.05.2022
1192 Clouds 24 1013 66 10000 1.79 227 10:53 31.05.2022
1193 Clouds 25 1012 64 10000 6.22 201 08:49 31.05.2022
1194 Clouds 25 1011 61 10000 6.45 191 07:24 31.05.2022
1195 Clouds 27 981 54 10000 6.76 188 05:19 31.05.2022
1196 Clouds 31 979 41 10000 6.86 183 00:36 31.05.2022
1197 Clouds 32 1009 37 10000 7.64 184 23:26 30.05.2022
1198 Clouds 32 1009 37 10000 7.64 184 22:53 30.05.2022
1199 Clouds 31 1010 36 10000 8.23 200 21:52 30.05.2022
1200 Clouds 31 1011 37 10000 4.02 227 21:32 30.05.2022
1201 Clouds 30 1012 42 10000 3.58 205 20:20 30.05.2022
1202 Clouds 28 1012 49 10000 10.29 200 18:40 30.05.2022
1203 Clouds 27 1012 54 10000 8.23 200 17:35 30.05.2022
1204 Clouds 26 1011 57 10000 8.23 210 16:41 30.05.2022
1205 Clouds 23 1012 65 10000 7.72 200 14:35 30.05.2022
1206 Clouds 21 1012 70 10000 1.79 215 12:24 30.05.2022
1207 Clouds 22 1011 67 10000 7.2 200 10:41 30.05.2022
1208 Clouds 22 1012 67 10000 2.24 224 09:21 30.05.2022
1209 Clouds 23 1011 64 10000 5.66 190 07:18 30.05.2022
1210 Clouds 24 1012 61 10000 2.68 220 05:48 30.05.2022
1211 Clouds 28 1008 46 10000 7.26 178 01:42 30.05.2022
1212 Clouds 29 1011 46 10000 7.11 178 22:57 29.05.2022
1213 Clouds 29 1010 44 10000 7.2 190 22:36 29.05.2022
1214 Clouds 28 1011 47 10000 3.13 225 20:55 29.05.2022
1215 Clouds 27 1010 50 10000 7.72 200 19:33 29.05.2022
1216 Clear 26 1011 55 10000 2.68 210 18:53 29.05.2022
1217 Clouds 23 1011 60 10000 7.72 200 17:31 29.05.2022
1218 Clouds 21 1012 69 10000 7.2 190 15:48 29.05.2022
1219 Clear 20 1012 72 10000 2.68 208 14:58 29.05.2022
1220 Clouds 18 1012 78 10000 2.68 220 13:59 29.05.2022
1221 Clouds 17 1012 81 10000 4.96 181 11:42 29.05.2022
1222 Clouds 18 1012 78 10000 1.34 202 10:39 29.05.2022
1223 Clouds 18 1012 76 10000 2.24 220 09:18 29.05.2022
1224 Clouds 20 1012 67 10000 2.24 200 06:18 29.05.2022
1225 Clouds 20 1011 61 10000 3.6 160 04:45 29.05.2022
1226 Clouds 20 1011 60 10000 1.34 206 03:53 29.05.2022
1227 Clouds 23 1012 48 10000 6.17 160 23:50 28.05.2022
1228 Clouds 23 1012 48 10000 6.17 160 23:26 28.05.2022
1229 Clouds 23 1013 49 10000 4.63 170 22:39 28.05.2022
1230 Clouds 23 1014 50 10000 3.6 190 21:38 28.05.2022
1231 Clouds 22 1015 51 10000 3.09 180 19:51 28.05.2022
1232 Clouds 22 1016 52 10000 0.89 38 18:54 28.05.2022
1233 Clouds 21 1015 56 10000 1.54 0 17:37 28.05.2022
1234 Clouds 19 1015 60 10000 2.06 230 16:43 28.05.2022
1235 Clouds 17 1016 71 10000 1.54 200 15:43 28.05.2022
1236 Clouds 13 1015 89 10000 0.45 225 14:26 28.05.2022
1237 Clouds 9 1017 92 10000 1.17 293 12:57 28.05.2022
1238 Clouds 9 1015 89 10000 0 0 12:35 28.05.2022
1239 Clouds 10 1015 88 10000 2.34 302 11:22 28.05.2022
1240 Clouds 10 1015 89 10000 2.25 308 09:59 28.05.2022
1241 Clouds 10 1015 89 10000 2.16 305 09:21 28.05.2022
1242 Clouds 10 1015 88 10000 2.01 320 07:23 28.05.2022
1243 Clouds 11 1015 88 10000 2.09 345 05:36 28.05.2022
1244 Clouds 15 1013 74 10000 3.09 320 02:52 28.05.2022
1245 Clouds 15 1013 73 10000 3.58 38 00:33 28.05.2022
1246 Clouds 14 1012 74 10000 7.2 360 23:20 27.05.2022
1247 Clouds 14 1012 76 10000 6.71 39 21:46 27.05.2022
1248 Clouds 14 1011 77 10000 8.75 10 20:56 27.05.2022
1249 Clouds 13 1011 80 10000 9.26 350 20:25 27.05.2022
1250 Clouds 13 1011 84 10000 8.23 360 19:48 27.05.2022
1251 Clouds 13 1010 86 10000 8.23 360 19:29 27.05.2022
1252 Clouds 12 1010 91 10000 5.14 10 17:58 27.05.2022
1253 Rain 12 1009 90 10000 5.14 10 16:40 27.05.2022
1254 Rain 12 1009 89 8047 5.66 10 15:33 27.05.2022
1255 Clouds 11 1009 90 10000 5.14 360 14:26 27.05.2022
1256 Clouds 12 1008 90 10000 6.69 10 13:23 27.05.2022
1257 Drizzle 13 1007 90 10000 4.12 360 11:34 27.05.2022
1258 Clouds 14 1007 87 10000 2.68 354 10:57 27.05.2022
1259 Clouds 14 1007 87 10000 3.58 34 10:31 27.05.2022
1260 Clouds 16 1006 86 10000 3.58 26 09:37 27.05.2022
1261 Clouds 17 1008 86 10000 1.27 213 07:55 27.05.2022
1262 Clouds 18 1006 82 10000 1.48 163 05:47 27.05.2022
1263 Clouds 22 1005 63 10000 2.57 180 02:47 27.05.2022
1264 Clouds 25 1006 52 10000 5.66 180 00:29 27.05.2022
1265 Clouds 24 1008 66 10000 5.66 190 22:43 26.05.2022
1266 Clouds 23 1008 74 10000 4.63 160 21:40 26.05.2022
1267 Clouds 23 1009 75 10000 4.12 160 20:59 26.05.2022
1268 Clouds 23 1010 74 10000 0.89 175 19:24 26.05.2022
1269 Clouds 23 1010 74 10000 0.89 175 19:24 26.05.2022
1270 Clouds 23 1010 72 10000 6.17 200 18:18 26.05.2022
1271 Clouds 22 1009 78 10000 4.63 210 16:42 26.05.2022
1272 Clouds 21 1010 83 10000 6.17 200 15:46 26.05.2022
1273 Clouds 20 1011 87 10000 1.79 207 14:46 26.05.2022
1274 Clouds 20 1010 92 10000 4.29 192 12:50 26.05.2022
1275 Clouds 20 1009 90 10000 3.6 190 11:29 26.05.2022
1276 Clouds 20 1009 88 10000 3.6 190 10:19 26.05.2022
1277 Clouds 20 1009 87 10000 4.63 190 09:33 26.05.2022
1278 Clouds 21 1010 85 10000 0.45 241 08:37 26.05.2022
1279 Clouds 22 1010 79 10000 5.14 170 05:22 26.05.2022
1280 Clouds 22 1009 88 5576 5.61 169 00:57 26.05.2022
1281 Clouds 23 1009 67 10000 7.72 170 23:40 25.05.2022
1282 Clouds 23 1010 71 10000 6.69 160 22:29 25.05.2022
1283 Clouds 23 1011 70 10000 6.69 160 21:33 25.05.2022
1284 Clouds 22 1013 81 10000 4.12 170 20:38 25.05.2022
1285 Clouds 19 1014 86 10000 4.63 170 19:31 25.05.2022
1286 Clouds 16 1015 90 10000 4.12 140 17:46 25.05.2022
1287 Clouds 15 1016 89 10000 4.12 120 16:40 25.05.2022
1288 Clouds 14 1016 90 10000 0.45 135 15:57 25.05.2022
1289 Rain 13 1016 89 9656 3.09 90 14:55 25.05.2022
1290 Mist 13 1017 87 9656 3.09 90 14:33 25.05.2022
1291 Rain 13 1018 82 10000 5.28 104 13:56 25.05.2022
1292 Clouds 14 1017 68 10000 3.6 90 12:45 25.05.2022
1293 Clouds 14 1018 67 10000 2.24 110 10:54 25.05.2022
1294 Clouds 14 1018 65 10000 5.14 90 10:18 25.05.2022
1295 Clouds 14 1020 63 10000 1.34 73 08:41 25.05.2022
1296 Clouds 13 1021 62 10000 4.47 95 07:23 25.05.2022
1297 Clouds 12 1022 68 10000 2.68 65 04:23 25.05.2022
1298 Clouds 17 1022 49 10000 7.72 40 00:23 25.05.2022
1299 Clouds 17 1022 47 10000 8.23 60 23:47 24.05.2022
1300 Clouds 17 1022 47 10000 8.23 60 23:47 24.05.2022
1301 Clouds 17 1023 45 10000 8.75 70 22:33 24.05.2022
1302 Clouds 17 1024 47 10000 5.66 50 21:41 24.05.2022
1303 Clouds 17 1024 48 10000 5.66 50 21:21 24.05.2022
1304 Clouds 17 1024 50 10000 7.72 70 20:30 24.05.2022
1305 Clouds 16 1026 58 10000 0.89 90 18:56 24.05.2022
1306 Clouds 15 1026 61 10000 2.24 101 16:58 24.05.2022
1307 Clouds 14 1025 62 10000 3.09 0 16:28 24.05.2022
1308 Clouds 13 1025 67 10000 4.63 100 15:18 24.05.2022
1309 Clouds 12 1026 74 10000 0.45 133 14:25 24.05.2022
1310 Clouds 11 1024 83 10000 3.72 100 13:18 24.05.2022
1311 Clouds 10 1027 79 10000 3.43 103 11:49 24.05.2022
1312 Clouds 10 1025 70 10000 1.34 74 09:47 24.05.2022
1313 Clouds 10 1025 66 10000 1.34 57 08:51 24.05.2022
1314 Clouds 10 1026 64 10000 1.34 56 06:58 24.05.2022
1315 Clouds 11 1027 61 10000 2.68 63 04:59 24.05.2022
1316 Clouds 12 1027 52 10000 1.34 62 02:42 24.05.2022
1317 Clouds 13 1027 48 10000 3.13 67 01:43 24.05.2022
1318 Clouds 15 1027 38 10000 3.58 58 23:44 23.05.2022
1319 Clouds 15 1027 42 10000 7.2 40 22:22 23.05.2022
1320 Clouds 15 1027 44 10000 6.69 90 21:41 23.05.2022
1321 Clouds 15 1029 44 10000 6.69 70 20:45 23.05.2022
1322 Clouds 15 1029 45 10000 6.17 60 19:41 23.05.2022
1323 Clouds 14 1029 49 10000 6.17 60 19:18 23.05.2022
1324 Clouds 14 1030 53 10000 7.2 80 18:37 23.05.2022
1325 Clouds 14 1030 54 10000 6.17 90 17:55 23.05.2022
1326 Clouds 13 1031 55 10000 1.79 128 15:53 23.05.2022
1327 Clouds 10 1029 73 10000 2.06 350 13:44 23.05.2022
1328 Clouds 8 1031 75 10000 2.11 44 11:40 23.05.2022
1329 Clouds 9 1031 72 10000 1.79 46 10:44 23.05.2022
1330 Clouds 9 1030 61 10000 0.89 67 09:45 23.05.2022
1331 Clouds 9 1028 71 10000 1.55 104 08:44 23.05.2022
1332 Clouds 10 1030 62 10000 0.45 157 06:49 23.05.2022
1333 Clouds 10 1030 61 10000 1.37 127 06:31 23.05.2022
1334 Clouds 13 1028 50 10000 1.34 105 02:55 23.05.2022
1335 Clouds 15 1027 47 10000 4.12 90 01:50 23.05.2022
1336 Clouds 15 1027 47 10000 4.12 90 01:23 23.05.2022
1337 Clouds 17 1028 37 10000 3.09 300 22:49 22.05.2022
1338 Clouds 17 1028 38 10000 3.09 300 22:22 22.05.2022
1339 Clouds 17 1028 40 10000 4.63 330 21:51 22.05.2022
1340 Clouds 16 1027 40 10000 4.12 290 20:43 22.05.2022
1341 Clouds 16 1027 39 10000 4.12 290 20:20 22.05.2022
1342 Clouds 16 1027 40 10000 4.02 315 18:58 22.05.2022
1343 Clouds 16 1026 38 10000 4.63 360 18:37 22.05.2022
1344 Clouds 15 1026 39 10000 4.63 360 18:19 22.05.2022
1345 Clouds 14 1025 42 10000 6.17 330 16:51 22.05.2022
1346 Clouds 13 1025 57 10000 5.66 330 15:24 22.05.2022
1347 Clouds 12 1024 64 10000 4.63 310 14:44 22.05.2022
1348 Clouds 11 1023 72 10000 2.24 329 12:54 22.05.2022
1349 Clouds 11 1022 72 10000 1.79 328 12:31 22.05.2022
1350 Clouds 13 1021 69 10000 2.68 349 10:45 22.05.2022
1351 Clouds 13 1020 83 10000 2.24 307 09:29 22.05.2022
1352 Clouds 14 1021 87 10000 3.34 320 07:49 22.05.2022
1353 Clouds 14 1021 87 10000 2.41 328 07:20 22.05.2022
1354 Clouds 14 1020 83 10000 0.45 147 04:19 22.05.2022
1355 Clouds 15 1018 78 10000 4.39 4 01:19 22.05.2022
1356 Clouds 14 1017 84 10000 0.89 60 23:57 21.05.2022
1357 Clouds 14 1017 80 10000 3.09 360 23:29 21.05.2022
1358 Clouds 13 1016 60 10000 2.1 356 21:59 21.05.2022
1359 Rain 13 1018 82 10000 3.6 300 21:38 21.05.2022
1360 Rain 15 1018 77 10000 0 0 20:48 21.05.2022
1361 Rain 15 1016 60 10000 2.81 49 19:59 21.05.2022
1362 Rain 14 1014 60 10000 4.42 27 19:21 21.05.2022
1363 Clouds 16 1017 78 10000 2.84 352 17:29 21.05.2022
1364 Clouds 14 1015 88 10000 2.25 251 14:58 21.05.2022
1365 Clouds 14 1014 86 10000 0.45 290 14:24 21.05.2022
1366 Clouds 14 1014 91 10000 2.59 251 13:34 21.05.2022
1367 Rain 14 1013 88 10000 2.12 286 12:39 21.05.2022
1368 Clouds 15 1013 94 10000 1.05 339 11:52 21.05.2022
1369 Clouds 15 1011 93 10000 2.35 36 10:22 21.05.2022
1370 Clouds 15 1010 93 10000 3.33 11 09:18 21.05.2022
1371 Thunderstorm 15 1010 92 8047 2.06 40 08:39 21.05.2022
1372 Rain 16 1008 87 10000 2.24 97 06:21 21.05.2022
1373 Clouds 21 1002 71 10000 7.72 320 02:23 21.05.2022
1374 Clouds 30 998 53 10000 9.26 230 23:42 20.05.2022
1375 Clouds 29 999 54 10000 11.83 230 22:41 20.05.2022
1376 Clouds 28 991 56 10000 11.83 230 22:18 20.05.2022
1377 Clouds 28 991 57 10000 8.23 210 21:19 20.05.2022
1378 Clouds 27 998 61 10000 8.75 210 20:51 20.05.2022
1379 Clouds 27 998 62 10000 11.83 210 19:54 20.05.2022
1380 Clouds 26 998 66 10000 8.23 250 18:58 20.05.2022
1381 Clouds 26 990 64 10000 8.23 250 18:24 20.05.2022
1382 Clouds 25 999 69 10000 6.69 210 16:28 20.05.2022
1383 Clouds 24 999 74 10000 1.34 238 15:54 20.05.2022
1384 Clouds 23 998 76 10000 5.14 200 15:32 20.05.2022
1385 Clouds 20 999 84 10000 4.63 200 14:27 20.05.2022
1386 Clouds 18 999 89 10000 4.23 189 12:45 20.05.2022
1387 Clouds 19 999 82 10000 2.24 228 10:48 20.05.2022
1388 Clouds 19 999 78 10000 2.24 230 09:32 20.05.2022
1389 Clouds 20 999 73 10000 2.68 220 08:37 20.05.2022
1390 Clouds 22 999 66 10000 1.79 237 06:44 20.05.2022
1391 Clouds 23 1000 60 10000 4.26 205 05:52 20.05.2022
1392 Clouds 28 998 29 10000 7.2 170 02:53 20.05.2022
1393 Clouds 30 1001 35 10000 6.69 200 23:47 19.05.2022
1394 Clouds 30 1002 37 10000 6.17 210 22:39 19.05.2022
1395 Clouds 29 1003 39 10000 5.14 200 21:52 19.05.2022
1396 Clouds 28 1003 39 10000 5.14 200 21:24 19.05.2022
1397 Clouds 28 1005 49 10000 2.24 231 20:53 19.05.2022
1398 Clouds 27 1005 57 10000 0.89 174 19:57 19.05.2022
1399 Clouds 26 1005 58 10000 4.12 190 19:19 19.05.2022
1400 Clouds 23 998 66 10000 3.09 210 17:47 19.05.2022
1401 Clouds 23 998 66 10000 3.09 210 17:47 19.05.2022
1402 Mist 18 1007 80 8047 5.66 230 16:22 19.05.2022
1403 Mist 15 1007 90 3219 5.14 170 14:50 19.05.2022
1404 Mist 14 1007 92 3219 5.14 170 14:21 19.05.2022
1405 Mist 14 1008 91 3219 5.14 170 14:21 19.05.2022
1406 Mist 13 1008 92 4828 2.06 120 12:19 19.05.2022
1407 Clouds 12 1010 93 10000 3.02 221 10:35 19.05.2022
1408 Clouds 12 1010 91 10000 1.77 225 08:51 19.05.2022
1409 Clouds 12 1010 89 10000 1.55 282 07:33 19.05.2022
1410 Clouds 14 1009 83 10000 2.57 310 04:38 19.05.2022
1411 Clouds 15 1009 82 10000 2.57 340 01:38 19.05.2022
1412 Mist 15 1009 83 9656 2.57 360 23:49 18.05.2022
1413 Mist 14 1009 85 9656 2.06 340 22:45 18.05.2022
1414 Mist 14 1009 87 9656 2.06 40 21:45 18.05.2022
1415 Mist 13 1009 87 9656 2.06 40 21:24 18.05.2022
1416 Rain 12 1010 90 10000 3.09 40 20:23 18.05.2022
1417 Rain 12 1011 89 10000 2.06 60 19:32 18.05.2022
1418 Rain 11 1012 87 10000 4.41 112 18:20 18.05.2022
1419 Rain 11 1013 85 6437 3.6 40 17:41 18.05.2022
1420 Rain 12 1013 85 6437 3.6 40 17:22 18.05.2022
1421 Clouds 12 1014 76 10000 1.34 136 15:58 18.05.2022
1422 Clouds 12 1012 78 10000 5.14 70 15:37 18.05.2022
1423 Mist 12 1013 80 9656 5.14 90 14:25 18.05.2022
1424 Clouds 13 1015 62 10000 1.34 78 12:59 18.05.2022
1425 Clouds 13 1015 59 10000 3.09 80 12:39 18.05.2022
1426 Clouds 13 1015 64 10000 3.6 120 11:33 18.05.2022
1427 Clouds 13 1015 64 10000 2.57 110 10:49 18.05.2022
1428 Clouds 13 1016 58 10000 3.6 90 08:27 18.05.2022
1429 Clouds 13 1017 61 10000 3.09 70 07:28 18.05.2022
1430 Clouds 13 1018 60 10000 4.63 80 04:33 18.05.2022
1431 Rain 13 1018 53 10000 5.14 100 00:52 18.05.2022
1432 Clouds 15 1019 44 10000 6.69 90 23:41 17.05.2022
1433 Clouds 17 1019 41 10000 4.63 70 21:23 17.05.2022
1434 Clouds 18 1019 39 10000 5.14 80 20:44 17.05.2022
1435 Clouds 18 1020 39 10000 3.13 90 19:45 17.05.2022
1436 Clouds 18 1020 38 10000 3.09 60 19:24 17.05.2022
1437 Clouds 17 1020 41 10000 4.63 60 17:49 17.05.2022
1438 Clouds 16 1021 43 10000 1.79 100 16:58 17.05.2022
1439 Clouds 15 1019 46 10000 4.12 70 16:24 17.05.2022
1440 Clouds 13 1018 56 10000 4.63 60 14:56 17.05.2022
1441 Clouds 12 1018 59 10000 4.63 60 14:29 17.05.2022
1442 Clear 11 1018 64 10000 2.68 74 13:30 17.05.2022
1443 Clear 12 1016 65 10000 2.24 29 10:42 17.05.2022
1444 Clear 15 1013 52 10000 5.02 5 08:53 17.05.2022
1445 Clouds 16 1014 46 10000 3.91 0 07:56 17.05.2022
1446 Clouds 18 1012 42 10000 3.09 290 06:26 17.05.2022
1447 Clouds 24 1010 29 10000 3.13 343 01:59 17.05.2022
1448 Clouds 25 1010 29 10000 6.64 307 23:59 16.05.2022
1449 Clouds 25 1011 27 10000 7.2 290 22:40 16.05.2022
1450 Clouds 24 1012 28 10000 3.13 326 21:31 16.05.2022
1451 Clouds 24 1012 27 10000 8.23 290 20:43 16.05.2022
1452 Clouds 24 1012 33 10000 7.72 310 18:53 16.05.2022
1453 Clear 22 1012 38 10000 4.12 320 17:26 16.05.2022
1454 Clouds 18 1012 56 10000 3.6 290 15:36 16.05.2022
1455 Clouds 13 1012 78 10000 4.12 280 13:48 16.05.2022
1456 Clouds 12 1011 81 10000 0.45 270 12:44 16.05.2022
1457 Clouds 13 1011 80 10000 4.63 280 10:38 16.05.2022
1458 Clouds 14 1012 78 10000 4.12 210 08:37 16.05.2022
1459 Clouds 16 1013 76 10000 3.09 220 06:30 16.05.2022
1460 Clouds 19 1013 53 10000 3.13 332 01:44 16.05.2022
1461 Clouds 21 1013 47 10000 0.45 314 22:52 15.05.2022
1462 Rain 21 1014 48 10000 0.89 315 22:25 15.05.2022
1463 Rain 20 1015 48 10000 0.45 22 21:38 15.05.2022
1464 Clouds 20 1014 48 10000 1.34 75 20:53 15.05.2022
1465 Clouds 24 1014 38 10000 3.6 10 18:53 15.05.2022
1466 Clouds 24 1014 41 10000 2.06 0 17:45 15.05.2022
1467 Clouds 21 1013 57 10000 4.16 350 15:26 15.05.2022
1468 Clouds 20 1013 68 10000 2.06 260 13:47 15.05.2022
1469 Clouds 20 1013 65 10000 1.54 250 12:22 15.05.2022
1470 Clouds 20 1013 67 10000 2.57 210 11:29 15.05.2022
1471 Clouds 19 1013 68 10000 3.09 210 10:20 15.05.2022
1472 Clouds 19 1014 64 10000 3.15 204 07:36 15.05.2022
1473 Clouds 20 1015 64 10000 3.09 170 06:57 15.05.2022
1474 Clouds 21 1014 59 10000 2.06 140 04:26 15.05.2022
1475 Clouds 27 1012 44 10000 2.57 120 00:47 15.05.2022
1476 Clouds 28 1013 44 10000 2.57 110 23:38 14.05.2022
1477 Clouds 28 1012 43 10000 4.63 110 22:41 14.05.2022
1478 Clouds 28 1014 41 10000 3.13 75 21:27 14.05.2022
1479 Clouds 28 1014 41 10000 3.6 100 20:30 14.05.2022
1480 Clouds 27 1015 45 10000 4.63 100 19:21 14.05.2022
1481 Clouds 27 1016 48 10000 2.24 61 18:59 14.05.2022
1482 Clouds 26 1016 51 10000 1.79 45 17:53 14.05.2022
1483 Clouds 24 1014 58 10000 2.73 355 16:23 14.05.2022
1484 Clouds 22 1014 65 10000 3.09 300 14:50 14.05.2022
1485 Clouds 21 1014 68 10000 3.09 300 14:26 14.05.2022
1486 Clouds 19 1013 76 10000 1.92 6 12:18 14.05.2022
1487 Clouds 19 1013 75 10000 1.59 9 10:53 14.05.2022
1488 Clouds 19 1013 73 10000 0.74 109 10:20 14.05.2022
1489 Clouds 20 1013 71 10000 0.74 109 09:46 14.05.2022
1490 Clouds 22 1013 63 10000 3.2 312 07:59 14.05.2022
1491 Clouds 26 1012 45 10000 3.81 191 05:21 14.05.2022
1492 Clouds 30 1010 35 10000 4.73 163 01:57 14.05.2022
1493 Clouds 32 1013 29 10000 4.12 160 23:31 13.05.2022
1494 Clouds 32 1014 30 10000 4.91 156 22:56 13.05.2022
1495 Clouds 32 1014 28 10000 4.63 130 22:22 13.05.2022
1496 Clouds 32 1015 31 10000 4.63 160 21:24 13.05.2022
1497 Clouds 31 1015 33 10000 5.66 170 20:43 13.05.2022
1498 Clouds 31 1015 31 10000 5.66 170 20:22 13.05.2022
1499 Clouds 31 1016 34 10000 4.12 170 19:19 13.05.2022
1500 Clouds 29 1017 36 10000 4.12 200 17:50 13.05.2022
1501 Clouds 28 1016 39 10000 4.12 200 17:24 13.05.2022
1502 Clouds 25 1016 45 10000 1.79 225 15:53 13.05.2022
1503 Clouds 23 1017 47 10000 4.12 170 14:47 13.05.2022
1504 Clouds 20 1015 51 10000 4.14 177 12:54 13.05.2022
1505 Clear 21 1017 47 10000 2.57 180 12:25 13.05.2022
1506 Clear 22 1016 45 10000 2.57 160 10:35 13.05.2022
1507 Clouds 23 1017 42 10000 3.09 160 09:29 13.05.2022
1508 Clouds 23 1017 40 10000 5.15 166 08:20 13.05.2022
1509 Clouds 24 1017 36 10000 5.01 168 07:30 13.05.2022
1510 Clouds 27 1016 29 10000 4.63 140 05:46 13.05.2022
1511 Clouds 32 1015 25 10000 6.69 150 01:48 13.05.2022
1512 Clouds 34 1016 33 10000 5.14 190 23:43 12.05.2022
1513 Clouds 33 1017 34 10000 5.14 180 22:42 12.05.2022
1514 Clouds 33 1017 38 10000 6.17 170 21:36 12.05.2022
1515 Clouds 33 1018 42 10000 7.72 170 20:22 12.05.2022
1516 Clear 31 1019 46 10000 6.17 160 18:30 12.05.2022
1517 Clouds 29 1019 52 10000 5.66 180 16:52 12.05.2022
1518 Clouds 26 1019 65 10000 5.66 170 15:30 12.05.2022
1519 Clouds 23 1019 77 10000 4.09 164 13:59 12.05.2022
1520 Clouds 23 1019 77 10000 3.09 170 13:21 12.05.2022
1521 Clouds 24 1019 72 10000 4.63 150 10:35 12.05.2022
1522 Clouds 25 1018 75 10000 3.8 161 08:58 12.05.2022
1523 Clouds 25 1020 70 10000 2.57 160 08:39 12.05.2022
1524 Clouds 26 1019 68 10000 4.12 170 07:37 12.05.2022
1525 Clouds 24 1019 72 10000 2.06 140 05:30 12.05.2022
1526 Clouds 26 1011 64 10000 4.63 100 02:21 12.05.2022
1527 Clouds 31 1020 56 9436 1.34 137 23:55 11.05.2022
1528 Clouds 31 1020 59 10000 7.2 110 22:29 11.05.2022
1529 Clouds 32 1021 57 10000 6.17 90 21:29 11.05.2022
1530 Clouds 32 1021 58 10000 6.17 100 20:48 11.05.2022
1531 Clouds 31 1021 63 10000 2.9 139 17:56 11.05.2022
1532 Clouds 28 1021 66 10000 2.57 200 16:49 11.05.2022
1533 Clouds 25 1020 78 10000 3.09 210 14:50 11.05.2022
1534 Clouds 24 1020 81 10000 3.09 210 14:26 11.05.2022
1535 Clouds 23 1020 83 10000 2.87 191 13:44 11.05.2022
1536 Clouds 24 1019 79 10000 3.6 170 11:50 11.05.2022
1537 Clouds 25 1018 77 10000 3.22 184 09:39 11.05.2022
1538 Clouds 25 1018 90 10000 3.46 185 07:52 11.05.2022
1539 Clouds 27 1017 61 10000 3.6 180 04:43 11.05.2022
1540 Clouds 32 1016 54 10000 6.17 180 23:48 10.05.2022
1541 Clouds 32 1016 55 10000 5.66 190 22:30 10.05.2022
1542 Clouds 31 1016 57 10000 5.14 180 21:45 10.05.2022
1543 Clouds 30 1017 56 10000 4.63 170 20:48 10.05.2022
1544 Clouds 29 1017 62 10000 6.17 190 19:25 10.05.2022
1545 Clouds 26 1018 67 10000 4.63 200 17:44 10.05.2022
1546 Clouds 24 1018 71 10000 6.17 200 16:39 10.05.2022
1547 Clouds 20 1017 78 10000 1.79 211 13:59 10.05.2022
1548 Clouds 20 1017 77 10000 3.13 208 12:36 10.05.2022
1549 Clouds 20 1017 76 10000 1.34 221 11:49 10.05.2022
1550 Clouds 21 1017 75 10000 2.68 206 11:18 10.05.2022
1551 Clouds 21 1017 75 10000 2.68 206 11:18 10.05.2022
1552 Clouds 21 1017 73 10000 1.79 214 09:52 10.05.2022
1553 Clouds 21 1017 74 10000 5.51 176 09:18 10.05.2022
1554 Clouds 23 1014 65 10000 6.84 177 06:35 10.05.2022
1555 Clear 27 1010 42 10000 12.35 170 02:48 10.05.2022
1556 Clouds 28 1010 39 10000 9.26 160 00:23 10.05.2022
1557 Clouds 27 1010 46 10000 11.32 150 22:42 09.05.2022
1558 Clouds 26 1011 47 10000 6.17 150 21:48 09.05.2022
1559 Clouds 25 1012 50 10000 9.77 160 20:23 09.05.2022
1560 Clouds 22 1013 54 10000 8.23 140 18:35 09.05.2022
1561 Clouds 20 1014 57 10000 6.69 150 17:33 09.05.2022
1562 Clouds 18 1014 59 10000 6.17 160 16:28 09.05.2022
1563 Clouds 18 1015 59 10000 6.69 150 15:48 09.05.2022
1564 Clouds 15 1015 64 10000 5.14 150 14:46 09.05.2022
1565 Clouds 14 1015 66 10000 0.89 170 13:59 09.05.2022
1566 Clouds 13 1015 64 10000 6.17 140 13:32 09.05.2022
1567 Clouds 13 1015 63 10000 1.34 190 11:54 09.05.2022
1568 Clouds 14 1015 57 10000 5.66 150 10:50 09.05.2022
1569 Clouds 14 1015 57 10000 5.66 150 10:29 09.05.2022
1570 Clouds 15 1015 57 10000 1.79 172 07:57 09.05.2022
1571 Clouds 15 1015 56 10000 5.14 140 06:42 09.05.2022
1572 Clouds 16 1013 54 10000 8.75 140 02:44 09.05.2022
1573 Clouds 18 1014 48 10000 5.14 110 23:29 08.05.2022
1574 Clouds 18 1014 49 10000 7.2 100 22:47 08.05.2022
1575 Clouds 17 1015 49 10000 5.66 150 21:47 08.05.2022
1576 Clouds 18 1017 46 10000 5.66 160 20:31 08.05.2022
1577 Clouds 18 1017 46 10000 6.17 180 19:37 08.05.2022
1578 Clouds 17 1017 48 10000 5.66 140 18:49 08.05.2022
1579 Clouds 16 1017 48 10000 5.14 150 17:52 08.05.2022
1580 Clouds 14 1016 49 10000 6.17 150 16:30 08.05.2022
1581 Clouds 12 1018 45 10000 4.12 150 15:25 08.05.2022
1582 Clouds 11 1018 48 10000 5.14 130 14:27 08.05.2022
1583 Clouds 7 1016 74 10000 3.77 137 11:53 08.05.2022
1584 Clear 8 1015 71 10000 2.06 110 10:27 08.05.2022
1585 Clouds 8 1016 72 10000 4.03 142 09:55 08.05.2022
1586 Clear 8 1016 58 10000 1.54 130 08:37 08.05.2022
1587 Clear 8 1015 56 10000 1.34 52 06:31 08.05.2022
1588 Clear 11 1016 47 10000 3.6 30 03:23 08.05.2022
1589 Clear 15 1016 33 10000 6.17 40 01:25 08.05.2022
1590 Clear 16 1016 32 10000 5.14 40 00:20 08.05.2022
1591 Clear 17 1016 30 10000 5.66 50 23:41 07.05.2022
1592 Clear 17 1016 31 10000 7.2 50 22:46 07.05.2022
1593 Clear 16 1018 37 10000 3.13 54 21:57 07.05.2022
1594 Clear 16 1017 36 10000 7.2 30 21:31 07.05.2022
1595 Clear 16 1017 37 10000 5.66 50 20:27 07.05.2022
1596 Clear 15 1018 40 10000 1.79 44 18:59 07.05.2022
1597 Clouds 13 1017 45 10000 5.14 70 16:51 07.05.2022
1598 Clouds 11 1016 49 10000 4.63 30 15:18 07.05.2022
1599 Clouds 8 1015 61 10000 4.02 54 12:23 07.05.2022
1600 Clouds 9 1014 62 10000 2.24 48 10:18 07.05.2022
1601 Clouds 10 1014 63 10000 3.58 55 08:34 07.05.2022
1602 Clouds 10 1013 64 10000 4.02 60 07:37 07.05.2022
1603 Clouds 10 1012 64 10000 5.66 20 06:42 07.05.2022
1604 Clouds 10 1011 65 10000 6.17 20 04:21 07.05.2022
1605 Clouds 10 1010 80 10000 5.66 30 00:49 07.05.2022
1606 Rain 9 1010 93 10000 3.13 43 22:41 06.05.2022
1607 Rain 9 1010 93 10000 4.47 72 22:21 06.05.2022
1608 Rain 9 1010 93 10000 2.24 71 21:36 06.05.2022
1609 Rain 9 1009 92 10000 3.58 82 20:18 06.05.2022
1610 Clouds 9 1009 93 10000 3.58 91 19:28 06.05.2022
1611 Clouds 9 1010 94 10000 4.47 64 18:49 06.05.2022
1612 Clouds 9 1008 94 10000 4.47 85 17:38 06.05.2022
1613 Rain 9 1008 94 10000 3.58 71 15:55 06.05.2022
1614 Rain 9 1009 95 10000 3.13 82 15:32 06.05.2022
1615 Rain 9 1009 95 10000 2.68 103 14:22 06.05.2022
1616 Clouds 9 1011 94 6554 2.68 86 12:52 06.05.2022
1617 Rain 9 1011 94 10000 1.34 71 11:58 06.05.2022
1618 Rain 9 1011 94 10000 4.47 88 11:31 06.05.2022
1619 Clouds 9 1012 94 10000 3.13 95 09:48 06.05.2022
1620 Clouds 9 1012 93 10000 2.68 69 09:18 06.05.2022
1621 Rain 8 1014 93 10000 1.79 62 07:55 06.05.2022
1622 Rain 9 1015 93 10000 2.24 85 06:27 06.05.2022
1623 Rain 9 1015 92 4023 4.63 50 03:44 06.05.2022
1624 Mist 9 1016 92 8047 3.09 30 02:38 06.05.2022
1625 Rain 10 1017 90 9656 4.12 80 23:24 05.05.2022
1626 Rain 10 1017 87 8047 3.6 30 21:51 05.05.2022
1627 Rain 10 1019 79 10000 2.57 80 20:37 05.05.2022
1628 Clouds 11 1020 76 10000 2.57 60 19:19 05.05.2022
1629 Clouds 9 1022 76 10000 3.09 80 16:42 05.05.2022
1630 Clouds 9 1022 79 10000 3.09 60 15:31 05.05.2022
1631 Clouds 7 1023 82 10000 1.79 44 13:30 05.05.2022
1632 Clouds 7 1023 82 10000 0.89 49 12:56 05.05.2022
1633 Clouds 6 1023 84 10000 0.89 337 11:35 05.05.2022
1634 Clouds 6 1022 80 10000 2.57 50 09:41 05.05.2022
1635 Clouds 6 1022 80 10000 2.57 50 09:41 05.05.2022
1636 Clouds 6 1023 81 10000 3.6 70 08:40 05.05.2022
1637 Clouds 6 1024 80 10000 3.09 50 06:28 05.05.2022
1638 Clouds 9 1025 72 10000 4.12 30 02:25 05.05.2022
1639 Clouds 11 1024 69 10000 3.6 50 01:44 05.05.2022
1640 Clouds 12 1024 67 10000 5.14 60 00:49 05.05.2022
1641 Clouds 11 1025 68 10000 5.14 60 23:18 04.05.2022
1642 Clouds 10 1026 72 10000 2.68 77 21:59 04.05.2022
1643 Clouds 10 1024 71 10000 3.6 20 21:34 04.05.2022
1644 Clouds 10 1024 72 10000 6.69 40 20:52 04.05.2022
1645 Clouds 10 1024 72 10000 6.69 40 20:18 04.05.2022
1646 Clouds 9 1025 72 10000 5.66 50 19:35 04.05.2022
1647 Clouds 9 1025 73 10000 5.14 20 18:42 04.05.2022
1648 Clouds 9 1025 73 10000 5.14 20 18:18 04.05.2022
1649 Clouds 7 1025 80 10000 5.14 10 16:36 04.05.2022
1650 Clouds 6 1024 84 10000 4.63 10 15:32 04.05.2022
1651 Clouds 5 1024 87 10000 5.14 10 14:38 04.05.2022
1652 Clouds 5 1025 89 10000 3.13 12 14:19 04.05.2022
1653 Clouds 4 1023 89 10000 4.02 45 12:36 04.05.2022
1654 Clouds 5 1022 87 10000 2.68 34 11:28 04.05.2022
1655 Clouds 5 1021 87 10000 2.24 39 09:57 04.05.2022
1656 Clouds 5 1021 87 10000 3.58 38 09:20 04.05.2022
1657 Clouds 6 1021 87 10000 4.02 21 07:51 04.05.2022
1658 Drizzle 6 1018 93 3219 8.23 360 04:45 04.05.2022
1659 Clouds 6 1017 93 10000 4.47 7 02:33 04.05.2022
1660 Drizzle 7 1011 94 3219 7.2 10 22:59 03.05.2022
1661 Drizzle 7 1010 93 4023 8.23 20 21:50 03.05.2022
1662 Drizzle 7 1010 93 4023 8.23 20 21:23 03.05.2022
1663 Mist 7 1010 94 4828 7.72 10 20:46 03.05.2022
1664 Clouds 8 1010 94 8229 2.24 51 19:32 03.05.2022
1665 Rain 8 1008 94 4828 6.17 40 18:43 03.05.2022
1666 Mist 8 1008 94 9656 10.29 40 17:21 03.05.2022
1667 Rain 8 1008 95 2816 6.17 40 15:57 03.05.2022
1668 Rain 8 1009 93 2816 7.72 50 14:23 03.05.2022
1669 Rain 8 1012 88 3219 4.63 60 12:35 03.05.2022
1670 Mist 8 1013 84 8047 5.66 70 11:35 03.05.2022
1671 Clouds 9 1014 77 10000 4.63 80 10:44 03.05.2022
1672 Clouds 9 1017 76 10000 1.34 81 08:19 03.05.2022
1673 Clouds 9 1018 78 10000 1.34 128 06:45 03.05.2022
1674 Clouds 11 1018 68 10000 0.89 160 02:39 03.05.2022
1675 Clouds 12 1019 63 10000 3.6 250 23:19 02.05.2022
1676 Clouds 12 1019 63 10000 3.09 0 22:28 02.05.2022
1677 Clouds 11 1020 65 10000 4.12 250 21:37 02.05.2022
1678 Clouds 10 1020 69 10000 2.24 292 19:30 02.05.2022
1679 Clouds 10 1020 69 10000 0.89 315 18:26 02.05.2022
1680 Clouds 10 1020 70 10000 2.68 288 17:41 02.05.2022
1681 Clouds 9 1019 70 10000 4.63 270 16:43 02.05.2022
1682 Clouds 9 1019 72 10000 1.79 291 15:41 02.05.2022
1683 Clouds 9 1018 76 10000 1.34 293 14:45 02.05.2022
1684 Clouds 9 1016 75 10000 3.13 313 13:42 02.05.2022
1685 Clouds 9 1017 74 10000 0.89 287 11:41 02.05.2022
1686 Clouds 10 1016 74 10000 2.24 270 09:45 02.05.2022
1687 Clouds 10 1016 75 10000 1.34 300 08:29 02.05.2022
1688 Clouds 10 1015 76 10000 1.79 286 06:56 02.05.2022
1689 Clouds 10 1013 76 10000 3.58 264 00:47 02.05.2022
1690 Clouds 10 1013 76 10000 3.58 264 00:47 02.05.2022
1691 Clouds 10 1013 77 10000 6.26 265 00:22 02.05.2022
1692 Drizzle 10 1011 76 10000 9.26 250 22:55 01.05.2022
1693 Clouds 11 1011 76 10000 2.24 266 21:43 01.05.2022
1694 Clouds 11 1011 74 10000 4.02 264 20:50 01.05.2022
1695 Clouds 11 1010 74 10000 4.92 274 19:27 01.05.2022
1696 Clouds 11 1010 73 10000 2.68 217 18:53 01.05.2022
1697 Clouds 12 1010 73 10000 1.34 217 17:51 01.05.2022
1698 Clouds 12 1008 73 10000 3.58 261 16:38 01.05.2022
1699 Clouds 12 1008 73 10000 2.68 212 15:57 01.05.2022
1700 Clouds 12 1008 73 10000 1.79 218 14:54 01.05.2022
1701 Clouds 11 1007 78 10000 4.02 214 12:52 01.05.2022
1702 Clouds 12 1007 76 10000 1.34 220 10:36 01.05.2022
1703 Clear 13 1007 74 10000 4.02 254 08:50 01.05.2022
1704 Clouds 14 1007 85 10000 4.65 222 06:50 01.05.2022
1705 Clouds 18 1005 81 10000 6.69 160 02:31 01.05.2022
1706 Clouds 20 1006 65 10000 7.2 140 22:51 30.04.2022
1707 Clouds 20 1006 65 10000 7.2 140 22:51 30.04.2022
1708 Clouds 19 1008 67 10000 9.77 130 21:33 30.04.2022
1709 Clouds 19 1008 67 10000 9.77 130 21:33 30.04.2022
1710 Clouds 16 1008 76 10000 8.75 130 20:22 30.04.2022
1711 Rain 15 1010 77 9656 9.26 140 19:31 30.04.2022
1712 Rain 13 1012 71 10000 7.72 150 17:32 30.04.2022
1713 Clouds 13 1012 69 10000 7.72 130 16:28 30.04.2022
1714 Clouds 12 1013 69 10000 8.23 130 15:19 30.04.2022
1715 Clouds 11 1014 67 10000 6.17 120 14:19 30.04.2022
1716 Clouds 10 1015 67 10000 1.79 156 11:59 30.04.2022
1717 Clouds 10 1014 67 10000 6.17 110 11:31 30.04.2022
1718 Clouds 11 1014 64 10000 7.72 110 10:25 30.04.2022
1719 Clouds 11 1016 69 10000 3.6 110 08:25 30.04.2022
1720 Clouds 14 1016 60 10000 6.16 120 04:58 30.04.2022
1721 Clouds 17 1016 45 10000 6.17 110 00:25 30.04.2022
1722 Clouds 17 1018 46 10000 1.79 160 22:58 29.04.2022
1723 Clouds 18 1018 44 10000 9.26 120 22:21 29.04.2022
1724 Clouds 17 1018 45 10000 8.75 120 21:26 29.04.2022
1725 Clouds 16 1019 44 10000 8.23 120 20:24 29.04.2022
1726 Clouds 15 1020 45 10000 5.66 140 19:28 29.04.2022
1727 Clouds 11 1021 52 10000 5.14 120 17:37 29.04.2022
1728 Clouds 10 1021 53 10000 5.14 110 16:42 29.04.2022
1729 Clouds 9 1021 59 10000 4.63 110 14:37 29.04.2022
1730 Clouds 9 1021 60 10000 4.63 110 13:51 29.04.2022
1731 Clouds 9 1021 61 10000 4.63 120 12:38 29.04.2022
1732 Clouds 9 1022 63 10000 1.79 166 10:44 29.04.2022
1733 Clouds 9 1023 67 10000 0.89 192 07:57 29.04.2022
1734 Clouds 9 1023 66 10000 1.79 163 07:26 29.04.2022
1735 Clouds 9 1023 67 10000 2.24 147 06:32 29.04.2022
1736 Clouds 9 1023 67 10000 6.17 130 02:23 29.04.2022
1737 Clouds 9 1023 68 10000 6.17 90 00:18 29.04.2022
1738 Rain 9 1022 62 10000 5.14 100 23:26 28.04.2022
1739 Rain 9 1023 61 10000 5.14 70 22:33 28.04.2022
1740 Clouds 8 1025 67 10000 5.14 80 21:43 28.04.2022
1741 Clouds 9 1025 57 10000 6.17 80 20:48 28.04.2022
1742 Clouds 8 1026 62 10000 2.68 100 19:55 28.04.2022
1743 Clouds 9 1025 60 10000 5.14 70 19:25 28.04.2022
1744 Clouds 9 1026 59 10000 4.63 130 18:52 28.04.2022
1745 Clouds 8 1027 63 10000 1.79 137 17:55 28.04.2022
1746 Clouds 7 1027 65 10000 3.13 147 16:58 28.04.2022
1747 Clouds 7 1026 67 10000 5.14 120 16:20 28.04.2022
1748 Clouds 6 1027 71 10000 2.24 152 15:49 28.04.2022
1749 Clouds 6 1025 75 10000 3.58 136 14:58 28.04.2022
1750 Clouds 5 1025 78 10000 2.24 120 13:37 28.04.2022
1751 Clouds 4 1026 79 10000 1.79 99 12:30 28.04.2022
1752 Clouds 4 1026 79 10000 1.79 112 12:30 28.04.2022
1753 Clouds 4 1027 80 10000 2.24 105 11:37 28.04.2022
1754 Clouds 4 1027 80 10000 1.34 67 10:26 28.04.2022
1755 Clouds 4 1026 79 10000 6.17 70 09:50 28.04.2022
1756 Clouds 3 1028 79 10000 2.68 90 07:42 28.04.2022
1757 Clouds 2 1027 77 6566 4.47 93 06:51 28.04.2022
1758 Clouds 2 1028 76 7318 4.47 84 05:53 28.04.2022
1759 Clouds 2 1028 75 10000 4.02 45 04:43 28.04.2022
1760 Clouds 2 1028 74 10000 4.02 45 02:41 28.04.2022
1761 Clouds 2 1028 67 10000 8.23 80 23:32 27.04.2022
1762 Clouds 3 1029 63 10000 6.17 60 22:22 27.04.2022
1763 Clouds 4 1030 60 10000 5.66 50 21:46 27.04.2022
1764 Clouds 4 1030 60 10000 5.66 60 20:46 27.04.2022
1765 Clouds 4 1030 61 10000 5.66 80 19:57 27.04.2022
1766 Clouds 4 1029 61 10000 5.66 80 19:36 27.04.2022
1767 Clouds 4 1030 62 10000 5.14 70 18:41 27.04.2022
1768 Clouds 4 1030 62 10000 5.14 70 18:20 27.04.2022
1769 Clouds 4 1030 63 10000 4.12 40 16:20 27.04.2022
1770 Clouds 1 1028 62 10000 3.09 330 13:21 27.04.2022
1771 Clouds 2 1029 63 10000 0.89 22 11:26 27.04.2022
1772 Clouds 1 1029 64 10000 2.24 7 10:50 27.04.2022
1773 Clouds 2 1029 63 10000 1.79 336 08:31 27.04.2022
1774 Clear 3 1028 70 10000 2.57 70 06:42 27.04.2022
1775 Clouds 7 1028 62 10000 4.48 319 02:35 27.04.2022
1776 Clouds 10 1026 40 10000 7.72 280 01:24 27.04.2022
1777 Clouds 10 1025 40 10000 7.2 310 00:34 27.04.2022
1778 Clouds 10 1026 41 10000 5.14 300 23:24 26.04.2022
1779 Clouds 10 1026 42 10000 8.23 270 22:51 26.04.2022
1780 Clouds 10 1026 43 10000 8.23 270 22:31 26.04.2022
1781 Clouds 9 1026 45 10000 5.66 280 21:25 26.04.2022
1782 Clouds 8 1026 49 10000 5.66 310 20:39 26.04.2022
1783 Clouds 6 1027 55 10000 5.14 310 19:45 26.04.2022
1784 Clouds 6 1027 56 10000 5.14 310 19:26 26.04.2022
1785 Clouds 5 1027 61 10000 5.66 290 18:39 26.04.2022
1786 Clouds 5 1028 65 10000 4.02 332 17:41 26.04.2022
1787 Clear 4 1027 67 10000 2.68 288 15:59 26.04.2022
1788 Clouds 3 1024 67 10000 2.24 344 13:55 26.04.2022
1789 Clouds 3 1024 65 10000 4.63 280 13:28 26.04.2022
1790 Clouds 4 1025 64 10000 2.68 308 11:24 26.04.2022
1791 Clouds 4 1025 62 10000 1.79 307 10:30 26.04.2022
1792 Clouds 4 1025 62 10000 2.68 304 08:34 26.04.2022
1793 Clouds 5 1025 60 10000 2.24 299 04:59 26.04.2022
1794 Clouds 6 1024 60 10000 3.13 302 04:22 26.04.2022
1795 Clouds 8 1021 54 10000 2.68 296 00:51 26.04.2022
1796 Clouds 9 1021 52 10000 4.02 290 23:50 25.04.2022
1797 Clouds 10 1020 55 10000 3.58 301 21:53 25.04.2022
1798 Clouds 10 1019 55 10000 4.47 305 21:26 25.04.2022
1799 Clouds 11 1018 54 10000 5.81 275 19:53 25.04.2022
1800 Clouds 11 1017 55 10000 3.13 314 18:34 25.04.2022
1801 Clouds 12 1018 54 10000 8.23 280 17:39 25.04.2022
1802 Clouds 11 1017 58 10000 7.2 250 16:42 25.04.2022
1803 Clouds 10 1016 60 10000 5.66 270 15:22 25.04.2022
1804 Clouds 10 1016 60 10000 3.58 290 14:32 25.04.2022
1805 Clouds 11 1015 59 10000 1.34 283 12:47 25.04.2022
1806 Clouds 11 1016 55 10000 1.34 284 10:42 25.04.2022
1807 Clouds 12 1015 55 10000 2.06 280 09:41 25.04.2022
1808 Clouds 13 1015 56 10000 2.24 331 07:38 25.04.2022
1809 Clouds 15 1014 52 10000 1.79 296 05:54 25.04.2022
1810 Clouds 20 1009 77 10000 5.62 227 01:28 25.04.2022
1811 Clouds 20 1009 82 10000 6.17 232 23:54 24.04.2022
1812 Clouds 20 1009 78 10000 6.54 236 23:24 24.04.2022
1813 Clouds 19 1009 80 10000 6.54 236 22:39 24.04.2022
1814 Clouds 19 1010 82 10000 1.79 260 21:55 24.04.2022
1815 Clouds 19 1011 82 10000 2.68 263 21:21 24.04.2022
1816 Clouds 19 1011 83 10000 2.68 242 20:44 24.04.2022
1817 Clouds 19 1010 88 7403 4.02 238 19:57 24.04.2022
1818 Clouds 20 1009 79 10000 7.56 194 18:38 24.04.2022
1819 Rain 20 1010 75 10000 9.26 200 17:42 24.04.2022
1820 Rain 20 1010 75 10000 9.26 200 17:20 24.04.2022
1821 Clouds 20 1009 73 10000 7.2 200 16:51 24.04.2022
1822 Clouds 20 1011 77 10000 4.47 214 16:23 24.04.2022
1823 Clouds 20 1010 75 10000 6.07 199 15:39 24.04.2022
1824 Clouds 20 1011 72 10000 2.68 226 14:33 24.04.2022
1825 Clouds 20 1011 72 10000 2.68 226 14:33 24.04.2022
1826 Rain 20 1010 72 10000 2.24 231 13:26 24.04.2022
1827 Clouds 20 1010 68 10000 3.13 222 12:55 24.04.2022
1828 Clouds 21 1011 67 10000 3.58 215 11:49 24.04.2022
1829 Clouds 21 1010 63 10000 7.72 200 10:37 24.04.2022
1830 Clouds 21 1010 63 10000 7.72 200 10:37 24.04.2022
1831 Clouds 21 1011 61 10000 4.92 224 09:43 24.04.2022
1832 Clouds 23 1011 55 10000 5.36 222 07:42 24.04.2022
1833 Clouds 23 1010 53 10000 7.2 190 05:38 24.04.2022
1834 Clouds 27 1010 46 10000 7.92 189 01:58 24.04.2022
1835 Clouds 28 1009 39 10000 10.8 200 00:45 24.04.2022
1836 Clouds 28 1010 40 10000 12.86 200 23:46 23.04.2022
1837 Clouds 28 1011 40 10000 12.86 200 23:25 23.04.2022
1838 Clouds 27 1012 47 10000 11.32 190 21:56 23.04.2022
1839 Clouds 27 1013 48 10000 11.32 190 21:36 23.04.2022
1840 Clouds 26 1014 51 10000 4.47 219 20:58 23.04.2022
1841 Clouds 25 1015 56 10000 1.79 202 19:55 23.04.2022
1842 Clouds 25 1015 54 10000 4.02 214 19:20 23.04.2022
1843 Clouds 25 1015 55 10000 5.36 216 18:53 23.04.2022
1844 Clouds 24 1014 57 10000 5.81 220 18:28 23.04.2022
1845 Clouds 23 1015 60 10000 8.23 200 17:43 23.04.2022
1846 Clouds 21 1016 63 10000 6.17 200 16:43 23.04.2022
1847 Clouds 18 1016 74 10000 3.6 180 15:35 23.04.2022
1848 Clouds 13 1016 85 10000 4.12 160 12:54 23.04.2022
1849 Clouds 12 1018 86 10000 2.24 173 10:53 23.04.2022
1850 Clear 12 1017 84 10000 3.6 150 09:38 23.04.2022
1851 Clouds 11 1019 81 10000 3.09 120 07:38 23.04.2022
1852 Clouds 11 1020 83 10000 3.6 80 03:56 23.04.2022
1853 Clouds 9 1022 89 10000 3.58 153 01:55 23.04.2022
1854 Thunderstorm 9 1026 90 4828 8.23 80 23:33 22.04.2022
1855 Thunderstorm 9 1026 87 10000 7.72 80 22:28 22.04.2022
1856 Mist 9 1026 86 8047 5.66 70 21:44 22.04.2022
1857 Mist 9 1026 86 8047 5.66 70 21:44 22.04.2022
1858 Rain 10 1027 81 8047 4.63 80 20:55 22.04.2022
1859 Clouds 11 1027 77 10000 4.63 90 20:28 22.04.2022
1860 Clouds 11 1028 73 10000 4.12 80 19:22 22.04.2022
1861 Rain 11 1029 71 10000 6.69 110 18:52 22.04.2022
1862 Clouds 12 1030 71 10000 3.58 149 17:54 22.04.2022
1863 Clouds 10 1031 73 10000 2.57 130 16:52 22.04.2022
1864 Clouds 10 1031 72 10000 3.09 80 15:47 22.04.2022
1865 Rain 9 1031 73 10000 3.09 80 15:21 22.04.2022
1866 Clouds 8 1030 72 10000 3.6 50 13:54 22.04.2022
1867 Clouds 8 1030 72 10000 3.6 50 13:27 22.04.2022
1868 Clouds 9 1030 64 10000 4.63 50 12:29 22.04.2022
1869 Clouds 10 1030 59 10000 3.09 70 11:22 22.04.2022
1870 Clouds 10 1030 57 10000 3.6 60 10:52 22.04.2022
1871 Clouds 10 1030 55 10000 3.6 60 10:31 22.04.2022
1872 Clouds 10 1029 52 10000 3.13 79 09:53 22.04.2022
1873 Clouds 11 1031 56 10000 2.24 75 08:56 22.04.2022
1874 Clouds 11 1030 67 10000 2.45 61 07:44 22.04.2022
1875 Clear 15 1029 51 10000 2.39 328 04:24 22.04.2022
1876 Clear 20 1027 35 10000 1.79 302 00:52 22.04.2022
1877 Clouds 20 1025 40 10000 8.75 280 23:28 21.04.2022
1878 Clouds 19 1025 45 10000 7.2 260 22:29 21.04.2022
1879 Clouds 18 1024 54 10000 8.23 250 20:46 21.04.2022
1880 Clouds 17 1024 54 10000 8.23 250 20:26 21.04.2022
1881 Clouds 16 1023 59 10000 5.14 250 18:47 21.04.2022
1882 Clouds 15 1023 63 10000 5.14 250 18:19 21.04.2022
1883 Clouds 12 1021 70 10000 4.63 290 16:49 21.04.2022
1884 Clouds 10 1020 79 10000 1.79 315 15:23 21.04.2022
1885 Clouds 10 1019 81 10000 1.79 315 14:50 21.04.2022
1886 Clouds 10 1017 85 10000 4.64 283 13:44 21.04.2022
1887 Clouds 10 1015 86 10000 5.42 274 13:18 21.04.2022
1888 Clouds 11 1012 94 10000 6.38 234 11:19 21.04.2022
1889 Rain 11 1011 93 10000 7.15 215 08:59 21.04.2022
1890 Rain 10 1011 93 10000 7.67 210 07:55 21.04.2022
1891 Rain 10 1012 89 10000 4.92 225 06:21 21.04.2022
1892 Rain 11 1013 73 10000 3.58 202 03:35 21.04.2022
1893 Rain 11 1013 71 9286 3.58 187 02:48 21.04.2022
1894 Rain 11 1014 65 10000 6.17 130 01:50 21.04.2022
1895 Rain 10 1017 71 10000 3.13 135 23:53 20.04.2022
1896 Clouds 10 1017 69 10000 8.75 150 23:23 20.04.2022
1897 Clouds 10 1017 67 10000 6.69 150 22:51 20.04.2022
1898 Clouds 10 1018 69 10000 6.69 150 22:32 20.04.2022
1899 Rain 9 1019 71 10000 3.58 187 21:33 20.04.2022
1900 Clouds 9 1020 67 10000 6.92 151 20:42 20.04.2022
1901 Clouds 9 1021 62 10000 5.81 164 19:53 20.04.2022
1902 Clouds 9 1022 61 10000 3.58 207 19:25 20.04.2022
1903 Clouds 9 1023 59 10000 6.69 160 18:26 20.04.2022
1904 Clouds 8 1023 61 10000 5.66 150 16:58 20.04.2022
1905 Clouds 7 1023 62 10000 5.66 150 16:38 20.04.2022
1906 Clouds 6 1023 67 10000 5.57 150 14:48 20.04.2022
1907 Clouds 5 1023 67 10000 4.89 154 11:56 20.04.2022
1908 Clouds 5 1023 67 10000 4.43 151 11:29 20.04.2022
1909 Clouds 5 1024 66 10000 3.97 151 10:27 20.04.2022
1910 Clouds 6 1024 66 10000 3.77 155 09:26 20.04.2022
1911 Clouds 6 1024 66 10000 0.89 157 08:24 20.04.2022
1912 Clouds 6 1024 67 10000 1.79 157 07:42 20.04.2022
1913 Clouds 5 1022 66 10000 4.12 110 04:37 20.04.2022
1914 Clouds 8 1022 58 10000 5.66 100 00:38 20.04.2022
1915 Clouds 8 1022 58 10000 5.66 100 00:20 20.04.2022
1916 Clouds 9 1022 45 10000 5.14 310 22:28 19.04.2022
1917 Clouds 8 1023 50 10000 1.79 112 21:57 19.04.2022
1918 Clouds 8 1023 49 10000 3.6 290 21:34 19.04.2022
1919 Clouds 8 1023 50 10000 4.63 350 20:50 19.04.2022
1920 Clouds 7 1023 51 10000 4.63 350 20:32 19.04.2022
1921 Clouds 7 1023 54 10000 4.12 320 19:24 19.04.2022
1922 Clouds 6 1023 60 10000 4.86 324 17:59 19.04.2022
1923 Clouds 4 1022 65 10000 6.17 320 16:44 19.04.2022
1924 Clouds 4 1022 67 10000 6.17 320 16:24 19.04.2022
1925 Clouds 3 1022 70 10000 4.02 331 14:51 19.04.2022
1926 Clouds 3 1021 72 10000 3.13 352 14:31 19.04.2022
1927 Clouds 2 1020 77 10000 5.66 310 12:52 19.04.2022
1928 Clouds 2 1020 77 10000 5.66 310 12:26 19.04.2022
1929 Clouds 3 1020 78 10000 3.13 324 11:22 19.04.2022
1930 Clouds 3 1019 78 10000 4.92 332 09:26 19.04.2022
1931 Clouds 2 1019 79 10000 5.36 337 06:34 19.04.2022
1932 Clouds 2 1018 76 10000 6.69 290 04:19 19.04.2022
1933 Clouds 3 1018 67 10000 3.13 293 00:56 19.04.2022
1934 Clouds 4 1017 68 10000 4.02 302 23:38 18.04.2022
1935 Clouds 4 1017 76 10000 2.24 312 21:48 18.04.2022
1936 Clouds 4 1017 81 10000 6.69 260 21:24 18.04.2022
1937 Clouds 3 1017 86 10000 5.66 270 20:38 18.04.2022
1938 Clouds 3 1017 88 189 2.24 299 19:59 18.04.2022
1939 Clouds 3 1018 88 43 0.89 287 19:29 18.04.2022
1940 Clouds 3 1018 89 43 1.79 242 18:34 18.04.2022
1941 Clouds 2 1019 91 40 2.8 256 17:39 18.04.2022
1942 Clouds 2 1019 91 40 2.8 256 17:39 18.04.2022
1943 Clouds 2 1020 91 40 1.96 252 17:19 18.04.2022
1944 Clouds 2 1020 92 40 1.96 252 16:35 18.04.2022
1945 Clouds 1 1020 93 10000 0.83 89 15:28 18.04.2022
1946 Mist 1 1020 92 8047 2.57 60 13:44 18.04.2022
1947 Snow 1 1021 92 1175 2.35 84 12:41 18.04.2022
1948 Snow 1 1022 92 836 2.33 81 11:43 18.04.2022
1949 Snow 1 1022 90 9510 3.02 76 10:46 18.04.2022
1950 Snow 2 1022 86 10000 3.6 330 09:31 18.04.2022
1951 Rain 2 1022 83 9385 2.24 30 08:37 18.04.2022
1952 Clouds 3 1023 76 10000 4.63 30 06:25 18.04.2022
1953 Clouds 3 1023 70 10000 4.02 52 02:22 18.04.2022
1954 Clouds 4 1025 59 10000 3.6 50 22:54 17.04.2022
1955 Clouds 4 1026 57 10000 3.6 50 22:32 17.04.2022
1956 Clouds 5 1026 56 10000 5.66 80 21:34 17.04.2022
1957 Clouds 5 1027 55 10000 4.63 70 20:51 17.04.2022
1958 Clouds 4 1027 56 10000 3.13 62 19:55 17.04.2022
1959 Clouds 4 1028 56 10000 6.17 80 18:34 17.04.2022
1960 Clouds 3 1027 58 10000 5.14 80 17:20 17.04.2022
1961 Clouds 3 1026 61 10000 6.69 70 15:34 17.04.2022
1962 Clouds 2 1027 64 10000 4.63 70 14:38 17.04.2022
1963 Clouds 0 1025 69 10000 4.12 70 13:28 17.04.2022
1964 Clouds 0 1025 69 10000 2.57 20 12:31 17.04.2022
1965 Clouds 0 1025 73 10000 0 0 10:48 17.04.2022
1966 Clouds 0 1025 75 10000 0 0 10:29 17.04.2022
1967 Clouds 0 1025 75 10000 0 0 09:51 17.04.2022
1968 Clouds 0 1025 75 10000 0 0 09:18 17.04.2022
1969 Clouds 1 1025 73 10000 3 343 08:29 17.04.2022
1970 Clouds 2 1024 68 10000 4.12 60 05:33 17.04.2022
1971 Clouds 7 1020 52 10000 6.69 300 01:47 17.04.2022
1972 Clouds 8 1021 41 10000 4.63 280 23:59 16.04.2022
1973 Clouds 8 1021 42 10000 4.63 280 23:19 16.04.2022
1974 Clouds 7 1021 44 10000 6.17 260 21:45 16.04.2022
1975 Clouds 7 1021 45 10000 5.14 280 20:54 16.04.2022
1976 Clouds 6 1021 47 10000 7.2 300 19:21 16.04.2022
1977 Clouds 6 1021 48 10000 6.17 260 18:35 16.04.2022
1978 Clouds 3 1020 53 10000 2.57 310 16:44 16.04.2022
1979 Smoke 2 1020 57 10000 3.6 310 15:48 16.04.2022
1980 Clear 1 1019 60 10000 1.34 315 14:58 16.04.2022
1981 Smoke 1 1019 61 10000 4.12 310 14:30 16.04.2022
1982 Smoke 1 1019 61 10000 4.12 310 14:30 16.04.2022
1983 Clouds 1 1018 64 10000 1.79 336 13:41 16.04.2022
1984 Clouds 1 1018 61 10000 2.57 290 12:35 16.04.2022
1985 Clouds 2 1019 58 10000 2.57 320 11:26 16.04.2022
1986 Clouds 3 1018 54 10000 4.12 310 10:25 16.04.2022
1987 Clouds 3 1019 53 10000 2.24 322 09:32 16.04.2022
1988 Clouds 4 1019 50 10000 2.24 342 08:41 16.04.2022
1989 Clouds 5 1017 50 10000 3.13 357 06:59 16.04.2022
1990 Clouds 8 1015 46 10000 4.12 290 04:36 16.04.2022
1991 Clouds 7 1014 75 10000 6.17 230 00:40 16.04.2022
1992 Clouds 9 1014 62 10000 8.75 290 23:40 15.04.2022
1993 Rain 10 1016 49 10000 6.26 258 22:45 15.04.2022
1994 Clouds 10 1015 36 10000 3.58 270 22:27 15.04.2022
1995 Clouds 11 1014 32 10000 7.2 240 21:20 15.04.2022
1996 Clouds 12 1014 30 10000 8.23 240 20:36 15.04.2022
1997 Clouds 11 1016 30 10000 6.53 259 19:43 15.04.2022
1998 Clouds 11 1016 31 10000 4.92 285 18:57 15.04.2022
1999 Clouds 10 1015 32 10000 9.77 250 18:26 15.04.2022
2000 Clouds 9 1015 34 10000 8.75 240 17:56 15.04.2022
2001 Clouds 8 1015 36 10000 8.75 240 17:23 15.04.2022
2002 Clouds 7 1014 38 10000 6.17 230 16:24 15.04.2022
2003 Clouds 6 1014 41 10000 5.14 220 15:41 15.04.2022
2004 Clouds 6 1014 41 10000 5.14 220 15:41 15.04.2022
2005 Clouds 5 1013 37 10000 4.63 250 13:55 15.04.2022
2006 Clouds 5 1014 36 10000 4.92 292 12:50 15.04.2022
2007 Clouds 5 1017 37 10000 4.71 251 12:21 15.04.2022
2008 Clouds 5 1015 36 10000 4.02 247 11:42 15.04.2022
2009 Clouds 6 1016 35 10000 3.63 248 10:46 15.04.2022
2010 Clouds 6 1016 36 10000 4.02 246 09:59 15.04.2022
2011 Clouds 6 1016 39 10000 3.47 254 09:22 15.04.2022
2012 Clouds 7 1015 39 10000 4.12 260 08:37 15.04.2022
2013 Clear 7 1015 41 10000 5.66 210 06:48 15.04.2022
2014 Clouds 8 1016 35 10000 6.42 244 04:42 15.04.2022
2015 Clear 10 1013 31 10000 9.39 286 00:34 15.04.2022
2016 Clouds 10 1012 32 10000 16.46 240 23:22 14.04.2022
2017 Clear 10 1012 32 10000 8.49 254 22:45 14.04.2022
2018 Clear 10 1012 33 10000 5.36 272 22:26 14.04.2022
2019 Clouds 10 1011 32 10000 14.4 240 21:47 14.04.2022
2020 Clouds 8 1012 36 10000 13.38 250 19:24 14.04.2022
2021 Clouds 8 1012 37 10000 11.32 240 18:53 14.04.2022
2022 Clouds 6 1012 49 10000 10.8 250 17:45 14.04.2022
2023 Clouds 6 1011 63 10000 8.23 230 16:51 14.04.2022
2024 Clear 5 1011 69 10000 5.14 220 15:51 14.04.2022
2025 Clouds 2 1010 79 10000 0.89 246 13:53 14.04.2022
2026 Clouds 2 1010 79 10000 2.68 255 13:20 14.04.2022
2027 Clouds 2 1009 79 10000 1.34 259 12:32 14.04.2022
2028 Clear 2 1010 78 10000 5.14 240 11:43 14.04.2022
2029 Clear 2 1010 78 10000 5.14 240 11:18 14.04.2022
2030 Clouds 3 1010 78 10000 2.68 280 10:31 14.04.2022
2031 Clouds 3 1009 76 10000 7.2 280 09:30 14.04.2022
2032 Clouds 4 1008 78 10000 4.47 311 08:23 14.04.2022
2033 Clouds 7 1005 88 10000 8.05 279 05:57 14.04.2022
2034 Clouds 16 1000 89 10000 2.68 277 00:59 14.04.2022
2035 Rain 20 1000 80 8047 6.69 190 22:38 13.04.2022
2036 Clouds 21 1000 75 10000 5.66 170 21:43 13.04.2022
2037 Clouds 22 1001 72 10000 7.72 210 20:45 13.04.2022
2038 Clouds 20 1002 79 10000 0.89 210 19:54 13.04.2022
2039 Clouds 18 1002 89 10000 5.14 170 18:39 13.04.2022
2040 Rain 17 1003 90 10000 6.04 182 17:41 13.04.2022
2041 Rain 17 1003 89 10000 3.6 220 17:23 13.04.2022
2042 Clouds 18 1003 82 1609 7.2 200 16:18 13.04.2022
2043 Clouds 19 1004 77 10000 0.45 202 15:29 13.04.2022
2044 Clouds 19 1003 78 10000 6.17 190 14:40 13.04.2022
2045 Clouds 18 1003 80 10000 4.47 225 13:54 13.04.2022
2046 Clouds 19 1003 80 10000 3.13 232 12:57 13.04.2022
2047 Clouds 19 1004 79 10000 1.79 218 11:58 13.04.2022
2048 Clouds 19 1004 80 10000 5.81 215 10:34 13.04.2022
2049 Clouds 19 1004 80 10000 8.23 180 08:49 13.04.2022
2050 Clouds 19 1004 81 10000 8.23 180 08:24 13.04.2022
2051 Clouds 19 1004 81 10000 6.69 170 06:50 13.04.2022
2052 Clouds 19 1004 80 10000 6.69 170 06:24 13.04.2022
2053 Clouds 19 1006 73 10000 7.72 150 02:27 13.04.2022
2054 Clouds 19 1009 62 10000 10.29 140 00:20 13.04.2022
2055 Clouds 19 1013 43 10000 6.17 150 22:36 12.04.2022
2056 Clouds 19 1015 39 10000 5.34 134 21:56 12.04.2022
2057 Clouds 19 1015 35 10000 6.17 160 20:48 12.04.2022
2058 Clouds 18 1016 36 10000 6.17 160 20:22 12.04.2022
2059 Clouds 17 1016 35 10000 7.2 140 19:40 12.04.2022
2060 Clouds 17 1016 36 10000 7.2 140 19:18 12.04.2022
2061 Clouds 16 1018 37 10000 9.26 140 17:49 12.04.2022
2062 Clouds 15 1016 40 10000 5.14 140 16:48 12.04.2022
2063 Clouds 12 1016 55 10000 3.6 160 15:38 12.04.2022
2064 Clouds 11 1016 59 10000 3.6 160 15:20 12.04.2022
2065 Clear 6 1016 74 10000 3.02 139 13:53 12.04.2022
2066 Clouds 6 1016 71 10000 2.06 0 13:27 12.04.2022
2067 Clouds 6 1016 71 10000 2.06 0 13:27 12.04.2022
2068 Clear 7 1018 71 10000 0 0 12:26 12.04.2022
2069 Clear 7 1018 70 10000 1.54 170 11:39 12.04.2022
2070 Clear 8 1017 65 10000 0 0 09:59 12.04.2022
2071 Clear 9 1017 62 10000 0 0 08:53 12.04.2022
2072 Clear 9 1016 57 10000 0 0 07:21 12.04.2022
2073 Clouds 9 1016 59 10000 0.88 234 05:47 12.04.2022
2074 Clouds 14 1013 45 10000 0.68 281 02:53 12.04.2022
2075 Clouds 15 1012 42 10000 1.34 292 23:25 11.04.2022
2076 Clouds 15 1011 41 10000 4.12 230 22:44 11.04.2022
2077 Clouds 14 1013 45 10000 3.6 210 21:35 11.04.2022
2078 Clouds 14 1013 48 10000 6.17 240 20:49 11.04.2022
2079 Clouds 13 1012 50 10000 6.17 240 20:28 11.04.2022
2080 Clouds 12 1011 50 10000 4.63 260 19:29 11.04.2022
2081 Clouds 12 1012 49 10000 0.45 300 18:59 11.04.2022
2082 Clouds 12 1010 49 10000 4.12 250 18:33 11.04.2022
2083 Clouds 12 1011 50 10000 4.12 260 17:43 11.04.2022
2084 Clouds 11 1010 51 10000 6.69 230 16:36 11.04.2022
2085 Clouds 12 1010 53 10000 1.34 270 15:21 11.04.2022
2086 Clouds 12 1005 53 10000 3.6 270 13:37 11.04.2022
2087 Clouds 13 1006 55 10000 4.77 259 12:40 11.04.2022
2088 Clouds 13 1004 53 10000 4.96 257 12:21 11.04.2022
2089 Clouds 16 1005 64 10000 5.91 240 10:47 11.04.2022
2090 Clouds 16 1004 57 10000 6.17 190 09:58 11.04.2022
2091 Clouds 15 1005 52 10000 7.04 179 08:22 11.04.2022
2092 Clouds 14 1008 47 10000 7.38 162 04:56 11.04.2022
2093 Clouds 16 1008 40 10000 8.23 140 23:55 10.04.2022
2094 Clouds 15 1010 41 10000 7.72 140 22:27 10.04.2022
2095 Clouds 15 1011 40 10000 8.75 140 21:52 10.04.2022
2096 Clouds 15 1014 40 10000 6.55 135 20:55 10.04.2022
2097 Clouds 14 1014 40 10000 5.14 170 19:58 10.04.2022
2098 Clouds 14 1014 40 10000 5.14 170 19:34 10.04.2022
2099 Clouds 13 1015 39 10000 7.72 150 18:50 10.04.2022
2100 Clouds 12 1014 38 10000 7.72 150 18:26 10.04.2022
2101 Clouds 12 1016 38 10000 4.63 140 17:44 10.04.2022
2102 Clouds 11 1017 40 10000 3.58 225 16:57 10.04.2022
2103 Clouds 7 1017 58 10000 2.57 170 15:38 10.04.2022
2104 Clouds 4 1015 74 10000 1.54 180 14:42 10.04.2022
2105 Clouds 1 1016 79 10000 2.06 170 13:28 10.04.2022
2106 Clear 1 1016 79 10000 1.54 180 12:27 10.04.2022
2107 Clear 1 1016 78 10000 1.54 180 11:38 10.04.2022
2108 Clouds 1 1017 79 10000 0 0 10:59 10.04.2022
2109 Clouds 2 1017 78 10000 0 0 10:27 10.04.2022
2110 Clouds 2 1017 77 10000 0 0 09:41 10.04.2022
2111 Clouds 2 1018 79 10000 2.74 205 08:28 10.04.2022
2112 Clouds 2 1016 78 10000 1.54 120 07:56 10.04.2022
2113 Clouds 2 1018 78 10000 2.3 212 06:59 10.04.2022
2114 Clouds 4 1014 70 10000 3.09 100 03:36 10.04.2022
2115 Clouds 5 1014 65 10000 3.6 120 02:18 10.04.2022
2116 Clouds 7 1013 58 10000 4.12 90 23:53 09.04.2022
2117 Clouds 7 1013 57 10000 5.14 90 22:54 09.04.2022
2118 Clouds 7 1013 57 10000 5.14 90 22:54 09.04.2022
2119 Clouds 7 1013 56 10000 5.66 320 22:24 09.04.2022
2120 Clouds 7 1013 56 10000 6.17 320 21:18 09.04.2022
2121 Clouds 6 1013 54 10000 4.63 320 20:27 09.04.2022
2122 Clouds 6 1012 55 10000 3.13 346 19:56 09.04.2022
2123 Clouds 5 1013 56 10000 6.69 310 19:37 09.04.2022
2124 Clouds 5 1012 59 10000 5.66 310 18:23 09.04.2022
2125 Clouds 4 1012 61 10000 6.17 300 17:48 09.04.2022
2126 Clouds 4 1012 67 10000 6.17 310 16:56 09.04.2022
2127 Clouds 3 1012 69 10000 6.17 310 16:29 09.04.2022
2128 Clouds 2 1011 73 10000 6.17 320 15:48 09.04.2022
2129 Clouds 2 1011 76 10000 6.17 320 15:25 09.04.2022
2130 Clouds 0 1010 83 10000 3.6 300 14:25 09.04.2022
2131 Clouds 0 1008 86 10000 0.89 315 13:24 09.04.2022
2132 Clouds 0 1008 86 10000 2.24 315 12:53 09.04.2022
2133 Clouds 0 1010 86 10000 1.34 352 11:44 09.04.2022
2134 Clouds 0 1010 86 10000 2.68 315 10:41 09.04.2022
2135 Clouds 0 1010 86 10000 1.34 315 10:18 09.04.2022
2136 Clouds 0 1009 86 10000 3.6 320 09:21 09.04.2022
2137 Snow 0 1010 91 10000 2.68 29 07:49 09.04.2022
2138 Snow 2 1010 91 6255 1.79 321 03:22 09.04.2022
2139 Mist 2 1008 88 8047 1.54 30 00:33 09.04.2022
2140 Clouds 3 1007 85 10000 3.09 350 23:20 08.04.2022
2141 Clouds 4 1006 85 10000 4.63 30 21:42 08.04.2022
2142 Rain 4 1007 85 6967 3.58 36 20:41 08.04.2022
2143 Clouds 4 1007 83 8532 3.13 36 19:41 08.04.2022
2144 Clouds 4 1006 88 10000 3.09 290 18:38 08.04.2022
2145 Rain 4 1005 89 8047 4.12 260 17:59 08.04.2022
2146 Mist 4 1005 88 8047 4.12 260 17:27 08.04.2022
2147 Rain 3 1004 87 10000 4.12 270 16:52 08.04.2022
2148 Rain 3 1004 86 10000 4.12 270 16:22 08.04.2022
2149 Clouds 3 1006 85 67 3.65 308 15:28 08.04.2022
2150 Clouds 3 1006 85 67 3.65 308 14:44 08.04.2022
2151 Clouds 3 1002 85 695 1.34 324 13:55 08.04.2022
2152 Clouds 3 1004 86 8924 0.45 292 13:30 08.04.2022
2153 Clouds 3 1005 86 8924 3.66 262 12:45 08.04.2022
2154 Clouds 3 1003 88 10000 3.09 260 10:56 08.04.2022
2155 Clouds 3 1002 88 10000 3.09 260 09:41 08.04.2022
2156 Clouds 3 1002 87 10000 3.09 260 08:59 08.04.2022
2157 Clouds 4 1004 87 10000 0.89 292 07:42 08.04.2022
2158 Clouds 4 1005 88 10000 4.48 263 06:44 08.04.2022
2159 Clouds 5 1004 84 10000 3.58 247 02:37 08.04.2022
2160 Rain 6 1003 80 9656 7.2 250 00:29 08.04.2022
2161 Rain 6 1003 74 10000 3.13 292 23:42 07.04.2022
2162 Clouds 6 1002 69 10000 8.75 250 22:41 07.04.2022
2163 Clouds 6 1002 69 10000 8.75 260 22:23 07.04.2022
2164 Rain 6 1002 66 10000 9.77 250 21:58 07.04.2022
2165 Clouds 6 1002 63 10000 9.77 250 21:28 07.04.2022
2166 Clouds 6 1001 63 10000 9.77 240 20:42 07.04.2022
2167 Clouds 6 1002 65 10000 1.79 225 19:51 07.04.2022
2168 Clouds 5 1003 67 10000 7.24 242 17:29 07.04.2022
2169 Clouds 5 1003 70 10000 7.24 242 16:59 07.04.2022
2170 Clouds 5 1003 74 10000 7.24 242 16:33 07.04.2022
2171 Clouds 5 1002 69 10000 7.6 248 15:40 07.04.2022
2172 Clouds 5 1001 69 10000 6.57 241 13:52 07.04.2022
2173 Clouds 5 1003 70 10000 6.58 238 13:23 07.04.2022
2174 Clouds 5 1003 75 10000 6.26 240 11:52 07.04.2022
2175 Clouds 5 1003 74 10000 6.48 246 10:46 07.04.2022
2176 Clouds 6 1004 72 10000 6.31 246 08:43 07.04.2022
2177 Clouds 7 1004 70 10000 5.99 244 06:59 07.04.2022
2178 Clouds 8 1004 67 10000 5.48 245 05:21 07.04.2022
2179 Clouds 10 1002 59 10000 3.58 281 02:37 07.04.2022
2180 Clouds 12 1001 58 10000 3.58 270 00:43 07.04.2022
2181 Clouds 12 1000 54 10000 9.77 250 23:36 06.04.2022
2182 Clouds 13 1001 53 10000 7.26 230 22:44 06.04.2022
2183 Clouds 13 1001 55 10000 8.05 240 22:20 06.04.2022
2184 Clouds 13 1000 57 10000 7.72 230 20:47 06.04.2022
2185 Clouds 12 1000 56 10000 7.72 230 20:26 06.04.2022
2186 Clouds 12 1002 63 10000 6.72 236 19:44 06.04.2022
2187 Clouds 11 1001 70 10000 8.75 230 18:48 06.04.2022
2188 Clouds 9 1002 82 10000 6.17 210 17:36 06.04.2022
2189 Clouds 8 1003 86 10000 6.22 254 16:58 06.04.2022
2190 Clouds 8 1003 87 10000 6.22 254 16:34 06.04.2022
2191 Clouds 8 1003 91 10000 7 258 15:44 06.04.2022
2192 Rain 8 998 91 3434 5.48 279 13:48 06.04.2022
2193 Rain 10 1001 92 10000 6.15 179 12:30 06.04.2022
2194 Rain 11 1002 92 10000 6.15 179 11:44 06.04.2022
2195 Rain 11 1001 93 2980 7.24 168 10:33 06.04.2022
2196 Clouds 11 1000 92 3784 2.68 214 09:59 06.04.2022
2197 Mist 11 1000 91 4828 4.63 150 09:25 06.04.2022
2198 Clouds 11 1002 86 10000 5.14 150 07:59 06.04.2022
2199 Clouds 11 1002 85 10000 6.69 140 06:40 06.04.2022
2200 Clouds 9 1004 73 10000 3.09 90 01:26 06.04.2022
2201 Clouds 9 1005 72 10000 4.63 80 23:50 05.04.2022
2202 Clouds 9 1008 75 10000 2.68 79 21:58 05.04.2022
2203 Clouds 9 1008 73 10000 4.12 70 21:18 05.04.2022
2204 Clouds 9 1009 75 10000 3.6 90 20:24 05.04.2022
2205 Haze 8 1009 77 9656 5.14 70 18:32 05.04.2022
2206 Mist 7 1009 83 8047 4.63 100 17:22 05.04.2022
2207 Mist 5 1011 88 6437 3.6 100 16:44 05.04.2022
2208 Mist 4 1011 93 1609 3.09 120 15:52 05.04.2022
2209 Fog 4 1012 93 805 3.09 120 15:31 05.04.2022
2210 Mist 3 1010 89 8047 4.12 90 13:55 05.04.2022
2211 Clouds 4 1010 87 10000 3.6 90 12:39 05.04.2022
2212 Clouds 5 1012 84 10000 3.09 80 11:43 05.04.2022
2213 Clouds 5 1012 83 10000 3.09 80 11:25 05.04.2022
2214 Clouds 5 1013 84 10000 2.24 82 09:41 05.04.2022
2215 Clouds 6 1014 82 10000 2.24 90 08:51 05.04.2022
2216 Clouds 8 1013 73 10000 3.09 240 04:25 05.04.2022
2217 Clouds 8 1014 72 10000 4.5 297 23:48 04.04.2022
2218 Clouds 8 1012 70 10000 6.17 280 22:41 04.04.2022
2219 Clouds 8 1012 71 10000 7.72 270 21:51 04.04.2022
2220 Clouds 7 1012 72 10000 7.72 270 21:20 04.04.2022
2221 Clouds 7 1012 72 10000 7.2 270 20:48 04.04.2022
2222 Clouds 8 1012 70 10000 3.13 279 19:38 04.04.2022
2223 Clouds 9 1012 69 10000 3.58 258 18:59 04.04.2022
2224 Clouds 11 1009 72 10000 7.72 240 17:39 04.04.2022
2225 Clouds 11 1009 71 10000 7.72 210 16:36 04.04.2022
2226 Clouds 8 1011 80 10000 5.14 190 15:34 04.04.2022
2227 Clouds 7 1011 83 10000 5.14 180 14:49 04.04.2022
2228 Clouds 7 1010 86 10000 3.58 225 14:31 04.04.2022
2229 Clouds 6 1014 91 10000 3.52 160 13:18 04.04.2022
2230 Clouds 6 1013 91 8395 1.79 168 11:29 04.04.2022
2231 Clouds 6 1016 93 8389 4.32 157 10:49 04.04.2022
2232 Rain 4 1017 89 7006 0.45 157 07:46 04.04.2022
2233 Clouds 4 1018 83 10000 3.6 70 03:19 04.04.2022
2234 Clouds 7 1019 74 10000 5.14 80 00:25 04.04.2022
2235 Clouds 9 1019 67 10000 4.12 80 22:31 03.04.2022
2236 Clouds 8 1020 69 10000 4.12 110 21:37 03.04.2022
2237 Clouds 8 1021 75 10000 2.06 90 20:40 03.04.2022
2238 Clouds 7 1020 77 10000 4.47 90 19:45 03.04.2022
2239 Clouds 6 1020 79 10000 3.58 90 18:31 03.04.2022
2240 Clouds 6 1020 78 10000 2.68 90 17:44 03.04.2022
2241 Clouds 6 1020 78 10000 2.68 90 17:44 03.04.2022
2242 Clouds 5 1020 83 10000 2.06 330 16:50 03.04.2022
2243 Clouds 5 1020 87 10000 2.06 330 16:31 03.04.2022
2244 Clouds 1 1016 93 10000 0 0 14:32 03.04.2022
2245 Clouds 0 1016 93 10000 1.54 260 13:45 03.04.2022
2246 Clouds 1 1019 93 10000 3.43 277 12:21 03.04.2022
2247 Clouds 2 1017 92 10000 2.57 230 10:54 03.04.2022
2248 Clouds 2 1017 92 10000 2.57 280 09:23 03.04.2022
2249 Clouds 1 1019 92 10000 4.04 270 07:37 03.04.2022
2250 Clouds 2 1019 90 10000 5.84 316 04:19 03.04.2022
2251 Rain 2 1013 91 10000 5.66 340 00:41 03.04.2022
2252 Rain 3 1013 88 307 1.79 348 22:57 02.04.2022
2253 Rain 3 1012 85 10000 5.14 200 21:57 02.04.2022
2254 Rain 3 1013 84 1570 0.89 202 21:36 02.04.2022
2255 Rain 4 1014 78 1570 0.89 261 20:52 02.04.2022
2256 Clouds 6 1015 63 10000 4.63 150 19:32 02.04.2022
2257 Clouds 6 1015 63 10000 4.63 150 19:32 02.04.2022
2258 Clouds 5 1018 63 10000 5.28 168 18:21 02.04.2022
2259 Clouds 5 1017 62 10000 5.66 170 17:52 02.04.2022
2260 Clouds 4 1019 68 10000 4.63 180 16:23 02.04.2022
2261 Clouds 3 1019 73 10000 3.6 180 15:21 02.04.2022
2262 Clouds 2 1020 76 10000 2.57 190 14:49 02.04.2022
2263 Clouds 2 1020 76 10000 2.57 190 14:49 02.04.2022
2264 Clouds 1 1018 77 10000 3.09 180 13:35 02.04.2022
2265 Clouds 1 1021 79 10000 2.06 180 12:38 02.04.2022
2266 Clouds 1 1020 77 10000 2.57 170 11:23 02.04.2022
2267 Clouds 1 1021 77 10000 1.54 180 08:50 02.04.2022
2268 Clouds 1 1022 79 10000 2.06 0 06:51 02.04.2022
2269 Clouds 2 1021 70 10000 3.6 110 03:52 02.04.2022
2270 Clouds 6 1021 58 10000 5.14 100 23:57 01.04.2022
2271 Clouds 6 1021 55 10000 5.14 100 23:22 01.04.2022
2272 Clouds 6 1021 52 10000 4.12 280 21:42 01.04.2022
2273 Clouds 5 1020 52 10000 3.58 34 20:51 01.04.2022
2274 Clouds 5 1019 51 10000 2.57 270 20:28 01.04.2022
2275 Clouds 4 1019 53 10000 3.6 360 19:34 01.04.2022
2276 Clouds 3 1018 56 10000 6.17 340 18:49 01.04.2022
2277 Clouds 3 1017 59 10000 5.66 330 17:54 01.04.2022
2278 Clouds 2 1017 64 10000 3.58 337 16:53 01.04.2022
2279 Clouds 0 1015 74 10000 5.14 320 15:41 01.04.2022
2280 Clouds 0 1014 75 10000 2.68 345 14:25 01.04.2022
2281 Clouds 0 1012 75 10000 3.13 360 13:34 01.04.2022
2282 Clouds 0 1012 75 10000 3.13 360 13:34 01.04.2022
2283 Clouds 0 1012 79 10000 5.52 313 12:32 01.04.2022
2284 Clouds 0 1010 81 10000 5.14 310 11:41 01.04.2022
2285 Mist 0 1009 85 8047 4.63 320 10:19 01.04.2022
2286 Mist 0 1008 85 4828 4.12 310 09:19 01.04.2022
2287 Snow 1 1007 88 10000 3.6 270 06:54 01.04.2022
2288 Clouds 1 1007 85 10000 5.02 311 04:51 01.04.2022
2289 Clouds 1 1006 85 10000 5.01 313 04:33 01.04.2022
2290 Snow 2 1003 82 10000 4.59 306 01:58 01.04.2022
2291 Clouds 2 1002 81 10000 4.85 310 00:44 01.04.2022
2292 Clouds 3 1000 81 5276 4.74 298 21:54 31.03.2022
2293 Clouds 3 1000 82 5276 4.74 298 21:32 31.03.2022
2294 Clouds 3 999 82 10000 4.54 300 20:30 31.03.2022
2295 Clouds 3 999 83 10000 6.17 300 19:50 31.03.2022
2296 Clouds 3 997 87 10000 5.04 293 18:51 31.03.2022
2297 Rain 3 997 88 10000 7.2 320 17:50 31.03.2022
2298 Rain 3 996 92 132 4.96 289 16:39 31.03.2022
2299 Rain 3 995 92 45 5.09 278 15:46 31.03.2022
2300 Rain 3 993 92 51 5.57 259 15:20 31.03.2022
2301 Clouds 3 993 93 51 5.57 259 14:37 31.03.2022
2302 Rain 5 989 94 7821 5.31 236 12:19 31.03.2022
2303 Rain 5 988 95 4899 2.84 247 11:26 31.03.2022
2304 Clouds 7 986 94 2613 3.34 276 09:47 31.03.2022
2305 Rain 9 987 93 8047 6.17 270 08:20 31.03.2022
2306 Rain 14 988 93 4828 3.09 150 05:42 31.03.2022
2307 Rain 15 992 92 2425 1.79 202 00:32 31.03.2022
2308 Rain 15 993 93 5179 1.79 202 22:44 30.03.2022
2309 Rain 14 994 93 2552 0.89 157 21:39 30.03.2022
2310 Rain 13 996 93 3219 5.14 170 20:54 30.03.2022
2311 Rain 13 995 93 1797 6.28 184 20:20 30.03.2022
2312 Rain 13 997 93 1811 1.34 166 20:20 30.03.2022
2313 Rain 13 998 91 4828 5.14 200 19:35 30.03.2022
2314 Rain 13 999 86 10000 1.34 197 18:28 30.03.2022
2315 Rain 14 999 74 10000 7.2 190 17:47 30.03.2022
2316 Clouds 13 999 71 10000 2.68 202 16:57 30.03.2022
2317 Clouds 12 999 70 10000 7.2 170 16:33 30.03.2022
2318 Clouds 10 999 69 10000 6.69 170 15:24 30.03.2022
2319 Clouds 9 1002 65 10000 4.02 202 13:44 30.03.2022
2320 Clouds 8 1001 61 10000 3.58 191 12:57 30.03.2022
2321 Clouds 8 1002 55 10000 6.69 160 11:27 30.03.2022
2322 Clouds 8 1002 55 10000 6.69 160 11:27 30.03.2022
2323 Clouds 7 1004 52 10000 7.2 160 10:23 30.03.2022
2324 Clouds 7 1006 51 10000 2.68 191 09:24 30.03.2022
2325 Clouds 6 1009 47 10000 6.69 140 07:33 30.03.2022
2326 Clouds 5 1010 47 10000 8.23 130 05:41 30.03.2022
2327 Clouds 5 1012 49 10000 9.26 120 03:52 30.03.2022
2328 Clouds 4 1017 50 10000 5.36 135 00:41 30.03.2022
2329 Clouds 5 1020 45 10000 4.02 142 22:25 29.03.2022
2330 Clouds 5 1020 42 10000 7.72 130 21:44 29.03.2022
2331 Clouds 4 1022 44 10000 6.17 130 20:52 29.03.2022
2332 Clouds 4 1022 45 10000 6.17 130 20:18 29.03.2022
2333 Clouds 2 1023 54 10000 7.72 120 18:55 29.03.2022
2334 Clouds 1 1024 55 10000 7.72 120 18:19 29.03.2022
2335 Clouds 0 1024 55 10000 5.66 120 17:22 29.03.2022
2336 Clouds 0 1026 59 10000 2.68 122 16:56 29.03.2022
2337 Clouds 0 1026 59 10000 2.68 122 16:56 29.03.2022
2338 Clouds -1 1025 65 10000 6.69 100 15:57 29.03.2022
2339 Clouds -1 1024 65 10000 5.14 100 14:50 29.03.2022
2340 Clouds -1 1024 67 10000 3.13 111 13:56 29.03.2022
2341 Clouds -1 1027 68 10000 2.24 116 12:51 29.03.2022
2342 Clouds -1 1027 59 10000 1.79 102 11:43 29.03.2022
2343 Clouds -1 1027 59 10000 1.34 101 10:28 29.03.2022
2344 Clouds -2 1027 62 10000 4.12 90 09:33 29.03.2022
2345 Clouds -2 1028 63 10000 1.34 77 06:56 29.03.2022
2346 Clouds -3 1028 58 10000 0.89 75 03:54 29.03.2022
2347 Clouds -1 1027 47 10000 5.14 90 00:33 29.03.2022
2348 Clouds 0 1028 45 10000 5.66 70 23:22 28.03.2022
2349 Clouds 0 1028 45 10000 5.66 70 22:51 28.03.2022
2350 Clouds 0 1028 45 10000 5.66 70 22:23 28.03.2022
2351 Clouds 0 1029 44 10000 7.2 50 20:54 28.03.2022
2352 Clouds 0 1029 42 10000 7.2 50 20:20 28.03.2022
2353 Clouds 0 1029 42 10000 6.17 10 19:41 28.03.2022
2354 Clouds -1 1030 42 10000 4.63 360 18:54 28.03.2022
2355 Clouds -1 1029 43 10000 4.63 360 18:20 28.03.2022
2356 Clouds -2 1029 44 10000 5.14 360 17:32 28.03.2022
2357 Clouds -3 1031 48 10000 4.98 352 16:19 28.03.2022
2358 Clear -5 1026 55 10000 5.41 347 14:27 28.03.2022
2359 Clear -5 1026 56 10000 5.43 347 13:47 28.03.2022
2360 Clear -4 1026 48 10000 1.79 22 11:58 28.03.2022
2361 Clear -4 1024 51 10000 3.58 360 10:50 28.03.2022
2362 Clear -4 1024 60 10000 1.34 22 09:41 28.03.2022
2363 Clear -4 1024 67 10000 2.06 260 08:49 28.03.2022
2364 Clear -4 1024 66 10000 2.06 260 08:22 28.03.2022
2365 Clear -4 1024 66 10000 2.06 260 08:22 28.03.2022
2366 Clear -3 1024 65 10000 2.06 220 07:27 28.03.2022
2367 Clear -3 1024 59 10000 3.09 100 03:27 28.03.2022
2368 Clouds 1 1024 47 10000 3.6 70 23:24 27.03.2022
2369 Clouds 1 1024 43 10000 7.72 320 22:23 27.03.2022
2370 Clouds 0 1024 43 10000 3.13 67 21:41 27.03.2022
2371 Clouds 0 1024 43 10000 5.14 320 20:53 27.03.2022
2372 Clouds -1 1024 44 10000 4.63 30 19:46 27.03.2022
2373 Clouds -1 1024 43 10000 5.14 20 18:54 27.03.2022
2374 Clouds -2 1024 44 10000 5.14 20 18:26 27.03.2022
2375 Clouds -2 1024 44 10000 5.14 20 18:26 27.03.2022
2376 Clouds -2 1025 46 10000 6.69 340 17:38 27.03.2022
2377 Clouds -4 1026 51 10000 6.51 336 15:59 27.03.2022
2378 Clouds -5 1020 58 10000 7.2 350 14:26 27.03.2022
2379 Clouds -5 1020 62 10000 1.79 345 13:54 27.03.2022
2380 Clouds -4 1021 67 10000 2.68 337 11:52 27.03.2022
2381 Clouds -4 1019 64 10000 2.57 290 10:28 27.03.2022
2382 Clouds -3 1019 58 10000 4.12 320 08:21 27.03.2022
2383 Clouds -2 1018 55 10000 6.69 340 05:19 27.03.2022
2384 Clouds -1 1016 55 10000 7.72 320 00:47 27.03.2022
2385 Clouds -1 1015 55 10000 6.17 310 23:30 26.03.2022
2386 Clouds -1 1015 55 10000 8.75 300 22:29 26.03.2022
2387 Clouds -1 1014 54 10000 7.72 300 21:32 26.03.2022
2388 Clouds -1 1014 56 10000 8.75 320 19:46 26.03.2022
2389 Clouds -1 1016 58 10000 7.75 318 18:59 26.03.2022
2390 Clouds -1 1013 61 10000 4.92 330 17:44 26.03.2022
2391 Clouds -1 1015 64 10000 8.1 317 17:22 26.03.2022
2392 Clouds -1 1012 67 10000 3.58 337 16:24 26.03.2022
2393 Clouds 0 1009 66 10000 4.02 330 14:50 26.03.2022
2394 Snow 0 1008 69 10000 4.92 332 13:52 26.03.2022
2395 Clouds 0 1009 70 10000 8.48 305 12:41 26.03.2022
2396 Clouds 1 1010 72 10000 8.63 303 11:28 26.03.2022
2397 Clouds 1 1009 65 10000 8.71 304 09:23 26.03.2022
2398 Clouds 1 1009 73 10000 8.42 305 08:27 26.03.2022
2399 Clouds 2 1008 69 10000 3.58 331 05:53 26.03.2022
2400 Clouds 3 1008 70 4505 6.26 333 03:32 26.03.2022
2401 Clouds 8 1006 49 10000 5.81 315 22:57 25.03.2022
2402 Clouds 6 1007 82 10000 8.01 285 20:58 25.03.2022
2403 Clouds 6 1007 84 10000 8.01 285 20:38 25.03.2022
2404 Clouds 6 1007 80 10000 1.79 287 19:21 25.03.2022
2405 Clouds 7 1008 73 10000 2.24 281 18:37 25.03.2022
2406 Clouds 8 1008 65 10000 8.23 270 17:34 25.03.2022
2407 Clouds 7 1008 66 10000 5.66 290 16:41 25.03.2022
2408 Clouds 6 1009 75 10000 5.66 290 15:50 25.03.2022
2409 Clouds 4 1008 90 10000 4.16 264 13:40 25.03.2022
2410 Clouds 4 1008 90 10000 3.83 279 11:49 25.03.2022
2411 Clouds 4 1011 91 10000 3.7 281 09:47 25.03.2022
2412 Clouds 4 1011 91 10000 3.67 282 09:19 25.03.2022
2413 Clouds 4 1011 92 10000 3.57 286 07:48 25.03.2022
2414 Clouds 4 1011 93 10000 3.54 291 07:21 25.03.2022
2415 Clouds 4 1011 92 97 3.74 289 04:35 25.03.2022
2416 Rain 5 1008 89 10000 5.14 260 23:55 24.03.2022
2417 Rain 6 1007 85 10000 4.12 250 22:24 24.03.2022
2418 Drizzle 6 1006 84 10000 5.14 250 21:29 24.03.2022
2419 Rain 6 1006 86 9656 4.63 230 19:50 24.03.2022
2420 Clouds 6 1007 85 10000 5.14 230 18:49 24.03.2022
2421 Clouds 6 1006 83 10000 5.66 240 17:38 24.03.2022
2422 Clouds 6 1006 86 10000 5.14 240 16:41 24.03.2022
2423 Clouds 6 1005 89 10000 1.79 247 14:58 24.03.2022
2424 Mist 6 1005 89 9656 4.12 250 14:39 24.03.2022
2425 Mist 5 1004 89 9656 3.6 240 13:41 24.03.2022
2426 Clouds 5 1004 90 10000 4.18 234 12:39 24.03.2022
2427 Clouds 6 1005 91 10000 4.57 233 11:31 24.03.2022
2428 Drizzle 7 1003 93 3219 6.69 220 09:34 24.03.2022
2429 Drizzle 7 1003 93 4023 6.69 210 08:39 24.03.2022
2430 Drizzle 8 1001 90 4023 6.69 210 06:18 24.03.2022
2431 Clouds 11 999 90 10000 7.72 210 01:20 24.03.2022
2432 Rain 13 998 91 10000 2.06 140 22:26 23.03.2022
2433 Rain 13 998 87 2414 4.12 170 21:25 23.03.2022
2434 Rain 14 998 85 10000 1.54 200 20:46 23.03.2022
2435 Clouds 13 999 90 10000 1.54 210 19:33 23.03.2022
2436 Mist 12 1000 93 4828 2.06 200 18:19 23.03.2022
2437 Mist 12 1000 93 8047 1.54 210 17:31 23.03.2022
2438 Mist 11 1001 94 8047 2.06 190 16:18 23.03.2022
2439 Mist 11 999 94 9656 3.09 200 14:49 23.03.2022
2440 Mist 11 999 94 6437 3.6 150 13:34 23.03.2022
2441 Mist 10 999 94 4023 4.63 160 11:38 23.03.2022
2442 Mist 9 1002 92 4828 7.2 140 08:51 23.03.2022
2443 Rain 8 1003 86 10000 5.14 90 06:26 23.03.2022
2444 Mist 8 1007 88 10000 9.26 130 03:52 23.03.2022
2445 Clouds 10 1009 84 10000 9.77 120 00:28 23.03.2022
2446 Clouds 10 1009 84 10000 9.77 120 00:28 23.03.2022
2447 Clouds 11 1011 76 10000 9.77 140 21:56 22.03.2022
2448 Clouds 11 1011 74 10000 8.23 140 21:26 22.03.2022
2449 Clouds 11 1012 74 10000 8.23 140 20:34 22.03.2022
2450 Clouds 10 1011 79 10000 9.26 130 19:31 22.03.2022
2451 Clouds 9 1012 82 10000 6.26 135 18:54 22.03.2022
2452 Clouds 10 1013 81 10000 9.77 120 17:44 22.03.2022
2453 Clouds 10 1014 82 10000 10.8 110 17:18 22.03.2022
2454 Rain 10 1016 84 10000 6.17 140 15:49 22.03.2022
2455 Rain 10 1016 82 10000 6.17 140 15:21 22.03.2022
2456 Clouds 10 1016 83 10000 2.24 161 14:45 22.03.2022
2457 Clouds 10 1015 83 10000 5.14 150 14:24 22.03.2022
2458 Clouds 11 1016 72 10000 2.24 202 12:41 22.03.2022
2459 Clouds 12 1016 56 10000 4.63 210 11:26 22.03.2022
2460 Clouds 11 1016 62 10000 4.55 190 09:55 22.03.2022
2461 Clouds 13 1016 56 10000 2.06 140 07:48 22.03.2022
2462 Clouds 15 1017 46 10000 3.6 170 05:19 22.03.2022
2463 Clouds 16 1019 47 10000 3.53 169 03:38 22.03.2022
2464 Clouds 22 1016 31 10000 1.79 215 23:41 21.03.2022
2465 Clouds 23 1016 30 10000 7.72 220 21:51 21.03.2022
2466 Clouds 23 1016 30 10000 7.72 220 21:51 21.03.2022
2467 Clouds 23 1017 32 10000 7.2 230 20:45 21.03.2022
2468 Clouds 23 1018 32 10000 7.2 230 20:26 21.03.2022
2469 Clouds 22 1018 33 10000 6.69 220 19:53 21.03.2022
2470 Clouds 22 1018 34 10000 6.69 220 19:23 21.03.2022
2471 Clouds 19 1020 37 10000 6.17 220 17:43 21.03.2022
2472 Clouds 18 1019 39 10000 6.17 220 17:18 21.03.2022
2473 Clouds 17 1021 40 10000 6.69 210 16:37 21.03.2022
2474 Clouds 15 1020 42 10000 4.12 200 15:46 21.03.2022
2475 Clouds 12 1021 53 10000 3.09 180 14:48 21.03.2022
2476 Clouds 8 1021 64 10000 3.09 190 13:35 21.03.2022
2477 Clouds 8 1021 67 10000 2.57 170 12:31 21.03.2022
2478 Clouds 8 1021 68 10000 1.54 170 11:39 21.03.2022
2479 Clouds 8 1021 67 10000 0.45 202 10:20 21.03.2022
2480 Clouds 8 1021 63 10000 2.06 200 08:26 21.03.2022
2481 Clouds 9 1021 61 10000 1.54 200 06:31 21.03.2022
2482 Clouds 11 1022 55 10000 1.61 195 02:33 21.03.2022
2483 Clouds 16 1020 41 10000 3.6 220 23:32 20.03.2022
2484 Clouds 17 1020 41 10000 3.09 260 22:43 20.03.2022
2485 Clouds 17 1020 40 10000 4.63 230 21:49 20.03.2022
2486 Clouds 16 1021 41 10000 4.63 230 21:20 20.03.2022
2487 Clouds 16 1021 39 10000 5.66 230 20:42 20.03.2022
2488 Clear 15 1021 40 10000 0.89 239 19:57 20.03.2022
2489 Clear 14 1021 41 10000 3.6 230 19:26 20.03.2022
2490 Clear 12 1022 46 10000 2.57 230 17:51 20.03.2022
2491 Clear 11 1022 48 10000 2.57 230 17:29 20.03.2022
2492 Clear 10 1023 53 10000 1.79 251 16:46 20.03.2022
2493 Clear 4 1021 80 10000 2.06 255 14:54 20.03.2022
2494 Clouds 1 1021 87 10000 1.54 210 13:46 20.03.2022
2495 Clear 1 1018 87 10000 2.06 220 12:22 20.03.2022
2496 Clear 1 1018 85 10000 3.6 280 10:42 20.03.2022
2497 Clear 2 1019 89 10000 0.89 292 08:37 20.03.2022
2498 Clouds 3 1020 91 10000 3.72 276 06:55 20.03.2022
2499 Clouds 4 1019 91 10000 3.77 277 03:59 20.03.2022
2500 Clouds 6 1017 89 111 4.13 294 00:59 20.03.2022
2501 Rain 6 1017 88 10000 4.02 292 00:36 20.03.2022
2502 Rain 5 1013 86 10000 4.63 290 22:56 19.03.2022
2503 Rain 4 1011 87 10000 6.17 310 21:27 19.03.2022
2504 Clouds 3 1014 89 31 5.18 300 20:19 19.03.2022
2505 Clouds 3 1010 89 10000 4.63 300 18:44 19.03.2022
2506 Clouds 3 1012 91 2553 5.1 309 17:57 19.03.2022
2507 Clouds 3 1011 91 2553 5.1 309 17:34 19.03.2022
2508 Clouds 3 1010 94 10000 5.8 321 15:43 19.03.2022
2509 Clouds 3 1007 94 10000 6.21 326 14:30 19.03.2022
2510 Rain 3 1004 94 10000 3.13 348 12:56 19.03.2022
2511 Drizzle 3 1004 94 4828 5.66 360 12:38 19.03.2022
2512 Drizzle 3 1002 95 6437 6.69 360 11:49 19.03.2022
2513 Rain 3 1004 94 3219 6.69 360 10:44 19.03.2022
2514 Clouds 4 1005 94 9009 4.02 30 06:27 19.03.2022
2515 Rain 4 1005 94 2414 5.14 360 03:21 19.03.2022
2516 Rain 4 1007 93 2005 3.13 39 01:33 19.03.2022
2517 Rain 5 1007 92 7473 4.47 26 23:26 18.03.2022
2518 Rain 5 1008 91 5268 2.24 90 22:26 18.03.2022
2519 Rain 5 1009 88 4587 1.34 26 20:56 18.03.2022
2520 Clouds 5 1009 87 7585 4.47 62 19:50 18.03.2022
2521 Rain 6 1011 85 9900 3.58 62 19:21 18.03.2022
2522 Clouds 6 1012 78 10000 9.77 30 17:39 18.03.2022
2523 Clouds 5 1013 80 10000 8.75 30 16:46 18.03.2022
2524 Clouds 5 1013 82 10000 8.75 20 14:45 18.03.2022
2525 Clouds 5 1013 82 10000 8.75 20 14:20 18.03.2022
2526 Clouds 4 1013 82 10000 2.68 34 12:23 18.03.2022
2527 Clouds 5 1015 77 10000 1.34 42 10:47 18.03.2022
2528 Clouds 8 1015 72 10000 2.57 10 09:28 18.03.2022
2529 Clouds 8 1015 73 10000 2.57 60 07:59 18.03.2022
2530 Clouds 8 1015 72 10000 4.63 70 06:34 18.03.2022
2531 Clouds 9 1015 64 10000 4.63 30 02:51 18.03.2022
2532 Clouds 12 1013 60 10000 4.12 20 00:22 18.03.2022
2533 Clouds 13 1013 60 10000 5.14 30 23:22 17.03.2022
2534 Clouds 14 1012 60 10000 5.14 30 22:24 17.03.2022
2535 Clouds 15 1012 59 10000 3.09 0 21:48 17.03.2022
2536 Clouds 16 1012 58 10000 3.09 0 21:20 17.03.2022
2537 Clouds 18 1011 55 10000 2.57 210 20:42 17.03.2022
2538 Clouds 20 1012 52 10000 1.54 190 19:46 17.03.2022
2539 Clouds 19 1012 56 10000 0.42 286 18:57 17.03.2022
2540 Clouds 19 1012 54 10000 2.57 210 18:37 17.03.2022
2541 Clouds 16 1012 59 10000 4.12 240 16:48 17.03.2022
2542 Clouds 14 1012 63 10000 3.09 210 15:44 17.03.2022
2543 Clouds 13 1012 67 10000 1.8 229 15:23 17.03.2022
2544 Clouds 10 1013 72 10000 2.06 210 13:50 17.03.2022
2545 Clouds 9 1012 73 10000 0.89 220 12:49 17.03.2022
2546 Clouds 9 1012 72 10000 0.89 215 12:21 17.03.2022
2547 Clouds 10 1012 71 10000 2.57 200 11:27 17.03.2022
2548 Clouds 11 1012 70 10000 0.89 210 09:57 17.03.2022
2549 Clouds 12 1012 67 10000 2.57 210 08:34 17.03.2022
2550 Clouds 12 1012 67 10000 2.57 210 08:34 17.03.2022
2551 Clouds 12 1012 65 10000 2.57 210 07:33 17.03.2022
2552 Clouds 14 1012 61 10000 2.57 190 05:47 17.03.2022
2553 Clouds 19 1011 58 10000 3.71 197 00:46 17.03.2022
2554 Clouds 20 1010 42 10000 4.42 204 23:39 16.03.2022
2555 Clouds 20 1012 41 10000 2.68 228 22:44 16.03.2022
2556 Clouds 20 1013 41 10000 4.47 246 22:21 16.03.2022
2557 Clouds 20 1013 41 10000 7.2 200 21:37 16.03.2022
2558 Clouds 19 1015 48 10000 5.66 200 19:40 16.03.2022
2559 Clouds 19 1015 45 10000 5.66 200 19:19 16.03.2022
2560 Clouds 18 1015 50 10000 7.2 200 18:35 16.03.2022
2561 Clouds 17 1016 51 10000 5.14 200 17:41 16.03.2022
2562 Clouds 15 1016 61 10000 4.98 179 16:56 16.03.2022
2563 Clear 11 1019 73 10000 1.79 202 15:55 16.03.2022
2564 Clouds 6 1019 82 10000 2.57 170 14:25 16.03.2022
2565 Clouds 4 1017 83 10000 0 0 13:24 16.03.2022
2566 Clouds 4 1019 80 10000 1.54 170 11:53 16.03.2022
2567 Clouds 4 1019 81 10000 1.54 170 11:20 16.03.2022
2568 Clouds 4 1019 82 10000 0.45 238 10:18 16.03.2022
2569 Clear 3 1020 82 10000 0 0 08:38 16.03.2022
2570 Clear 3 1022 82 10000 1.54 90 04:35 16.03.2022
2571 Clear 6 1022 73 10000 4.12 80 00:48 16.03.2022
2572 Clouds 9 1023 62 10000 4.63 110 22:37 15.03.2022
2573 Clouds 10 1023 57 10000 3.09 100 21:52 15.03.2022
2574 Clear 9 1024 62 10000 4.12 20 19:53 15.03.2022
2575 Clouds 8 1024 64 10000 3.09 20 18:45 15.03.2022
2576 Clouds 6 1025 73 10000 2.68 40 16:53 15.03.2022
2577 Clouds 5 1025 77 10000 1.34 21 16:20 15.03.2022
2578 Clouds 3 1024 82 10000 3.13 24 14:57 15.03.2022
2579 Clouds 3 1023 83 10000 2.68 21 14:31 15.03.2022
2580 Clouds 3 1021 86 10000 2.24 42 13:27 15.03.2022
2581 Clouds 3 1021 84 10000 1.79 22 11:57 15.03.2022
2582 Clouds 3 1022 85 10000 2.77 2 11:19 15.03.2022
2583 Clouds 3 1022 82 10000 2.68 24 09:37 15.03.2022
2584 Clouds 3 1023 82 10000 0 0 08:32 15.03.2022
2585 Clouds 3 1022 81 10000 1.54 30 07:50 15.03.2022
2586 Clouds 3 1023 83 10000 3.6 360 06:35 15.03.2022
2587 Clouds 6 1023 76 10000 1.79 41 02:36 15.03.2022
2588 Clouds 17 1018 35 10000 8.23 220 23:36 14.03.2022
2589 Clouds 17 1021 38 10000 4.46 224 23:18 14.03.2022
2590 Clouds 17 1019 34 10000 3.13 252 21:59 14.03.2022
2591 Clouds 17 1019 35 10000 0.89 209 21:20 14.03.2022
2592 Clouds 16 1019 38 10000 6.69 240 20:34 14.03.2022
2593 Clouds 16 1020 38 10000 6.17 210 19:47 14.03.2022
2594 Clouds 14 1019 42 10000 5.66 210 18:23 14.03.2022
2595 Clouds 13 1021 46 10000 7.2 220 17:43 14.03.2022
2596 Clouds 11 1022 52 10000 3.13 217 16:57 14.03.2022
2597 Clouds 7 1020 64 10000 5.14 210 15:29 14.03.2022
2598 Clouds 5 1020 70 10000 4.12 200 14:24 14.03.2022
2599 Clouds 5 1022 71 10000 3.56 181 11:36 14.03.2022
2600 Clouds 5 1021 70 10000 1.34 197 10:23 14.03.2022
2601 Clouds 5 1022 73 10000 2.92 162 09:38 14.03.2022
2602 Clouds 5 1023 73 10000 2.93 169 09:18 14.03.2022
2603 Clouds 5 1023 73 10000 2.93 169 08:46 14.03.2022
2604 Clouds 5 1020 70 10000 0 0 07:21 14.03.2022
2605 Clouds 5 1021 67 10000 0.89 225 04:22 14.03.2022
2606 Clouds 8 1016 55 10000 4.63 240 01:51 14.03.2022
2607 Clouds 10 1015 40 10000 7.72 260 00:38 14.03.2022
2608 Clear 11 1015 47 10000 4.02 287 21:56 13.03.2022
2609 Clouds 10 1014 47 10000 5.66 250 21:27 13.03.2022
2610 Clear 10 1015 47 10000 5.66 260 20:49 13.03.2022
2611 Clear 9 1014 47 10000 5.66 260 20:26 13.03.2022
2612 Clear 8 1015 48 10000 7.2 250 19:42 13.03.2022
2613 Clear 8 1014 48 10000 7.2 250 19:23 13.03.2022
2614 Clear 8 1014 48 10000 7.2 250 19:23 13.03.2022
2615 Clear 8 1014 48 10000 7.2 250 19:23 13.03.2022
2616 Clear 7 1015 49 10000 7.72 250 18:49 13.03.2022
2617 Clear 6 1013 48 10000 7.72 250 18:26 13.03.2022
2618 Clear 5 1014 51 10000 6.69 270 17:39 13.03.2022
2619 Clouds 4 1014 53 10000 8.23 260 16:48 13.03.2022
2620 Clouds 3 1012 53 10000 1.79 274 16:27 13.03.2022
2621 Clouds 2 1014 55 10000 6.17 230 15:43 13.03.2022
2622 Clouds 0 1014 58 10000 4.63 220 14:49 13.03.2022
2623 Clouds -2 1011 59 10000 3.13 221 13:29 13.03.2022
2624 Clouds -3 1011 57 10000 1.34 242 12:25 13.03.2022
2625 Clouds -4 1011 57 10000 7.2 190 11:45 13.03.2022
2626 Clouds -5 1014 58 10000 6.17 190 10:51 13.03.2022
2627 Clouds -6 1015 58 10000 6.17 190 10:30 13.03.2022
2628 Clouds -6 1017 59 10000 5.14 200 09:43 13.03.2022
2629 Clouds -6 1018 58 10000 4.12 200 08:50 13.03.2022
2630 Clouds -6 1019 57 10000 4.12 200 08:31 13.03.2022
2631 Clouds -6 1020 57 10000 5.14 220 07:34 13.03.2022
2632 Clouds -7 1022 61 10000 4.63 220 04:59 13.03.2022
2633 Clouds -7 1022 54 10000 5.66 250 01:48 13.03.2022
2634 Clouds -5 1022 43 10000 6.17 250 23:28 12.03.2022
2635 Clouds -5 1022 41 10000 6.17 270 21:43 12.03.2022
2636 Clouds -6 1022 40 10000 6.69 320 20:20 12.03.2022
2637 Clouds -7 1023 41 10000 7.72 300 19:46 12.03.2022
2638 Clouds -8 1023 44 10000 6.17 300 18:41 12.03.2022
2639 Clouds -9 1024 46 10000 2.68 288 17:53 12.03.2022
2640 Clouds -10 1023 51 10000 7.2 290 16:28 12.03.2022
2641 Clouds -10 1023 54 10000 7.2 310 15:52 12.03.2022
2642 Clouds -11 1023 56 10000 7.2 310 15:21 12.03.2022
2643 Clouds -12 1020 62 10000 2.24 335 13:54 12.03.2022
2644 Clouds -12 1020 62 10000 2.24 335 13:54 12.03.2022
2645 Clouds -12 1021 59 10000 3.13 333 12:28 12.03.2022
2646 Clouds -11 1021 59 10000 4.92 323 11:53 12.03.2022
2647 Clouds -11 1021 59 10000 3.58 324 11:33 12.03.2022
2648 Clouds -11 1021 56 10000 2.24 356 10:26 12.03.2022
2649 Clouds -10 1021 55 10000 4.02 344 09:43 12.03.2022
2650 Clear -9 1021 51 10000 4.02 333 07:58 12.03.2022
2651 Clouds -9 1021 47 10000 4.47 331 06:40 12.03.2022
2652 Clouds -3 1017 43 10000 8.75 280 00:31 12.03.2022
2653 Clouds -2 1018 45 10000 4.47 280 23:43 11.03.2022
2654 Clouds -2 1017 58 10000 11.32 260 22:32 11.03.2022
2655 Clouds -1 1017 55 10000 4.92 281 21:24 11.03.2022
2656 Clouds -1 1017 50 10000 8.23 250 20:46 11.03.2022
2657 Clouds 0 1017 48 10000 8.23 250 20:26 11.03.2022
2658 Snow -1 1018 48 10000 4.47 251 19:33 11.03.2022
2659 Snow -2 1019 54 10000 5.14 240 18:30 11.03.2022
2660 Clouds -3 1019 59 10000 4.63 270 17:24 11.03.2022
2661 Clouds -4 1021 69 10000 2.24 289 15:59 11.03.2022
2662 Clouds -5 1020 72 10000 4.12 290 15:32 11.03.2022
2663 Clouds -6 1018 82 10000 0.89 270 13:42 11.03.2022
2664 Mist -6 1018 81 4023 3.09 340 12:39 11.03.2022
2665 Mist -6 1018 82 4023 3.09 340 12:19 11.03.2022
2666 Clouds -6 1022 83 512 1.79 331 10:44 11.03.2022
2667 Clouds -6 1022 84 380 2.24 1 09:35 11.03.2022
2668 Snow -5 1022 84 552 1.79 8 08:28 11.03.2022
2669 Snow -5 1023 84 552 2.24 11 07:48 11.03.2022
2670 Snow -5 1023 83 10000 2.24 337 06:42 11.03.2022
2671 Clouds -4 1024 81 10000 1.79 10 04:37 11.03.2022
2672 Clouds -4 1023 69 10000 2.24 64 01:29 11.03.2022
2673 Clouds -2 1023 57 10000 5.14 70 22:32 10.03.2022
2674 Clouds -2 1024 55 10000 2.57 20 21:53 10.03.2022
2675 Clouds -2 1024 56 10000 3.13 78 21:25 10.03.2022
2676 Clouds -2 1024 55 10000 3.13 90 20:34 10.03.2022
2677 Clouds -2 1025 57 10000 3.09 80 19:20 10.03.2022
2678 Clouds -2 1026 56 10000 4.12 20 17:50 10.03.2022
2679 Clouds -3 1026 57 10000 4.63 360 16:52 10.03.2022
2680 Clouds -4 1026 62 10000 4.63 360 15:28 10.03.2022
2681 Clouds -5 1023 65 10000 2.24 358 13:42 10.03.2022
2682 Clouds -4 1022 63 10000 5.14 340 12:38 10.03.2022
2683 Clouds -4 1022 64 10000 2.68 356 11:28 10.03.2022
2684 Clouds -4 1024 70 10000 1.79 337 09:29 10.03.2022
2685 Clouds -3 1023 69 10000 1.79 313 07:47 10.03.2022
2686 Clouds -2 1023 63 10000 1.79 286 05:30 10.03.2022
2687 Clear 1 1020 54 10000 3.58 313 01:56 10.03.2022
2688 Clouds 4 1018 45 10000 6.17 280 23:32 09.03.2022
2689 Clouds 5 1018 43 10000 6.17 300 22:20 09.03.2022
2690 Clouds 5 1018 42 10000 5.66 280 21:36 09.03.2022
2691 Clouds 5 1017 44 10000 5.66 280 20:31 09.03.2022
2692 Clear 5 1017 53 10000 5.66 260 18:35 09.03.2022
2693 Clear 4 1017 60 10000 4.63 290 17:28 09.03.2022
2694 Clouds 3 1017 61 10000 4.63 280 16:35 09.03.2022
2695 Clouds 1 1017 67 10000 5.14 270 15:32 09.03.2022
2696 Clouds -1 1017 74 10000 3.59 263 13:55 09.03.2022
2697 Clouds -1 1016 75 10000 3.24 264 12:59 09.03.2022
2698 Clouds -1 1016 76 10000 3.49 267 12:19 09.03.2022
2699 Clouds -1 1017 76 10000 0.45 261 11:36 09.03.2022
2700 Clouds -1 1019 78 10000 3.49 265 10:39 09.03.2022
2701 Clouds -2 1020 79 10000 3.28 227 08:59 09.03.2022
2702 Clouds -2 1020 79 10000 2.83 217 08:25 09.03.2022
2703 Clouds 0 1019 67 10000 1.34 290 03:50 09.03.2022
2704 Clouds 3 1020 55 10000 2.24 240 00:47 09.03.2022
2705 Clouds 4 1019 49 10000 4.12 240 23:18 08.03.2022
2706 Clouds 4 1019 47 10000 2.06 0 22:44 08.03.2022
2707 Clouds 4 1021 49 10000 4.12 230 21:24 08.03.2022
2708 Clouds 4 1022 50 10000 5.14 230 20:49 08.03.2022
2709 Clouds 3 1023 53 10000 4.63 220 19:53 08.03.2022
2710 Clouds 2 1024 57 10000 4.63 220 18:44 08.03.2022
2711 Clouds 1 1025 59 10000 5.14 220 17:40 08.03.2022
2712 Clear 0 1026 62 10000 2.24 221 16:29 08.03.2022
2713 Clouds -3 1025 68 10000 1.54 250 14:20 08.03.2022
2714 Clouds -3 1023 66 10000 2.57 250 12:44 08.03.2022
2715 Clouds -2 1023 64 10000 2.06 280 11:45 08.03.2022
2716 Clouds -2 1023 64 10000 3.09 270 10:50 08.03.2022
2717 Clear -2 1026 65 10000 0.89 268 09:57 08.03.2022
2718 Clear -1 1025 64 10000 2.24 283 07:33 08.03.2022
2719 Clouds -1 1025 65 10000 1.34 329 05:43 08.03.2022
2720 Clouds 1 1020 67 10000 4.47 321 23:52 07.03.2022
2721 Rain 1 1019 71 10000 3.58 330 21:59 07.03.2022
2722 Rain 1 1018 70 10000 1.79 343 21:32 07.03.2022
2723 Rain 2 1017 74 10000 2.68 322 20:48 07.03.2022
2724 Rain 2 1017 76 10000 4.47 337 20:20 07.03.2022
2725 Clouds 1 1015 81 10000 6.69 320 19:33 07.03.2022
2726 Snow 1 1015 88 10000 6.69 320 18:44 07.03.2022
2727 Snow 1 1013 91 2816 6.17 320 17:50 07.03.2022
2728 Snow 0 1015 93 2816 5.66 330 16:55 07.03.2022
2729 Snow 0 1016 94 241 5.74 320 15:50 07.03.2022
2730 Snow 0 1012 94 133 5.59 326 13:52 07.03.2022
2731 Snow 0 1010 93 142 4.59 19 12:28 07.03.2022
2732 Mist 0 1011 91 4828 6.69 30 10:38 07.03.2022
2733 Snow 1 1014 89 1485 3.58 33 08:57 07.03.2022
2734 Clouds 3 1019 74 10000 1.36 341 04:43 07.03.2022
2735 Clouds 4 1019 65 10000 4.12 250 00:23 07.03.2022
2736 Clouds 5 1019 65 10000 2.68 294 23:35 06.03.2022
2737 Clouds 5 1019 63 10000 6.17 270 22:42 06.03.2022
2738 Clouds 5 1018 61 10000 7.72 280 21:58 06.03.2022
2739 Clouds 5 1018 62 10000 7.2 250 20:49 06.03.2022
2740 Clouds 5 1018 62 10000 8.23 260 20:22 06.03.2022
2741 Clouds 4 1018 67 10000 8.75 270 18:56 06.03.2022
2742 Clouds 3 1017 69 10000 8.75 270 18:23 06.03.2022
2743 Clouds 3 1016 71 10000 8.75 260 17:21 06.03.2022
2744 Clouds 2 1015 72 10000 10.29 260 16:41 06.03.2022
2745 Clouds 2 1014 73 10000 10.8 270 15:52 06.03.2022
2746 Clouds 2 1014 75 10000 4.47 278 14:49 06.03.2022
2747 Clouds 3 1013 73 10000 12.35 250 14:31 06.03.2022
2748 Clouds 3 1010 73 10000 3.58 280 13:18 06.03.2022
2749 Clouds 4 1009 74 10000 13.38 260 12:31 06.03.2022
2750 Clouds 7 1007 75 10000 6.26 296 10:53 06.03.2022
2751 Clouds 9 1006 73 10000 7.15 264 10:22 06.03.2022
2752 Clouds 14 1005 82 10000 7.2 210 08:29 06.03.2022
2753 Clouds 14 1005 82 10000 7.2 210 08:29 06.03.2022
2754 Clouds 14 1005 83 10000 7.2 210 08:29 06.03.2022
2755 Clouds 14 1005 82 10000 7.2 210 08:29 06.03.2022
2756 Clouds 14 1005 82 10000 7.2 210 08:29 06.03.2022
2757 Clouds 13 1005 83 10000 4.63 240 07:34 06.03.2022
2758 Clouds 17 1006 77 10000 4.02 202 05:32 06.03.2022
2759 Clouds 19 1007 60 10000 7.9 189 00:49 06.03.2022
2760 Clouds 20 1009 58 10000 7.5 192 00:29 06.03.2022
2761 Clouds 20 1008 55 10000 7.2 200 23:21 05.03.2022
2762 Clouds 19 1009 58 10000 3.58 220 22:47 05.03.2022
2763 Clouds 20 1009 56 10000 8.75 210 21:46 05.03.2022
2764 Clouds 20 1010 57 10000 5.81 222 21:21 05.03.2022
2765 Clouds 18 1012 51 10000 6.69 210 19:26 05.03.2022
2766 Clouds 18 1012 49 10000 7.2 200 18:53 05.03.2022
2767 Clouds 15 1013 41 10000 6.17 190 17:53 05.03.2022
2768 Clouds 12 1014 49 10000 3.6 180 16:32 05.03.2022
2769 Clouds 7 1014 54 10000 3.6 150 15:31 05.03.2022
2770 Clouds 6 1016 58 10000 3.6 160 14:44 05.03.2022
2771 Clouds 5 1016 58 10000 3.6 160 14:26 05.03.2022
2772 Clouds 4 1015 60 10000 3.6 150 13:20 05.03.2022
2773 Clouds 4 1017 60 10000 1.79 180 11:46 05.03.2022
2774 Clouds 4 1017 59 10000 1.34 175 11:18 05.03.2022
2775 Clouds 5 1020 56 10000 1.34 180 09:58 05.03.2022
2776 Clouds 5 1021 56 10000 1.79 164 08:59 05.03.2022
2777 Clouds 4 1021 54 10000 3.09 140 07:37 05.03.2022
2778 Clouds 4 1023 57 10000 2.24 176 05:42 05.03.2022
2779 Clouds 3 1025 59 10000 2.24 164 02:20 05.03.2022
2780 Clouds 4 1026 60 10000 5.66 80 23:36 04.03.2022
2781 Clouds 4 1027 56 10000 5.66 60 22:42 04.03.2022
2782 Clouds 4 1028 54 10000 5.66 80 21:48 04.03.2022
2783 Clouds 4 1029 51 10000 4.63 90 20:52 04.03.2022
2784 Clouds 4 1029 51 10000 4.63 90 20:22 04.03.2022
2785 Clouds 4 1030 49 10000 4.63 90 19:35 04.03.2022
2786 Clouds 4 1031 49 10000 1.54 70 18:43 04.03.2022
2787 Clouds 3 1032 53 10000 3.6 120 17:31 04.03.2022
2788 Clouds 2 1032 57 10000 4.12 120 16:43 04.03.2022
2789 Clouds 0 1033 65 10000 3.13 158 15:29 04.03.2022
2790 Clouds -2 1032 72 10000 3.6 100 14:19 04.03.2022
2791 Clouds -3 1030 74 10000 0.89 157 13:26 04.03.2022
2792 Clouds -2 1032 68 10000 3.6 80 11:41 04.03.2022
2793 Clouds -2 1031 66 10000 3.09 90 10:50 04.03.2022
2794 Clouds -2 1032 63 10000 2.57 80 09:42 04.03.2022
2795 Clouds -2 1032 62 10000 3.09 90 08:36 04.03.2022
2796 Clouds -3 1033 62 10000 0.45 91 07:23 04.03.2022
2797 Clouds -2 1034 60 10000 2.24 69 03:53 04.03.2022
2798 Clouds -1 1032 56 10000 5.14 60 00:24 04.03.2022
2799 Clouds 0 1032 57 10000 5.14 40 22:26 03.03.2022
2800 Clouds 0 1032 58 10000 6.17 30 21:41 03.03.2022
2801 Clouds 0 1032 58 10000 6.17 30 21:21 03.03.2022
2802 Clouds 1 1032 58 10000 5.14 40 19:52 03.03.2022
2803 Clouds 1 1032 56 10000 3.6 30 18:54 03.03.2022
2804 Clouds 0 1032 57 10000 3.6 30 18:23 03.03.2022
2805 Clouds 0 1031 57 10000 4.63 30 17:30 03.03.2022
2806 Clouds -1 1031 61 10000 6.17 20 16:24 03.03.2022
2807 Clouds -1 1030 63 10000 5.66 30 15:21 03.03.2022
2808 Clouds -2 1030 66 10000 3.58 47 14:42 03.03.2022
2809 Clouds -2 1027 66 10000 2.24 50 13:24 03.03.2022
2810 Clouds -2 1027 67 10000 2.68 64 11:54 03.03.2022
2811 Clouds -1 1026 68 10000 3.58 37 10:47 03.03.2022
2812 Clouds -1 1026 71 10000 4.02 59 09:38 03.03.2022
2813 Clouds 0 1025 76 10000 5.36 45 07:48 03.03.2022
2814 Clouds 1 1024 77 10000 3.58 33 06:35 03.03.2022
2815 Clouds 5 1019 71 10000 5.14 30 02:23 03.03.2022
2816 Clouds 12 1014 52 10000 4.12 290 23:34 02.03.2022
2817 Clouds 13 1015 47 10000 3.6 260 22:52 02.03.2022
2818 Clouds 13 1015 44 10000 4.12 270 21:34 02.03.2022
2819 Clouds 13 1015 61 10000 1.9 280 20:53 02.03.2022
2820 Clouds 13 1016 44 10000 4.12 250 20:24 02.03.2022
2821 Clouds 11 1017 52 10000 4.12 220 19:36 02.03.2022
2822 Clouds 10 1018 52 10000 5.14 220 18:48 02.03.2022
2823 Clouds 9 1018 53 10000 5.14 220 18:19 02.03.2022
2824 Clouds 7 1019 56 10000 3.09 230 17:34 02.03.2022
2825 Clouds 5 1020 60 10000 2.06 180 16:51 02.03.2022
2826 Clouds 2 1020 70 10000 2.24 199 14:49 02.03.2022
2827 Clouds 0 1019 78 10000 1.94 180 13:29 02.03.2022
2828 Clouds 0 1019 81 10000 1.54 120 12:44 02.03.2022
2829 Clouds 0 1019 83 10000 0.89 186 11:53 02.03.2022
2830 Clouds 1 1019 81 10000 2.06 100 11:25 02.03.2022
2831 Clouds 1 1020 82 10000 2.57 120 10:25 02.03.2022
2832 Clouds 1 1021 81 10000 3.09 120 09:25 02.03.2022
2833 Clouds 1 1022 82 10000 0.89 66 07:52 02.03.2022
2834 Clouds 2 1022 83 10000 0.45 109 07:23 02.03.2022
2835 Clouds 2 1021 82 10000 3.09 70 03:46 02.03.2022
2836 Clouds 5 1019 70 10000 4.63 100 00:39 02.03.2022
2837 Clouds 8 1017 62 10000 5.14 60 22:50 01.03.2022
2838 Clouds 8 1017 62 10000 5.14 60 22:31 01.03.2022
2839 Clouds 10 1016 57 10000 2.68 52 21:25 01.03.2022
2840 Clouds 10 1016 55 10000 1.79 76 20:33 01.03.2022
2841 Clouds 9 1016 58 10000 1.54 350 19:50 01.03.2022
2842 Clouds 8 1016 60 10000 2.24 51 18:52 01.03.2022
2843 Clouds 8 1016 61 10000 2.06 270 18:21 01.03.2022
2844 Drizzle 7 1017 62 10000 2.57 300 17:37 01.03.2022
2845 Clouds 7 1015 62 10000 2.57 300 16:35 01.03.2022
2846 Clouds 6 1015 64 10000 4.63 240 15:47 01.03.2022
2847 Clouds 5 1013 65 10000 5.14 230 14:41 01.03.2022
2848 Clouds 4 1013 66 10000 5.14 230 14:23 01.03.2022
2849 Clouds 4 1013 66 10000 4.12 250 13:26 01.03.2022
2850 Clouds 5 1013 65 10000 3.6 250 12:35 01.03.2022
2851 Clouds 5 1013 63 10000 4.12 230 10:52 01.03.2022
2852 Clouds 5 1014 65 10000 3.09 210 09:27 01.03.2022
2853 Clouds 5 1015 63 10000 3.09 210 08:19 01.03.2022
2854 Clouds 5 1015 70 10000 3.15 243 06:28 01.03.2022
2855 Clouds 6 1016 69 10000 3.06 253 02:57 01.03.2022
2856 Clouds 9 1016 65 10000 3.6 248 00:47 01.03.2022
2857 Clouds 11 1015 37 10000 7.2 240 23:36 28.02.2022
2858 Clouds 11 1016 47 10000 5.72 231 22:30 28.02.2022
2859 Clouds 11 1015 35 10000 8.23 210 21:43 28.02.2022
2860 Clouds 11 1018 42 10000 8.75 190 20:34 28.02.2022
2861 Clouds 10 1017 41 10000 7.72 200 19:51 28.02.2022
2862 Clouds 9 1020 46 10000 3.13 216 18:50 28.02.2022
2863 Clouds 6 1021 56 10000 6.17 180 17:37 28.02.2022
2864 Clouds 5 1021 58 10000 6.17 180 17:18 28.02.2022
2865 Clouds 2 1023 68 10000 1.79 199 15:59 28.02.2022
2866 Clouds -1 1023 73 10000 2.57 150 14:32 28.02.2022
2867 Clouds -2 1022 74 10000 3.6 140 13:52 28.02.2022
2868 Clouds -2 1022 74 10000 3.6 140 13:19 28.02.2022
2869 Clouds -3 1024 76 10000 0.45 180 11:59 28.02.2022
2870 Clouds -2 1023 75 10000 2.06 140 11:19 28.02.2022
2871 Clouds -3 1025 76 10000 0 0 10:22 28.02.2022
2872 Clouds -3 1025 74 10000 1.54 110 09:44 28.02.2022
2873 Clouds -3 1027 74 10000 1.43 153 08:54 28.02.2022
2874 Clouds -3 1024 73 10000 0.8 167 07:59 28.02.2022
2875 Clouds -2 1025 73 10000 0.73 178 06:31 28.02.2022
2876 Clear -1 1027 71 10000 0.77 359 04:31 28.02.2022
2877 Clouds 2 1025 56 10000 0.89 112 00:53 28.02.2022
2878 Clouds 4 1024 52 10000 2.46 319 22:53 27.02.2022
2879 Clouds 5 1024 70 10000 2.46 319 22:32 27.02.2022
2880 Clouds 4 1023 46 10000 2.24 99 21:42 27.02.2022
2881 Clouds 5 1026 41 10000 3.54 311 20:44 27.02.2022
2882 Clouds 4 1027 43 10000 3.64 300 20:18 27.02.2022
2883 Clouds 4 1024 68 10000 3.64 300 19:49 27.02.2022
2884 Clear 4 1027 47 10000 3.68 290 19:21 27.02.2022
2885 Clear 3 1025 45 10000 1.34 278 18:33 27.02.2022
2886 Clouds 2 1024 49 10000 4.12 290 17:49 27.02.2022
2887 Clouds 0 1024 59 10000 5.14 280 16:25 27.02.2022
2888 Clouds -2 1024 65 10000 4.63 260 15:24 27.02.2022
2889 Clear -3 1022 70 10000 5.14 250 12:37 27.02.2022
2890 Clear -3 1025 70 10000 2.68 270 11:54 27.02.2022
2891 Clear -2 1025 71 10000 5.66 250 10:37 27.02.2022
2892 Clear -2 1026 74 10000 1.79 253 09:58 27.02.2022
2893 Clear -2 1026 75 10000 2.68 255 09:24 27.02.2022
2894 Clear -2 1026 75 10000 4.02 263 08:51 27.02.2022
2895 Clear -2 1028 77 10000 0.89 256 06:30 27.02.2022
2896 Clear -2 1027 73 10000 5.66 230 04:19 27.02.2022
2897 Clear -1 1030 63 10000 2.24 232 00:31 27.02.2022
2898 Clear 0 1030 56 10000 6.69 230 22:48 26.02.2022
2899 Clear -1 1031 54 10000 6.17 250 21:29 26.02.2022
2900 Clear -1 1032 54 10000 6.17 260 20:43 26.02.2022
2901 Clear -2 1034 55 10000 3.13 287 19:58 26.02.2022
2902 Clear -2 1034 55 10000 4.02 287 19:33 26.02.2022
2903 Clouds -3 1034 57 10000 5.14 270 18:40 26.02.2022
2904 Clouds -5 1034 60 10000 5.66 250 17:38 26.02.2022
2905 Clouds -7 1034 66 10000 5.14 250 16:39 26.02.2022
2906 Clear -8 1034 72 10000 4.12 250 15:45 26.02.2022
2907 Clear -9 1034 74 10000 4.12 250 15:20 26.02.2022
2908 Clear -10 1035 77 10000 3.6 220 14:51 26.02.2022
2909 Clear -10 1035 80 10000 3.6 220 14:24 26.02.2022
2910 Clouds -11 1032 81 10000 1.34 262 12:59 26.02.2022
2911 Clouds -10 1034 81 10000 3.45 270 11:54 26.02.2022
2912 Clear -10 1032 78 10000 2.06 270 11:27 26.02.2022
2913 Clouds -9 1035 79 10000 1.34 302 10:22 26.02.2022
2914 Clouds -8 1036 79 10000 1.34 292 08:45 26.02.2022
2915 Clouds -8 1035 79 10000 1.34 292 06:46 26.02.2022
2916 Clouds -3 1034 73 10000 2.57 300 00:38 26.02.2022
2917 Clouds -2 1033 68 10000 2.06 0 22:45 25.02.2022
2918 Snow -2 1033 66 10000 3.09 300 21:37 25.02.2022
2919 Clouds -2 1033 65 10000 3.09 300 21:18 25.02.2022
2920 Clouds -2 1032 61 10000 2.57 350 20:31 25.02.2022
2921 Clouds -2 1032 67 10000 3.6 30 18:35 25.02.2022
2922 Clouds -4 1031 74 10000 4.12 330 17:23 25.02.2022
2923 Clouds -5 1031 77 10000 4.63 320 16:21 25.02.2022
2924 Clouds -6 1030 81 10000 5.66 330 15:42 25.02.2022
2925 Clouds -7 1030 82 10000 5.66 330 15:20 25.02.2022
2926 Clouds -7 1028 84 10000 5.66 320 14:41 25.02.2022
2927 Clouds -7 1027 87 8240 5 340 13:36 25.02.2022
2928 Mist -5 1023 86 8047 4.63 350 12:45 25.02.2022
2929 Snow -4 1023 91 8047 5.14 330 11:28 25.02.2022
2930 Mist -4 1023 91 4023 3.6 330 10:29 25.02.2022
2931 Mist -4 1023 90 3219 3.6 290 09:57 25.02.2022
2932 Snow -4 1023 90 1609 2.57 310 09:18 25.02.2022
2933 Mist -4 1022 88 8047 0 0 07:41 25.02.2022
2934 Mist -4 1022 89 3219 2.57 100 05:48 25.02.2022
2935 Snow -4 1023 90 171 4.02 111 03:34 25.02.2022
2936 Clouds -4 1026 88 194 1.34 69 23:42 24.02.2022
2937 Clouds -3 1027 73 4594 3.13 103 21:56 24.02.2022
2938 Clouds -3 1027 73 4594 3.13 72 21:38 24.02.2022
2939 Clouds -3 1027 72 10000 2.24 97 21:19 24.02.2022
2940 Clouds -3 1029 72 10000 5.66 70 19:38 24.02.2022
2941 Clouds -3 1030 71 10000 1.79 98 18:43 24.02.2022
2942 Clouds -4 1031 71 10000 4.12 50 18:19 24.02.2022
2943 Clouds -4 1030 71 10000 5.66 90 17:33 24.02.2022
2944 Clouds -4 1030 71 10000 6.17 100 16:49 24.02.2022
2945 Clouds -4 1030 71 10000 6.17 100 16:23 24.02.2022
2946 Clouds -4 1028 73 10000 3.58 67 14:54 24.02.2022
2947 Clouds -4 1028 73 10000 3.13 86 14:35 24.02.2022
2948 Clouds -4 1029 73 10000 2.68 86 13:39 24.02.2022
2949 Clouds -4 1030 73 10000 3.58 103 12:50 24.02.2022
2950 Clouds -5 1033 71 10000 4.02 83 10:40 24.02.2022
2951 Clouds -5 1032 73 10000 3.09 360 09:18 24.02.2022
2952 Clouds -5 1032 74 10000 3.6 320 08:40 24.02.2022
2953 Clouds -6 1033 81 8219 3.13 17 05:53 24.02.2022
2954 Clouds -6 1036 71 10000 1.79 30 01:56 24.02.2022
2955 Clouds -6 1034 64 10000 5.14 50 23:31 23.02.2022
2956 Clouds -6 1034 62 10000 3.13 79 21:43 23.02.2022
2957 Clouds -6 1035 59 10000 1.79 69 20:31 23.02.2022
2958 Clouds -6 1036 58 10000 2.24 92 19:47 23.02.2022
2959 Clouds -6 1033 58 10000 6.17 340 18:32 23.02.2022
2960 Clouds -6 1033 58 10000 6.17 340 18:32 23.02.2022
2961 Clouds -6 1033 58 10000 6.17 340 18:32 23.02.2022
2962 Clouds -7 1034 60 10000 4.12 310 17:44 23.02.2022
2963 Clouds -9 1033 68 10000 7.2 330 15:19 23.02.2022
2964 Clouds -8 1028 72 10000 5.81 346 12:50 23.02.2022
2965 Clouds -8 1028 73 10000 7.72 320 12:24 23.02.2022
2966 Clouds -7 1028 77 10000 2.68 331 10:35 23.02.2022
2967 Clouds -6 1027 74 10000 4.02 336 08:59 23.02.2022
2968 Clouds -6 1027 74 10000 4.02 336 08:59 23.02.2022
2969 Clouds -5 1025 74 10000 6.69 300 08:23 23.02.2022
2970 Clouds -5 1024 79 10000 3.58 331 06:53 23.02.2022
2971 Clouds -2 1014 89 10000 9.77 260 00:47 23.02.2022
2972 Drizzle 0 1011 92 10000 8.23 290 23:39 22.02.2022
2973 Rain 1 1009 93 2414 5.66 310 22:41 22.02.2022
2974 Mist 2 1006 93 2414 1.34 26 21:50 22.02.2022
2975 Mist 1 1005 93 4828 3.09 50 21:31 22.02.2022
2976 Snow 1 1006 93 7456 1.79 48 20:59 22.02.2022
2977 Mist 1 1005 93 9656 5.14 50 20:30 22.02.2022
2978 Rain 1 1006 93 6437 4.12 30 19:47 22.02.2022
2979 Snow 1 1007 93 10000 1.79 55 19:28 22.02.2022
2980 Rain 1 1007 92 9656 5.14 20 18:21 22.02.2022
2981 Rain 1 1007 94 6437 4.12 360 17:24 22.02.2022
2982 Rain 2 1007 93 4828 4.63 10 16:41 22.02.2022
2983 Rain 2 1007 94 6437 4.63 20 15:56 22.02.2022
2984 Rain 2 1007 94 4828 6.69 20 14:45 22.02.2022
2985 Drizzle 3 1008 93 4023 4.63 10 12:44 22.02.2022
2986 Clouds 6 1010 92 6265 2.68 22 10:53 22.02.2022
2987 Drizzle 8 1008 90 2816 2.06 180 08:48 22.02.2022
2988 Drizzle 8 1008 84 10000 2.57 180 07:27 22.02.2022
2989 Clouds 9 1011 82 10000 2.57 180 06:30 22.02.2022
2990 Clouds 6 1012 76 10000 2.06 10 02:45 22.02.2022
2991 Clouds 8 1013 69 10000 4.12 80 22:53 21.02.2022
2992 Clouds 8 1014 70 10000 4.12 80 21:46 21.02.2022
2993 Clouds 8 1014 72 10000 3.09 50 20:36 21.02.2022
2994 Clouds 6 1017 77 10000 1.54 20 18:46 21.02.2022
2995 Haze 4 1017 83 9656 1.54 340 17:39 21.02.2022
2996 Clouds 1 1018 89 10000 2.57 60 15:25 21.02.2022
2997 Clouds 1 1017 88 10000 2.15 29 14:22 21.02.2022
2998 Clouds 1 1017 88 10000 2.15 29 13:30 21.02.2022
2999 Clouds 1 1017 88 10000 3.04 17 12:24 21.02.2022
3000 Clear 1 1018 86 10000 2.57 10 11:20 21.02.2022
3001 Clouds 1 1019 84 10000 1.2 355 09:50 21.02.2022
3002 Clouds 4 1016 78 10000 2.36 221 05:35 21.02.2022
3003 Clear 7 1013 83 10000 6.33 217 00:18 21.02.2022
3004 Clouds 9 1011 53 10000 10.29 220 22:27 20.02.2022
3005 Clouds 8 1011 51 10000 12.35 230 21:42 20.02.2022
3006 Clear 8 1014 52 10000 8.96 218 20:59 20.02.2022
3007 Clouds 8 1012 51 10000 12.86 220 20:41 20.02.2022
3008 Clear 7 1013 52 10000 3.58 225 19:36 20.02.2022
3009 Clear 6 1013 54 10000 8.75 210 18:51 20.02.2022
3010 Clear 6 1013 55 10000 8.75 210 18:32 20.02.2022
3011 Clear 5 1014 56 10000 9.77 200 17:49 20.02.2022
3012 Clouds 0 1016 60 10000 8.23 200 15:41 20.02.2022
3013 Clouds -1 1016 63 10000 6.69 200 14:48 20.02.2022
3014 Clouds -3 1014 68 10000 4.02 222 13:23 20.02.2022
3015 Clear -4 1015 67 10000 8.75 200 12:34 20.02.2022
3016 Clear -5 1019 65 10000 8.23 200 10:47 20.02.2022
3017 Clear -6 1020 65 10000 8.23 200 10:19 20.02.2022
3018 Clouds -7 1023 67 10000 5.14 200 08:51 20.02.2022
3019 Clear -8 1031 54 10000 1.34 256 00:54 20.02.2022
3020 Clear -7 1030 52 10000 4.12 200 00:30 20.02.2022
3021 Clear -6 1031 47 10000 2.68 271 23:18 19.02.2022
3022 Clouds -6 1031 46 10000 3.6 260 22:22 19.02.2022
3023 Clouds -7 1032 46 10000 4.12 290 21:25 19.02.2022
3024 Clear -8 1033 48 10000 1.79 306 19:53 19.02.2022
3025 Clear -8 1033 48 10000 1.79 299 19:30 19.02.2022
3026 Clouds -9 1032 50 10000 6.17 290 18:33 19.02.2022
3027 Clouds -10 1031 51 10000 6.17 280 17:36 19.02.2022
3028 Clouds -12 1031 53 10000 7.72 300 16:28 19.02.2022
3029 Clouds -12 1030 57 10000 6.69 310 15:18 19.02.2022
3030 Clear -13 1030 59 10000 4.92 351 14:49 19.02.2022
3031 Clear -12 1025 60 10000 4.47 333 13:45 19.02.2022
3032 Clouds -10 1023 57 10000 5.36 317 11:38 19.02.2022
3033 Clouds -8 1021 56 10000 5.36 337 09:57 19.02.2022
3034 Clouds -3 1015 56 10000 11.32 290 06:58 19.02.2022
3035 Clouds -2 1013 62 10000 3.13 248 03:54 19.02.2022
3036 Clouds -4 1014 55 10000 8.23 210 23:33 18.02.2022
3037 Clouds -4 1017 51 10000 9.26 190 21:53 18.02.2022
3038 Clouds -4 1019 51 10000 9.77 210 20:51 18.02.2022
3039 Clear -5 1021 49 10000 2.24 225 19:53 18.02.2022
3040 Clear -6 1022 51 10000 7.72 210 18:50 18.02.2022
3041 Clear -7 1023 53 10000 7.72 210 18:22 18.02.2022
3042 Clear -8 1023 59 10000 6.69 200 17:51 18.02.2022
3043 Clouds -12 1026 76 10000 2.06 240 14:54 18.02.2022
3044 Clear -12 1025 79 10000 2.23 272 13:55 18.02.2022
3045 Clear -12 1023 75 10000 2.06 290 12:53 18.02.2022
3046 Clear -12 1023 74 10000 2.06 290 12:33 18.02.2022
3047 Clear -12 1022 74 10000 3.6 300 11:29 18.02.2022
3048 Clear -12 1022 74 10000 4.63 310 10:23 18.02.2022
3049 Clouds -9 1023 79 10000 5.66 319 06:57 18.02.2022
3050 Clouds -8 1020 77 10000 5.66 330 05:40 18.02.2022
3051 Snow -6 1014 91 805 9.77 350 23:34 17.02.2022
3052 Snow -5 1016 89 868 9.17 3 21:46 17.02.2022
3053 Snow -5 1015 86 2414 10.29 350 21:20 17.02.2022
3054 Clouds -4 1016 82 3290 8.75 359 20:38 17.02.2022
3055 Clouds -3 1017 77 8687 8.86 8 19:50 17.02.2022
3056 Clouds -2 1016 75 10000 8.75 20 18:44 17.02.2022
3057 Clouds -2 1017 75 10000 8.31 10 17:55 17.02.2022
3058 Clouds -1 1017 75 10000 9.77 20 16:42 17.02.2022
3059 Clouds -1 1017 77 10000 9.26 10 15:38 17.02.2022
3060 Clouds -1 1017 79 10000 7.6 1 14:26 17.02.2022
3061 Clouds 0 1015 85 10000 7.82 6 12:43 17.02.2022
3062 Snow 1 1015 91 7630 7.74 6 11:27 17.02.2022
3063 Rain 2 1014 91 3437 6.2 352 08:53 17.02.2022
3064 Clouds 11 1011 79 10000 8.23 200 02:26 17.02.2022
3065 Rain 11 1011 80 10000 8.75 210 23:21 16.02.2022
3066 Clouds 11 1010 76 10000 9.26 210 21:44 16.02.2022
3067 Clouds 10 1011 73 10000 11.32 210 19:57 16.02.2022
3068 Clouds 9 1012 72 10000 10.29 200 18:39 16.02.2022
3069 Clouds 9 1013 70 10000 10.8 210 17:53 16.02.2022
3070 Clouds 8 1013 62 10000 8.75 200 15:39 16.02.2022
3071 Clouds 8 1013 62 10000 8.75 200 15:18 16.02.2022
3072 Clouds 7 1011 60 10000 8.75 200 13:28 16.02.2022
3073 Clouds 7 1012 61 10000 8.75 190 12:19 16.02.2022
3074 Clouds 7 1014 63 10000 8.75 200 11:26 16.02.2022
3075 Clouds 7 1015 62 10000 8.75 200 10:33 16.02.2022
3076 Clouds 7 1017 59 10000 7.72 190 07:54 16.02.2022
3077 Clouds 6 1017 60 10000 6.69 180 06:26 16.02.2022
3078 Clouds 2 1025 58 10000 6.17 130 23:45 15.02.2022
3079 Clouds 2 1026 56 10000 6.69 120 22:30 15.02.2022
3080 Clouds 2 1027 55 10000 5.66 150 21:47 15.02.2022
3081 Clouds 2 1028 55 10000 5.66 150 21:27 15.02.2022
3082 Clouds 2 1029 56 10000 5.14 150 20:56 15.02.2022
3083 Clouds 1 1032 59 10000 5.22 137 19:57 15.02.2022
3084 Clouds 0 1032 58 10000 5.66 120 18:56 15.02.2022
3085 Clouds 0 1032 58 10000 5.66 120 18:22 15.02.2022
3086 Clouds -1 1033 60 10000 4.63 120 17:50 15.02.2022
3087 Clouds -2 1033 64 10000 5.14 130 16:50 15.02.2022
3088 Clouds -4 1034 67 10000 4.63 140 15:30 15.02.2022
3089 Clouds -6 1030 71 10000 3.09 150 13:28 15.02.2022
3090 Clouds -5 1030 75 10000 3.09 170 12:37 15.02.2022
3091 Clouds -5 1032 74 10000 2.06 110 11:40 15.02.2022
3092 Clouds -5 1032 73 10000 2.06 140 09:47 15.02.2022
3093 Clouds -4 1034 71 10000 1.76 177 06:59 15.02.2022
3094 Clouds -4 1031 69 10000 2.57 180 05:32 15.02.2022
3095 Clouds -4 1029 56 10000 4.12 230 23:34 14.02.2022
3096 Clouds -4 1030 53 10000 3 248 21:54 14.02.2022
3097 Clouds -5 1028 53 10000 2.57 0 20:40 14.02.2022
3098 Clouds -6 1029 55 10000 3.6 240 19:45 14.02.2022
3099 Clouds -6 1029 57 10000 3.6 240 19:26 14.02.2022
3100 Clouds -7 1030 63 10000 4.12 220 18:23 14.02.2022
3101 Clouds -8 1029 65 10000 3.6 210 17:27 14.02.2022
3102 Clouds -9 1028 64 10000 3.09 210 16:25 14.02.2022
3103 Clouds -10 1026 64 10000 4.63 210 14:39 14.02.2022
3104 Clouds -10 1023 64 10000 0.89 222 13:34 14.02.2022
3105 Clouds -10 1026 64 10000 3.54 242 12:55 14.02.2022
3106 Clouds -10 1029 60 10000 3.72 237 11:55 14.02.2022
3107 Clouds -10 1028 58 10000 3.64 236 10:58 14.02.2022
3108 Clouds -10 1029 57 10000 3.02 239 09:19 14.02.2022
3109 Clouds -10 1030 57 10000 2.68 254 07:33 14.02.2022
3110 Clouds -10 1030 57 10000 2.46 271 06:32 14.02.2022
3111 Clouds -8 1028 48 10000 4.63 300 22:43 13.02.2022
3112 Clouds -8 1026 47 10000 4.63 300 22:25 13.02.2022
3113 Clouds -8 1027 49 10000 4.12 320 21:36 13.02.2022
3114 Clouds -8 1026 49 10000 5.14 320 20:42 13.02.2022
3115 Clouds -8 1026 51 10000 5.66 310 19:51 13.02.2022
3116 Clouds -9 1027 55 10000 0.45 337 18:56 13.02.2022
3117 Clouds -9 1027 56 10000 3.6 330 18:38 13.02.2022
3118 Clouds -10 1027 67 6437 5.14 310 16:39 13.02.2022
3119 Clouds -11 1027 71 10000 1.79 348 15:42 13.02.2022
3120 Clouds -11 1026 70 10000 4.12 290 14:37 13.02.2022
3121 Clouds -11 1024 69 10000 4.63 290 12:52 13.02.2022
3122 Clouds -11 1024 69 10000 4.63 290 12:33 13.02.2022
3123 Clouds -11 1027 70 10000 1.79 247 10:38 13.02.2022
3124 Clouds -11 1027 71 10000 1.34 281 09:49 13.02.2022
3125 Clouds -10 1028 67 10000 2.68 270 07:54 13.02.2022
3126 Clouds -9 1029 61 10000 2.68 289 00:49 13.02.2022
3127 Clouds -9 1029 61 10000 2.68 283 00:20 13.02.2022
3128 Clouds -8 1028 54 10000 3.13 337 22:34 12.02.2022
3129 Clouds -7 1028 47 10000 2.24 283 21:40 12.02.2022
3130 Clouds -7 1029 47 10000 5.14 320 20:55 12.02.2022
3131 Clouds -7 1029 47 10000 5.14 320 19:56 12.02.2022
3132 Clouds -8 1029 50 10000 3.09 10 18:54 12.02.2022
3133 Clouds -8 1029 50 10000 2.24 301 18:35 12.02.2022
3134 Clouds -9 1028 53 10000 4.63 340 17:39 12.02.2022
3135 Clouds -9 1028 55 10000 5.14 320 16:45 12.02.2022
3136 Clouds -10 1028 57 10000 6.17 350 15:53 12.02.2022
3137 Clouds -10 1028 58 10000 6.17 350 15:20 12.02.2022
3138 Clouds -11 1026 59 10000 7.72 330 14:25 12.02.2022
3139 Clouds -8 1022 61 10000 7.72 330 11:31 12.02.2022
3140 Clouds -7 1024 63 10000 7.36 328 10:30 12.02.2022
3141 Snow -6 1021 67 10000 6.69 350 09:37 12.02.2022
3142 Snow -5 1022 69 10000 8.07 332 08:46 12.02.2022
3143 Clouds -3 1021 71 10000 8.11 332 07:44 12.02.2022
3144 Clouds -1 1015 78 10000 7.2 290 04:47 12.02.2022
3145 Clouds -1 1011 76 10000 3.58 312 02:19 12.02.2022
3146 Clouds 5 1005 64 10000 8.23 280 23:21 11.02.2022
3147 Clouds 6 1005 68 10000 3.13 277 22:23 11.02.2022
3148 Clouds 6 1003 68 10000 8.75 270 21:34 11.02.2022
3149 Clouds 6 1002 71 10000 7.72 270 20:28 11.02.2022
3150 Clouds 5 1003 79 10000 4.92 275 19:29 11.02.2022
3151 Clouds 5 1002 80 10000 7.2 240 18:41 11.02.2022
3152 Clouds 4 1001 82 10000 7.2 240 17:27 11.02.2022
3153 Clouds 4 1001 84 10000 6.17 220 16:40 11.02.2022
3154 Clouds 3 1000 85 10000 6.69 220 15:22 11.02.2022
3155 Clouds 3 999 85 10000 6.17 240 14:38 11.02.2022
3156 Clouds 3 999 85 10000 6.17 240 14:19 11.02.2022
3157 Clouds 3 999 87 10000 3.58 244 13:44 11.02.2022
3158 Clouds 3 998 87 10000 4.02 259 13:25 11.02.2022
3159 Clouds 2 1000 89 10000 8.82 228 10:59 11.02.2022
3160 Mist 2 1001 90 6437 6.17 210 09:37 11.02.2022
3161 Snow 1 1002 91 2012 8.75 210 08:35 11.02.2022
3162 Mist 0 1004 86 4023 9.26 220 07:46 11.02.2022
3163 Mist 0 1004 86 4023 9.26 220 07:46 11.02.2022
3164 Snow -1 1006 79 10000 6.17 210 06:24 11.02.2022
3165 Clouds -3 1011 77 10000 6.17 220 02:22 11.02.2022
3166 Clouds -3 1013 72 10000 2.24 249 23:48 10.02.2022
3167 Clouds -2 1014 69 10000 7.2 240 22:33 10.02.2022
3168 Clouds -1 1014 69 10000 6.17 260 21:42 10.02.2022
3169 Clouds -1 1015 72 10000 7.2 260 20:50 10.02.2022
3170 Clouds -1 1015 73 10000 1.79 273 19:56 10.02.2022
3171 Clouds -1 1015 70 10000 0.45 268 19:22 10.02.2022
3172 Clouds -1 1016 67 10000 3.6 260 18:32 10.02.2022
3173 Clouds -1 1016 67 10000 4.12 270 17:21 10.02.2022
3174 Clouds -1 1016 67 10000 5.66 310 16:43 10.02.2022
3175 Clouds -2 1015 66 10000 5.14 310 15:41 10.02.2022
3176 Clouds -2 1015 66 10000 5.14 310 15:21 10.02.2022
3177 Clouds -2 1013 67 10000 6.17 320 14:35 10.02.2022
3178 Clouds -2 1013 67 10000 4.63 300 13:56 10.02.2022
3179 Clouds -1 1013 67 10000 4.02 312 13:19 10.02.2022
3180 Clouds -1 1011 69 10000 6.17 310 11:53 10.02.2022
3181 Clouds -1 1011 71 10000 4.63 310 11:32 10.02.2022
3182 Clouds 0 1012 78 10000 3.13 322 10:23 10.02.2022
3183 Clouds 0 1012 79 10000 3.13 328 09:44 10.02.2022
3184 Clouds 0 1012 79 10000 2.24 310 08:42 10.02.2022
3185 Clouds 1 1010 77 10000 5.66 270 06:33 10.02.2022
3186 Clouds 2 1009 75 10000 8.75 270 03:21 10.02.2022
3187 Clouds 3 1009 75 3059 5.36 270 00:56 10.02.2022
3188 Clouds 3 1009 75 10000 4.47 281 00:38 10.02.2022
3189 Clouds 3 1009 75 10000 1.34 273 00:20 10.02.2022
3190 Clouds 4 1008 73 10000 5.36 274 22:56 09.02.2022
3191 Clouds 4 1007 72 10000 5.66 260 22:33 09.02.2022
3192 Clouds 4 1006 70 10000 7.2 240 21:47 09.02.2022
3193 Clouds 4 1006 68 10000 7.2 240 21:27 09.02.2022
3194 Clouds 5 1006 66 10000 8.23 270 20:44 09.02.2022
3195 Clouds 5 1006 66 10000 8.23 270 20:44 09.02.2022
3196 Clouds 5 1006 65 10000 8.23 270 20:22 09.02.2022
3197 Clouds 5 1007 65 10000 4.02 293 19:42 09.02.2022
3198 Clouds 4 1007 68 10000 5.66 240 18:38 09.02.2022
3199 Clouds 3 1008 75 10000 0.89 250 16:57 09.02.2022
3200 Clouds 2 1008 77 10000 5.66 230 16:20 09.02.2022
3201 Clouds 1 1008 80 10000 4.12 240 15:24 09.02.2022
3202 Clouds 0 1006 83 10000 1.34 266 12:53 09.02.2022
3203 Clouds 0 1008 82 10000 0.45 247 11:36 09.02.2022
3204 Clouds 0 1007 81 10000 3.6 220 10:34 09.02.2022
3205 Clouds 0 1008 80 10000 4.26 236 09:53 09.02.2022
3206 Clouds 1 1008 79 10000 5.14 250 09:22 09.02.2022
3207 Clouds 1 1009 77 10000 2.24 287 08:46 09.02.2022
3208 Clouds 3 1009 74 10000 2.68 302 06:52 09.02.2022
3209 Clouds 3 1008 74 10000 6.17 210 04:30 09.02.2022
3210 Clouds 3 1009 74 10000 4.63 210 03:48 09.02.2022
3211 Clouds 2 1011 69 10000 6.17 190 23:45 08.02.2022
3212 Clouds 2 1012 67 10000 6.17 190 23:19 08.02.2022
3213 Clouds 2 1012 67 10000 6.17 190 23:19 08.02.2022
3214 Clouds 3 1011 64 10000 4.63 190 22:38 08.02.2022
3215 Clouds 3 1011 64 10000 4.63 190 22:19 08.02.2022
3216 Clouds 2 1012 63 10000 5.66 190 21:22 08.02.2022
3217 Clouds 2 1013 63 10000 3.13 202 20:58 08.02.2022
3218 Clouds 2 1013 62 10000 6.17 200 20:37 08.02.2022
3219 Clouds 2 1013 62 10000 6.17 200 20:37 08.02.2022
3220 Clouds 0 1015 61 10000 2.68 192 19:27 08.02.2022
3221 Clouds -1 1016 60 10000 4.63 190 18:19 08.02.2022
3222 Clouds -3 1018 62 10000 2.68 204 16:56 08.02.2022
3223 Clouds -5 1018 64 10000 3.6 170 15:47 08.02.2022
3224 Clouds -7 1019 70 10000 2.24 220 14:58 08.02.2022
3225 Clouds -8 1016 71 10000 1.79 199 13:48 08.02.2022
3226 Clouds -7 1017 71 10000 4.12 190 12:24 08.02.2022
3227 Clouds -7 1020 74 10000 3.09 170 10:49 08.02.2022
3228 Clouds -7 1020 76 10000 3.09 170 09:48 08.02.2022
3229 Clouds -7 1021 76 10000 2.06 200 08:39 08.02.2022
3230 Clouds -8 1022 76 10000 3.09 230 06:38 08.02.2022
3231 Clear -8 1023 75 10000 3.6 210 04:40 08.02.2022
3232 Clear -8 1024 75 10000 3.6 210 04:22 08.02.2022
3233 Clear -8 1024 73 10000 3.6 220 03:36 08.02.2022
3234 Clear -8 1023 70 10000 3.6 220 03:18 08.02.2022
3235 Clear -8 1024 70 10000 0.45 292 02:59 08.02.2022
3236 Clear -7 1023 69 10000 2.06 270 02:36 08.02.2022
3237 Clear -7 1023 68 10000 2.06 270 02:18 08.02.2022
3238 Clouds -6 1024 68 10000 0.89 292 01:44 08.02.2022
3239 Clouds -6 1024 67 10000 1.34 337 01:25 08.02.2022
3240 Clouds -6 1024 67 10000 0.89 281 00:55 08.02.2022
3241 Clouds -5 1023 64 10000 3.09 290 00:21 08.02.2022
3242 Clouds -4 1023 61 10000 5.14 270 23:44 07.02.2022
3243 Clouds -4 1023 59 10000 5.14 270 23:18 07.02.2022
3244 Clouds -4 1024 59 10000 1.34 272 22:59 07.02.2022
3245 Clouds -4 1023 58 10000 4.63 270 22:19 07.02.2022
3246 Clouds -4 1023 59 10000 3.6 300 21:50 07.02.2022
3247 Clouds -4 1023 61 10000 3.6 300 21:27 07.02.2022
3248 Clouds -4 1023 61 10000 3.6 300 20:43 07.02.2022
3249 Clouds -4 1023 61 10000 3.6 300 20:24 07.02.2022
3250 Clouds -5 1023 63 10000 3.58 343 19:47 07.02.2022
3251 Clouds -5 1024 64 10000 6.69 330 18:35 07.02.2022
3252 Clouds -6 1024 67 10000 5.14 310 17:18 07.02.2022
3253 Clouds -6 1024 69 10000 3.13 312 16:46 07.02.2022
3254 Clouds -6 1023 75 10000 4.12 290 15:48 07.02.2022
3255 Mist -6 1021 84 6437 4.12 290 13:51 07.02.2022
3256 Clouds -6 1020 86 10000 2.68 326 13:26 07.02.2022
3257 Clouds -6 1022 83 10000 2.68 304 11:58 07.02.2022
3258 Clouds -5 1021 80 10000 3.58 309 11:38 07.02.2022
3259 Clouds -5 1022 81 10000 7.2 270 10:59 07.02.2022
3260 Clouds -5 1022 80 10000 7.2 270 10:41 07.02.2022
3261 Clouds -4 1021 81 10000 1.34 312 10:22 07.02.2022
3262 Clouds -4 1021 81 10000 2.24 288 09:47 07.02.2022
3263 Clouds -3 1021 84 10000 3.58 290 09:18 07.02.2022
3264 Clouds -1 1022 84 2319 2.68 283 07:34 07.02.2022
3265 Clouds -1 1022 80 5576 2.24 292 06:34 07.02.2022
3266 Clouds -2 1022 78 10000 1.79 230 04:22 07.02.2022
3267 Clouds -2 1022 75 10000 1.79 247 01:30 07.02.2022
3268 Clouds 0 1020 68 10000 4.47 225 23:51 06.02.2022
3269 Clouds 0 1021 67 10000 6.69 190 23:19 06.02.2022
3270 Clouds 1 1020 63 10000 3.13 211 22:39 06.02.2022
3271 Clouds 1 1020 61 10000 4.47 225 21:37 06.02.2022
3272 Clouds 1 1021 61 10000 3.58 225 21:18 06.02.2022
3273 Clouds 1 1021 60 10000 2.68 292 20:37 06.02.2022
3274 Clouds 0 1023 61 10000 1.79 258 19:50 06.02.2022
3275 Clouds -1 1024 63 10000 5.66 210 18:54 06.02.2022
3276 Clouds -1 1024 63 10000 5.66 210 18:27 06.02.2022
3277 Clouds -3 1024 66 10000 7.2 200 17:29 06.02.2022
3278 Clouds -4 1024 67 10000 6.17 210 16:50 06.02.2022
3279 Clouds -6 1023 69 10000 1.34 255 15:51 06.02.2022
3280 Clouds -6 1023 72 10000 1.79 218 15:28 06.02.2022
3281 Clouds -7 1024 73 10000 2.68 215 14:59 06.02.2022
3282 Clear -8 1020 75 10000 1.34 210 13:57 06.02.2022
3283 Clouds -8 1020 74 10000 2.24 216 13:20 06.02.2022
3284 Clear -8 1022 72 10000 1.34 229 11:45 06.02.2022
3285 Clear -8 1023 71 10000 3.13 214 10:33 06.02.2022
3286 Clouds -8 1023 68 10000 2.68 213 09:29 06.02.2022
3287 Clouds -8 1024 67 10000 3.58 220 08:41 06.02.2022
3288 Clouds -9 1025 62 10000 4.47 216 06:27 06.02.2022
3289 Clouds -9 1024 60 10000 4.92 208 05:27 06.02.2022
3290 Clouds -10 1026 68 10000 3.13 202 02:25 06.02.2022
3291 Clouds -9 1027 63 10000 7.15 219 00:30 06.02.2022
3292 Clouds -8 1028 57 10000 3.13 213 23:27 05.02.2022
3293 Clouds -7 1030 54 10000 4.92 220 21:43 05.02.2022
3294 Clouds -7 1031 53 10000 0.89 242 20:26 05.02.2022
3295 Clouds -7 1032 55 10000 4.92 220 19:51 05.02.2022
3296 Clouds -8 1032 56 10000 2.68 214 19:33 05.02.2022
3297 Clouds -8 1033 60 10000 1.34 222 18:26 05.02.2022
3298 Clouds -10 1034 66 10000 0.45 235 17:33 05.02.2022
3299 Clouds -13 1033 75 10000 1.79 288 15:43 05.02.2022
3300 Clouds -14 1033 76 10000 1.34 299 15:25 05.02.2022
3301 Clouds -15 1030 79 10000 0.89 292 13:24 05.02.2022
3302 Clouds -15 1030 77 10000 1.34 333 12:42 05.02.2022
3303 Clouds -14 1031 78 10000 2.68 337 11:18 05.02.2022
3304 Clouds -14 1031 78 10000 2.68 335 10:43 05.02.2022
3305 Clouds -14 1030 77 10000 3.13 340 09:49 05.02.2022
3306 Clouds -12 1030 77 10000 1.34 300 08:21 05.02.2022
3307 Clouds -12 1029 77 10000 2.24 316 06:58 05.02.2022
3308 Clouds -11 1029 75 10000 3.13 312 05:38 05.02.2022
3309 Clouds -7 1027 79 1251 2.24 225 01:40 05.02.2022
3310 Snow -7 1027 79 374 2.24 270 01:18 05.02.2022
3311 Mist -7 1026 78 2414 1.34 292 00:36 05.02.2022
3312 Clouds -6 1029 66 5333 4.48 253 23:33 04.02.2022
3313 Clouds -5 1027 53 10000 6.17 260 22:28 04.02.2022
3314 Clouds -4 1027 49 10000 5.14 260 21:36 04.02.2022
3315 Clouds -4 1026 50 10000 2.68 247 21:18 04.02.2022
3316 Clouds -4 1026 55 10000 1.79 247 20:21 04.02.2022
3317 Clouds -4 1029 58 10000 1.34 322 18:27 04.02.2022
3318 Clouds -9 1030 77 10000 1.79 324 15:57 04.02.2022
3319 Clouds -11 1030 79 10000 0.89 335 14:56 04.02.2022
3320 Clouds -11 1028 79 10000 0.89 319 14:24 04.02.2022
3321 Clouds -11 1030 80 10000 2.7 327 12:43 04.02.2022
3322 Clouds -10 1030 79 10000 2.73 342 11:43 04.02.2022
3323 Clouds -10 1033 79 10000 2.73 357 10:48 04.02.2022
3324 Clouds -8 1030 78 10000 2.24 344 08:50 04.02.2022
3325 Clouds -7 1033 76 10000 5.19 30 06:58 04.02.2022
3326 Clouds -5 1031 70 10000 3.58 28 02:51 04.02.2022
3327 Clouds -5 1031 71 10000 3.58 48 02:20 04.02.2022
3328 Clouds -5 1031 72 10000 5.36 50 23:32 03.02.2022
3329 Clouds -5 1030 73 10000 3.13 24 22:48 03.02.2022
3330 Clouds -6 1031 74 10000 4.02 52 21:50 03.02.2022
3331 Clouds -6 1031 75 10000 5.36 56 20:43 03.02.2022
3332 Clouds -6 1032 75 10000 3.58 31 20:20 03.02.2022
3333 Clouds -6 1032 75 10000 3.58 50 19:34 03.02.2022
3334 Clouds -6 1032 75 10000 5.36 53 18:44 03.02.2022
3335 Clouds -7 1033 77 10000 5.81 65 17:42 03.02.2022
3336 Clouds -7 1033 78 10000 4.47 73 16:39 03.02.2022
3337 Clouds -8 1032 80 10000 7.02 34 14:54 03.02.2022
3338 Clouds -8 1031 82 10000 6.79 30 13:18 03.02.2022
3339 Snow -8 1029 76 10000 6.69 350 11:43 03.02.2022
3340 Clouds -8 1029 75 10000 4.02 15 08:38 03.02.2022
3341 Clouds -9 1030 76 10000 3.58 10 07:20 03.02.2022
3342 Clouds -7 1027 86 10000 5.81 31 00:33 03.02.2022
3343 Clouds -7 1026 87 10000 3.58 20 23:45 02.02.2022
3344 Snow -7 1025 89 805 5.36 34 22:35 02.02.2022
3345 Snow -7 1025 89 1207 5.36 29 21:37 02.02.2022
3346 Snow -7 1025 89 1207 5.36 29 21:37 02.02.2022
3347 Snow -8 1024 89 1609 4.47 18 20:53 02.02.2022
3348 Snow -8 1024 89 1207 3.58 3 19:59 02.02.2022
3349 Snow -8 1024 89 1609 3.58 27 19:32 02.02.2022
3350 Snow -8 1025 89 805 4.47 15 18:50 02.02.2022
3351 Snow -8 1025 89 805 4.02 28 18:22 02.02.2022
3352 Snow -8 1025 89 1609 2.24 30 17:20 02.02.2022
3353 Snow -7 1024 90 805 4.92 22 16:46 02.02.2022
3354 Snow -5 1021 90 1207 3.13 18 13:57 02.02.2022
3355 Snow -4 1021 90 1609 2.24 9 12:25 02.02.2022
3356 Mist -4 1021 90 2414 3.58 42 11:37 02.02.2022
3357 Snow -3 1022 91 1609 2.24 17 10:38 02.02.2022
3358 Snow -1 1021 90 1393 1.79 4 07:40 02.02.2022
3359 Rain 4 1017 87 9424 2.97 275 22:52 01.02.2022
3360 Rain 6 1016 86 8782 3.01 255 21:52 01.02.2022
3361 Rain 6 1014 77 10000 1.34 225 20:47 01.02.2022
3362 Clouds 6 1016 67 10000 5.64 210 17:59 01.02.2022
3363 Clouds 5 1013 64 10000 3.58 207 16:42 01.02.2022
3364 Clouds 3 1013 67 10000 2.68 222 14:49 01.02.2022
3365 Clouds 2 1012 65 10000 2.68 206 12:48 01.02.2022
3366 Clouds 1 1015 66 10000 2.24 209 11:34 01.02.2022
3367 Clouds 0 1017 69 10000 2.24 210 06:57 01.02.2022
3368 Clouds 0 1020 63 10000 2.68 177 23:53 31.01.2022
3369 Clouds 0 1020 61 10000 2.68 199 23:34 31.01.2022
3370 Clouds 0 1020 61 10000 2.68 199 23:34 31.01.2022
3371 Clouds 0 1019 58 10000 3.13 204 22:26 31.01.2022
3372 Clouds 1 1019 58 10000 0.89 192 21:33 31.01.2022
3373 Clouds 1 1020 58 10000 2.24 207 20:33 31.01.2022
3374 Clouds 1 1022 61 10000 2.68 199 19:46 31.01.2022
3375 Clouds 0 1023 65 10000 4.63 160 18:29 31.01.2022
3376 Clouds 0 1022 68 10000 2.68 210 17:46 31.01.2022
3377 Clouds -1 1023 71 10000 3.6 170 16:58 31.01.2022
3378 Clouds -4 1021 64 10000 2.57 190 15:44 31.01.2022
3379 Clouds -8 1022 98 8832 1.95 178 14:25 31.01.2022
3380 Clouds -6 1022 97 8974 1.56 182 12:51 31.01.2022
3381 Clouds -5 1022 97 9101 1.28 206 11:59 31.01.2022
3382 Clouds -3 1021 97 9369 1.29 229 10:54 31.01.2022
3383 Clouds -3 1019 64 10000 0 0 10:36 31.01.2022
3384 Clouds -3 1020 64 10000 2.06 310 09:34 31.01.2022
3385 Clouds -3 1020 64 10000 1.54 280 08:52 31.01.2022
3386 Clouds -3 1020 64 10000 1.54 280 08:20 31.01.2022
3387 Clouds -3 1020 59 10000 1.54 290 06:36 31.01.2022
3388 Clouds -3 1022 68 10000 2.57 300 05:20 31.01.2022
3389 Clouds -2 1018 67 10000 4.12 340 23:20 30.01.2022
3390 Clouds -2 1018 69 10000 4.63 310 22:30 30.01.2022
3391 Clouds -2 1018 69 10000 3.13 346 22:30 30.01.2022
3392 Clouds -1 1018 72 10000 3.13 336 21:43 30.01.2022
3393 Clouds -1 1018 73 10000 0.89 356 21:21 30.01.2022
3394 Clouds -1 1016 72 10000 2.24 10 20:50 30.01.2022
3395 Clouds -1 1016 73 10000 2.68 28 20:29 30.01.2022
3396 Clouds -1 1017 74 10000 3.13 17 19:54 30.01.2022
3397 Clouds -2 1016 71 10000 1.79 339 18:45 30.01.2022
3398 Clouds -3 1016 71 10000 2.24 9 18:21 30.01.2022
3399 Clouds -5 1016 73 10000 1.79 342 17:29 30.01.2022
3400 Clouds -6 1015 77 10000 2.24 351 16:41 30.01.2022
3401 Clouds -7 1014 77 10000 1.79 354 16:22 30.01.2022
3402 Clear -8 1014 77 10000 3.13 3 15:52 30.01.2022
3403 Clear -8 1013 78 10000 1.79 345 15:32 30.01.2022
3404 Clear -10 1013 79 10000 1.79 8 14:46 30.01.2022
3405 Clouds -11 1010 81 10000 1.79 350 13:36 30.01.2022
3406 Clear -11 1009 81 10000 0 0 12:40 30.01.2022
3407 Clouds -10 1011 75 10000 0.89 229 10:38 30.01.2022
3408 Clouds -9 1011 73 10000 1.34 210 09:56 30.01.2022
3409 Clouds -9 1012 72 10000 1.79 211 09:21 30.01.2022
3410 Clouds -8 1013 70 10000 1.34 213 07:56 30.01.2022
3411 Clouds -6 1017 63 10000 0.45 223 02:42 30.01.2022
3412 Clouds -6 1018 62 10000 0.89 214 01:50 30.01.2022
3413 Clouds -6 1018 56 10000 1.79 202 23:30 29.01.2022
3414 Clouds -6 1019 52 10000 1.34 211 22:34 29.01.2022
3415 Clouds -5 1020 51 10000 1.34 207 21:27 29.01.2022
3416 Clouds -5 1021 50 10000 1.79 216 20:48 29.01.2022
3417 Clouds -6 1023 52 10000 2.68 207 19:47 29.01.2022
3418 Clouds -7 1024 53 10000 2.24 267 19:25 29.01.2022
3419 Clouds -8 1024 55 10000 0.89 205 18:32 29.01.2022
3420 Clouds -9 1024 59 10000 1.34 257 17:41 29.01.2022
3421 Clouds -11 1025 65 10000 1.34 234 16:42 29.01.2022
3422 Clouds -14 1024 71 10000 3.6 230 14:33 29.01.2022
3423 Clouds -14 1027 72 10000 2.18 235 13:45 29.01.2022
3424 Clouds -14 1027 70 10000 2.23 247 13:25 29.01.2022
3425 Clouds -14 1027 70 10000 2.23 247 13:25 29.01.2022
3426 Clouds -13 1023 67 10000 1.79 283 12:40 29.01.2022
3427 Clouds -13 1025 69 10000 1.79 276 11:38 29.01.2022
3428 Clouds -13 1026 69 10000 0.45 270 10:21 29.01.2022
3429 Clouds -12 1028 68 10000 0.45 273 06:57 29.01.2022
3430 Clouds -8 1028 69 10000 3.87 312 00:50 29.01.2022
3431 Clouds -7 1028 65 10000 3.87 312 00:31 29.01.2022
3432 Clouds -5 1027 67 10000 3.13 40 22:53 28.01.2022
3433 Clouds -5 1027 68 10000 2.68 18 22:29 28.01.2022
3434 Clouds -5 1027 69 10000 4.47 360 21:53 28.01.2022
3435 Mist -5 1027 79 1207 2.68 285 20:31 28.01.2022
3436 Snow -6 1028 83 535 3.58 10 19:44 28.01.2022
3437 Mist -6 1028 85 2012 3.58 15 18:48 28.01.2022
3438 Mist -7 1028 85 2012 1.79 344 17:43 28.01.2022
3439 Snow -9 1026 89 2012 4.63 330 15:28 28.01.2022
3440 Snow -8 1027 90 3276 2.47 14 13:59 28.01.2022
3441 Snow -8 1024 89 2012 3.6 330 12:33 28.01.2022
3442 Mist -7 1026 89 1207 4.63 350 11:38 28.01.2022
3443 Snow -6 1025 86 1207 2.24 27 10:21 28.01.2022
3444 Snow -5 1025 85 1207 3.58 18 09:44 28.01.2022
3445 Snow -3 1025 83 8047 3.13 21 07:39 28.01.2022
3446 Clouds -2 1025 68 10000 3.6 20 05:23 28.01.2022
3447 Clouds -2 1025 73 10000 2.57 330 03:47 28.01.2022
3448 Clouds -2 1024 74 10000 1.34 330 02:23 28.01.2022
3449 Clouds -2 1024 73 10000 0.45 309 01:33 28.01.2022
3450 Clouds 0 1022 65 10000 3.13 298 23:33 27.01.2022
3451 Clouds 0 1021 65 10000 1.34 279 21:50 27.01.2022
3452 Clouds 0 1020 65 10000 1.34 236 21:30 27.01.2022
3453 Clouds 0 1020 65 10000 1.34 262 21:30 27.01.2022
3454 Clouds -1 1020 65 10000 1.79 281 20:44 27.01.2022
3455 Clouds -2 1021 63 10000 3.13 279 19:21 27.01.2022
3456 Clouds -2 1020 58 10000 4.47 270 17:56 27.01.2022
3457 Clouds -5 1018 59 10000 2.68 247 15:30 27.01.2022
3458 Clouds -6 1018 63 10000 1.79 222 13:37 27.01.2022
3459 Clouds -7 1019 62 10000 2.24 223 12:46 27.01.2022
3460 Clouds -8 1022 60 10000 2.24 204 10:46 27.01.2022
3461 Clouds -9 1023 60 10000 3.58 225 09:19 27.01.2022
3462 Clouds -10 1023 62 10000 2.24 234 08:34 27.01.2022
3463 Clouds -12 1026 63 10000 3.13 227 05:59 27.01.2022
3464 Clouds -14 1028 68 10000 2.68 211 02:57 27.01.2022
3465 Clouds -12 1030 51 10000 0.89 233 23:33 26.01.2022
3466 Clouds -12 1030 47 10000 2.24 247 22:25 26.01.2022
3467 Clear -12 1031 48 10000 1.79 258 21:36 26.01.2022
3468 Clear -13 1032 50 10000 1.34 224 20:41 26.01.2022
3469 Clear -13 1032 50 10000 0.89 234 20:22 26.01.2022
3470 Clouds -14 1034 53 10000 2.24 270 19:20 26.01.2022
3471 Clear -14 1033 54 10000 1.79 241 18:45 26.01.2022
3472 Clear -15 1034 57 10000 2.24 239 17:50 26.01.2022
3473 Clear -16 1034 61 10000 1.79 214 17:23 26.01.2022
3474 Smoke -18 1034 66 10000 1.79 247 16:31 26.01.2022
3475 Clouds -19 1034 68 10000 1.34 289 15:49 26.01.2022
3476 Clouds -21 1030 72 10000 2.24 292 13:58 26.01.2022
3477 Clear -20 1030 67 10000 1.34 315 11:48 26.01.2022
3478 Clear -20 1033 66 10000 1.79 335 10:28 26.01.2022
3479 Clear -19 1032 66 10000 3.58 341 09:46 26.01.2022
3480 Clouds -18 1033 65 10000 1.79 360 07:44 26.01.2022
3481 Clouds -16 1031 63 10000 1.34 300 03:31 26.01.2022
3482 Clouds -13 1028 54 10000 3.13 278 23:57 25.01.2022
3483 Clouds -11 1028 51 10000 3.13 311 22:57 25.01.2022
3484 Clouds -11 1027 50 10000 2.68 292 22:21 25.01.2022
3485 Clouds -11 1027 50 10000 2.24 290 21:58 25.01.2022
3486 Clouds -11 1027 50 10000 4.02 312 20:46 25.01.2022
3487 Clouds -11 1027 52 10000 4.02 327 20:28 25.01.2022
3488 Clouds -11 1027 52 10000 4.02 327 20:28 25.01.2022
3489 Clouds -11 1027 51 10000 4.47 329 20:28 25.01.2022
3490 Clear -11 1027 53 10000 3.13 318 19:52 25.01.2022
3491 Clouds -11 1027 55 10000 2.24 322 18:37 25.01.2022
3492 Clouds -12 1027 58 10000 2.68 320 17:44 25.01.2022
3493 Clouds -14 1026 63 10000 4.47 341 16:35 25.01.2022
3494 Clouds -15 1025 66 10000 3.13 335 15:49 25.01.2022
3495 Clouds -16 1025 68 10000 1.79 331 15:31 25.01.2022
3496 Clouds -16 1022 69 10000 4.47 347 14:57 25.01.2022
3497 Clear -16 1021 72 10000 1.79 329 13:42 25.01.2022
3498 Clear -14 1021 72 10000 0.89 333 10:42 25.01.2022
3499 Clear -13 1018 72 10000 1.34 334 08:37 25.01.2022
3500 Clouds -12 1019 72 10000 3.58 337 07:29 25.01.2022
3501 Clear -12 1017 70 10000 3.13 328 06:49 25.01.2022
3502 Clear -11 1016 69 10000 3.13 342 05:22 25.01.2022
3503 Clouds -7 1011 71 10000 4.47 343 23:37 24.01.2022
3504 Clouds -6 1009 72 10000 4.02 355 23:18 24.01.2022
3505 Clouds -6 1009 72 10000 4.47 342 22:59 24.01.2022
3506 Clouds -5 1009 73 10000 3.58 348 22:41 24.01.2022
3507 Clouds -5 1008 74 8815 1.79 335 21:53 24.01.2022
3508 Clouds -5 1008 74 8815 1.79 348 21:53 24.01.2022
3509 Clouds -4 1008 74 5163 2.24 349 21:28 24.01.2022
3510 Clouds -4 1006 73 10000 2.68 337 20:30 24.01.2022
3511 Clouds -4 1006 75 6645 3.58 333 19:44 24.01.2022
3512 Clouds -3 1005 75 10000 2.24 343 19:24 24.01.2022
3513 Mist -3 1005 82 6437 3.13 256 17:59 24.01.2022
3514 Mist -4 1005 83 3219 2.68 266 17:23 24.01.2022
3515 Snow -5 1004 87 1609 0.45 215 16:41 24.01.2022
3516 Snow -6 1002 88 153 3.13 211 16:18 24.01.2022
3517 Snow -7 1003 87 1207 2.24 217 14:35 24.01.2022
3518 Snow -8 1003 85 143 2.68 212 12:58 24.01.2022
3519 Snow -9 1003 84 151 1.34 217 12:23 24.01.2022
3520 Clouds -10 1009 76 10000 1.79 202 10:27 24.01.2022
3521 Clouds -10 1010 74 10000 2.68 230 09:48 24.01.2022
3522 Clouds -11 1012 70 10000 0.89 223 08:30 24.01.2022
3523 Clouds -12 1014 68 10000 1.34 227 06:19 24.01.2022
3524 Clouds -12 1017 65 10000 0.89 308 01:30 24.01.2022
3525 Clouds -11 1017 62 10000 2.24 320 00:35 24.01.2022
3526 Clouds -9 1018 60 10000 2.24 322 23:49 23.01.2022
3527 Clouds -9 1018 60 10000 2.24 322 23:49 23.01.2022
3528 Clouds -7 1017 55 10000 1.34 314 22:28 23.01.2022
3529 Clouds -7 1016 55 10000 2.24 310 21:46 23.01.2022
3530 Clouds -7 1016 55 10000 2.24 355 21:25 23.01.2022
3531 Clouds -7 1017 59 10000 3.58 354 20:44 23.01.2022
3532 Clouds -7 1018 67 10000 2.68 343 19:44 23.01.2022
3533 Clouds -7 1017 71 10000 1.79 359 18:51 23.01.2022
3534 Clouds -9 1016 77 10000 4.47 8 17:44 23.01.2022
3535 Mist -9 1015 80 8047 3.13 10 16:47 23.01.2022
3536 Snow -8 1012 86 8047 4.92 13 14:59 23.01.2022
3537 Mist -8 1011 87 8047 3.13 9 14:25 23.01.2022
3538 Snow -8 1011 87 4828 3.13 9 14:25 23.01.2022
3539 Snow -7 1013 90 171 5.56 357 12:59 23.01.2022
3540 Snow -6 1010 90 158 3.13 16 12:22 23.01.2022
3541 Snow -6 1009 89 158 2.24 33 11:59 23.01.2022
3542 Snow -6 1012 89 168 1.79 48 11:19 23.01.2022
3543 Snow -6 1012 88 1207 0.89 94 10:27 23.01.2022
3544 Snow -6 1013 87 805 1.79 58 09:51 23.01.2022
3545 Snow -6 1013 86 1609 0.89 182 08:54 23.01.2022
3546 Clouds -6 1020 74 551 2.68 285 05:57 23.01.2022
3547 Clouds -4 1021 61 10000 4.02 288 01:52 23.01.2022
3548 Clouds -4 1021 58 10000 3.58 296 01:27 23.01.2022
3549 Clouds -3 1021 54 10000 3.13 292 00:23 23.01.2022
3550 Clouds -2 1021 50 10000 1.79 291 23:56 22.01.2022
3551 Clouds -1 1021 47 10000 4.02 286 22:46 22.01.2022
3552 Clouds 0 1021 51 10000 4.47 274 21:36 22.01.2022
3553 Clouds -1 1021 58 10000 2.24 292 20:21 22.01.2022
3554 Clouds -3 1023 66 10000 4.02 267 18:56 22.01.2022
3555 Clouds -4 1023 67 10000 1.79 266 18:24 22.01.2022
3556 Clouds -4 1025 70 10000 3.58 251 17:40 22.01.2022
3557 Clouds -5 1025 72 10000 2.24 233 16:56 22.01.2022
3558 Clouds -6 1025 74 10000 3.13 269 15:53 22.01.2022
3559 Clouds -6 1022 74 10000 3.13 252 15:26 22.01.2022
3560 Clouds -7 1023 73 10000 2.24 264 13:46 22.01.2022
3561 Clouds -7 1023 72 10000 2.24 252 12:53 22.01.2022
3562 Snow -7 1023 67 10000 3.13 240 12:29 22.01.2022
3563 Clouds -7 1025 64 10000 1.79 227 11:44 22.01.2022
3564 Clouds -7 1028 67 10000 2.68 236 10:29 22.01.2022
3565 Clouds -7 1029 66 10000 2.68 247 09:59 22.01.2022
3566 Clouds -7 1029 65 10000 2.24 230 08:53 22.01.2022
3567 Clouds -7 1030 66 10000 1.79 232 07:56 22.01.2022
3568 Clear -7 1031 65 10000 3.58 216 04:53 22.01.2022
3569 Clear -7 1036 65 10000 3.86 197 01:49 22.01.2022
3570 Clouds -5 1034 57 10000 1.34 252 23:46 21.01.2022
3571 Clouds -4 1035 54 10000 0.89 195 22:36 21.01.2022
3572 Clouds -4 1035 55 10000 2.68 243 20:32 21.01.2022
3573 Clouds -5 1037 59 10000 1.79 240 18:40 21.01.2022
3574 Clouds -6 1037 60 10000 2.24 191 17:41 21.01.2022
3575 Clouds -10 1037 68 10000 0 0 15:47 21.01.2022
3576 Clouds -11 1034 69 10000 1.07 305 13:55 21.01.2022
3577 Clouds -12 1035 69 10000 1.54 290 12:39 21.01.2022
3578 Clouds -12 1034 68 10000 1.34 336 11:28 21.01.2022
3579 Clouds -12 1036 68 10000 0.45 360 10:20 21.01.2022
3580 Clouds -12 1035 66 10000 3.09 310 08:25 21.01.2022
3581 Clouds -12 1035 66 10000 3.09 310 08:25 21.01.2022
3582 Clouds -12 1034 62 10000 0.89 337 07:19 21.01.2022
3583 Clouds -9 1037 55 10000 0.89 32 23:54 20.01.2022
3584 Clouds -8 1037 52 10000 2.68 14 22:45 20.01.2022
3585 Clouds -8 1035 49 10000 3.58 22 21:48 20.01.2022
3586 Clouds -8 1036 50 10000 3.13 25 20:56 20.01.2022
3587 Clouds -9 1036 54 10000 3.13 47 19:21 20.01.2022
3588 Clouds -9 1037 57 10000 4.02 17 18:51 20.01.2022
3589 Clouds -11 1037 63 10000 3.58 18 17:31 20.01.2022
3590 Clouds -13 1036 64 10000 3.58 44 15:46 20.01.2022
3591 Clouds -14 1036 64 10000 3.58 5 15:25 20.01.2022
3592 Clouds -14 1032 65 10000 2.68 334 13:53 20.01.2022
3593 Clouds -14 1032 63 10000 3.58 351 12:43 20.01.2022
3594 Clouds -14 1032 63 10000 3.13 351 12:21 20.01.2022
3595 Clouds -13 1033 63 10000 2.24 359 10:55 20.01.2022
3596 Clouds -13 1033 63 10000 4.92 337 09:43 20.01.2022
3597 Clouds -12 1032 62 10000 3.58 9 08:36 20.01.2022
3598 Clouds -12 1031 61 10000 2.24 337 06:18 20.01.2022
3599 Clouds -8 1025 59 10000 3.13 351 23:52 19.01.2022
3600 Clouds -7 1024 57 10000 4.47 348 22:37 19.01.2022
3601 Clouds -6 1022 58 10000 3.58 22 21:25 19.01.2022
3602 Clouds -6 1021 58 10000 1.79 300 20:53 19.01.2022
3603 Clouds -6 1021 58 10000 3.13 321 20:24 19.01.2022
3604 Clouds -6 1020 60 10000 3.13 332 18:49 19.01.2022
3605 Clouds -6 1020 60 10000 3.13 332 18:49 19.01.2022
3606 Clouds -7 1020 64 10000 2.68 327 17:50 19.01.2022
3607 Clouds -7 1019 66 10000 3.58 337 16:59 19.01.2022
3608 Clouds -5 1014 70 10000 6.17 280 14:55 19.01.2022
3609 Clouds -3 1012 66 10000 2.68 296 13:20 19.01.2022
3610 Clouds -1 1013 81 10000 6.11 297 11:54 19.01.2022
3611 Clouds 2 1011 78 10000 3.13 307 10:52 19.01.2022
3612 Clouds 3 1010 79 10000 2.24 288 09:35 19.01.2022
3613 Clouds 4 1008 76 10000 2.68 268 07:34 19.01.2022
3614 Clouds 5 1006 74 10000 1.79 233 05:19 19.01.2022
3615 Clouds 6 1009 70 10000 4.02 221 23:53 18.01.2022
3616 Clouds 6 1009 70 10000 4.02 221 23:53 18.01.2022
3617 Clouds 6 1008 66 10000 4.02 228 23:18 18.01.2022
3618 Clouds 6 1009 62 10000 3.58 230 21:43 18.01.2022
3619 Clouds 4 1010 64 10000 4.02 222 20:21 18.01.2022
3620 Clouds 3 1012 66 10000 3.13 202 19:39 18.01.2022
3621 Clouds 2 1012 67 10000 3.13 202 19:21 18.01.2022
3622 Clouds 0 1014 65 10000 3.13 225 18:18 18.01.2022
3623 Clouds -1 1015 67 10000 5.81 225 17:29 18.01.2022
3624 Clouds -3 1016 77 10000 2.24 218 16:18 18.01.2022
3625 Clouds -5 1014 82 10000 2.68 216 15:24 18.01.2022
3626 Clouds -5 1015 82 10000 1.34 196 14:18 18.01.2022
3627 Clouds -7 1014 84 10000 1.54 250 11:20 18.01.2022
3628 Clear -7 1017 84 10000 0.45 270 09:58 18.01.2022
3629 Clear -6 1017 83 10000 1.34 259 08:19 18.01.2022
3630 Clear -6 1016 82 10000 0.89 288 07:31 18.01.2022
3631 Clouds -3 1014 71 10000 2.68 334 00:22 18.01.2022
3632 Clouds -3 1013 71 10000 4.02 326 22:31 17.01.2022
3633 Clouds -3 1013 71 10000 1.34 326 21:36 17.01.2022
3634 Clouds -3 1012 69 10000 3.13 318 20:33 17.01.2022
3635 Clouds -3 1012 73 10000 4.47 326 18:46 17.01.2022
3636 Clouds -3 1013 74 10000 3.13 344 18:23 17.01.2022
3637 Clouds -4 1011 77 10000 4.47 326 16:53 17.01.2022
3638 Clouds -4 1008 77 10000 3.58 353 15:31 17.01.2022
3639 Clouds -5 1007 77 10000 4.02 328 14:58 17.01.2022
3640 Clouds -5 1007 78 10000 2.24 349 13:42 17.01.2022
3641 Clouds -5 1006 78 10000 2.68 340 12:58 17.01.2022
3642 Clouds -5 1005 80 10000 2.68 352 11:51 17.01.2022
3643 Clouds -5 1007 82 10000 1.79 320 10:43 17.01.2022
3644 Clouds -5 1007 82 10000 3.58 343 09:35 17.01.2022
3645 Clouds -5 1007 80 10000 2.24 353 08:18 17.01.2022
3646 Clouds -5 1007 79 10000 1.34 329 07:19 17.01.2022
3647 Clouds -4 1011 58 6398 2.24 335 00:57 17.01.2022
3648 Clouds -3 1011 52 6063 0.45 270 22:53 16.01.2022
3649 Clouds -2 1012 56 10000 1.79 135 20:41 16.01.2022
3650 Clouds -3 1014 64 10000 3.09 320 19:44 16.01.2022
3651 Clouds -5 1015 67 10000 1.79 354 18:42 16.01.2022
3652 Clouds -6 1016 69 10000 1.34 322 17:45 16.01.2022
3653 Clouds -7 1017 71 10000 1.34 264 16:48 16.01.2022
3654 Clouds -9 1018 77 10000 1.79 201 15:19 16.01.2022
3655 Clear -9 1017 76 10000 1.34 203 14:28 16.01.2022
3656 Clear -9 1019 78 10000 0.89 225 12:51 16.01.2022
3657 Clear -9 1020 76 10000 1.34 199 11:48 16.01.2022
3658 Clear -8 1022 75 10000 0.45 202 10:58 16.01.2022
3659 Clear -8 1022 75 10000 0.89 164 10:26 16.01.2022
3660 Clear -9 1023 75 10000 2.24 165 09:54 16.01.2022
3661 Clear -8 1024 71 10000 1.34 172 09:22 16.01.2022
3662 Clear -8 1024 68 10000 1.34 178 08:38 16.01.2022
3663 Clouds -6 1027 70 10000 1.79 141 03:21 16.01.2022
3664 Clouds -5 1029 72 10000 2.24 80 23:50 15.01.2022
3665 Clouds -5 1029 72 10000 2.24 80 23:50 15.01.2022
3666 Clouds -5 1028 70 10000 2.24 76 22:19 15.01.2022
3667 Clouds -5 1029 70 10000 3.58 90 21:19 15.01.2022
3668 Clouds -5 1029 71 10000 3.58 90 20:40 15.01.2022
3669 Clouds -5 1031 74 10000 4.02 45 19:30 15.01.2022
3670 Clouds -5 1030 73 10000 3.13 85 18:45 15.01.2022
3671 Clouds -6 1032 76 10000 3.13 50 17:29 15.01.2022
3672 Clouds -6 1031 77 10000 1.79 109 15:59 15.01.2022
3673 Clouds -6 1027 81 10000 2.68 91 13:56 15.01.2022
3674 Clouds -5 1026 86 10000 2.68 102 12:18 15.01.2022
3675 Clouds -5 1026 88 10000 3.58 90 10:38 15.01.2022
3676 Mist -4 1027 88 3219 3.13 94 08:31 15.01.2022
3677 Clouds -1 1024 84 8613 4.02 55 00:28 15.01.2022
3678 Clouds -1 1024 82 10000 2.68 57 21:52 14.01.2022
3679 Clouds -1 1024 80 10000 3.13 39 20:40 14.01.2022
3680 Clouds -1 1024 80 10000 2.68 54 20:20 14.01.2022
3681 Clouds -1 1024 78 10000 4.02 52 18:49 14.01.2022
3682 Clouds -1 1025 77 10000 2.68 31 17:57 14.01.2022
3683 Clouds -1 1024 78 10000 3.13 45 16:48 14.01.2022
3684 Clouds 0 1021 79 10000 5.36 62 15:37 14.01.2022
3685 Clouds 0 1021 79 10000 3.13 54 14:42 14.01.2022
3686 Clouds 0 1020 80 10000 2.68 32 13:35 14.01.2022
3687 Clouds 0 1019 81 6625 5.36 69 12:24 14.01.2022
3688 Clouds 1 1020 85 3974 4.47 50 10:53 14.01.2022
3689 Clouds 2 1020 86 10000 4.02 54 08:54 14.01.2022
3690 Clouds 2 1020 86 10000 3.13 52 08:34 14.01.2022
3691 Clouds 2 1018 80 10000 2.68 16 05:29 14.01.2022
3692 Clouds 2 1017 81 10000 0.89 67 01:20 14.01.2022
3693 Clouds 3 1015 78 10000 3.13 45 22:52 13.01.2022
3694 Clouds 4 1014 80 10000 2.24 21 21:31 13.01.2022
3695 Clouds 4 1015 80 10000 1.34 22 20:57 13.01.2022
3696 Clouds 4 1014 81 10000 3.58 18 19:40 13.01.2022
3697 Clouds 4 1014 81 10000 3.13 3 19:21 13.01.2022
3698 Clouds 3 1015 79 10000 2.24 15 17:52 13.01.2022
3699 Clouds 2 1017 84 10000 3.1 16 16:20 13.01.2022
3700 Clouds 2 1014 86 10000 3.08 16 15:37 13.01.2022
3701 Clouds 2 1014 86 10000 3.63 22 14:40 13.01.2022
3702 Clouds 1 1012 88 10000 1.79 55 12:37 13.01.2022
3703 Clouds 0 1013 88 10000 2.06 290 10:23 13.01.2022
3704 Clouds 0 1014 87 10000 0.89 54 08:58 13.01.2022
3705 Clouds 0 1013 87 10000 0.89 45 08:26 13.01.2022
3706 Clouds 0 1014 87 10000 0 0 07:23 13.01.2022
3707 Clouds 0 1016 86 10000 1.52 257 05:59 13.01.2022
3708 Clouds 0 1016 85 10000 1.73 238 05:19 13.01.2022
3709 Clouds 2 1018 78 10000 0.45 266 01:56 13.01.2022
3710 Clouds 2 1016 91 10000 2.02 241 00:49 13.01.2022
3711 Clouds 3 1018 73 10000 2.54 225 23:46 12.01.2022
3712 Clouds 4 1016 66 10000 1.79 202 22:59 12.01.2022
3713 Clouds 4 1016 69 10000 0.45 274 21:57 12.01.2022
3714 Clouds 4 1016 69 10000 0.45 274 21:57 12.01.2022
3715 Clouds 5 1016 66 10000 1.79 273 21:22 12.01.2022
3716 Clouds 4 1017 66 10000 1.34 295 20:56 12.01.2022
3717 Clouds 4 1017 66 10000 2.24 270 19:41 12.01.2022
3718 Clouds 3 1017 70 10000 2.24 221 18:30 12.01.2022
3719 Clouds 3 1017 69 10000 2.24 216 18:30 12.01.2022
3720 Clouds 2 1017 74 10000 0.89 242 17:00 12.01.2022
3721 Clouds 1 1018 74 10000 0.89 223 16:28 12.01.2022
3722 Clouds 0 1016 75 10000 1.34 259 14:48 12.01.2022
3723 Clouds 0 1016 77 10000 1.34 254 12:58 12.01.2022
3724 Clouds 0 1016 77 10000 1.34 270 12:58 12.01.2022
3725 Clouds 0 1018 73 10000 1.79 253 10:38 12.01.2022
3726 Clouds 1 1018 73 10000 2.24 254 08:37 12.01.2022
3727 Clouds 1 1018 72 10000 1.79 256 07:49 12.01.2022
3728 Clouds 1 1018 72 10000 1.34 247 07:31 12.01.2022
3729 Clear 0 1020 65 10000 3.13 226 23:40 11.01.2022
3730 Clouds 0 1020 60 10000 3.58 202 22:49 11.01.2022
3731 Clouds 0 1020 58 10000 4.02 207 22:22 11.01.2022
3732 Clouds -2 1024 53 10000 5.36 204 20:51 11.01.2022
3733 Clear -4 1026 47 10000 3.13 224 19:48 11.01.2022
3734 Clouds -7 1029 44 10000 1.79 215 18:31 11.01.2022
3735 Clouds -9 1031 46 10000 3.13 225 17:24 11.01.2022
3736 Clouds -11 1032 51 10000 2.68 214 16:37 11.01.2022
3737 Clouds -13 1033 57 10000 3.13 215 15:35 11.01.2022
3738 Clouds -14 1032 58 10000 2.24 214 14:42 11.01.2022
3739 Clear -14 1033 56 10000 1.79 222 13:55 11.01.2022
3740 Clear -15 1033 56 10000 3.13 219 13:34 11.01.2022
3741 Clouds -15 1032 61 10000 1.34 201 12:42 11.01.2022
3742 Clouds -15 1033 58 10000 0.89 247 11:40 11.01.2022
3743 Clear -15 1037 54 10000 0 0 09:28 11.01.2022
3744 Clear -15 1038 50 10000 1.34 348 06:37 11.01.2022
3745 Clouds -12 1036 45 10000 3.58 327 00:31 11.01.2022
3746 Clear -11 1036 42 10000 2.24 331 23:41 10.01.2022
3747 Clear -11 1036 39 10000 2.68 10 22:51 10.01.2022
3748 Clear -10 1034 41 10000 3.58 313 22:19 10.01.2022
3749 Clear -10 1035 40 10000 1.79 339 21:52 10.01.2022
3750 Clear -9 1033 40 10000 4.02 327 21:19 10.01.2022
3751 Clear -9 1033 39 10000 3.58 356 20:56 10.01.2022
3752 Clear -9 1033 42 10000 4.02 322 20:27 10.01.2022
3753 Clouds -9 1033 41 10000 5.81 348 19:41 10.01.2022
3754 Clouds -9 1033 41 10000 4.92 345 19:20 10.01.2022
3755 Clouds -9 1034 41 10000 4.92 7 18:48 10.01.2022
3756 Clouds -9 1034 47 10000 3.13 337 17:40 10.01.2022
3757 Clouds -9 1034 56 10000 3.13 332 16:41 10.01.2022
3758 Clouds -10 1034 68 10000 0.89 335 15:20 10.01.2022
3759 Clouds -10 1030 70 2722 0.89 271 13:41 10.01.2022
3760 Clouds -10 1030 66 345 2.24 290 11:58 10.01.2022
3761 Clouds -10 1030 62 552 2.68 286 11:24 10.01.2022
3762 Clouds -11 1034 57 10000 2.24 329 09:47 10.01.2022
3763 Clouds -13 1036 64 10000 4.47 296 06:47 10.01.2022
3764 Clear -12 1035 64 10000 3.13 301 05:49 10.01.2022
3765 Clear -10 1035 61 10000 2.24 300 01:30 10.01.2022
3766 Clear -9 1034 57 10000 4.47 324 00:24 10.01.2022
3767 Clouds -8 1033 49 10000 2.24 307 23:29 09.01.2022
3768 Clouds -7 1033 47 10000 5.14 310 22:37 09.01.2022
3769 Clouds -6 1032 47 10000 7.72 300 21:46 09.01.2022
3770 Clouds -6 1032 49 10000 7.72 300 21:23 09.01.2022
3771 Clouds -6 1032 49 10000 7.72 300 21:23 09.01.2022
3772 Clouds -6 1031 51 10000 5.66 280 20:50 09.01.2022
3773 Clouds -6 1031 51 10000 5.66 280 20:32 09.01.2022
3774 Clouds -6 1032 53 10000 8.46 310 19:44 09.01.2022
3775 Clouds -6 1030 51 10000 5.81 357 19:23 09.01.2022
3776 Clouds -6 1032 55 10000 8.07 313 18:51 09.01.2022
3777 Clouds -6 1031 64 10000 8.07 313 18:33 09.01.2022
3778 Clouds -4 1026 46 10000 8.23 300 17:31 09.01.2022
3779 Clouds -3 1024 64 10000 7.2 290 16:51 09.01.2022
3780 Clouds -4 1027 68 10000 8.34 308 15:57 09.01.2022
3781 Clear -2 1022 74 10000 4.12 280 15:35 09.01.2022
3782 Clouds -1 1021 79 10000 5.14 300 14:40 09.01.2022
3783 Clouds -1 1020 83 10000 4.92 319 13:50 09.01.2022
3784 Clouds -1 1018 85 10000 2.24 313 12:50 09.01.2022
3785 Clouds 0 1017 85 10000 1.79 312 11:51 09.01.2022
3786 Clouds 0 1016 88 10000 2.24 333 10:52 09.01.2022
3787 Clouds 1 1017 92 10000 2.68 322 09:42 09.01.2022
3788 Clouds 1 1017 94 10000 2.24 294 08:51 09.01.2022
3789 Clouds 1 1017 94 10000 3.13 233 05:21 09.01.2022
3790 Clouds -2 1018 92 10000 3.58 221 01:24 09.01.2022
3791 Mist -3 1018 90 4023 2.68 218 23:44 08.01.2022
3792 Mist -3 1018 90 4023 3.58 213 23:26 08.01.2022
3793 Mist -3 1018 86 4023 1.79 201 22:28 08.01.2022
3794 Clouds -3 1019 68 10000 3.58 207 21:25 08.01.2022
3795 Clouds -3 1019 63 10000 2.24 213 20:42 08.01.2022
3796 Clouds -3 1020 62 10000 1.34 202 20:20 08.01.2022
3797 Clouds -5 1022 58 10000 2.68 206 18:40 08.01.2022
3798 Clear -6 1024 55 10000 4.02 200 17:22 08.01.2022
3799 Clouds -7 1024 61 10000 3.58 198 15:52 08.01.2022
3800 Clouds -9 1022 68 10000 1.79 210 14:46 08.01.2022
3801 Clouds -9 1023 71 10000 2.24 191 13:28 08.01.2022
3802 Clouds -9 1024 72 10000 2.68 201 11:28 08.01.2022
3803 Clouds -10 1027 73 10000 2.68 204 10:28 08.01.2022
3804 Clouds -10 1027 74 10000 2.68 208 09:48 08.01.2022
3805 Clouds -11 1030 74 10000 1.34 178 07:50 08.01.2022
3806 Clouds -12 1029 71 10000 1.34 192 03:31 08.01.2022
3807 Clouds -12 1030 68 10000 0.89 231 00:42 08.01.2022
3808 Clouds -11 1029 61 10000 1.34 243 22:49 07.01.2022
3809 Clouds -10 1029 55 10000 2.68 276 21:18 07.01.2022
3810 Clouds -10 1028 56 10000 1.34 300 20:20 07.01.2022
3811 Clouds -11 1029 59 10000 2.24 276 19:25 07.01.2022
3812 Clouds -12 1028 61 10000 1.79 256 18:45 07.01.2022
3813 Clouds -15 1028 65 10000 1.34 283 17:28 07.01.2022
3814 Clouds -16 1026 69 10000 3.6 260 16:41 07.01.2022
3815 Clouds -18 1024 73 10000 1.79 303 14:29 07.01.2022
3816 Clouds -18 1023 76 10000 1.34 287 13:41 07.01.2022
3817 Clear -18 1024 75 10000 5.14 270 12:49 07.01.2022
3818 Clear -17 1024 74 10000 2.24 310 09:46 07.01.2022
3819 Clouds -13 1021 74 10000 3.58 282 02:57 07.01.2022
3820 Clouds -12 1021 75 1826 4.92 323 01:56 07.01.2022
3821 Clouds -12 1021 75 2554 1.79 297 01:28 07.01.2022
3822 Clouds -12 1021 75 2554 2.68 289 00:59 07.01.2022
3823 Clouds -11 1021 75 3585 2.68 320 00:28 07.01.2022
3824 Clouds -10 1019 67 10000 3.13 297 21:39 06.01.2022
3825 Clouds -10 1019 66 10000 3.58 314 20:25 06.01.2022
3826 Clouds -10 1019 68 10000 4.47 288 19:45 06.01.2022
3827 Clouds -10 1020 69 8562 2.24 316 18:59 06.01.2022
3828 Clouds -11 1019 71 10000 2.68 306 17:42 06.01.2022
3829 Clouds -11 1019 71 10000 2.68 306 17:42 06.01.2022
3830 Clouds -12 1021 74 10000 2.68 313 16:58 06.01.2022
3831 Clouds -14 1020 78 10000 1.34 292 15:49 06.01.2022
3832 Clouds -14 1020 79 10000 2.24 287 15:27 06.01.2022
3833 Clouds -15 1016 81 8257 3.13 284 14:55 06.01.2022
3834 Clouds -15 1017 80 10000 3.58 278 14:19 06.01.2022
3835 Clouds -14 1016 80 5678 2.24 292 12:58 06.01.2022
3836 Clouds -14 1016 80 6020 2.24 283 11:50 06.01.2022
3837 Clouds -14 1016 79 6189 2.24 294 11:28 06.01.2022
3838 Clouds -13 1018 80 10000 1.79 287 08:59 06.01.2022
3839 Clouds -11 1014 73 10000 4.02 294 01:52 06.01.2022
3840 Clouds -11 1012 73 10000 4.02 287 23:40 05.01.2022
3841 Clouds -11 1012 73 10000 4.47 283 23:19 05.01.2022
3842 Clouds -11 1011 72 10000 8.94 267 22:40 05.01.2022
3843 Snow -11 1009 70 3219 4.92 280 21:54 05.01.2022
3844 Snow -11 1009 70 3219 5.81 276 21:21 05.01.2022
3845 Snow -11 1008 70 6437 5.81 264 20:21 05.01.2022
3846 Clouds -11 1008 71 3188 4.92 272 19:27 05.01.2022
3847 Snow -10 1007 71 6437 5.36 281 17:50 05.01.2022
3848 Clouds -10 1007 75 4889 4.92 263 16:56 05.01.2022
3849 Clouds -9 1003 77 4450 6.26 278 15:46 05.01.2022
3850 Snow -8 1003 76 4828 3.13 279 14:50 05.01.2022
3851 Clouds -6 1000 78 1586 4.47 264 13:33 05.01.2022
3852 Clouds -3 999 83 10000 4.47 279 11:46 05.01.2022
3853 Clear 0 1001 74 10000 2.24 212 08:20 05.01.2022
3854 Clouds 0 1003 70 10000 3.13 241 06:36 05.01.2022
3855 Clouds 0 1008 70 10000 3.13 200 00:59 05.01.2022
3856 Clouds 0 1010 68 10000 2.68 214 23:41 04.01.2022
3857 Clouds 0 1009 67 10000 3.13 202 23:19 04.01.2022
3858 Clouds 1 1013 66 10000 3.13 210 21:32 04.01.2022
3859 Clouds 1 1013 68 10000 4.02 217 20:27 04.01.2022
3860 Clouds -1 1017 68 10000 3.13 221 18:35 04.01.2022
3861 Clouds -2 1019 70 10000 5.36 225 17:18 04.01.2022
3862 Clouds -3 1020 73 10000 2.68 216 16:31 04.01.2022
3863 Clear -5 1019 81 10000 3.58 219 14:58 04.01.2022
3864 Clear -5 1019 81 10000 3.13 218 14:36 04.01.2022
3865 Clear -6 1019 81 10000 4.47 219 13:55 04.01.2022
3866 Clouds -6 1021 80 10000 1.79 224 11:44 04.01.2022
3867 Clear -6 1025 78 10000 2.24 213 10:18 04.01.2022
3868 Clear -6 1025 77 10000 2.24 223 08:36 04.01.2022
3869 Clear -7 1027 74 10000 0.89 214 04:24 04.01.2022
3870 Clouds -7 1028 62 10000 1.79 223 00:42 04.01.2022
3871 Clouds -7 1028 57 10000 1.34 221 23:49 03.01.2022
3872 Clouds -6 1028 47 10000 1.34 217 22:21 03.01.2022
3873 Clouds -5 1028 48 10000 3.13 251 21:38 03.01.2022
3874 Clouds -6 1028 44 10000 2.68 227 20:40 03.01.2022
3875 Clear -7 1029 50 10000 1.79 254 18:55 03.01.2022
3876 Clear -8 1029 54 10000 1.79 246 18:30 03.01.2022
3877 Clear -9 1030 62 10000 1.79 250 17:20 03.01.2022
3878 Clear -11 1029 71 10000 3.6 240 16:31 03.01.2022
3879 Clouds -14 1027 81 10000 3.09 240 14:31 03.01.2022
3880 Clouds -14 1028 84 10000 2.69 285 12:52 03.01.2022
3881 Clear -13 1026 83 10000 1.54 300 11:50 03.01.2022
3882 Clouds -12 1029 82 10000 1.34 343 10:38 03.01.2022
3883 Clear -12 1027 79 10000 0.89 292 09:27 03.01.2022
3884 Clear -11 1028 81 10000 2.68 341 07:53 03.01.2022
3885 Clouds -8 1027 80 10000 2.24 351 02:56 03.01.2022
3886 Clouds -4 1026 76 10000 1.34 22 23:23 02.01.2022
3887 Clouds -4 1025 73 10000 1.34 30 22:56 02.01.2022
3888 Clouds -3 1024 72 10000 1.79 5 21:52 02.01.2022
3889 Clouds -3 1023 75 10000 1.79 330 20:50 02.01.2022
3890 Clouds -3 1022 76 10000 4.02 5 20:29 02.01.2022
3891 Snow -4 1022 79 10000 2.24 31 19:31 02.01.2022
3892 Snow -4 1022 81 10000 3.58 9 18:55 02.01.2022
3893 Snow -6 1023 84 6560 2.24 7 17:56 02.01.2022
3894 Snow -6 1022 83 10000 3.13 346 17:38 02.01.2022
3895 Snow -6 1022 84 10000 4.02 358 17:20 02.01.2022
3896 Snow -7 1022 85 10000 2.24 22 16:27 02.01.2022
3897 Snow -7 1017 86 8047 4.02 10 14:41 02.01.2022
3898 Snow -7 1016 88 2425 4.02 344 13:25 02.01.2022
3899 Snow -7 1015 88 8047 3.58 358 12:31 02.01.2022
3900 Snow -6 1014 88 10000 2.24 355 11:41 02.01.2022
3901 Snow -6 1014 88 6437 4.02 347 10:53 02.01.2022
3902 Snow -6 1014 89 2816 3.13 5 09:55 02.01.2022
3903 Snow -4 1013 90 254 4.02 52 07:34 02.01.2022
3904 Snow -2 1013 91 216 7.15 50 02:51 02.01.2022
3905 Snow -2 1010 93 1609 5.36 58 23:42 01.01.2022
3906 Snow -2 1010 93 1207 4.92 57 23:23 01.01.2022
3907 Snow -1 1010 92 1207 5.36 43 22:25 01.01.2022
3908 Snow -1 1010 92 1207 5.36 30 21:44 01.01.2022
3909 Snow -1 1009 90 1207 4.47 45 20:56 01.01.2022
3910 Snow 0 1010 87 2816 4.47 38 20:19 01.01.2022
3911 Snow 0 1010 84 10000 4.47 60 19:33 01.01.2022
3912 Snow 1 1012 82 10000 4.92 60 18:29 01.01.2022
3913 Clouds 1 1011 84 10000 4.92 39 16:55 01.01.2022
3914 Drizzle 1 1010 85 9656 4.47 40 16:34 01.01.2022
3915 Drizzle 1 1011 86 9656 4.47 61 15:33 01.01.2022
3916 Clouds 2 1009 85 10000 5.81 47 14:22 01.01.2022
3917 Clouds 2 1009 86 10000 4.02 51 13:28 01.01.2022
3918 Clouds 2 1009 85 10000 5.81 32 12:18 01.01.2022
3919 Clouds 2 1008 87 10000 4.92 21 11:25 01.01.2022
3920 Mist 2 1008 89 9656 3.13 53 10:52 01.01.2022
3921 Mist 2 1008 92 6437 3.13 39 09:47 01.01.2022
3922 Drizzle 3 1008 93 6437 2.24 26 08:27 01.01.2022
3923 Clouds 3 1009 94 10000 6.71 25 07:56 01.01.2022
3924 Clouds 3 1009 94 10000 4.02 28 07:37 01.01.2022
3925 Clouds 3 1009 94 10000 4.02 28 07:37 01.01.2022
3926 Mist 4 1007 93 4828 2.68 45 06:43 01.01.2022
3927 Clouds 5 1007 93 10000 2.68 58 04:39 01.01.2022
3928 Mist 5 1006 92 6437 3.13 11 03:48 01.01.2022
3929 Mist 5 1004 91 3219 1.34 45 23:53 31.12.2021
3930 Clouds 5 1005 91 10000 1.34 91 21:56 31.12.2021
3931 Drizzle 5 1004 90 4828 1.34 131 21:32 31.12.2021
3932 Clouds 4 1008 82 10000 1.34 154 19:43 31.12.2021
3933 Clouds 4 1007 70 10000 4.12 110 18:50 31.12.2021
3934 Clear 2 1011 79 10000 1.34 182 17:49 31.12.2021
3935 Clear 2 1011 79 10000 1.34 182 17:24 31.12.2021
3936 Clouds 2 1010 80 10000 0.89 191 16:52 31.12.2021
3937 Clear 1 1011 82 10000 0.89 157 16:18 31.12.2021
3938 Clouds 1 1009 83 10000 2.06 150 15:42 31.12.2021
3939 Clear 0 1009 84 10000 1.62 118 15:20 31.12.2021
3940 Clouds 0 1009 83 10000 0 0 14:38 31.12.2021
3941 Clear 0 1010 82 10000 1.34 5 13:45 31.12.2021
3942 Clouds 0 1009 83 10000 1.34 337 12:50 31.12.2021
3943 Clear 1 1009 83 10000 0.89 325 12:20 31.12.2021
3944 Clear 1 1010 82 10000 2.24 327 11:41 31.12.2021
3945 Clear 1 1009 83 10000 2.24 281 10:50 31.12.2021
3946 Clear 1 1009 82 10000 1.79 278 10:28 31.12.2021
3947 Clear 1 1011 83 10000 1.79 297 09:34 31.12.2021
3948 Clear 1 1011 82 10000 2.24 298 08:50 31.12.2021
3949 Clear 2 1011 81 10000 2.24 254 07:53 31.12.2021
3950 Clouds 2 1011 89 10000 0.89 292 04:54 31.12.2021
3951 Clouds 2 1012 82 10000 1.79 202 23:18 30.12.2021
3952 Clouds 2 1012 82 10000 0.45 225 22:31 30.12.2021
3953 Clouds 2 1011 81 10000 1.34 138 21:39 30.12.2021
3954 Clouds 2 1012 81 10000 0.45 133 20:59 30.12.2021
3955 Clouds 2 1012 80 10000 1.34 151 20:38 30.12.2021
3956 Clouds 2 1012 76 10000 0.89 156 19:55 30.12.2021
3957 Clouds 1 1013 76 10000 0.89 170 19:31 30.12.2021
3958 Rain 1 1014 75 10000 0.89 171 18:26 30.12.2021
3959 Rain 1 1014 75 10000 0.89 171 18:26 30.12.2021
3960 Clouds 0 1015 76 10000 0.89 172 16:53 30.12.2021
3961 Clouds -1 1017 81 10000 2.91 105 15:53 30.12.2021
3962 Clouds -1 1012 81 10000 1.79 127 14:55 30.12.2021
3963 Clouds -1 1012 82 10000 0.89 139 14:36 30.12.2021
3964 Clouds -1 1013 80 10000 1.34 50 13:25 30.12.2021
3965 Clouds -1 1013 80 10000 1.34 50 13:25 30.12.2021
3966 Clouds -1 1012 83 10000 0.45 135 11:57 30.12.2021
3967 Clouds -1 1015 89 10000 0.45 173 10:35 30.12.2021
3968 Snow -1 1014 87 8047 0.89 46 09:47 30.12.2021
3969 Snow -1 1015 87 4828 1.34 118 06:58 30.12.2021
3970 Snow 0 1016 64 10000 1.79 134 05:20 30.12.2021
3971 Clouds 0 1017 63 10000 2.68 55 03:41 30.12.2021
3972 Clouds 0 1017 62 10000 3.58 57 02:28 30.12.2021
3973 Clouds 0 1016 62 10000 2.24 60 23:37 29.12.2021
3974 Clouds 1 1016 58 10000 2.68 10 22:42 29.12.2021
3975 Clouds 1 1016 58 10000 3.13 18 21:56 29.12.2021
3976 Clouds 1 1015 62 10000 2.24 87 20:58 29.12.2021
3977 Clouds 1 1014 61 10000 2.24 339 20:29 29.12.2021
3978 Clouds 1 1015 68 10000 0.89 339 19:31 29.12.2021
3979 Clouds 1 1015 73 10000 1.34 305 18:43 29.12.2021
3980 Snow 0 1015 75 10000 2.24 292 17:51 29.12.2021
3981 Snow 0 1015 80 10000 1.34 266 17:27 29.12.2021
3982 Clouds 1 1014 80 10000 2.68 285 16:22 29.12.2021
3983 Clouds 1 1014 83 10000 2.24 307 15:21 29.12.2021
3984 Clouds 1 1010 87 10000 0.89 298 13:31 29.12.2021
3985 Clouds 1 1009 89 10000 1.79 291 12:35 29.12.2021
3986 Clouds 2 1009 92 10000 4.2 284 11:25 29.12.2021
3987 Clouds 2 1008 95 10000 3.48 272 09:38 29.12.2021
3988 Clouds 2 1006 95 9102 0.89 221 07:47 29.12.2021
3989 Mist 2 1005 95 1207 2.06 180 06:37 29.12.2021
3990 Clouds 2 1006 95 10000 2.59 216 05:57 29.12.2021
3991 Mist 2 1004 94 4023 0 0 05:30 29.12.2021
3992 Clouds 2 1004 95 10000 4.14 85 01:45 29.12.2021
3993 Snow 1 1003 94 7557 3 94 00:00 29.12.2021
3994 Snow 1 1003 93 10000 3.53 129 23:18 28.12.2021
3995 Snow 1 1002 93 10000 6.87 128 22:26 28.12.2021
3996 Mist 1 1001 92 4828 4.12 100 21:57 28.12.2021
3997 Snow 1 1002 93 10000 6.87 128 21:35 28.12.2021
3998 Snow 1 1004 92 402 0.89 115 20:35 28.12.2021
3999 Snow 1 1007 84 1207 5.66 120 18:59 28.12.2021
4000 Snow 2 1007 80 10000 1.34 97 18:29 28.12.2021
4001 Clouds 2 1008 77 10000 1.79 153 17:48 28.12.2021
4002 Clouds 2 1009 79 4892 1.34 132 16:29 28.12.2021
4003 Clouds 1 1009 78 4892 1.34 104 15:45 28.12.2021
4004 Clouds 0 1009 78 10000 1.34 100 15:20 28.12.2021
4005 Clouds 0 1010 78 10000 4.52 92 14:46 28.12.2021
4006 Clouds 0 1010 77 10000 1.79 100 14:20 28.12.2021
4007 Clouds 0 1011 76 10000 1.34 84 13:42 28.12.2021
4008 Clouds -1 1011 75 7719 0.45 112 13:24 28.12.2021
4009 Snow -1 1011 74 5024 0.45 149 12:39 28.12.2021
4010 Clouds -1 1011 74 10000 1.79 82 11:27 28.12.2021
4011 Clouds 0 1014 74 10000 2.24 284 07:40 28.12.2021
4012 Clouds 0 1014 75 10000 3.13 262 06:40 28.12.2021
4013 Clouds 5 1010 79 10000 1.79 292 23:43 27.12.2021
4014 Clouds 5 1009 82 10000 4.02 291 22:58 27.12.2021
4015 Clouds 6 1007 88 10000 1.34 297 21:33 27.12.2021
4016 Clouds 7 1008 90 10000 6.94 278 20:46 27.12.2021
4017 Clouds 7 1007 94 10000 5.43 276 19:58 27.12.2021
4018 Clouds 7 1007 95 10000 5.43 276 19:39 27.12.2021
4019 Clouds 6 1007 96 10000 2.75 287 18:23 27.12.2021
4020 Fog 5 1005 95 402 0.45 270 17:46 27.12.2021
4021 Clouds 5 1007 96 10000 2 289 16:38 27.12.2021
4022 Clouds 4 1006 96 10000 0.32 232 15:51 27.12.2021
4023 Clouds 4 1003 96 10000 1.53 127 14:32 27.12.2021
4024 Clouds 4 1003 95 10000 1.34 180 13:39 27.12.2021
4025 Clouds 3 1003 94 10000 0.89 156 11:53 27.12.2021
4026 Thunderstorm 3 1006 94 2816 2.68 135 10:29 27.12.2021
4027 Rain 3 1007 94 4802 2.24 135 09:39 27.12.2021
4028 Rain 2 1009 89 4828 2.68 144 07:35 27.12.2021
4029 Rain 2 1008 84 10000 0.89 121 06:56 27.12.2021
4030 Clouds 3 1020 77 10000 7.47 104 01:59 27.12.2021
4031 Clouds 2 1022 77 10000 5.25 84 23:57 26.12.2021
4032 Clouds 2 1022 78 10000 5.25 84 23:34 26.12.2021
4033 Clouds 3 1020 75 10000 8.23 70 21:59 26.12.2021
4034 Clouds 4 1021 73 10000 6.17 80 20:54 26.12.2021
4035 Clouds 5 1021 71 10000 4.63 70 19:47 26.12.2021
4036 Clouds 4 1023 76 10000 3.67 59 18:24 26.12.2021
4037 Clouds 1 1021 86 10000 0 0 16:20 26.12.2021
4038 Clouds -1 1018 88 10000 0.45 292 14:27 26.12.2021
4039 Clear -1 1017 87 10000 1.54 350 13:40 26.12.2021
4040 Clear -1 1017 87 10000 1.54 350 13:19 26.12.2021
4041 Clear -1 1017 87 10000 0 0 12:32 26.12.2021
4042 Clear 0 1017 84 10000 1.54 330 10:34 26.12.2021
4043 Clear 1 1018 82 10000 1.54 300 09:21 26.12.2021
4044 Clear 1 1017 79 10000 0 0 08:44 26.12.2021
4045 Clear 1 1017 81 10000 2.06 40 07:49 26.12.2021
4046 Clear 3 1014 75 10000 3.09 30 01:27 26.12.2021
4047 Clouds 5 1013 72 10000 4.16 16 23:56 25.12.2021
4048 Clouds 5 1011 68 10000 3.6 30 23:27 25.12.2021
4049 Clouds 7 1010 62 10000 4.12 50 22:26 25.12.2021
4050 Clouds 7 1010 61 10000 5.98 11 20:59 25.12.2021
4051 Clouds 7 1008 64 10000 7.2 350 19:26 25.12.2021
4052 Clouds 6 1007 68 10000 6.17 10 18:55 25.12.2021
4053 Clouds 6 1008 74 10000 6.24 14 17:37 25.12.2021
4054 Rain 6 1008 77 10000 6.6 8 16:41 25.12.2021
4055 Clouds 6 1004 81 10000 5.6 0 15:24 25.12.2021
4056 Clouds 7 1000 90 10000 6.17 40 13:31 25.12.2021
4057 Clouds 9 1001 93 10000 3.91 349 11:53 25.12.2021
4058 Rain 11 999 94 10000 3.17 324 09:57 25.12.2021
4059 Rain 11 998 93 10000 3.09 290 09:37 25.12.2021
4060 Clouds 13 999 87 10000 5.14 210 04:36 25.12.2021
4061 Clouds 13 1000 87 10000 4.54 193 01:27 25.12.2021
4062 Clouds 12 999 86 10000 5.66 180 23:47 24.12.2021
4063 Clouds 10 1003 85 10000 6.25 180 19:50 24.12.2021
4064 Clouds 10 1004 84 10000 6.15 178 19:24 24.12.2021
4065 Clouds 8 1007 89 10000 5.95 174 16:59 24.12.2021
4066 Clouds 7 1007 91 10000 5.24 174 16:29 24.12.2021
4067 Clouds 6 1005 93 10000 5.24 174 15:48 24.12.2021
4068 Clouds 6 1005 93 10000 4.02 225 15:20 24.12.2021
4069 Drizzle 5 1006 93 6437 4.12 170 14:31 24.12.2021
4070 Mist 5 1006 94 4828 3.09 150 13:44 24.12.2021
4071 Mist 4 1006 94 3219 3.6 150 12:49 24.12.2021
4072 Mist 3 1007 94 1207 3.6 160 12:23 24.12.2021
4073 Mist 3 1007 93 6437 2.57 170 11:40 24.12.2021
4074 Mist 2 1007 93 6437 2.57 170 11:18 24.12.2021
4075 Mist 2 1008 93 8047 0.89 210 10:33 24.12.2021
4076 Clouds 2 1009 92 10000 2.06 180 08:36 24.12.2021
4077 Clouds 2 1011 92 10000 0.45 202 07:58 24.12.2021
4078 Clouds 2 1012 91 10000 2.39 231 06:18 24.12.2021
4079 Clouds 6 1009 77 10000 0.89 225 00:20 24.12.2021
4080 Clouds 6 1009 75 10000 0.89 228 23:33 23.12.2021
4081 Clouds 7 1009 72 10000 5.14 210 22:44 23.12.2021
4082 Clouds 7 1008 72 10000 1.34 264 22:22 23.12.2021
4083 Clouds 7 1008 70 10000 7.2 220 21:39 23.12.2021
4084 Clouds 6 1008 67 10000 3.58 247 20:22 23.12.2021
4085 Clouds 5 1010 66 10000 3.58 247 19:28 23.12.2021
4086 Clouds 3 1012 66 10000 6.71 225 17:58 23.12.2021
4087 Clouds 3 1013 66 10000 5.66 190 17:18 23.12.2021
4088 Clouds 1 1013 68 10000 1.79 213 16:26 23.12.2021
4089 Clouds 0 1014 71 10000 3.13 211 15:33 23.12.2021
4090 Clouds 0 1012 70 10000 2.24 201 14:59 23.12.2021
4091 Clouds 0 1012 70 10000 2.24 195 14:39 23.12.2021
4092 Clouds -1 1013 69 10000 2.24 209 13:25 23.12.2021
4093 Clouds -2 1014 66 10000 2.24 214 11:27 23.12.2021
4094 Clouds -3 1017 65 10000 3.58 198 09:53 23.12.2021
4095 Clouds -3 1017 65 10000 2.68 180 09:33 23.12.2021
4096 Clouds -3 1018 64 10000 1.79 192 08:28 23.12.2021
4097 Clouds -3 1023 61 10000 3.38 200 05:30 23.12.2021
4098 Clouds -2 1020 48 10000 1.79 260 00:40 23.12.2021
4099 Clouds -2 1021 45 10000 1.79 292 22:51 22.12.2021
4100 Clouds -2 1020 43 10000 2.68 270 21:59 22.12.2021
4101 Clouds -2 1022 42 10000 3.67 258 21:30 22.12.2021
4102 Clouds -2 1020 43 10000 3.09 260 20:59 22.12.2021
4103 Clouds -2 1020 44 10000 3.09 260 20:40 22.12.2021
4104 Clouds -2 1019 45 10000 1.79 337 19:50 22.12.2021
4105 Clouds -3 1020 49 10000 1.79 285 18:55 22.12.2021
4106 Clouds -5 1021 55 10000 3.6 280 17:38 22.12.2021
4107 Clear -7 1020 67 10000 3.58 301 15:56 22.12.2021
4108 Clear -8 1018 70 10000 6.24 308 14:28 22.12.2021
4109 Clouds -7 1017 69 10000 6.85 309 12:53 22.12.2021
4110 Clouds -7 1016 67 10000 6.9 306 11:42 22.12.2021
4111 Clear -6 1017 63 10000 7.37 309 09:52 22.12.2021
4112 Clear -4 1015 58 10000 7.19 306 07:57 22.12.2021
4113 Clouds -2 1012 58 10000 4.02 308 05:54 22.12.2021
4114 Clouds -1 1012 59 10000 4.02 322 05:36 22.12.2021
4115 Clouds -1 1011 60 10000 3.13 329 05:18 22.12.2021
4116 Clouds -1 1011 61 10000 6.71 321 04:37 22.12.2021
4117 Clear -1 1011 62 10000 5.36 314 03:49 22.12.2021
4118 Clear 0 1010 61 10000 4.47 317 03:31 22.12.2021
4119 Clouds 3 1008 64 10000 4.47 296 23:48 21.12.2021
4120 Clouds 4 1008 63 10000 3.13 267 22:41 21.12.2021
4121 Clouds 4 1007 60 10000 2.24 268 21:57 21.12.2021
4122 Clouds 5 1008 60 10000 5.36 263 21:33 21.12.2021
4123 Clouds 4 1009 62 10000 4.47 273 20:39 21.12.2021
4124 Clouds 4 1009 61 10000 4.92 266 20:18 21.12.2021
4125 Clouds 4 1009 62 10000 2.24 274 19:33 21.12.2021
4126 Clouds 3 1012 65 10000 4.02 216 18:23 21.12.2021
4127 Clouds 3 1013 68 10000 1.34 225 17:58 21.12.2021
4128 Clouds 2 1015 69 10000 4.63 190 17:29 21.12.2021
4129 Clouds -2 1017 77 10000 0 0 15:39 21.12.2021
4130 Clouds -4 1016 74 10000 0 0 14:21 21.12.2021
4131 Clear -4 1017 63 10000 2.73 141 13:42 21.12.2021
4132 Clouds -4 1019 79 10000 1.91 66 12:26 21.12.2021
4133 Clouds -3 1021 79 10000 1.34 353 10:38 21.12.2021
4134 Clouds -3 1021 79 10000 3.33 8 09:56 21.12.2021
4135 Clouds -2 1021 79 10000 1.34 360 08:57 21.12.2021
4136 Clouds -2 1021 80 10000 3.02 3 07:44 21.12.2021
4137 Clouds -2 1021 78 10000 0.89 360 07:22 21.12.2021
4138 Clouds 1 1021 73 10000 0.89 292 03:26 21.12.2021
4139 Clouds 2 1022 69 10000 1.79 318 01:25 21.12.2021
4140 Clouds 3 1022 65 10000 2.68 273 23:54 20.12.2021
4141 Clouds 5 1022 62 10000 4.95 257 22:35 20.12.2021
4142 Clouds 5 1020 59 10000 1.34 270 21:52 20.12.2021
4143 Clouds 5 1020 60 10000 0.89 292 21:24 20.12.2021
4144 Clouds 5 1020 60 10000 1.79 247 20:54 20.12.2021
4145 Clouds 5 1020 62 10000 1.79 255 20:19 20.12.2021
4146 Clouds 4 1020 62 10000 1.79 253 19:36 20.12.2021
4147 Clouds 4 1021 62 10000 2.24 211 19:18 20.12.2021
4148 Clouds 3 1021 66 10000 3.13 247 18:32 20.12.2021
4149 Clouds 3 1021 70 10000 2.24 248 17:49 20.12.2021
4150 Clouds 1 1021 76 10000 3.58 207 16:46 20.12.2021
4151 Clouds 0 1022 81 10000 3.58 219 15:57 20.12.2021
4152 Clouds 0 1023 82 10000 5.66 210 15:31 20.12.2021
4153 Clouds -1 1021 85 10000 3.58 225 13:32 20.12.2021
4154 Clouds -1 1021 85 10000 3.58 225 13:32 20.12.2021
4155 Clouds -1 1022 86 10000 4.12 200 12:30 20.12.2021
4156 Clouds -1 1027 85 10000 6.9 215 10:36 20.12.2021
4157 Clouds -1 1025 84 10000 0.89 157 09:39 20.12.2021
4158 Clouds -1 1025 84 10000 4.02 247 08:49 20.12.2021
4159 Clouds -1 1025 84 10000 0.45 157 08:31 20.12.2021
4160 Clouds -1 1025 83 10000 0.89 180 07:32 20.12.2021
4161 Clouds -1 1027 83 10000 6.48 209 06:39 20.12.2021
4162 Clouds 1 1029 72 10000 3.77 206 00:20 20.12.2021
4163 Clear 2 1029 66 10000 3.57 212 22:56 19.12.2021
4164 Clouds 2 1027 64 10000 1.34 212 22:32 19.12.2021
4165 Clouds 3 1028 61 10000 5.14 220 21:32 19.12.2021
4166 Clear 3 1030 60 10000 3.51 214 20:42 19.12.2021
4167 Clear 3 1030 61 10000 2.89 214 20:23 19.12.2021
4168 Clouds 2 1029 60 10000 3.09 200 19:41 19.12.2021
4169 Clouds 2 1030 61 10000 2.06 220 18:37 19.12.2021
4170 Clouds 1 1032 64 10000 2.09 223 17:53 19.12.2021
4171 Clouds 0 1030 64 10000 1.54 0 17:28 19.12.2021
4172 Clouds -1 1029 68 10000 1.54 340 16:27 19.12.2021
4173 Clouds -1 1029 70 10000 1.79 355 15:52 19.12.2021
4174 Clouds -2 1030 72 10000 1.34 360 15:24 19.12.2021
4175 Clouds -2 1028 72 10000 0.89 22 14:45 19.12.2021
4176 Clouds -2 1027 71 10000 1.79 22 13:26 19.12.2021
4177 Clouds -1 1027 71 10000 1.34 292 12:52 19.12.2021
4178 Clouds -1 1028 71 10000 2.39 332 12:28 19.12.2021
4179 Clouds -1 1027 70 10000 0.89 327 11:33 19.12.2021
4180 Clouds -1 1026 70 10000 1.79 307 10:48 19.12.2021
4181 Clouds -1 1029 69 10000 1.34 337 10:21 19.12.2021
4182 Clouds -1 1028 69 10000 1.79 345 08:46 19.12.2021
4183 Clouds -1 1027 69 10000 2.68 22 06:30 19.12.2021
4184 Clouds 0 1027 70 10000 5.73 337 01:45 19.12.2021
4185 Clouds 1 1024 68 10000 2.24 22 00:54 19.12.2021
4186 Clouds 2 1024 69 10000 5.96 339 22:51 18.12.2021
4187 Clouds 2 1022 68 10000 2.68 22 22:24 18.12.2021
4188 Clouds 3 1021 71 10000 5.81 354 21:41 18.12.2021
4189 Clouds 3 1021 73 10000 3.58 5 21:22 18.12.2021
4190 Clouds 3 1020 77 10000 4.92 37 20:25 18.12.2021
4191 Clouds 3 1019 80 10000 4.02 337 19:34 18.12.2021
4192 Clouds 2 1021 82 9783 6.37 3 18:24 18.12.2021
4193 Clouds 2 1019 86 9783 3.13 22 17:49 18.12.2021
4194 Drizzle 2 1017 91 3219 4.63 10 16:27 18.12.2021
4195 Clouds 2 1017 90 63 3.13 45 15:48 18.12.2021
4196 Clouds 2 1016 90 813 2.68 67 14:53 18.12.2021
4197 Clouds 2 1016 91 4052 1.79 66 13:42 18.12.2021
4198 Clouds 2 1016 90 302 5.06 51 11:48 18.12.2021
4199 Clouds 3 1017 84 6175 5.56 65 09:53 18.12.2021
4200 Clouds 3 1019 81 10000 4.12 90 09:30 18.12.2021
4201 Rain 3 1020 74 9163 3.83 66 08:35 18.12.2021
4202 Clouds 4 1021 67 10000 1.79 112 06:27 18.12.2021
4203 Clouds 2 1024 76 10000 3.13 84 00:42 18.12.2021
4204 Clouds 2 1024 76 10000 1.79 67 23:46 17.12.2021
4205 Clouds 2 1024 72 10000 1.34 109 22:18 17.12.2021
4206 Clouds 2 1024 69 10000 2.68 101 21:28 17.12.2021
4207 Clouds 2 1024 68 10000 2.68 61 20:42 17.12.2021
4208 Clouds 3 1025 65 10000 2.68 101 19:50 17.12.2021
4209 Clouds 2 1026 59 10000 2.68 60 18:39 17.12.2021
4210 Clouds 1 1026 57 10000 1.79 34 17:46 17.12.2021
4211 Clouds 0 1026 58 10000 1.34 22 16:50 17.12.2021
4212 Clear -1 1027 61 10000 1.79 34 16:26 17.12.2021
4213 Clouds -2 1025 69 10000 2.24 17 15:25 17.12.2021
4214 Clear -3 1026 40 10000 2.76 322 14:41 17.12.2021
4215 Clear -3 1024 70 10000 0.45 292 13:35 17.12.2021
4216 Clouds -3 1024 72 10000 2.96 294 12:28 17.12.2021
4217 Clear -2 1022 66 10000 1.34 276 10:39 17.12.2021
4218 Clouds -2 1022 66 10000 1.34 287 09:44 17.12.2021
4219 Clear -1 1023 64 10000 1.34 321 08:31 17.12.2021
4220 Clear 0 1023 64 10000 2.24 294 07:20 17.12.2021
4221 Clear 1 1021 58 10000 4.92 270 04:40 17.12.2021
4222 Clear 4 1017 57 10000 3.13 274 23:58 16.12.2021
4223 Clear 5 1015 57 10000 3.58 288 22:24 16.12.2021
4224 Clear 5 1015 57 10000 3.58 288 22:24 16.12.2021
4225 Clear 5 1015 57 10000 3.58 288 22:23 16.12.2021
4226 Clear 5 1015 57 10000 3.58 288 22:23 16.12.2021
4227 Clear 5 1014 58 10000 4.02 296 21:45 16.12.2021
4228 Clear 5 1013 59 10000 4.02 271 20:57 16.12.2021
4229 Clouds 4 1013 60 10000 5.81 271 20:27 16.12.2021
4230 Clouds 4 1013 60 10000 5.81 271 20:27 16.12.2021
4231 Clouds 4 1012 62 10000 7.6 283 19:35 16.12.2021
4232 Clear 4 1012 64 10000 4.02 271 18:37 16.12.2021
4233 Clear 4 1012 68 10000 5.81 277 17:49 16.12.2021
4234 Clear 4 1011 68 10000 8.94 280 16:55 16.12.2021
4235 Clouds 4 1010 68 10000 11.32 260 16:20 16.12.2021
4236 Clouds 5 1007 69 10000 5.81 279 14:32 16.12.2021
4237 Clouds 9 1005 67 10000 5.81 284 12:34 16.12.2021
4238 Clouds 15 1003 50 10000 4.47 246 11:19 16.12.2021
4239 Clouds 15 1003 50 10000 4.47 246 11:19 16.12.2021
4240 Clouds 17 1003 61 10000 4.47 255 10:45 16.12.2021
4241 Clouds 18 1003 69 10000 3.58 247 09:51 16.12.2021
4242 Clouds 18 1004 79 10000 3.13 219 07:19 16.12.2021
4243 Clouds 17 1005 79 10000 5.81 213 06:19 16.12.2021
4244 Clouds 17 1010 84 10000 4.02 233 00:44 16.12.2021
4245 Clouds 18 1010 84 10000 4.92 244 23:21 15.12.2021
4246 Clouds 17 1010 84 10000 4.92 210 22:22 15.12.2021
4247 Clouds 17 1010 84 10000 4.47 217 21:46 15.12.2021
4248 Clouds 17 1010 84 10000 3.58 207 21:26 15.12.2021
4249 Clouds 17 1012 84 10000 6.26 214 19:55 15.12.2021
4250 Clouds 17 1012 84 10000 3.58 202 19:19 15.12.2021
4251 Clouds 16 1014 83 10000 3.58 217 18:26 15.12.2021
4252 Clouds 15 1015 85 10000 4.02 210 17:47 15.12.2021
4253 Clouds 15 1015 85 10000 2.68 228 17:21 15.12.2021
4254 Clouds 14 1014 85 10000 4.47 226 15:59 15.12.2021
4255 Clouds 13 1015 85 10000 3.58 212 15:41 15.12.2021
4256 Clouds 13 1015 86 10000 2.68 211 15:23 15.12.2021
4257 Clouds 12 1016 87 10000 2.68 230 13:58 15.12.2021
4258 Clouds 12 1016 87 10000 5.85 184 11:52 15.12.2021
4259 Clouds 11 1018 85 10000 5.66 190 10:22 15.12.2021
4260 Clouds 10 1021 88 10000 6.12 182 08:34 15.12.2021
4261 Rain 9 1022 85 10000 4.47 217 05:59 15.12.2021
4262 Clouds 10 1025 63 10000 3.58 195 00:45 15.12.2021
4263 Clouds 10 1026 61 10000 2.68 171 23:32 14.12.2021
4264 Clouds 11 1026 60 10000 2.24 176 22:45 14.12.2021
4265 Clouds 11 1026 59 10000 0.89 189 21:47 14.12.2021
4266 Clouds 11 1026 55 10000 1.34 194 20:23 14.12.2021
4267 Clouds 10 1027 57 10000 1.34 191 19:39 14.12.2021
4268 Clouds 9 1028 61 10000 1.79 147 18:42 14.12.2021
4269 Clouds 8 1030 64 10000 1.34 181 17:57 14.12.2021
4270 Clouds 7 1029 67 10000 2.24 175 16:49 14.12.2021
4271 Clouds 6 1029 70 10000 1.79 158 16:30 14.12.2021
4272 Clouds 2 1027 81 10000 4.63 120 14:39 14.12.2021
4273 Clouds 2 1028 86 10000 3.6 120 13:22 14.12.2021
4274 Clouds 2 1028 91 10000 3.36 140 11:56 14.12.2021
4275 Clouds 1 1028 87 10000 0 0 11:22 14.12.2021
4276 Clouds 2 1030 85 10000 0.89 157 09:55 14.12.2021
4277 Clouds 2 1029 83 10000 2.06 120 09:22 14.12.2021
4278 Clear 3 1028 82 10000 1.54 120 08:23 14.12.2021
4279 Clear 3 1028 81 10000 1.54 120 07:42 14.12.2021
4280 Clouds 6 1027 64 10000 0.45 292 00:35 14.12.2021
4281 Clouds 9 1024 53 10000 0.45 225 22:33 13.12.2021
4282 Clouds 9 1024 50 10000 0.45 231 21:49 13.12.2021
4283 Clouds 10 1024 48 10000 1.34 244 20:58 13.12.2021
4284 Clouds 9 1023 50 10000 2.68 259 20:29 13.12.2021
4285 Clouds 9 1023 49 10000 1.34 255 19:51 13.12.2021
4286 Clouds 7 1024 54 10000 1.34 228 17:55 13.12.2021
4287 Clouds 6 1023 58 10000 3.13 260 17:19 13.12.2021
4288 Clouds 3 1023 67 10000 1.79 253 15:49 13.12.2021
4289 Clouds 2 1021 72 10000 5.41 227 14:55 13.12.2021
4290 Clouds 2 1020 72 10000 1.34 220 13:37 13.12.2021
4291 Clear 2 1020 71 10000 3.13 236 12:41 13.12.2021
4292 Clear 2 1020 71 10000 1.79 232 11:54 13.12.2021
4293 Clear 3 1020 70 10000 1.79 235 11:34 13.12.2021
4294 Clouds 3 1021 67 10000 3.13 225 10:41 13.12.2021
4295 Clouds 3 1021 64 10000 2.68 229 08:45 13.12.2021
4296 Clouds 4 1022 61 10000 1.34 239 06:56 13.12.2021
4297 Clouds 5 1021 57 10000 3.13 228 05:19 13.12.2021
4298 Clouds 6 1020 57 10000 2.68 214 00:41 13.12.2021
4299 Clouds 9 1020 37 10000 1.79 227 21:59 12.12.2021
4300 Clouds 9 1020 36 10000 1.34 222 21:30 12.12.2021
4301 Clouds 8 1021 38 10000 2.68 226 19:38 12.12.2021
4302 Clouds 7 1021 43 10000 6.26 217 18:24 12.12.2021
4303 Clouds 3 1021 58 10000 1.34 248 16:47 12.12.2021
4304 Clouds 3 1021 59 10000 2.68 230 16:22 12.12.2021
4305 Clouds 1 1021 66 10000 3.13 245 15:28 12.12.2021
4306 Clouds 0 1020 67 10000 1.79 262 14:54 12.12.2021
4307 Clouds 0 1019 68 10000 1.34 225 14:22 12.12.2021
4308 Clouds 0 1019 66 10000 3.6 220 12:51 12.12.2021
4309 Clouds 0 1019 66 10000 1.79 236 12:24 12.12.2021
4310 Clouds 0 1018 66 10000 2.68 253 11:43 12.12.2021
4311 Clouds 1 1020 66 10000 1.79 242 10:45 12.12.2021
4312 Clouds 0 1020 66 10000 2.24 257 10:21 12.12.2021
4313 Clear 0 1019 69 10000 2.68 253 08:50 12.12.2021
4314 Clear 0 1019 75 10000 1.34 235 07:30 12.12.2021
4315 Clear 0 1020 72 10000 0.45 252 05:56 12.12.2021
4316 Clear 1 1019 70 10000 3.13 279 04:55 12.12.2021
4317 Clear 2 1017 67 10000 2.68 270 02:52 12.12.2021
4318 Clouds 4 1013 51 10000 3.13 290 23:28 11.12.2021
4319 Clouds 4 1012 51 10000 4.47 304 22:21 11.12.2021
4320 Clouds 4 1010 54 10000 4.02 337 21:50 11.12.2021
4321 Clouds 4 1008 61 10000 4.02 326 20:21 11.12.2021
4322 Clouds 3 1006 67 10000 4.47 326 19:21 11.12.2021
4323 Clouds 3 1004 71 10000 7.15 337 18:50 11.12.2021
4324 Clouds 2 1004 75 10000 6.71 312 17:56 11.12.2021
4325 Clouds 2 1000 82 10000 5.81 302 16:40 11.12.2021
4326 Clouds 2 996 81 10000 5.81 279 15:46 11.12.2021
4327 Clouds 2 995 79 10000 4.92 281 14:54 11.12.2021
4328 Clouds 6 990 77 10000 8.49 292 12:42 11.12.2021
4329 Clouds 14 988 85 10000 8.75 220 11:24 11.12.2021
4330 Clouds 13 990 87 10000 5.66 210 09:45 11.12.2021
4331 Clouds 13 990 87 10000 5.66 210 09:45 11.12.2021
4332 Clouds 14 993 86 10000 5.66 220 07:30 11.12.2021
4333 Rain 7 1003 93 10000 2.06 0 00:50 11.12.2021
4334 Rain 6 1004 92 4828 1.34 135 23:45 10.12.2021
4335 Rain 6 1006 92 4023 4.12 90 23:18 10.12.2021
4336 Clouds 6 1007 81 10000 1.79 99 21:52 10.12.2021
4337 Clouds 7 1010 78 10000 3.13 98 20:56 10.12.2021
4338 Clouds 7 1011 76 10000 1.34 155 19:20 10.12.2021
4339 Clouds 7 1014 76 10000 1.79 90 17:54 10.12.2021
4340 Clouds 7 1015 75 10000 2.24 81 16:55 10.12.2021
4341 Clouds 4 1013 80 10000 2.24 139 15:47 10.12.2021
4342 Clouds 4 1013 81 10000 0 0 15:29 10.12.2021
4343 Clouds 3 1017 83 10000 3.76 62 14:59 10.12.2021
4344 Clouds 2 1013 81 10000 0.89 48 13:51 10.12.2021
4345 Clouds 2 1013 80 10000 0 0 13:25 10.12.2021
4346 Clouds 3 1013 79 10000 0.45 67 12:23 10.12.2021
4347 Clouds 3 1012 78 10000 0.89 45 11:28 10.12.2021
4348 Clouds 3 1012 76 10000 1.79 29 09:54 10.12.2021
4349 Clouds 3 1011 79 10000 1.34 360 08:32 10.12.2021
4350 Clouds 4 1011 79 10000 2.84 278 05:57 10.12.2021
4351 Clouds 5 1009 88 10000 3.25 242 02:48 10.12.2021
4352 Clouds 7 1007 60 10000 2.57 210 23:46 09.12.2021
4353 Clouds 7 1007 62 10000 2.57 210 23:20 09.12.2021
4354 Clouds 7 1006 60 10000 0.45 225 22:24 09.12.2021
4355 Clouds 7 1005 59 10000 2.24 226 21:49 09.12.2021
4356 Clouds 6 1005 55 10000 1.79 217 20:41 09.12.2021
4357 Clouds 6 1005 55 10000 1.79 224 20:20 09.12.2021
4358 Clouds 5 1006 54 10000 2.24 205 19:21 09.12.2021
4359 Clouds 5 1007 53 10000 5.36 180 18:36 09.12.2021
4360 Clouds 4 1008 54 10000 2.24 202 17:51 09.12.2021
4361 Clouds 4 1008 58 10000 0.89 207 17:25 09.12.2021
4362 Clouds 3 1010 62 10000 4.02 165 16:53 09.12.2021
4363 Clouds 1 1012 67 10000 2.68 168 15:32 09.12.2021
4364 Clouds 0 1011 67 10000 1.79 198 14:46 09.12.2021
4365 Clouds -1 1012 69 10000 1.34 164 13:19 09.12.2021
4366 Clouds -1 1013 71 10000 2.68 166 12:35 09.12.2021
4367 Clouds -2 1016 74 10000 2.68 201 10:58 09.12.2021
4368 Clouds -3 1018 75 10000 2.24 191 08:49 09.12.2021
4369 Clouds -3 1020 76 10000 2.57 160 06:21 09.12.2021
4370 Clouds -2 1019 67 10000 0.88 95 02:58 09.12.2021
4371 Clouds -1 1020 62 10000 2.44 335 23:43 08.12.2021
4372 Clouds 0 1018 59 10000 0.89 303 23:21 08.12.2021
4373 Clouds 0 1019 60 10000 1.79 337 22:46 08.12.2021
4374 Clouds 1 1017 55 10000 1.79 360 21:40 08.12.2021
4375 Clouds 1 1018 57 10000 4 321 20:59 08.12.2021
4376 Clouds 1 1018 58 10000 1.34 316 19:58 08.12.2021
4377 Clouds 1 1018 59 10000 1.34 339 19:58 08.12.2021
4378 Clouds 0 1016 60 10000 2.68 312 19:33 08.12.2021
4379 Clouds 0 1016 63 10000 1.79 11 18:40 08.12.2021
4380 Clouds -1 1016 67 10000 1.34 352 17:34 08.12.2021
4381 Clouds -3 1015 77 10000 1.34 275 15:47 08.12.2021
4382 Clouds -3 1015 78 10000 1.34 275 15:26 08.12.2021
4383 Clouds -3 1012 76 10000 0.89 244 14:28 08.12.2021
4384 Clouds -4 1013 65 10000 1.34 213 10:55 08.12.2021
4385 Clouds -4 1016 62 10000 1.34 245 10:28 08.12.2021
4386 Clouds -5 1017 55 10000 1.34 233 08:54 08.12.2021
4387 Clouds -4 1017 44 10000 0.45 220 07:21 08.12.2021
4388 Clouds -5 1021 46 10000 2.68 211 02:30 08.12.2021
4389 Clouds -6 1023 43 10000 2.24 230 23:33 07.12.2021
4390 Clouds -5 1023 36 10000 2.24 222 21:40 07.12.2021
4391 Clouds -5 1023 36 10000 0.89 217 21:18 07.12.2021
4392 Clouds -6 1024 36 10000 1.34 264 20:19 07.12.2021
4393 Clouds -7 1026 42 10000 2.06 220 18:42 07.12.2021
4394 Clouds -8 1026 47 10000 2.57 230 17:29 07.12.2021
4395 Clouds -8 1028 50 9959 0.89 311 16:58 07.12.2021
4396 Clouds -9 1027 54 10000 0.89 245 16:28 07.12.2021
4397 Clouds -10 1026 57 10000 0.89 277 15:23 07.12.2021
4398 Clouds -11 1023 59 10000 1.95 280 13:53 07.12.2021
4399 Clouds -11 1024 58 10000 2.57 290 12:49 07.12.2021
4400 Clouds -11 1025 59 10000 2.57 310 11:25 07.12.2021
4401 Clouds -11 1025 56 10000 2.68 337 10:33 07.12.2021
4402 Clear -10 1027 52 10000 4.02 325 07:57 07.12.2021
4403 Clear -9 1027 49 10000 1.79 306 05:59 07.12.2021
4404 Clouds -9 1025 47 10000 3.58 327 05:33 07.12.2021
4405 Clouds -3 1022 44 10000 5.81 309 23:45 06.12.2021
4406 Clear -3 1020 52 10000 3.13 297 22:44 06.12.2021
4407 Clouds -2 1019 55 10000 1.79 298 22:22 06.12.2021
4408 Clear -2 1019 55 10000 4.47 280 21:46 06.12.2021
4409 Clouds 1 1016 52 10000 2.68 269 20:33 06.12.2021
4410 Clouds 1 1016 51 10000 4.02 326 19:27 06.12.2021
4411 Clouds 1 1016 55 10000 6.26 324 18:59 06.12.2021
4412 Clouds 0 1015 60 10000 3.58 311 17:56 06.12.2021
4413 Clouds -1 1015 60 10000 4.02 306 17:37 06.12.2021
4414 Clouds 0 1014 65 10000 2.24 360 16:22 06.12.2021
4415 Clouds 0 1013 62 10000 3.58 302 15:38 06.12.2021
4416 Clouds 0 1009 65 10000 4.47 320 13:46 06.12.2021
4417 Clouds 0 1009 65 10000 4.92 294 13:46 06.12.2021
4418 Clouds 0 1008 64 10000 3.13 321 12:39 06.12.2021
4419 Clouds 1 1007 68 10000 4.92 318 10:38 06.12.2021
4420 Clouds 2 1005 83 10000 3.13 307 08:45 06.12.2021
4421 Clouds 4 1005 91 10000 4.02 322 04:56 06.12.2021
4422 Rain 3 1004 92 8047 1.79 210 22:52 05.12.2021
4423 Drizzle 2 1004 89 3219 0.89 189 21:43 05.12.2021
4424 Drizzle 2 1005 90 3219 3.13 180 21:19 05.12.2021
4425 Rain 1 1007 88 4828 1.79 194 20:19 05.12.2021
4426 Rain 1 1009 82 4023 2.68 202 19:33 05.12.2021
4427 Rain 1 1011 78 10000 3.13 173 18:43 05.12.2021
4428 Snow 1 1011 77 10000 2.68 202 18:19 05.12.2021
4429 Rain 2 1013 68 10000 1.79 210 17:48 05.12.2021
4430 Rain 2 1014 59 10000 1.34 164 16:45 05.12.2021
4431 Rain 2 1015 54 10000 2.24 180 16:26 05.12.2021
4432 Clouds 4 1018 42 10000 10.29 120 14:49 05.12.2021
4433 Clouds 4 1018 42 10000 10.29 120 14:31 05.12.2021
4434 Clouds 3 1019 49 10000 5.66 110 13:50 05.12.2021
4435 Clouds 3 1019 53 10000 5.66 110 13:22 05.12.2021
4436 Clouds 3 1021 52 10000 5.14 130 12:40 05.12.2021
4437 Clouds 3 1021 52 10000 5.14 130 12:18 05.12.2021
4438 Clouds 4 1022 54 10000 4.63 130 11:20 05.12.2021
4439 Clouds 3 1026 52 10000 4.63 102 09:59 05.12.2021
4440 Clouds 3 1027 44 10000 3.43 85 07:55 05.12.2021
4441 Clouds 3 1028 30 10000 2.57 300 02:28 05.12.2021
4442 Clouds 4 1028 25 10000 3.09 330 23:34 04.12.2021
4443 Clouds 5 1028 25 10000 2.68 360 21:54 04.12.2021
4444 Clouds 5 1028 25 10000 2.24 354 20:55 04.12.2021
4445 Clouds 6 1028 29 10000 2.68 349 19:55 04.12.2021
4446 Clouds 5 1027 30 10000 1.79 348 19:31 04.12.2021
4447 Clouds 4 1028 43 10000 3.13 45 17:59 04.12.2021
4448 Clouds 4 1027 47 10000 2.68 353 17:38 04.12.2021
4449 Clouds 3 1027 58 10000 2.24 2 16:48 04.12.2021
4450 Clouds 2 1027 68 10000 1.34 340 16:30 04.12.2021
4451 Clouds 0 1025 87 10000 1.79 284 15:22 04.12.2021
4452 Mist 0 1023 92 4023 0.45 292 11:50 04.12.2021
4453 Mist 1 1022 91 4023 0.89 330 11:32 04.12.2021
4454 Mist 1 1022 91 4023 0.89 330 11:32 04.12.2021
4455 Clouds 1 1022 93 10000 1.34 337 10:44 04.12.2021
4456 Clear 2 1023 89 10000 1.79 343 08:47 04.12.2021
4457 Clouds 3 1022 87 10000 1.34 8 06:26 04.12.2021
4458 Clouds 5 1022 83 10000 2.68 20 04:42 04.12.2021
4459 Clouds 7 1018 78 10000 1.34 40 00:18 04.12.2021
4460 Clouds 8 1018 75 10000 1.79 70 23:20 03.12.2021
4461 Clouds 8 1017 72 10000 1.79 54 22:41 03.12.2021
4462 Clouds 9 1017 66 10000 4.02 78 21:25 03.12.2021
4463 Clouds 10 1016 62 10000 4.63 70 20:48 03.12.2021
4464 Clouds 9 1017 65 10000 1.79 87 19:50 03.12.2021
4465 Clouds 9 1018 64 10000 0.89 120 18:34 03.12.2021
4466 Clouds 8 1019 65 10000 0.89 167 17:59 03.12.2021
4467 Clouds 6 1019 76 10000 2.24 101 15:36 03.12.2021
4468 Clouds 6 1017 71 10000 1.34 171 12:54 03.12.2021
4469 Rain 6 1017 68 10000 0.45 202 11:39 03.12.2021
4470 Clouds 6 1018 66 10000 2.06 180 10:51 03.12.2021
4471 Clouds 7 1018 63 10000 2.06 140 08:25 03.12.2021
4472 Clouds 7 1018 60 10000 0.45 103 07:42 03.12.2021
4473 Clouds 7 1018 49 10000 1.54 340 04:26 03.12.2021
4474 Clouds 9 1016 37 10000 1.34 22 00:48 03.12.2021
4475 Clouds 10 1016 35 10000 2.68 341 23:47 02.12.2021
4476 Clouds 13 1014 32 10000 2.68 336 21:57 02.12.2021
4477 Clouds 13 1012 32 10000 4.02 354 21:30 02.12.2021
4478 Clouds 14 1012 32 10000 6.71 353 20:40 02.12.2021
4479 Clouds 14 1012 35 10000 4.92 349 19:57 02.12.2021
4480 Clouds 14 1010 42 10000 4.47 324 18:34 02.12.2021
4481 Clouds 10 1009 68 10000 0.89 292 15:52 02.12.2021
4482 Clouds 10 1009 69 10000 2.24 280 15:28 02.12.2021
4483 Clouds 10 1007 76 10000 1.34 252 14:48 02.12.2021
4484 Rain 10 1005 65 10000 1.34 291 12:53 02.12.2021
4485 Clouds 10 1005 64 10000 4.02 284 12:19 02.12.2021
4486 Clouds 10 1005 64 10000 4.02 280 10:38 02.12.2021
4487 Clouds 9 1006 67 10000 4.92 270 08:59 02.12.2021
4488 Clouds 9 1007 77 10000 1.79 241 06:45 02.12.2021
4489 Clouds 8 1012 87 10000 1.34 210 00:55 02.12.2021
4490 Clouds 8 1010 82 10000 0.89 208 23:30 01.12.2021
4491 Clouds 8 1010 80 10000 1.34 259 22:25 01.12.2021
4492 Clouds 8 1011 79 10000 1.34 228 21:36 01.12.2021
4493 Clouds 7 1013 82 10000 0.89 270 19:58 01.12.2021
4494 Clouds 7 1013 81 10000 2.24 253 19:36 01.12.2021
4495 Clouds 7 1014 78 10000 2.24 235 17:50 01.12.2021
4496 Clouds 6 1016 76 10000 3.58 221 16:58 01.12.2021
4497 Clouds 4 1015 69 10000 1.79 207 15:20 01.12.2021
4498 Clouds 4 1016 71 10000 0.45 202 14:24 01.12.2021
4499 Clouds 4 1016 70 10000 1.34 217 13:36 01.12.2021
4500 Clouds 3 1020 67 10000 0 0 10:43 01.12.2021
4501 Clouds 3 1021 66 10000 1.62 151 09:56 01.12.2021
4502 Clouds 2 1018 63 10000 0 0 08:50 01.12.2021
4503 Clouds 2 1021 64 10000 1.08 124 07:54 01.12.2021
4504 Clouds 2 1019 60 10000 0 0 07:19 01.12.2021
4505 Clouds 3 1021 53 10000 0.45 22 03:50 01.12.2021
4506 Clouds 4 1021 49 10000 1.79 22 02:34 01.12.2021
4507 Clouds 9 1020 41 10000 0.89 315 23:59 30.11.2021
4508 Clouds 10 1019 39 10000 0.89 333 23:28 30.11.2021
4509 Clouds 11 1018 38 10000 2.24 348 22:28 30.11.2021
4510 Clouds 11 1018 43 10000 4.02 311 20:46 30.11.2021
4511 Clouds 11 1018 45 10000 3.58 326 20:24 30.11.2021
4512 Clouds 10 1018 50 10000 1.79 301 19:39 30.11.2021
4513 Clouds 9 1018 52 10000 1.79 304 18:52 30.11.2021
4514 Clouds 6 1018 56 10000 0.89 315 17:23 30.11.2021
4515 Clouds 3 1018 63 10000 0.89 317 15:54 30.11.2021
4516 Clouds 1 1015 67 10000 0.45 360 14:33 30.11.2021
4517 Clouds 1 1015 65 10000 0.89 337 13:41 30.11.2021
4518 Clouds 2 1014 65 10000 1.79 325 12:54 30.11.2021
4519 Clouds 2 1013 63 10000 1.79 345 11:55 30.11.2021
4520 Clouds 3 1012 63 10000 1.79 338 11:25 30.11.2021
4521 Clouds 3 1012 63 10000 2.24 351 10:36 30.11.2021
4522 Clouds 4 1012 68 10000 1.34 334 08:56 30.11.2021
4523 Clear 3 1011 68 10000 1.79 327 08:32 30.11.2021
4524 Clouds 3 1010 69 10000 1.34 304 07:50 30.11.2021
4525 Clouds 3 1010 67 10000 0.45 247 06:37 30.11.2021
4526 Clouds 4 1012 55 10000 2.24 203 01:49 30.11.2021
4527 Clouds 4 1012 55 10000 3.58 213 01:27 30.11.2021
4528 Clouds 4 1011 47 10000 3.13 207 23:36 29.11.2021
4529 Clouds 4 1011 46 10000 3.58 213 23:18 29.11.2021
4530 Clouds 4 1011 46 10000 3.58 213 23:18 29.11.2021
4531 Clouds 4 1012 45 10000 3.13 200 22:38 29.11.2021
4532 Clouds 4 1013 45 10000 1.79 201 21:54 29.11.2021
4533 Rain 4 1014 44 10000 1.34 200 21:20 29.11.2021
4534 Clouds 4 1015 42 10000 3.13 226 20:46 29.11.2021
4535 Clouds 4 1016 40 8431 2.24 249 19:58 29.11.2021
4536 Clouds 4 1017 39 10000 2.24 228 19:40 29.11.2021
4537 Clouds 4 1018 39 10000 1.79 213 18:59 29.11.2021
4538 Clouds 3 1016 35 9231 4.9 196 18:40 29.11.2021
4539 Clouds 2 1019 36 10000 4.68 210 17:21 29.11.2021
4540 Clouds 2 1019 36 10000 4.68 210 16:45 29.11.2021
4541 Clouds 2 1020 37 10000 4.43 210 16:24 29.11.2021
4542 Clouds 1 1020 38 10000 3.77 211 14:46 29.11.2021
4543 Clouds 1 1020 39 10000 3.18 218 13:52 29.11.2021
4544 Clouds 0 1020 39 10000 2.76 231 12:58 29.11.2021
4545 Clouds 0 1020 40 10000 2.74 238 12:19 29.11.2021
4546 Clouds 0 1020 39 10000 2.37 242 11:22 29.11.2021
4547 Clouds -4 1021 39 10000 2.47 260 09:58 29.11.2021
4548 Clouds -3 1020 50 10000 2.57 250 07:26 29.11.2021
4549 Clear -2 1020 43 10000 1.54 260 05:51 29.11.2021
4550 Clear 1 1019 32 10000 3.6 310 01:22 29.11.2021
4551 Clouds 3 1018 28 10000 5.66 290 23:47 28.11.2021
4552 Clouds 4 1018 28 10000 5.66 290 23:29 28.11.2021
4553 Clear 4 1018 36 10000 6.61 309 21:57 28.11.2021
4554 Clouds 4 1017 33 10000 7.72 300 21:38 28.11.2021
4555 Clouds 4 1017 38 10000 9.26 320 20:36 28.11.2021
4556 Clouds 3 1017 41 10000 8.23 300 19:37 28.11.2021
4557 Clouds 2 1017 51 10000 6.69 320 18:40 28.11.2021
4558 Clear 1 1018 45 10000 7.72 310 17:58 28.11.2021
4559 Clouds 1 1017 55 10000 7.2 310 17:34 28.11.2021
4560 Clouds 1 1017 60 10000 6.69 310 16:45 28.11.2021
4561 Clouds 1 1017 60 10000 6.69 310 16:27 28.11.2021
4562 Clouds 0 1016 69 10000 4.12 300 15:45 28.11.2021
4563 Clouds -1 1016 69 10000 4.12 290 14:51 28.11.2021
4564 Clear -2 1017 71 10000 7.32 307 13:53 28.11.2021
4565 Clear -3 1016 67 10000 7.03 303 12:54 28.11.2021
4566 Clear -1 1015 64 10000 3.6 280 11:29 28.11.2021
4567 Clear -1 1015 64 10000 4.12 280 10:23 28.11.2021
4568 Clear -1 1015 64 10000 3.6 300 09:40 28.11.2021
4569 Clear -1 1014 64 10000 3.6 300 08:28 28.11.2021
4570 Clouds 4 1009 70 10000 2.06 280 00:49 28.11.2021
4571 Clouds 5 1007 65 10000 6.69 200 21:49 27.11.2021
4572 Clouds 3 1008 65 10000 6.17 190 19:50 27.11.2021
4573 Clouds 2 1010 64 10000 5.66 190 18:26 27.11.2021
4574 Clouds 1 1012 55 10000 3.6 180 16:00 27.11.2021
4575 Clouds 0 1013 59 10000 4.12 190 14:35 27.11.2021
4576 Clouds 0 1013 55 10000 3.09 190 13:38 27.11.2021
4577 Clouds 0 1014 55 10000 3.09 170 11:28 27.11.2021
4578 Clouds -1 1015 55 10000 4.12 180 10:19 27.11.2021
4579 Clouds -1 1016 55 10000 2.57 150 08:53 27.11.2021
4580 Clouds -1 1018 33 10000 3.94 190 06:58 27.11.2021
4581 Clouds -2 1019 31 10000 3.44 192 03:57 27.11.2021
4582 Clouds -2 1020 40 10000 2.57 200 00:23 27.11.2021
4583 Clouds -1 1020 34 10000 0 0 22:50 26.11.2021
4584 Clouds -1 1020 34 10000 0 0 22:23 26.11.2021
4585 Clouds -1 1021 34 10000 0 0 21:23 26.11.2021
4586 Clouds -2 1022 37 10000 3.09 280 20:41 26.11.2021
4587 Clouds -2 1022 19 10000 2.48 264 19:55 26.11.2021
4588 Clouds -3 1024 43 10000 1.54 280 18:47 26.11.2021
4589 Clouds -4 1024 46 10000 2.57 260 17:40 26.11.2021
4590 Clouds -4 1024 46 10000 2.57 260 17:20 26.11.2021
4591 Clouds -7 1025 58 10000 4.12 290 15:21 26.11.2021
4592 Clouds -8 1024 65 10000 2.57 300 13:35 26.11.2021
4593 Clear -7 1023 66 10000 2.24 325 10:45 26.11.2021
4594 Clear -7 1023 64 10000 2.24 333 09:54 26.11.2021
4595 Clear -6 1023 61 10000 6.26 345 08:53 26.11.2021
4596 Clear -6 1023 58 10000 4.02 17 08:20 26.11.2021
4597 Clouds -5 1024 59 10000 5.36 339 06:41 26.11.2021
4598 Clouds -4 1024 59 10000 4.92 348 06:22 26.11.2021
4599 Clouds -2 1024 61 10000 4.02 339 03:44 26.11.2021
4600 Clouds -1 1023 81 10000 5.36 337 00:47 26.11.2021
4601 Clouds 1 1023 79 10000 7.53 315 22:36 25.11.2021
4602 Clouds 2 1020 76 10000 4.92 322 21:19 25.11.2021
4603 Clouds 4 1019 76 10000 4.92 330 19:54 25.11.2021
4604 Clouds 4 1020 78 10000 2.24 326 18:38 25.11.2021
4605 Clouds 5 1020 75 10000 3.13 337 17:28 25.11.2021
4606 Clouds 6 1019 75 10000 4.02 337 16:56 25.11.2021
4607 Clouds 6 1018 74 10000 3.13 360 16:28 25.11.2021
4608 Clouds 6 1017 81 10000 5.36 34 14:52 25.11.2021
4609 Clouds 7 1016 86 10000 5.36 24 13:21 25.11.2021
4610 Clouds 7 1015 92 10000 3.6 270 12:19 25.11.2021
4611 Clouds 8 1015 92 10000 0.45 292 11:40 25.11.2021
4612 Clouds 9 1015 92 10000 1.34 251 08:42 25.11.2021
4613 Clouds 10 1016 73 10000 1.79 202 03:42 25.11.2021
4614 Clouds 10 1016 68 10000 2.24 234 02:45 25.11.2021
4615 Clouds 11 1014 56 10000 3.58 217 22:44 24.11.2021
4616 Clouds 11 1014 55 10000 2.68 222 22:21 24.11.2021
4617 Clouds 11 1013 53 10000 4.02 229 21:27 24.11.2021
4618 Clouds 10 1013 52 10000 2.24 223 20:42 24.11.2021
4619 Clouds 10 1013 53 10000 2.68 232 20:18 24.11.2021
4620 Clouds 8 1015 53 10000 4.02 216 18:30 24.11.2021
4621 Clouds 7 1016 54 10000 1.79 230 17:24 24.11.2021
4622 Clouds 5 1017 59 10000 3.58 217 15:23 24.11.2021
4623 Clouds 4 1015 58 10000 4.02 222 14:47 24.11.2021
4624 Clouds 4 1015 60 10000 3.58 218 14:19 24.11.2021
4625 Clouds 4 1015 60 10000 3.58 218 14:19 24.11.2021
4626 Clouds 3 1015 58 10000 4.47 221 11:51 24.11.2021
4627 Clouds 3 1016 58 10000 4.47 215 11:20 24.11.2021
4628 Clouds 3 1017 58 10000 4.02 217 10:47 24.11.2021
4629 Clouds 2 1017 59 10000 4.92 225 10:21 24.11.2021
4630 Clouds 3 1018 57 10000 2.24 223 07:46 24.11.2021
4631 Clouds 2 1019 57 10000 2.68 216 06:54 24.11.2021
4632 Clouds 3 1019 48 10000 3.13 217 03:50 24.11.2021
4633 Clouds 4 1020 43 10000 3.13 207 00:32 24.11.2021
4634 Clouds 6 1021 32 10000 1.79 212 22:39 23.11.2021
4635 Clear 6 1022 30 10000 4.02 215 21:54 23.11.2021
4636 Clouds 6 1022 30 10000 2.68 204 21:36 23.11.2021
4637 Clouds 5 1023 26 10000 1.34 230 19:37 23.11.2021
4638 Smoke 4 1024 31 10000 2.24 228 18:41 23.11.2021
4639 Smoke 4 1024 33 10000 2.68 220 18:18 23.11.2021
4640 Clouds 1 1026 42 10000 2.24 248 16:57 23.11.2021
4641 Clouds -1 1026 54 10000 3.32 216 15:59 23.11.2021
4642 Clouds -3 1025 62 10000 0.89 267 15:19 23.11.2021
4643 Clear -5 1025 64 10000 2.28 242 13:46 23.11.2021
4644 Clouds -5 1023 58 10000 0 0 11:42 23.11.2021
4645 Clear -4 1026 55 10000 0.45 292 09:59 23.11.2021
4646 Clear -4 1026 55 10000 3.57 301 08:46 23.11.2021
4647 Clouds -3 1024 49 10000 0.89 307 06:39 23.11.2021
4648 Clouds -2 1024 40 10000 0.89 311 03:45 23.11.2021
4649 Clear 0 1024 34 10000 1.34 318 00:54 23.11.2021
4650 Clouds 1 1023 30 10000 2.68 310 23:20 22.11.2021
4651 Clouds 2 1023 30 10000 3.58 312 22:33 22.11.2021
4652 Clouds 2 1023 29 10000 3.13 301 21:48 22.11.2021
4653 Clouds 2 1023 29 10000 2.68 334 21:29 22.11.2021
4654 Clouds 2 1023 29 10000 2.24 292 20:50 22.11.2021
4655 Clouds 2 1024 33 10000 2.24 282 19:47 22.11.2021
4656 Clouds 1 1024 35 10000 2.68 288 19:18 22.11.2021
4657 Clouds 1 1025 38 10000 2.24 272 18:37 22.11.2021
4658 Clouds -1 1025 46 10000 2.24 301 17:18 22.11.2021
4659 Clouds -4 1025 56 10000 1.79 323 15:43 22.11.2021
4660 Clear -5 1022 62 10000 1.34 303 13:57 22.11.2021
4661 Clouds -4 1021 56 10000 2.68 349 11:41 22.11.2021
4662 Clouds -3 1022 53 10000 2.24 337 10:38 22.11.2021
4663 Clouds -3 1022 50 10000 1.79 339 09:24 22.11.2021
4664 Clear -2 1022 46 10000 3.13 328 08:36 22.11.2021
4665 Clouds 1 1020 39 10000 4.47 324 04:32 22.11.2021
4666 Clouds 11 1014 45 10000 3.13 304 23:24 21.11.2021
4667 Clear 12 1015 47 10000 4.92 321 22:48 21.11.2021
4668 Clouds 13 1014 47 10000 4.02 338 21:48 21.11.2021
4669 Clouds 12 1015 50 10000 8.75 260 20:41 21.11.2021
4670 Clear 11 1016 51 10000 4.47 255 19:46 21.11.2021
4671 Clouds 8 1018 75 10000 2.24 260 17:59 21.11.2021
4672 Clouds 7 1018 78 10000 2.24 260 17:37 21.11.2021
4673 Rain 4 1018 81 10000 1.34 203 15:25 21.11.2021
4674 Clouds 4 1018 79 10000 1.54 250 14:44 21.11.2021
4675 Clouds 4 1018 80 10000 2.06 180 13:40 21.11.2021
4676 Clouds 3 1018 80 10000 0 0 12:32 21.11.2021
4677 Clouds 3 1019 80 10000 0 0 11:42 21.11.2021
4678 Clouds 3 1021 79 10000 0.45 225 10:20 21.11.2021
4679 Clouds 4 1022 78 10000 0.89 225 09:59 21.11.2021
4680 Clouds 3 1021 74 10000 0 0 08:40 21.11.2021
4681 Clouds 3 1021 75 10000 0 0 08:20 21.11.2021
4682 Clouds 3 1022 74 10000 0.45 202 07:41 21.11.2021
4683 Clouds 4 1023 70 10000 2.57 210 05:48 21.11.2021
4684 Clouds 5 1022 67 10000 3.6 190 04:37 21.11.2021
4685 Clouds 6 1023 63 10000 2.06 170 03:18 21.11.2021
4686 Clouds 6 1024 63 10000 0.45 225 02:48 21.11.2021
4687 Clouds 7 1023 60 10000 2.56 219 00:54 21.11.2021
4688 Clouds 9 1022 53 10000 1.34 272 23:41 20.11.2021
4689 Clouds 10 1021 49 10000 2.24 254 21:39 20.11.2021
4690 Clouds 10 1020 51 10000 2.24 247 20:50 20.11.2021
4691 Clouds 7 1023 58 10000 5.14 210 18:46 20.11.2021
4692 Clouds 7 1023 58 10000 5.14 210 18:26 20.11.2021
4693 Clouds 5 1024 64 10000 6.69 210 17:22 20.11.2021
4694 Clouds 5 1024 64 10000 6.69 210 17:22 20.11.2021
4695 Clouds 4 1024 65 10000 5.66 200 16:42 20.11.2021
4696 Clouds 3 1022 66 10000 1.79 208 14:43 20.11.2021
4697 Clouds 3 1022 66 10000 2.68 223 14:23 20.11.2021
4698 Clouds 2 1022 64 10000 3.13 221 11:56 20.11.2021
4699 Clouds 2 1024 63 10000 2.68 212 10:35 20.11.2021
4700 Clouds 2 1025 63 10000 2.24 217 09:29 20.11.2021
4701 Clouds 2 1027 62 10000 3.58 226 07:22 20.11.2021
4702 Clouds 2 1027 62 10000 2.68 216 05:26 20.11.2021
4703 Clouds 2 1029 64 10000 2.68 229 04:50 20.11.2021
4704 Clouds 2 1030 60 10000 1.79 225 01:48 20.11.2021
4705 Clouds 2 1031 59 10000 0.89 202 00:40 20.11.2021
4706 Clouds 3 1031 50 10000 2.68 202 22:55 19.11.2021
4707 Clouds 4 1032 47 10000 0.89 225 21:58 19.11.2021
4708 Clouds 4 1033 47 10000 1.79 202 20:57 19.11.2021
4709 Clouds 4 1032 46 10000 2.68 208 20:36 19.11.2021
4710 Clouds 3 1033 48 10000 2.68 213 19:50 19.11.2021
4711 Clouds 3 1034 49 10000 1.79 259 18:53 19.11.2021
4712 Clouds 3 1034 49 10000 1.34 244 18:22 19.11.2021
4713 Clouds 2 1035 53 10000 2.24 244 17:26 19.11.2021
4714 Clouds -2 1035 67 10000 0.89 270 15:32 19.11.2021
4715 Clouds -3 1032 69 10000 0.89 282 13:25 19.11.2021
4716 Clear -2 1032 63 10000 0.45 292 10:27 19.11.2021
4717 Clear -2 1032 63 10000 0.45 292 10:27 19.11.2021
4718 Clouds -1 1032 60 10000 0.89 292 09:37 19.11.2021
4719 Clouds 0 1030 53 10000 3.13 333 07:41 19.11.2021
4720 Clouds 0 1029 59 10000 1.79 306 04:51 19.11.2021
4721 Snow 0 1027 60 10000 2.24 285 02:27 19.11.2021
4722 Snow 0 1026 56 10000 1.34 292 23:51 18.11.2021
4723 Snow 0 1023 57 10000 3.13 282 21:55 18.11.2021
4724 Snow 1 1024 56 10000 5.81 283 20:49 18.11.2021
4725 Clouds 1 1023 54 10000 4.02 297 20:30 18.11.2021
4726 Clouds 1 1023 51 10000 3.13 317 19:49 18.11.2021
4727 Clouds 1 1023 51 10000 2.68 290 19:29 18.11.2021
4728 Clouds 1 1023 53 10000 4.92 279 18:28 18.11.2021
4729 Clouds 1 1023 54 10000 3.13 292 17:51 18.11.2021
4730 Clouds 1 1022 56 10000 4.92 300 16:44 18.11.2021
4731 Clouds 0 1022 62 10000 3.13 281 15:32 18.11.2021
4732 Clouds 0 1019 66 10000 2.68 292 13:31 18.11.2021
4733 Clouds 1 1019 67 10000 2.24 284 12:33 18.11.2021
4734 Clear 1 1019 64 10000 0.45 267 11:42 18.11.2021
4735 Clear 1 1019 63 10000 1.34 292 11:24 18.11.2021
4736 Clouds 3 1018 56 10000 3.13 292 09:37 18.11.2021
4737 Clouds 4 1018 54 10000 3.58 292 07:35 18.11.2021
4738 Clouds 5 1018 58 10000 6.26 337 05:55 18.11.2021
4739 Clouds 6 1018 58 10000 3.13 314 05:36 18.11.2021
4740 Clouds 8 1015 70 10000 0.89 270 01:23 18.11.2021
4741 Mist 9 1013 89 6437 1.34 281 22:49 17.11.2021
4742 Rain 9 1012 87 3219 0.89 270 22:21 17.11.2021
4743 Rain 9 1012 89 10000 2.57 320 21:39 17.11.2021
4744 Mist 10 1012 89 6437 5.66 320 20:58 17.11.2021
4745 Clouds 13 1010 91 10000 5.22 298 18:34 17.11.2021
4746 Clouds 15 1010 85 10000 4.63 220 17:28 17.11.2021
4747 Clouds 16 1008 82 10000 2.68 218 14:51 17.11.2021
4748 Clouds 16 1008 84 10000 1.34 221 12:41 17.11.2021
4749 Clouds 15 1007 86 10000 1.79 238 11:49 17.11.2021
4750 Clouds 15 1008 87 10000 3.58 227 10:32 17.11.2021
4751 Clouds 15 1008 86 10000 1.79 228 09:25 17.11.2021
4752 Clouds 14 1009 86 10000 1.79 211 07:44 17.11.2021
4753 Clouds 11 1011 71 10000 5.66 160 04:47 17.11.2021
4754 Clouds 9 1012 72 10000 6.69 140 02:37 17.11.2021
4755 Clouds 9 1015 69 10000 0.89 225 23:26 16.11.2021
4756 Clouds 8 1015 71 10000 2.68 150 21:27 16.11.2021
4757 Clouds 8 1018 72 10000 4.63 110 20:18 16.11.2021
4758 Clouds 7 1020 70 10000 3.6 140 18:54 16.11.2021
4759 Clouds 7 1019 70 10000 1.34 157 18:35 16.11.2021
4760 Clouds 7 1019 70 10000 1.34 157 18:35 16.11.2021
4761 Clouds 6 1020 70 10000 4.12 150 17:43 16.11.2021
4762 Clouds 4 1020 77 10000 0.89 148 16:52 16.11.2021
4763 Clouds 3 1020 82 10000 0.89 182 16:18 16.11.2021
4764 Clouds 2 1020 84 10000 1.34 201 15:40 16.11.2021
4765 Clouds -1 1019 89 10000 2.06 150 12:34 16.11.2021
4766 Clouds -1 1020 90 10000 1.97 100 09:49 16.11.2021
4767 Clouds -1 1023 87 10000 1.63 121 08:50 16.11.2021
4768 Clouds 1 1020 80 10000 2.06 110 07:34 16.11.2021
4769 Clouds 1 1021 77 10000 0.45 202 04:45 16.11.2021
4770 Clouds 1 1020 78 10000 0.45 206 23:23 15.11.2021
4771 Clouds 1 1020 78 10000 1.34 225 22:39 15.11.2021
4772 Clouds 1 1020 79 10000 2.2 224 21:55 15.11.2021
4773 Snow 1 1020 78 10000 0.45 208 21:29 15.11.2021
4774 Snow 1 1020 75 10000 0.45 249 20:29 15.11.2021
4775 Snow 1 1020 64 10000 1.34 247 18:53 15.11.2021
4776 Clouds 1 1021 64 10000 1.79 281 16:56 15.11.2021
4777 Smoke 0 1021 68 10000 0.45 292 15:48 15.11.2021
4778 Smoke 0 1021 69 10000 1.79 301 15:29 15.11.2021
4779 Clouds -2 1018 71 10000 0.89 292 13:49 15.11.2021
4780 Clouds -2 1018 71 10000 0.89 337 12:18 15.11.2021
4781 Clouds 0 1018 65 10000 1.79 296 09:30 15.11.2021
4782 Clouds 0 1018 64 10000 2.24 318 08:37 15.11.2021
4783 Clouds 1 1017 67 10000 2.24 315 06:21 15.11.2021
4784 Clouds 2 1013 71 10000 5.36 333 00:33 15.11.2021
4785 Clouds 2 1010 72 10000 3.58 337 22:40 14.11.2021
4786 Clouds 2 1008 79 10000 4.92 360 21:18 14.11.2021
4787 Clouds 3 1006 82 10000 3.13 292 19:18 14.11.2021
4788 Clouds 2 1007 83 7899 2.68 337 18:54 14.11.2021
4789 Clouds 2 1007 81 10000 4.47 314 18:36 14.11.2021
4790 Clouds 3 1007 80 10000 3.58 320 18:18 14.11.2021
4791 Clouds 2 1007 78 10000 8.75 290 17:57 14.11.2021
4792 Clouds 2 1007 78 10000 8.75 290 17:39 14.11.2021
4793 Clouds 2 1007 78 10000 8.75 290 17:21 14.11.2021
4794 Clouds 2 1007 80 10000 9.77 290 16:55 14.11.2021
4795 Clouds 2 1007 82 10000 9.77 290 16:37 14.11.2021
4796 Clouds 2 1007 85 10000 9.77 290 16:18 14.11.2021
4797 Clouds 2 1005 90 10000 4.12 240 15:19 14.11.2021
4798 Clouds 3 1005 89 10000 4.63 220 14:37 14.11.2021
4799 Clouds 2 1005 88 8047 5.14 220 14:18 14.11.2021
4800 Clouds 2 1005 85 10000 5.66 210 13:40 14.11.2021
4801 Clouds 2 1005 84 10000 7.72 220 12:52 14.11.2021
4802 Clouds 2 1006 85 10000 6.17 200 12:21 14.11.2021
4803 Clouds 2 1006 88 10000 3.13 207 10:54 14.11.2021
4804 Clouds 2 1008 89 10000 4.02 215 10:30 14.11.2021
4805 Drizzle 1 1011 90 6437 3.13 223 09:18 14.11.2021
4806 Snow 1 1012 89 10000 3.13 226 08:43 14.11.2021
4807 Clouds 2 1016 73 10000 1.79 261 04:46 14.11.2021
4808 Clouds 3 1016 66 10000 2.68 11 22:28 13.11.2021
4809 Clouds 3 1016 66 10000 2.68 11 22:28 13.11.2021
4810 Clouds 3 1016 67 10000 3.13 312 21:58 13.11.2021
4811 Clouds 3 1016 65 10000 2.24 247 21:27 13.11.2021
4812 Clouds 4 1016 64 10000 3.13 292 20:25 13.11.2021
4813 Clouds 4 1017 70 10000 2.68 274 18:53 13.11.2021
4814 Clouds 3 1016 73 10000 3.58 326 18:26 13.11.2021
4815 Clouds 3 1016 79 10000 3.13 353 17:23 13.11.2021
4816 Clouds 3 1015 81 10000 3.13 313 15:42 13.11.2021
4817 Clouds 3 1013 79 10000 2.24 305 14:39 13.11.2021
4818 Clouds 3 1012 78 10000 3.13 276 13:46 13.11.2021
4819 Clouds 3 1012 79 10000 1.79 306 12:40 13.11.2021
4820 Clouds 3 1011 81 10000 1.79 287 11:45 13.11.2021
4821 Clouds 3 1011 83 10000 2.68 289 10:57 13.11.2021
4822 Clouds 3 1012 84 10000 3.13 302 10:29 13.11.2021
4823 Clouds 3 1012 83 10000 2.68 295 09:42 13.11.2021
4824 Clouds 3 1012 83 10000 2.68 291 09:42 13.11.2021
4825 Clouds 3 1012 83 10000 3.13 305 09:22 13.11.2021
4826 Clouds 3 1012 84 10000 1.34 274 08:41 13.11.2021
4827 Clouds 3 1011 85 10000 1.79 277 07:25 13.11.2021
4828 Clouds 2 1011 86 10000 2.68 289 04:36 13.11.2021
4829 Clouds 2 1010 83 10000 0.89 267 02:27 13.11.2021
4830 Rain 2 1009 85 10000 2.24 258 23:27 12.11.2021
4831 Clouds 2 1009 79 10000 6.69 220 21:52 12.11.2021
4832 Clouds 3 1008 81 10000 6.69 250 20:20 12.11.2021
4833 Rain 3 1008 81 10000 7.72 240 19:31 12.11.2021
4834 Mist 3 1008 78 9656 1.79 292 18:53 12.11.2021
4835 Clouds 5 1008 65 10000 9.77 240 17:34 12.11.2021
4836 Clouds 4 1008 72 10000 3.6 220 15:51 12.11.2021
4837 Clouds 3 1006 78 10000 7.2 250 13:25 12.11.2021
4838 Clouds 5 1005 69 10000 5.66 200 11:21 12.11.2021
4839 Clouds 5 1008 73 10000 8.6 219 09:54 12.11.2021
4840 Clouds 5 1008 70 10000 5.66 210 08:45 12.11.2021
4841 Clouds 6 1008 66 10000 6.17 200 06:34 12.11.2021
4842 Clouds 9 1007 68 10000 8.75 260 23:43 11.11.2021
4843 Clouds 9 1007 68 10000 8.75 260 23:43 11.11.2021
4844 Clouds 10 1007 73 10000 6.12 240 22:46 11.11.2021
4845 Clouds 9 1007 72 10000 6.14 240 22:46 11.11.2021
4846 Clouds 9 1004 77 10000 4.47 270 21:43 11.11.2021
4847 Clouds 9 1003 75 10000 3.58 258 20:51 11.11.2021
4848 Clouds 9 1002 79 10000 4.92 253 19:36 11.11.2021
4849 Clouds 10 1001 87 10000 3.13 273 18:25 11.11.2021
4850 Rain 11 1000 92 10000 2.24 255 17:37 11.11.2021
4851 Rain 12 1001 84 8047 3.13 180 15:21 11.11.2021
4852 Clouds 13 1001 73 10000 7.6 225 14:38 11.11.2021
4853 Clouds 13 1001 73 10000 7.6 225 14:19 11.11.2021
4854 Clouds 13 1002 74 10000 2.24 180 13:35 11.11.2021
4855 Clouds 12 1004 74 10000 1.79 180 12:23 11.11.2021
4856 Clouds 12 1009 77 10000 1.34 197 09:54 11.11.2021
4857 Clouds 12 1010 79 10000 4.12 150 08:28 11.11.2021
4858 Clouds 12 1011 82 10000 2.24 168 06:44 11.11.2021
4859 Clouds 13 1017 62 10000 3.13 135 00:37 11.11.2021
4860 Clouds 13 1019 69 10000 3.6 100 22:41 10.11.2021
4861 Clouds 13 1019 71 10000 4.63 100 21:46 10.11.2021
4862 Clouds 13 1019 72 10000 2.24 135 20:55 10.11.2021
4863 Clouds 13 1020 70 10000 3.13 202 19:50 10.11.2021
4864 Clouds 13 1021 70 10000 3.6 90 19:32 10.11.2021
4865 Clouds 12 1022 70 10000 0.45 157 17:19 10.11.2021
4866 Clouds 9 1024 74 10000 2.57 100 15:46 10.11.2021
4867 Clouds 7 1022 78 10000 0.89 112 14:24 10.11.2021
4868 Clouds 7 1022 78 10000 0 0 13:31 10.11.2021
4869 Clouds 6 1022 78 10000 1.54 360 11:40 10.11.2021
4870 Clouds 7 1022 77 10000 0.89 90 09:18 10.11.2021
4871 Clear 8 1023 75 10000 0.89 90 08:40 10.11.2021
4872 Clear 8 1023 74 10000 1.54 350 06:44 10.11.2021
4873 Clear 8 1023 73 10000 0.89 110 05:57 10.11.2021
4874 Clouds 10 1023 77 10000 2.68 22 01:56 10.11.2021
4875 Clouds 13 1023 69 10000 5.12 26 21:59 09.11.2021
4876 Clouds 14 1022 72 10000 6.17 20 20:39 09.11.2021
4877 Clouds 13 1021 77 10000 2.68 45 19:29 09.11.2021
4878 Clouds 13 1021 77 10000 2.68 67 18:48 09.11.2021
4879 Clouds 13 1024 81 10000 4.87 31 16:40 09.11.2021
4880 Clouds 12 1022 80 10000 3.13 31 15:20 09.11.2021
4881 Clouds 12 1021 83 10000 0.89 97 13:31 09.11.2021
4882 Clouds 12 1021 83 10000 2.68 92 12:28 09.11.2021
4883 Clouds 12 1022 82 10000 2.68 69 10:55 09.11.2021
4884 Clouds 12 1022 82 10000 0.89 22 09:44 09.11.2021
4885 Clouds 11 1022 82 10000 0.45 22 08:53 09.11.2021
4886 Clouds 11 1022 79 10000 2.14 303 06:59 09.11.2021
4887 Clouds 12 1021 70 10000 1.54 260 02:32 09.11.2021
4888 Clouds 13 1022 70 10000 2.42 237 01:50 09.11.2021
4889 Clouds 16 1020 59 10000 2.57 200 00:30 09.11.2021
4890 Clouds 16 1020 59 10000 0.45 222 00:30 09.11.2021
4891 Clouds 15 1020 60 10000 2.57 200 00:30 09.11.2021
4892 Clouds 16 1020 60 10000 2.57 200 00:30 09.11.2021
4893 Clouds 17 1020 55 10000 0.89 225 23:29 08.11.2021
4894 Clouds 18 1020 52 10000 1.34 247 22:36 08.11.2021
4895 Clouds 19 1020 50 10000 1.34 237 21:22 08.11.2021
4896 Clouds 18 1020 51 10000 2.24 257 20:31 08.11.2021
4897 Clouds 17 1020 53 10000 1.79 274 19:18 08.11.2021
4898 Clouds 15 1021 55 10000 0.89 225 17:39 08.11.2021
4899 Clouds 15 1021 55 10000 0.89 225 17:39 08.11.2021
4900 Clouds 11 1021 65 10000 1.34 249 15:48 08.11.2021
4901 Clear 9 1021 72 10000 1.34 250 14:55 08.11.2021
4902 Clouds 9 1020 74 10000 0.45 210 14:24 08.11.2021
4903 Clear 9 1019 73 10000 3.58 202 12:48 08.11.2021
4904 Clear 9 1019 72 10000 1.34 238 11:54 08.11.2021
4905 Clear 10 1018 70 10000 2.68 236 10:35 08.11.2021
4906 Clear 10 1020 68 10000 4.02 225 08:56 08.11.2021
4907 Clear 11 1020 67 10000 2.24 244 07:56 08.11.2021
4908 Clouds 11 1020 65 10000 2.24 202 06:55 08.11.2021
4909 Clouds 13 1020 61 10000 6.17 190 03:35 08.11.2021
4910 Clouds 16 1021 55 10000 4.63 200 00:18 08.11.2021
4911 Clouds 18 1021 50 10000 4.93 199 22:48 07.11.2021
4912 Clouds 19 1020 46 10000 7.72 220 21:24 07.11.2021
4913 Clouds 18 1022 47 10000 5.14 209 19:56 07.11.2021
4914 Clouds 16 1023 53 10000 4.63 210 18:30 07.11.2021
4915 Clouds 14 1023 58 10000 3.6 210 17:40 07.11.2021
4916 Clouds 11 1023 67 10000 0.45 206 16:21 07.11.2021
4917 Clouds 7 1022 77 10000 0.89 223 14:47 07.11.2021
4918 Clouds 6 1022 79 10000 2.57 220 14:24 07.11.2021
4919 Clear 6 1021 79 10000 0.89 225 12:48 07.11.2021
4920 Clear 6 1021 76 10000 2.57 220 11:31 07.11.2021
4921 Clear 7 1021 70 10000 3.6 220 08:59 07.11.2021
4922 Clouds 11 1024 59 10000 5.39 221 02:53 07.11.2021
4923 Clouds 13 1022 54 10000 4.12 210 00:25 07.11.2021
4924 Clear 15 1023 50 10000 5.47 215 22:55 06.11.2021
4925 Clear 15 1022 47 10000 6.69 230 21:53 06.11.2021
4926 Clear 15 1022 47 10000 6.17 210 20:56 06.11.2021
4927 Clear 14 1023 47 10000 6.69 230 19:42 06.11.2021
4928 Clear 11 1025 46 10000 4.12 220 17:31 06.11.2021
4929 Clouds 9 1025 52 10000 5.14 220 16:32 06.11.2021
4930 Clouds 3 1024 71 10000 3.09 210 13:39 06.11.2021
4931 Clouds 3 1024 70 10000 0.89 255 12:55 06.11.2021
4932 Clouds 3 1024 68 10000 1.34 225 10:35 06.11.2021
4933 Clouds 3 1027 67 10000 2.06 200 08:36 06.11.2021
4934 Clouds 4 1027 66 10000 2.06 170 04:50 06.11.2021
4935 Clear 9 1029 49 10000 4.89 189 23:41 05.11.2021
4936 Clear 10 1029 47 10000 4.89 192 23:19 05.11.2021
4937 Clouds 11 1027 44 10000 5.14 200 22:33 05.11.2021
4938 Clouds 11 1029 41 10000 4.63 190 20:26 05.11.2021
4939 Clouds 11 1029 41 10000 5.66 200 19:51 05.11.2021
4940 Clear 10 1031 44 10000 5.14 210 18:43 05.11.2021
4941 Clear 9 1031 47 10000 4.63 210 17:45 05.11.2021
4942 Clear 7 1031 53 10000 3.6 210 16:37 05.11.2021
4943 Clouds 1 1028 74 10000 0.89 232 14:21 05.11.2021
4944 Clear 1 1027 74 10000 0.45 225 12:26 05.11.2021
4945 Clear 2 1027 71 10000 1.54 200 09:27 05.11.2021
4946 Clear 2 1026 72 10000 0.89 225 08:28 05.11.2021
4947 Clear 2 1028 70 10000 1.34 218 05:40 05.11.2021
4948 Clear 4 1030 65 10000 2.75 209 02:37 05.11.2021
4949 Clear 4 1029 64 10000 2.41 213 02:18 05.11.2021
4950 Clouds 6 1030 54 10000 2.4 243 23:56 04.11.2021
4951 Clouds 8 1028 47 10000 4.63 240 22:21 04.11.2021
4952 Clouds 8 1030 47 10000 2.12 251 21:56 04.11.2021
4953 Clouds 8 1029 45 10000 3.6 240 21:27 04.11.2021
4954 Clouds 9 1028 40 10000 0.45 292 20:28 04.11.2021
4955 Clouds 8 1029 38 10000 2.68 270 19:49 04.11.2021
4956 Clouds 8 1029 38 10000 3.09 240 19:27 04.11.2021
4957 Clouds 7 1030 40 10000 3.09 260 18:26 04.11.2021
4958 Clouds 6 1030 45 10000 2.57 230 17:26 04.11.2021
4959 Clouds 3 1030 62 10000 0 0 15:42 04.11.2021
4960 Clouds 0 1027 75 10000 0 0 13:45 04.11.2021
4961 Clouds -2 1027 69 10000 0 0 10:35 04.11.2021
4962 Clouds -1 1028 64 10000 0 0 08:41 04.11.2021
4963 Clouds 0 1028 65 10000 1.54 250 07:36 04.11.2021
4964 Clouds 1 1028 64 10000 1.54 300 06:59 04.11.2021
4965 Clouds 5 1030 47 10000 0.89 345 23:18 03.11.2021
4966 Clouds 6 1029 45 10000 1.79 288 22:23 03.11.2021
4967 Clouds 6 1030 45 10000 0.89 225 21:37 03.11.2021
4968 Clouds 7 1029 43 10000 1.34 287 20:44 03.11.2021
4969 Clouds 7 1030 43 10000 2.57 0 20:25 03.11.2021
4970 Clouds 6 1030 42 10000 2.68 281 19:29 03.11.2021
4971 Clouds 6 1031 44 10000 1.79 305 18:26 03.11.2021
4972 Clouds 6 1031 46 10000 1.79 315 17:41 03.11.2021
4973 Clouds 4 1031 50 10000 1.34 343 16:46 03.11.2021
4974 Clouds 3 1031 60 10000 1.79 347 15:49 03.11.2021
4975 Clouds 2 1031 63 10000 2.24 337 15:29 03.11.2021
4976 Clouds -2 1029 69 10000 2.57 300 13:29 03.11.2021
4977 Clear -1 1029 73 10000 1.34 287 11:34 03.11.2021
4978 Clear -1 1030 70 10000 0.45 288 10:50 03.11.2021
4979 Clear 0 1030 68 10000 0.89 335 09:40 03.11.2021
4980 Clear 0 1030 69 10000 0.45 304 08:53 03.11.2021
4981 Clear 1 1030 67 10000 1.34 320 07:40 03.11.2021
4982 Clear 1 1029 67 10000 1.34 337 06:32 03.11.2021
4983 Clear 2 1029 63 10000 0.89 292 04:22 03.11.2021
4984 Clouds 5 1030 49 10000 5.02 305 00:57 03.11.2021
4985 Clouds 7 1028 41 10000 4.63 280 22:52 02.11.2021
4986 Clouds 8 1030 41 10000 6.23 298 21:54 02.11.2021
4987 Clouds 8 1029 41 10000 4.12 300 20:36 02.11.2021
4988 Clouds 7 1028 44 10000 0.45 315 19:57 02.11.2021
4989 Clouds 7 1029 46 10000 4.63 310 19:27 02.11.2021
4990 Clouds 7 1030 49 10000 5.14 310 18:35 02.11.2021
4991 Clouds 6 1030 52 10000 4.12 300 17:44 02.11.2021
4992 Clouds 5 1030 57 10000 4.63 290 16:34 02.11.2021
4993 Clouds 3 1030 62 10000 3.09 290 15:50 02.11.2021
4994 Clear 1 1031 70 10000 4.61 290 14:56 02.11.2021
4995 Clouds 0 1027 72 10000 0.89 292 13:29 02.11.2021
4996 Clear 0 1027 70 10000 1.79 299 12:46 02.11.2021
4997 Clear 0 1027 70 10000 0.89 292 12:46 02.11.2021
4998 Clear 0 1027 70 10000 0.89 292 12:46 02.11.2021
4999 Clear 0 1027 68 10000 0.89 292 11:38 02.11.2021
5000 Clouds 1 1028 67 10000 1.79 301 10:55 02.11.2021
5001 Clouds 1 1027 65 10000 1.34 310 10:32 02.11.2021
5002 Clouds 1 1027 64 10000 1.79 317 09:44 02.11.2021
5003 Clouds 2 1027 62 10000 1.34 304 07:46 02.11.2021
5004 Clouds 4 1027 58 10000 0.89 292 05:42 02.11.2021
5005 Clouds 5 1027 55 10000 0.89 300 03:22 02.11.2021
5006 Clouds 7 1026 44 10000 0.45 273 23:42 01.11.2021
5007 Clouds 9 1026 42 10000 3.58 286 21:49 01.11.2021
5008 Clouds 9 1026 45 10000 2.24 306 20:44 01.11.2021
5009 Clouds 8 1026 45 10000 2.68 276 20:18 01.11.2021
5010 Clouds 8 1027 43 10000 4.02 290 19:41 01.11.2021
5011 Clouds 8 1028 48 10000 1.79 303 18:25 01.11.2021
5012 Clouds 7 1028 50 10000 1.79 334 17:43 01.11.2021
5013 Clouds 6 1029 55 10000 2.24 283 16:52 01.11.2021
5014 Clouds 5 1028 63 10000 1.34 275 16:20 01.11.2021
5015 Clouds 3 1028 69 10000 2.57 270 15:29 01.11.2021
5016 Clouds 2 1027 73 10000 1.34 337 14:45 01.11.2021
5017 Clouds 2 1027 73 10000 1.79 332 14:25 01.11.2021
5018 Clouds 1 1025 74 10000 0.89 294 13:50 01.11.2021
5019 Clear 1 1025 74 10000 0.89 299 12:36 01.11.2021
5020 Clear 2 1024 73 10000 0.89 288 11:30 01.11.2021
5021 Clear 2 1023 70 10000 1.79 327 10:19 01.11.2021
5022 Clear 3 1024 67 10000 1.79 313 08:18 01.11.2021
5023 Clear 3 1024 66 10000 1.34 296 07:45 01.11.2021
5024 Clear 6 1023 57 10000 1.79 323 03:49 01.11.2021
5025 Clouds 8 1021 52 10000 1.79 327 01:43 01.11.2021
5026 Clouds 12 1018 49 10000 6.17 310 22:42 31.10.2021
5027 Clouds 11 1016 59 10000 2.24 292 20:50 31.10.2021
5028 Clouds 11 1016 70 10000 6.17 300 19:22 31.10.2021
5029 Clouds 11 1016 71 10000 7.72 320 18:41 31.10.2021
5030 Clouds 11 1016 69 10000 5.14 330 17:52 31.10.2021
5031 Clouds 9 1014 77 10000 4.63 310 15:51 31.10.2021
5032 Clouds 7 1011 84 10000 4.12 290 14:24 31.10.2021
5033 Clouds 7 1010 87 10000 1.34 292 12:50 31.10.2021
5034 Clouds 7 1009 88 10000 1.34 292 11:41 31.10.2021
5035 Clear 7 1008 90 10000 2.06 240 10:44 31.10.2021
5036 Clear 7 1009 88 10000 0.45 292 09:22 31.10.2021
5037 Clear 7 1010 87 10000 3.09 270 08:37 31.10.2021
5038 Clouds 11 1008 80 10000 1.34 22 01:57 31.10.2021
5039 Clouds 14 1006 68 10000 3.13 36 22:47 30.10.2021
5040 Clouds 14 1006 68 10000 4.92 22 21:35 30.10.2021
5041 Clouds 14 1006 72 10000 3.13 11 20:50 30.10.2021
5042 Clouds 13 1006 73 10000 3.13 42 19:19 30.10.2021
5043 Clouds 12 1006 75 10000 3.58 21 17:27 30.10.2021
5044 Clouds 11 1005 84 10000 4.02 33 15:21 30.10.2021
5045 Drizzle 11 1004 87 3219 3.58 34 13:40 30.10.2021
5046 Drizzle 11 1004 87 3219 2.24 14 13:21 30.10.2021
5047 Drizzle 11 1004 87 3219 3.13 37 12:51 30.10.2021
5048 Clouds 12 1003 85 10000 7.2 20 11:44 30.10.2021
5049 Clouds 12 1003 88 10000 4.47 35 10:32 30.10.2021
5050 Drizzle 12 1004 91 10000 4.02 30 08:53 30.10.2021
5051 Mist 12 1004 92 3219 3.13 32 07:29 30.10.2021
5052 Mist 12 1004 93 3219 3.58 52 05:39 30.10.2021
5053 Rain 12 1002 94 2816 7.72 10 00:56 30.10.2021
5054 Rain 12 1001 93 4828 6.17 10 22:50 29.10.2021
5055 Rain 12 1002 92 3219 4.47 22 22:30 29.10.2021
5056 Mist 12 1002 92 1609 1.34 22 20:46 29.10.2021
5057 Mist 12 1002 91 8047 5.36 52 20:19 29.10.2021
5058 Rain 12 1002 90 3219 0.89 67 18:33 29.10.2021
5059 Mist 12 1001 93 6437 7.72 20 16:54 29.10.2021
5060 Rain 12 1000 94 8047 6.69 10 15:21 29.10.2021
5061 Mist 13 1000 93 8047 5.66 50 12:24 29.10.2021
5062 Mist 13 1000 93 4828 0 0 10:46 29.10.2021
5063 Clouds 12 1001 93 10000 2.57 60 08:41 29.10.2021
5064 Rain 12 1003 90 10000 6.75 97 00:37 29.10.2021
5065 Rain 12 1002 87 8047 5.66 70 23:27 28.10.2021
5066 Rain 12 1002 85 10000 5.14 60 22:18 28.10.2021
5067 Rain 12 1002 81 10000 5.14 100 20:54 28.10.2021
5068 Clouds 12 1003 78 10000 5.14 90 19:51 28.10.2021
5069 Clouds 11 1003 80 10000 5.14 100 18:27 28.10.2021
5070 Rain 11 1003 81 10000 6.69 110 17:19 28.10.2021
5071 Clouds 11 1003 81 10000 5.14 100 16:20 28.10.2021
5072 Clouds 10 1005 80 10000 5.66 110 14:39 28.10.2021
5073 Clouds 10 1006 79 10000 5.14 100 13:29 28.10.2021
5074 Clouds 10 1007 80 10000 3.09 120 12:44 28.10.2021
5075 Clouds 9 1010 81 10000 5.44 125 10:58 28.10.2021
5076 Clouds 9 1010 80 10000 5.14 120 09:40 28.10.2021
5077 Clouds 9 1010 80 10000 5.14 120 09:22 28.10.2021
5078 Clouds 9 1011 80 10000 4.12 130 08:35 28.10.2021
5079 Clouds 9 1011 79 10000 5.66 120 07:40 28.10.2021
5080 Smoke 12 1014 60 10000 5.14 90 00:33 28.10.2021
5081 Clouds 13 1015 55 10000 5.14 100 22:36 27.10.2021
5082 Clouds 13 1016 55 10000 5.14 130 21:34 27.10.2021
5083 Clouds 13 1018 57 10000 3.54 102 20:57 27.10.2021
5084 Clouds 13 1017 56 10000 2.57 100 20:38 27.10.2021
5085 Clouds 12 1018 57 10000 4.12 170 19:42 27.10.2021
5086 Clouds 12 1019 58 10000 5.14 140 18:54 27.10.2021
5087 Clouds 8 1020 71 10000 3.6 150 16:38 27.10.2021
5088 Clouds 7 1018 77 10000 3.6 150 16:20 27.10.2021
5089 Clouds 6 1020 86 10000 2.57 140 15:23 27.10.2021
5090 Clouds 6 1020 86 10000 2.57 140 15:23 27.10.2021
5091 Clouds 6 1017 86 10000 3.15 121 12:57 27.10.2021
5092 Clear 8 1020 75 10000 2.46 128 10:59 27.10.2021
5093 Clouds 7 1018 75 10000 2.57 190 10:36 27.10.2021
5094 Clear 8 1019 80 10000 1.74 115 08:58 27.10.2021
5095 Clouds 7 1018 78 10000 0 0 07:37 27.10.2021
5096 Clouds 8 1019 74 10000 3.09 60 05:37 27.10.2021
5097 Clouds 10 1019 68 10000 4.12 40 01:18 27.10.2021
5098 Clouds 12 1020 65 10000 4.12 50 00:33 27.10.2021
5099 Clouds 12 1020 64 10000 3.6 20 23:51 26.10.2021
5100 Clouds 13 1019 66 10000 1.79 67 22:43 26.10.2021
5101 Clouds 13 1019 66 10000 1.79 67 22:20 26.10.2021
5102 Clouds 12 1021 69 10000 1.79 90 20:59 26.10.2021
5103 Clouds 12 1020 67 10000 1.34 9 19:33 26.10.2021
5104 Clouds 12 1021 68 10000 0.89 22 18:53 26.10.2021
5105 Clouds 10 1022 74 10000 1.79 343 17:36 26.10.2021
5106 Clouds 7 1020 81 10000 4.12 320 15:40 26.10.2021
5107 Clouds 8 1020 71 10000 1.34 25 11:50 26.10.2021
5108 Clouds 8 1021 75 10000 3.6 320 10:46 26.10.2021
5109 Clouds 9 1020 71 10000 5.14 30 08:24 26.10.2021
5110 Clouds 9 1019 70 10000 5.66 30 07:21 26.10.2021
5111 Rain 11 1017 69 10000 8.94 18 23:53 25.10.2021
5112 Clouds 11 1016 69 10000 8.75 10 23:20 25.10.2021
5113 Clouds 11 1014 74 10000 4.02 18 22:21 25.10.2021
5114 Mist 10 1014 78 4828 8.23 20 21:40 25.10.2021
5115 Rain 10 1013 84 10000 3.13 22 20:26 25.10.2021
5116 Clouds 10 1012 83 10000 4.92 40 19:43 25.10.2021
5117 Clouds 10 1012 82 10000 5.81 50 19:21 25.10.2021
5118 Clouds 10 1011 81 10000 5.81 61 18:33 25.10.2021
5119 Rain 9 1010 88 10000 7.15 63 16:38 25.10.2021
5120 Rain 9 1007 91 8047 5.81 61 14:45 25.10.2021
5121 Rain 9 1005 88 10000 5.81 81 12:31 25.10.2021
5122 Clouds 9 1008 88 8676 5.36 73 10:30 25.10.2021
5123 Clouds 9 1009 90 10000 9.09 80 08:54 25.10.2021
5124 Rain 9 1011 92 10000 3.13 77 06:26 25.10.2021
5125 Rain 9 1013 91 10000 7.15 90 02:44 25.10.2021
5126 Rain 9 1012 89 5620 4.47 69 00:48 25.10.2021
5127 Rain 10 1012 86 10000 4.47 106 23:47 24.10.2021
5128 Clouds 10 1012 86 6539 5.81 91 23:19 24.10.2021
5129 Rain 10 1013 85 6539 4.92 93 22:37 24.10.2021
5130 Rain 10 1013 86 5127 4.02 72 22:19 24.10.2021
5131 Rain 10 1014 86 8047 3.13 97 20:46 24.10.2021
5132 Rain 10 1014 86 8047 2.68 98 20:27 24.10.2021
5133 Rain 10 1014 83 9656 2.68 102 19:29 24.10.2021
5134 Rain 9 1016 78 10000 1.79 138 18:28 24.10.2021
5135 Rain 9 1016 74 10000 0.89 124 17:35 24.10.2021
5136 Rain 9 1016 67 10000 0.89 192 15:55 24.10.2021
5137 Clouds 7 1015 68 10000 0.89 173 14:25 24.10.2021
5138 Clouds 7 1015 73 10000 1.34 161 12:57 24.10.2021
5139 Clouds 6 1016 73 10000 1.54 140 11:44 24.10.2021
5140 Clouds 5 1016 70 10000 0 0 10:55 24.10.2021
5141 Clouds 5 1016 61 10000 2.85 115 09:59 24.10.2021
5142 Clouds 5 1017 81 10000 2.63 109 07:41 24.10.2021
5143 Clouds 10 1019 56 10000 1.79 81 00:57 24.10.2021
5144 Clouds 12 1017 49 10000 0.89 107 23:34 23.10.2021
5145 Clear 12 1019 45 10000 2.24 86 21:58 23.10.2021
5146 Clouds 12 1019 41 10000 2.24 309 19:54 23.10.2021
5147 Clouds 11 1020 44 10000 2.24 322 18:59 23.10.2021
5148 Clouds 10 1019 44 10000 1.34 14 18:26 23.10.2021
5149 Clouds 10 1019 46 10000 1.34 2 17:43 23.10.2021
5150 Clouds 7 1019 59 10000 0.45 342 16:22 23.10.2021
5151 Clouds 4 1017 74 10000 0.89 340 14:22 23.10.2021
5152 Clouds 10 1018 59 10000 2.82 298 03:34 23.10.2021
5153 Clouds 12 1017 49 10000 0.89 341 00:19 23.10.2021
5154 Clouds 12 1017 47 10000 1.34 340 22:53 22.10.2021
5155 Clouds 12 1020 48 10000 2.24 349 19:53 22.10.2021
5156 Clouds 10 1019 55 10000 2.68 4 18:41 22.10.2021
5157 Clouds 9 1019 62 10000 2.68 343 17:40 22.10.2021
5158 Clouds 6 1019 78 10000 0.89 337 15:25 22.10.2021
5159 Clouds 6 1018 75 10000 1.34 351 13:48 22.10.2021
5160 Clouds 7 1018 75 10000 0.89 337 11:18 22.10.2021
5161 Clouds 7 1018 76 10000 1.34 328 10:38 22.10.2021
5162 Clouds 7 1019 75 10000 0.89 353 09:56 22.10.2021
5163 Clouds 8 1019 73 10000 1.79 332 08:31 22.10.2021
5164 Clouds 9 1019 70 10000 1.79 353 07:22 22.10.2021
5165 Clouds 11 1019 79 10000 2.68 354 02:56 22.10.2021
5166 Clouds 12 1015 75 10000 2.24 356 23:54 21.10.2021
5167 Clouds 12 1015 75 10000 4.92 345 23:29 21.10.2021
5168 Clouds 10 1014 81 10000 2.24 293 21:39 21.10.2021
5169 Clouds 10 1014 80 10000 1.34 284 20:27 21.10.2021
5170 Clouds 10 1014 78 10000 3.13 298 19:57 21.10.2021
5171 Clouds 10 1013 77 10000 1.79 292 19:28 21.10.2021
5172 Clouds 10 1013 77 10000 3.58 298 18:43 21.10.2021
5173 Clouds 9 1013 78 10000 2.68 294 17:54 21.10.2021
5174 Clouds 10 1013 75 10000 5.81 276 17:32 21.10.2021
5175 Clouds 10 1013 75 10000 5.81 276 17:32 21.10.2021
5176 Clouds 11 1011 77 10000 1.79 256 15:34 21.10.2021
5177 Clouds 11 1011 74 10000 3.13 261 14:57 21.10.2021
5178 Clouds 11 1011 74 10000 0.89 247 14:37 21.10.2021
5179 Clouds 12 1010 75 10000 1.34 242 12:51 21.10.2021
5180 Clouds 16 1012 76 10000 1.79 286 09:58 21.10.2021
5181 Clouds 18 1011 72 10000 0.45 230 08:21 21.10.2021
5182 Clouds 18 1012 69 10000 0.45 237 07:23 21.10.2021
5183 Clouds 21 1014 49 10000 5.11 192 00:58 21.10.2021
5184 Clouds 22 1014 48 10000 1.34 192 23:20 20.10.2021
5185 Clouds 22 1015 48 10000 1.34 228 21:51 20.10.2021
5186 Clouds 21 1016 50 10000 2.68 217 21:27 20.10.2021
5187 Clouds 21 1017 50 10000 1.79 220 20:46 20.10.2021
5188 Clouds 21 1017 50 10000 1.34 196 20:26 20.10.2021
5189 Clouds 21 1017 50 10000 1.34 216 20:26 20.10.2021
5190 Clouds 21 1018 48 10000 1.79 197 19:32 20.10.2021
5191 Clouds 20 1018 51 10000 1.34 224 18:49 20.10.2021
5192 Clouds 18 1019 57 10000 1.34 213 17:40 20.10.2021
5193 Clouds 12 1019 73 10000 0.45 236 15:26 20.10.2021
5194 Clouds 13 1020 67 10000 0.89 219 10:23 20.10.2021
5195 Clouds 13 1020 65 10000 0.89 230 07:43 20.10.2021
5196 Clouds 17 1019 50 10000 0.89 195 02:41 20.10.2021
5197 Clouds 20 1019 41 10000 0.89 221 00:35 20.10.2021
5198 Clouds 21 1019 37 10000 2.24 213 23:32 19.10.2021
5199 Clouds 22 1019 38 10000 1.34 227 21:40 19.10.2021
5200 Clouds 22 1020 41 10000 1.79 230 20:36 19.10.2021
5201 Clouds 21 1020 42 10000 0.89 211 20:18 19.10.2021
5202 Clouds 21 1021 45 10000 1.34 276 19:37 19.10.2021
5203 Clouds 20 1021 49 10000 0.45 238 18:45 19.10.2021
5204 Clouds 18 1022 53 10000 0.89 203 17:56 19.10.2021
5205 Clouds 12 1021 69 10000 3.09 200 15:31 19.10.2021
5206 Clouds 11 1020 75 10000 0.89 226 14:46 19.10.2021
5207 Clouds 11 1020 75 10000 0.89 226 14:46 19.10.2021
5208 Clear 11 1020 77 10000 4.11 229 13:57 19.10.2021
5209 Clear 12 1020 70 10000 1.34 248 12:24 19.10.2021
5210 Clear 12 1020 70 10000 0.45 256 11:31 19.10.2021
5211 Clear 12 1021 70 10000 4.32 225 09:55 19.10.2021
5212 Clear 13 1020 67 10000 4.02 218 08:57 19.10.2021
5213 Clear 15 1020 57 10000 2.72 197 04:25 19.10.2021
5214 Clear 21 1019 35 10000 0.89 236 00:22 19.10.2021
5215 Clear 22 1020 34 10000 0.89 247 23:49 18.10.2021
5216 Clear 22 1020 33 10000 0.89 240 22:59 18.10.2021
5217 Clear 22 1020 33 10000 1.34 302 22:31 18.10.2021
5218 Clear 22 1021 35 10000 0.45 225 20:53 18.10.2021
5219 Clear 22 1021 36 10000 2.24 233 20:32 18.10.2021
5220 Clear 21 1021 38 10000 0.89 255 19:49 18.10.2021
5221 Clear 20 1022 39 10000 1.34 208 19:22 18.10.2021
5222 Clear 20 1022 41 10000 0.45 211 18:50 18.10.2021
5223 Clear 8 1021 45 10000 1.87 274 14:59 18.10.2021
5224 Clear 7 1020 47 10000 2.76 272 12:53 18.10.2021
5225 Clear 8 1020 61 10000 3.6 240 10:26 18.10.2021
5226 Clear 8 1020 57 10000 1.54 210 09:26 18.10.2021
5227 Clear 14 1020 44 10000 0.89 292 02:28 18.10.2021
5228 Clouds 19 1020 31 10000 4.47 326 23:20 17.10.2021
5229 Clouds 19 1021 33 10000 3.58 353 21:46 17.10.2021
5230 Clear 19 1021 34 10000 3.58 296 20:59 17.10.2021
5231 Clouds 18 1021 34 10000 3.13 354 20:31 17.10.2021
5232 Clouds 18 1022 36 10000 3.58 339 19:39 17.10.2021
5233 Clear 17 1023 38 10000 2.68 337 18:57 17.10.2021
5234 Clouds 14 1022 47 10000 1.34 274 17:32 17.10.2021
5235 Clouds 7 1020 70 10000 1.54 270 15:19 17.10.2021
5236 Clouds 5 1020 70 10000 1.54 240 14:24 17.10.2021
5237 Clear 6 1019 65 10000 2.06 240 13:38 17.10.2021
5238 Clear 6 1019 43 10000 5.24 281 11:55 17.10.2021
5239 Clouds 7 1019 64 10000 0.45 257 10:34 17.10.2021
5240 Clear 8 1019 62 10000 1.79 302 09:28 17.10.2021
5241 Clear 9 1020 57 10000 1.34 294 07:19 17.10.2021
5242 Clear 14 1019 41 10000 4.02 308 00:53 17.10.2021
5243 Clouds 14 1018 38 10000 4.02 318 00:22 17.10.2021
5244 Clouds 15 1017 40 10000 4.92 315 21:38 16.10.2021
5245 Clouds 14 1018 44 10000 4.02 292 20:31 16.10.2021
5246 Clouds 13 1018 47 10000 2.68 328 19:45 16.10.2021
5247 Clouds 13 1018 48 10000 4.47 345 19:21 16.10.2021
5248 Clouds 13 1018 50 10000 3.58 292 18:54 16.10.2021
5249 Clouds 13 1018 51 10000 1.34 337 18:36 16.10.2021
5250 Clouds 12 1018 53 10000 2.68 306 18:18 16.10.2021
5251 Clouds 11 1018 58 10000 5.66 310 17:23 16.10.2021
5252 Clouds 6 1016 75 10000 1.34 280 14:52 16.10.2021
5253 Clear 8 1015 70 10000 2.24 309 11:52 16.10.2021
5254 Clear 8 1015 68 10000 2.68 313 10:36 16.10.2021
5255 Clouds 11 1015 63 10000 2.24 311 07:50 16.10.2021
5256 Clouds 14 1014 61 10000 3.13 330 01:25 16.10.2021
5257 Clouds 16 1014 58 10000 2.24 337 23:53 15.10.2021
5258 Clouds 15 1013 64 10000 1.34 18 22:38 15.10.2021
5259 Clouds 15 1013 66 10000 2.24 360 22:18 15.10.2021
5260 Clouds 15 1013 78 10000 2.24 360 21:26 15.10.2021
5261 Clouds 15 1013 82 10000 2.68 345 20:46 15.10.2021
5262 Clouds 16 1013 76 10000 3.58 352 19:26 15.10.2021
5263 Clouds 16 1013 75 10000 2.24 6 18:40 15.10.2021
5264 Clouds 14 1014 76 10000 0.89 13 16:28 15.10.2021
5265 Clouds 13 1013 80 10000 0.45 31 15:36 15.10.2021
5266 Clouds 12 1013 84 10000 0.89 337 12:42 15.10.2021
5267 Clouds 12 1013 85 10000 0 0 11:36 15.10.2021
5268 Clouds 13 1013 84 10000 0 0 10:46 15.10.2021
5269 Clouds 13 1014 82 10000 1.27 341 09:46 15.10.2021
5270 Clouds 14 1014 72 10000 0 0 05:32 15.10.2021
5271 Clouds 18 1013 59 10000 0.45 216 01:45 15.10.2021
5272 Clouds 20 1013 51 10000 3.6 220 00:21 15.10.2021
5273 Clouds 20 1013 49 10000 0.45 294 22:52 14.10.2021
5274 Clouds 19 1014 50 10000 1.79 211 21:44 14.10.2021
5275 Rain 19 1014 53 10000 2.24 270 20:48 14.10.2021
5276 Rain 18 1014 55 10000 0.45 275 20:18 14.10.2021
5277 Clouds 18 1015 56 10000 0.45 233 19:33 14.10.2021
5278 Clouds 18 1014 64 10000 1.34 294 17:31 14.10.2021
5279 Clouds 18 1013 69 10000 1.34 265 16:49 14.10.2021
5280 Clouds 16 1013 83 10000 1.34 284 15:44 14.10.2021
5281 Clouds 17 1013 89 10000 0.89 332 14:43 14.10.2021
5282 Rain 18 1011 94 6923 5.11 257 13:39 14.10.2021
5283 Rain 21 1011 89 10000 0.89 214 11:44 14.10.2021
5284 Clouds 21 1012 89 10000 0.45 197 09:55 14.10.2021
5285 Clouds 20 1012 88 10000 1.34 247 06:56 14.10.2021
5286 Clouds 18 1010 84 10000 1.34 173 00:59 14.10.2021
5287 Clouds 17 1010 61 10000 5.14 172 00:25 14.10.2021
5288 Thunderstorm 19 1015 63 4023 2.57 230 21:58 13.10.2021
5289 Thunderstorm 20 1015 62 10000 0 0 21:32 13.10.2021
5290 Clouds 21 1015 55 10000 1.34 178 19:59 13.10.2021
5291 Clouds 22 1015 53 10000 0.45 196 18:54 13.10.2021
5292 Clouds 21 1015 54 10000 2.68 247 18:34 13.10.2021
5293 Clouds 13 1015 94 10000 2.06 140 15:32 13.10.2021
5294 Clouds 13 1015 91 10000 0 0 14:45 13.10.2021
5295 Clouds 12 1015 88 10000 0 0 14:21 13.10.2021
5296 Clouds 12 1016 91 10000 0 0 12:22 13.10.2021
5297 Clouds 12 1016 91 10000 0 0 12:22 13.10.2021
5298 Clouds 12 1015 95 10000 1.74 238 11:34 13.10.2021
5299 Clouds 13 1015 90 10000 0 0 08:41 13.10.2021
5300 Clouds 13 1015 82 10000 0 0 06:42 13.10.2021
5301 Clouds 16 1016 83 10000 2.68 254 02:27 13.10.2021
5302 Clouds 17 1014 72 10000 2.06 290 01:37 13.10.2021
5303 Clouds 19 1011 54 10000 3.75 272 23:30 12.10.2021
5304 Clouds 19 1013 77 10000 6.17 270 22:45 12.10.2021
5305 Clouds 19 1012 77 10000 3.6 280 21:50 12.10.2021
5306 Clouds 17 1013 82 10000 5.66 260 20:34 12.10.2021
5307 Clouds 17 1011 65 10000 5.59 257 19:57 12.10.2021
5308 Mist 17 1013 89 8047 0.89 277 18:36 12.10.2021
5309 Drizzle 17 1012 92 4828 2.68 260 17:51 12.10.2021
5310 Clouds 17 1012 92 10000 1.34 225 16:39 12.10.2021
5311 Clouds 17 1011 93 10000 1.79 250 15:58 12.10.2021
5312 Clouds 17 1009 92 10000 0.89 203 14:39 12.10.2021
5313 Drizzle 17 1009 92 9656 1.34 250 13:43 12.10.2021
5314 Clouds 16 1008 92 10000 2.24 250 12:35 12.10.2021
5315 Clouds 16 1006 90 10000 4.12 220 09:42 12.10.2021
5316 Mist 16 1006 91 9656 3.09 210 08:43 12.10.2021
5317 Rain 17 1005 90 8047 2.68 218 07:25 12.10.2021
5318 Rain 17 1005 89 10000 0.89 247 05:29 12.10.2021
5319 Rain 18 1005 90 10000 1.79 211 04:32 12.10.2021
5320 Clouds 20 1005 91 10000 1.54 300 00:28 12.10.2021
5321 Thunderstorm 19 1005 89 1609 1.79 283 23:40 11.10.2021
5322 Thunderstorm 19 1005 88 1609 0.89 268 23:40 11.10.2021
5323 Thunderstorm 21 1005 85 10000 0.89 345 22:57 11.10.2021
5324 Rain 23 1007 74 10000 0.89 191 21:46 11.10.2021
5325 Clouds 25 1006 61 10000 1.34 202 20:39 11.10.2021
5326 Clouds 25 1007 65 10000 5.14 200 19:44 11.10.2021
5327 Clouds 25 1008 66 10000 1.79 226 18:42 11.10.2021
5328 Clouds 24 1008 71 10000 3.13 215 17:46 11.10.2021
5329 Clouds 22 1008 75 10000 1.79 216 16:39 11.10.2021
5330 Clouds 22 1008 77 10000 1.79 212 15:50 11.10.2021
5331 Clouds 22 1008 77 10000 1.79 207 14:55 11.10.2021
5332 Clouds 22 1007 78 10000 6.17 200 14:30 11.10.2021
5333 Clouds 22 1007 77 10000 3.13 208 13:36 11.10.2021
5334 Clouds 22 1008 75 10000 2.68 216 11:39 11.10.2021
5335 Clouds 22 1008 72 10000 1.34 208 10:31 11.10.2021
5336 Clouds 22 1007 71 10000 0.89 222 09:22 11.10.2021
5337 Clouds 23 1007 63 10000 3.13 208 06:30 11.10.2021
5338 Clouds 24 1008 65 10000 4.63 100 01:38 11.10.2021
5339 Clouds 25 1008 63 10000 0.45 135 00:46 11.10.2021
5340 Clouds 26 1008 57 10000 5.17 180 23:57 10.10.2021
5341 Clouds 26 1008 60 10000 1.34 219 21:52 10.10.2021
5342 Clouds 26 1008 61 10000 1.34 184 21:31 10.10.2021
5343 Clouds 24 1009 65 10000 0.89 284 20:43 10.10.2021
5344 Clouds 24 1009 67 10000 0.89 253 20:21 10.10.2021
5345 Clouds 24 1009 68 10000 1.79 234 19:58 10.10.2021
5346 Clouds 23 1009 70 10000 0.45 202 19:35 10.10.2021
5347 Clouds 23 1009 67 10000 0.89 247 18:35 10.10.2021
5348 Clouds 22 1009 72 10000 1.34 218 16:46 10.10.2021
5349 Clouds 22 1008 73 10000 2.24 224 15:44 10.10.2021
5350 Clouds 22 1008 73 10000 3.58 225 13:53 10.10.2021
5351 Clouds 22 1008 73 10000 2.24 217 13:32 10.10.2021
5352 Clouds 22 1008 72 10000 1.79 214 12:33 10.10.2021
5353 Clouds 23 1010 73 10000 1.34 215 10:43 10.10.2021
5354 Clouds 23 1009 74 10000 1.34 221 09:29 10.10.2021
5355 Rain 23 1010 74 10000 2.24 220 08:53 10.10.2021
5356 Clouds 23 1010 71 10000 1.79 206 07:27 10.10.2021
5357 Clouds 22 1011 71 10000 0.89 112 02:42 10.10.2021
5358 Clouds 24 1012 66 10000 1.79 121 00:55 10.10.2021
5359 Clouds 25 1013 62 10000 1.34 139 23:57 09.10.2021
5360 Clouds 26 1012 57 10000 0.89 103 22:45 09.10.2021
5361 Clouds 26 1013 56 10000 2.06 150 21:39 09.10.2021
5362 Clouds 27 1013 55 10000 0.89 182 21:20 09.10.2021
5363 Clouds 25 1014 60 10000 2.57 0 19:44 09.10.2021
5364 Clouds 24 1016 64 10000 1.34 166 18:57 09.10.2021
5365 Clouds 23 1014 66 10000 0 0 18:32 09.10.2021
5366 Clouds 23 1014 66 10000 0 0 18:32 09.10.2021
5367 Clouds 20 1015 81 10000 0.89 202 16:36 09.10.2021
5368 Clouds 18 1016 91 10000 3.09 170 15:28 09.10.2021
5369 Clouds 17 1015 92 10000 1.54 140 13:43 09.10.2021
5370 Clouds 17 1015 92 10000 1.54 140 13:43 09.10.2021
5371 Clouds 17 1014 92 10000 0 0 12:38 09.10.2021
5372 Clouds 18 1016 91 10000 2.06 110 11:47 09.10.2021
5373 Clouds 18 1016 91 10000 1.54 220 10:42 09.10.2021
5374 Clouds 18 1016 91 10000 3.09 200 09:36 09.10.2021
5375 Clouds 17 1016 90 10000 1.54 210 08:29 09.10.2021
5376 Clouds 17 1016 90 10000 2.57 220 07:46 09.10.2021
5377 Clouds 17 1017 91 10000 1.99 272 05:28 09.10.2021
5378 Clouds 18 1016 86 10000 2.57 250 02:49 09.10.2021
5379 Clouds 19 1016 85 10000 2.57 250 02:21 09.10.2021
5380 Clouds 21 1017 76 10000 1.94 251 23:36 08.10.2021
5381 Clouds 22 1016 71 10000 4.02 28 22:53 08.10.2021
5382 Clouds 22 1015 69 10000 0.89 122 22:22 08.10.2021
5383 Clouds 23 1016 63 10000 1.34 289 20:49 08.10.2021
5384 Clouds 22 1018 68 10000 1.34 234 18:51 08.10.2021
5385 Clouds 19 1017 85 10000 2.57 240 17:28 08.10.2021
5386 Mist 18 1017 88 9656 1.54 160 16:50 08.10.2021
5387 Mist 18 1017 92 9656 1.54 160 16:22 08.10.2021
5388 Clouds 17 1016 95 10000 1.96 191 13:57 08.10.2021
5389 Mist 17 1016 93 9656 2.57 210 12:48 08.10.2021
5390 Clouds 17 1015 94 10000 1.88 202 11:31 08.10.2021
5391 Clouds 18 1019 94 10000 1.67 197 10:35 08.10.2021
5392 Clouds 18 1019 92 10000 2.19 177 07:34 08.10.2021
5393 Clouds 23 1018 77 10000 1.79 206 23:38 07.10.2021
5394 Clouds 23 1018 78 10000 3.09 160 22:59 07.10.2021
5395 Clouds 22 1019 80 10000 1.34 114 21:36 07.10.2021
5396 Clouds 22 1019 84 10000 2.06 140 20:58 07.10.2021
5397 Clouds 21 1020 90 10000 0.45 192 19:46 07.10.2021
5398 Clouds 20 1020 90 10000 1.34 130 19:27 07.10.2021
5399 Clouds 20 1021 92 4987 0.45 161 17:49 07.10.2021
5400 Clouds 20 1021 92 7391 1.34 165 17:18 07.10.2021
5401 Clouds 19 1022 93 10000 1.34 154 15:24 07.10.2021
5402 Mist 19 1021 91 6437 0.89 104 13:45 07.10.2021
5403 Rain 19 1021 91 6437 3.6 90 13:27 07.10.2021
5404 Rain 19 1021 90 8047 1.34 105 12:39 07.10.2021
5405 Clouds 19 1021 90 10000 1.79 106 10:49 07.10.2021
5406 Clouds 19 1021 91 10000 1.34 105 10:19 07.10.2021
5407 Clouds 19 1022 89 10000 1.79 93 08:56 07.10.2021
5408 Clouds 19 1023 89 10000 0.45 78 08:35 07.10.2021
5409 Clouds 19 1023 87 10000 3.59 97 07:42 07.10.2021
5410 Clouds 19 1022 86 10000 0.89 98 06:57 07.10.2021
5411 Clouds 19 1024 87 10000 1.79 103 02:23 07.10.2021
5412 Mist 19 1023 86 9656 2.24 73 23:39 06.10.2021
5413 Mist 19 1023 85 9656 3.13 70 22:45 06.10.2021
5414 Mist 19 1024 86 8047 3.58 87 21:49 06.10.2021
5415 Mist 19 1024 86 6437 2.68 116 20:35 06.10.2021
5416 Mist 19 1025 87 6437 0.89 135 19:46 06.10.2021
5417 Mist 19 1025 85 8047 3.13 111 18:34 06.10.2021
5418 Mist 19 1026 85 8047 1.34 40 16:54 06.10.2021
5419 Clouds 18 1026 87 10000 2.68 67 15:26 06.10.2021
5420 Mist 18 1025 87 9656 1.79 86 13:54 06.10.2021
5421 Clear 18 1025 87 10000 0.89 148 12:57 06.10.2021
5422 Clear 18 1025 87 10000 1.34 115 12:39 06.10.2021
5423 Clear 18 1025 87 10000 0.89 139 12:20 06.10.2021
5424 Clear 18 1026 87 10000 2.68 93 09:58 06.10.2021
5425 Clouds 18 1025 87 10000 0.45 124 09:38 06.10.2021
5426 Clouds 18 1025 88 10000 2.24 103 08:42 06.10.2021
5427 Clouds 18 1025 88 10000 1.79 93 06:48 06.10.2021
5428 Clouds 19 1026 87 10000 2.68 77 05:26 06.10.2021
5429 Clouds 19 1024 83 10000 2.68 61 00:26 06.10.2021
5430 Clouds 19 1024 83 10000 2.68 61 00:26 06.10.2021
5431 Clouds 19 1024 82 10000 3.58 77 23:52 05.10.2021
5432 Clouds 19 1024 82 10000 3.58 77 23:52 05.10.2021
5433 Clouds 19 1025 82 10000 2.24 82 23:32 05.10.2021
5434 Clouds 19 1024 82 10000 2.68 70 22:44 05.10.2021
5435 Clouds 19 1024 83 10000 2.68 92 21:58 05.10.2021
5436 Clouds 19 1024 83 10000 2.68 92 21:58 05.10.2021
5437 Clouds 19 1024 82 10000 1.34 87 21:36 05.10.2021
5438 Clouds 19 1016 81 10000 2.24 58 20:39 05.10.2021
5439 Clouds 19 1017 81 10000 1.79 67 20:20 05.10.2021
5440 Clouds 19 1024 82 10000 3.13 87 19:27 05.10.2021
5441 Clouds 19 1017 82 10000 1.34 71 18:46 05.10.2021
5442 Clouds 18 1024 82 10000 2.24 82 16:36 05.10.2021
5443 Clouds 18 1022 81 10000 1.79 69 14:30 05.10.2021
5444 Clouds 18 1021 83 10000 3.58 33 13:33 05.10.2021
5445 Clouds 18 1021 82 10000 3.13 45 12:36 05.10.2021
5446 Clouds 18 1021 81 10000 2.68 39 11:59 05.10.2021
5447 Clouds 19 1021 85 10000 3.13 85 10:39 05.10.2021
5448 Clouds 19 1021 85 10000 3.13 85 10:39 05.10.2021
5449 Clouds 19 1020 87 10000 1.79 45 08:44 05.10.2021
5450 Clouds 19 1020 82 10000 2.68 25 03:55 05.10.2021
5451 Clouds 20 1010 81 10000 3.58 30 23:53 04.10.2021
5452 Clouds 21 1008 78 10000 0.45 105 21:58 04.10.2021
5453 Clouds 21 1016 78 10000 4.47 1 19:34 04.10.2021
5454 Clouds 20 1016 82 10000 2.68 16 17:59 04.10.2021
5455 Clouds 19 1016 86 10000 1.79 24 16:23 04.10.2021
5456 Clouds 18 1013 86 10000 3.6 350 15:31 04.10.2021
5457 Clouds 18 1013 87 10000 3.09 360 14:42 04.10.2021
5458 Clouds 18 1013 90 10000 1.79 22 13:48 04.10.2021
5459 Clouds 18 1013 90 10000 1.79 9 13:24 04.10.2021
5460 Clouds 18 1011 90 10000 4.31 340 11:35 04.10.2021
5461 Clouds 18 1012 89 10000 2.57 10 10:48 04.10.2021
5462 Clouds 18 1012 88 10000 2.57 360 09:58 04.10.2021
5463 Clouds 18 1013 89 10000 3.96 335 08:39 04.10.2021
5464 Clouds 18 1012 89 10000 3.56 351 06:56 04.10.2021
5465 Rain 22 1010 75 10000 3.6 130 00:28 04.10.2021
5466 Clouds 23 1009 68 10000 2.24 107 22:33 03.10.2021
5467 Clouds 23 1010 68 10000 0.45 342 21:38 03.10.2021
5468 Clouds 23 1011 70 10000 0.89 348 20:55 03.10.2021
5469 Clouds 24 1011 71 10000 3.14 263 19:56 03.10.2021
5470 Clouds 23 1011 75 10000 2.06 180 18:33 03.10.2021
5471 Clouds 22 1012 84 10000 2.06 250 17:43 03.10.2021
5472 Clouds 20 1012 90 10000 0.45 292 15:57 03.10.2021
5473 Clouds 20 1010 91 10000 3.02 239 14:45 03.10.2021
5474 Clouds 20 1009 92 10000 2.28 225 13:58 03.10.2021
5475 Clouds 20 1010 91 10000 2.08 221 13:21 03.10.2021
5476 Clouds 20 1010 91 10000 1.88 221 12:28 03.10.2021
5477 Clouds 20 1012 88 10000 3.6 210 10:36 03.10.2021
5478 Drizzle 20 1012 88 10000 0.89 283 08:36 03.10.2021
5479 Clouds 21 1013 83 10000 2.57 0 01:30 03.10.2021
5480 Clouds 25 1013 63 10000 1.34 244 22:34 02.10.2021
5481 Clouds 26 1015 61 10000 0.45 258 20:55 02.10.2021
5482 Clouds 25 1015 57 10000 4.12 190 19:40 02.10.2021
5483 Clouds 24 1016 64 10000 5.14 230 18:50 02.10.2021
5484 Clouds 22 1017 71 10000 0.89 235 17:39 02.10.2021
5485 Clouds 22 1017 73 10000 0.89 267 16:54 02.10.2021
5486 Clouds 19 1009 75 10000 0.89 220 14:49 02.10.2021
5487 Clouds 18 1022 63 10000 0.45 200 15:49 30.09.2021
5488 Clouds 16 1021 76 10000 1.54 110 14:46 30.09.2021
5489 Clouds 15 1020 80 10000 0 0 12:36 30.09.2021
5490 Clouds 16 1020 76 10000 2.06 100 11:34 30.09.2021
5491 Clouds 16 1020 81 10000 2.06 90 10:40 30.09.2021
5492 Clouds 17 1020 82 10000 2.13 140 08:56 30.09.2021
5493 Clouds 17 1020 80 10000 0 0 08:27 30.09.2021
5494 Clouds 18 1020 73 10000 0.45 29 05:53 30.09.2021
5495 Clouds 20 1020 68 10000 1.34 90 02:59 30.09.2021
5496 Clouds 24 1018 52 10000 2.24 53 00:40 30.09.2021
5497 Clouds 26 1018 49 10000 2.68 77 23:29 29.09.2021
5498 Clouds 27 1019 44 10000 3.58 85 21:55 29.09.2021
5499 Clouds 27 1019 44 10000 2.24 65 20:57 29.09.2021
5500 Clouds 27 1019 45 10000 1.34 196 20:22 29.09.2021
5501 Clouds 26 1020 45 10000 1.34 177 19:38 29.09.2021
5502 Clouds 24 1020 54 10000 2.06 130 18:22 29.09.2021
5503 Clear 21 1020 58 10000 2.97 124 16:56 29.09.2021
5504 Clouds 19 1019 60 10000 0.89 159 16:32 29.09.2021
5505 Clouds 17 1019 67 10000 1.54 160 15:45 29.09.2021
5506 Clear 14 1018 79 10000 1.54 160 14:38 29.09.2021
5507 Clear 13 1018 89 10000 2.57 132 13:36 29.09.2021
5508 Clear 13 1018 89 10000 2.34 129 12:41 29.09.2021
5509 Clear 14 1017 89 10000 0 0 11:24 29.09.2021
5510 Clear 14 1017 88 10000 2.49 124 10:34 29.09.2021
5511 Clear 14 1016 88 10000 2.59 126 09:44 29.09.2021
5512 Clear 15 1018 87 10000 2.87 119 08:24 29.09.2021
5513 Clear 15 1018 85 10000 2.85 120 06:53 29.09.2021
5514 Clear 20 1016 59 10000 1.79 84 00:43 29.09.2021
5515 Clear 21 1016 52 10000 2.68 77 23:20 28.09.2021
5516 Clear 22 1017 53 10000 2.24 85 22:22 28.09.2021
5517 Clear 22 1017 52 10000 4.02 85 21:24 28.09.2021
5518 Clear 22 1018 51 10000 4.63 50 20:24 28.09.2021
5519 Clear 22 1018 52 10000 5.14 80 19:40 28.09.2021
5520 Clear 21 1018 58 10000 0.45 90 18:42 28.09.2021
5521 Clouds 20 1018 64 10000 1.34 105 17:29 28.09.2021
5522 Clouds 18 1016 73 10000 3.13 76 15:21 28.09.2021
5523 Clouds 16 1016 84 10000 1.79 92 13:28 28.09.2021
5524 Clouds 16 1015 83 10000 2.24 73 12:27 28.09.2021
5525 Clouds 16 1014 81 10000 2.24 82 11:52 28.09.2021
5526 Clouds 16 1015 82 10000 3.13 69 11:34 28.09.2021
5527 Clouds 17 1014 80 10000 2.24 66 10:33 28.09.2021
5528 Clear 17 1014 78 10000 1.34 34 09:33 28.09.2021
5529 Clouds 17 1014 79 10000 2.68 59 08:44 28.09.2021
5530 Clouds 17 1014 79 10000 3.58 34 08:25 28.09.2021
5531 Clouds 17 1014 77 10000 2.24 22 06:46 28.09.2021
5532 Clouds 18 1013 80 10000 4.92 30 04:39 28.09.2021
5533 Clouds 22 1010 72 10000 3.13 38 00:51 28.09.2021
5534 Clouds 27 1009 57 10000 2.68 49 23:52 27.09.2021
5535 Clouds 30 1009 36 10000 4.02 67 23:27 27.09.2021
5536 Clouds 30 1008 39 10000 1.79 302 22:44 27.09.2021
5537 Clear 30 1009 37 10000 1.34 334 21:39 27.09.2021
5538 Clear 29 1009 40 10000 0.89 281 20:33 27.09.2021
5539 Clouds 28 1009 43 10000 1.34 270 19:40 27.09.2021
5540 Clouds 26 1009 46 10000 1.79 270 18:55 27.09.2021
5541 Clouds 24 1009 51 10000 3.58 283 17:41 27.09.2021
5542 Clouds 24 1009 53 10000 2.68 263 17:21 27.09.2021
5543 Clouds 22 1009 56 10000 3.13 275 16:37 27.09.2021
5544 Clouds 20 1009 63 10000 3.6 210 15:40 27.09.2021
5545 Clouds 18 1009 70 10000 5.26 225 13:58 27.09.2021
5546 Clouds 19 1009 67 10000 0.45 206 12:53 27.09.2021
5547 Clouds 19 1009 64 10000 0.45 224 10:51 27.09.2021
5548 Clouds 20 1010 62 10000 2.24 229 09:46 27.09.2021
5549 Clouds 20 1011 57 10000 0.45 230 08:32 27.09.2021
5550 Clouds 22 1012 44 10000 1.34 244 05:18 27.09.2021
5551 Clouds 27 1012 30 10000 0.45 219 00:39 27.09.2021
5552 Clouds 28 1013 27 10000 3.13 266 22:27 26.09.2021
5553 Clouds 28 1013 27 10000 0.45 224 21:31 26.09.2021
5554 Clear 27 1014 29 10000 1.34 224 20:45 26.09.2021
5555 Clear 27 1015 30 10000 2.68 225 20:18 26.09.2021
5556 Clouds 26 1015 33 10000 1.79 218 19:36 26.09.2021
5557 Clouds 24 1016 38 10000 2.24 247 18:45 26.09.2021
5558 Clouds 22 1017 42 10000 0.45 226 17:50 26.09.2021
5559 Clouds 20 1017 44 10000 0.89 267 17:21 26.09.2021
5560 Clouds 17 1017 48 10000 0.89 249 16:28 26.09.2021
5561 Clouds 16 1017 50 10000 1.34 264 15:56 26.09.2021
5562 Clouds 12 1016 58 10000 0.45 245 14:26 26.09.2021
5563 Clouds 12 1016 57 10000 0.45 278 13:45 26.09.2021
5564 Clear 13 1015 56 10000 0.89 222 12:32 26.09.2021
5565 Clear 13 1016 54 10000 5.76 239 11:59 26.09.2021
5566 Clear 13 1016 53 10000 0.89 238 11:37 26.09.2021
5567 Clouds 14 1016 51 10000 1.79 234 10:21 26.09.2021
5568 Clouds 15 1016 46 10000 0.45 228 08:55 26.09.2021
5569 Clouds 18 1017 34 10000 2.68 261 03:24 26.09.2021
5570 Clouds 20 1016 29 10000 1.34 303 00:20 26.09.2021
5571 Clouds 21 1016 29 10000 2.24 304 23:22 25.09.2021
5572 Clouds 21 1016 30 10000 2.68 285 22:36 25.09.2021
5573 Clouds 20 1017 32 10000 3.58 326 21:55 25.09.2021
5574 Clouds 20 1017 33 10000 2.68 292 21:19 25.09.2021
5575 Clouds 19 1017 35 10000 1.79 312 20:37 25.09.2021
5576 Clouds 18 1018 45 10000 0.89 279 18:40 25.09.2021
5577 Clouds 17 1018 58 10000 3.13 289 17:47 25.09.2021
5578 Clouds 12 1017 78 10000 3.09 250 15:35 25.09.2021
5579 Clouds 10 1017 86 10000 0.89 278 13:56 25.09.2021
5580 Clouds 10 1016 85 10000 1.34 308 12:48 25.09.2021
5581 Clouds 11 1016 82 10000 2.68 292 11:40 25.09.2021
5582 Clouds 12 1015 79 10000 1.79 323 10:24 25.09.2021
5583 Clouds 12 1015 81 10000 3.13 321 09:25 25.09.2021
5584 Rain 13 1014 86 10000 2.68 340 07:52 25.09.2021
5585 Rain 13 1014 86 10000 2.68 340 07:52 25.09.2021
5586 Rain 23 1012 41 10000 2.24 227 01:35 25.09.2021
5587 Clouds 26 1012 33 10000 0.89 224 23:33 24.09.2021
5588 Clouds 26 1013 33 10000 3.13 209 21:41 24.09.2021
5589 Clouds 25 1014 35 10000 3.13 220 20:33 24.09.2021
5590 Clouds 24 1016 38 10000 1.79 244 19:45 24.09.2021
5591 Clouds 21 1017 42 10000 0.89 236 18:32 24.09.2021
5592 Clouds 20 1017 44 10000 2.24 231 17:53 24.09.2021
5593 Clouds 19 1017 45 10000 2.24 258 17:35 24.09.2021
5594 Clouds 17 1018 51 10000 0.45 232 16:45 24.09.2021
5595 Clear 10 1016 72 10000 0.45 266 13:57 24.09.2021
5596 Clear 11 1016 69 10000 1.34 278 12:45 24.09.2021
5597 Clear 11 1016 69 10000 1.34 265 12:27 24.09.2021
5598 Clear 12 1015 68 10000 0.89 270 11:50 24.09.2021
5599 Clear 12 1015 66 10000 0.89 277 10:25 24.09.2021
5600 Clear 12 1015 63 10000 3.09 250 08:29 24.09.2021
5601 Clear 12 1015 60 10000 0.45 282 07:32 24.09.2021
5602 Clear 12 1015 55 10000 0.45 268 06:44 24.09.2021
5603 Clear 12 1017 65 10000 3.68 259 04:53 24.09.2021
5604 Clouds 19 1015 38 10000 2.68 340 22:46 23.09.2021
5605 Clouds 19 1015 39 10000 4.47 352 22:19 23.09.2021
5606 Clouds 18 1015 41 10000 3.58 322 21:44 23.09.2021
5607 Clouds 17 1016 47 10000 3.13 340 20:33 23.09.2021
5608 Clouds 16 1016 53 10000 3.13 354 19:18 23.09.2021
5609 Clouds 16 1016 53 10000 3.13 354 19:18 23.09.2021
5610 Clouds 16 1016 53 10000 3.13 354 19:18 23.09.2021
5611 Clouds 13 1016 65 10000 3.58 359 17:18 23.09.2021
5612 Clouds 11 1016 69 10000 2.68 349 15:21 23.09.2021
5613 Clouds 11 1015 71 10000 5.36 360 14:59 23.09.2021
5614 Clouds 11 1015 69 10000 2.68 343 13:45 23.09.2021
5615 Clouds 11 1015 68 10000 3.58 339 13:18 23.09.2021
5616 Clouds 12 1016 68 10000 1.79 348 12:47 23.09.2021
5617 Clouds 12 1016 67 10000 1.79 342 12:22 23.09.2021
5618 Clouds 12 1016 66 10000 2.24 349 11:20 23.09.2021
5619 Clouds 13 1016 65 10000 2.24 342 10:20 23.09.2021
5620 Clouds 13 1016 63 10000 2.68 343 09:49 23.09.2021
5621 Clouds 14 1018 58 10000 3.13 351 06:49 23.09.2021
5622 Clouds 16 1020 58 10000 5.81 20 01:18 23.09.2021
5623 Clouds 17 1020 61 10000 6.71 14 22:58 22.09.2021
5624 Clouds 17 1019 61 10000 5.36 7 22:24 22.09.2021
5625 Clouds 17 1020 64 10000 4.47 17 21:49 22.09.2021
5626 Clouds 16 1020 67 10000 3.58 357 20:59 22.09.2021
5627 Clouds 16 1020 67 10000 7.6 10 20:39 22.09.2021
5628 Clouds 15 1020 72 10000 4.02 17 19:28 22.09.2021
5629 Clouds 14 1021 78 10000 4.02 355 18:36 22.09.2021
5630 Clouds 14 1021 83 10000 4.02 9 17:39 22.09.2021
5631 Rain 14 1022 81 10000 4.02 349 16:36 22.09.2021
5632 Clouds 14 1019 82 10000 6.17 340 14:37 22.09.2021
5633 Clouds 14 1020 82 10000 4.47 57 13:25 22.09.2021
5634 Clouds 14 1020 82 10000 4.47 57 13:25 22.09.2021
5635 Mist 14 1021 86 4828 4.47 67 11:34 22.09.2021
5636 Clouds 15 1020 86 10000 4.47 79 10:37 22.09.2021
5637 Clouds 15 1021 79 10000 3.13 99 08:57 22.09.2021
5638 Clouds 16 1022 74 10000 8.91 19 07:50 22.09.2021
5639 Clouds 16 1022 68 10000 2.68 61 06:57 22.09.2021
5640 Clouds 17 1022 68 10000 3.09 360 05:51 22.09.2021
5641 Clouds 17 1023 68 10000 3.09 360 05:23 22.09.2021
5642 Clouds 17 1022 70 10000 2.68 21 03:43 22.09.2021
5643 Clouds 18 1020 68 10000 4.92 31 00:20 22.09.2021
5644 Clouds 18 1020 67 10000 3.58 30 22:43 21.09.2021
5645 Clouds 19 1020 66 10000 2.68 32 21:31 21.09.2021
5646 Clouds 19 1020 73 10000 1.79 36 19:42 21.09.2021
5647 Clouds 19 1020 73 10000 1.79 9 19:20 21.09.2021
5648 Clouds 17 1019 84 10000 1.79 24 16:59 21.09.2021
5649 Clouds 17 1017 87 10000 3.13 7 16:29 21.09.2021
5650 Rain 17 1016 90 3219 3.13 349 15:31 21.09.2021
5651 Rain 18 1016 90 10000 2.68 355 14:56 21.09.2021
5652 Rain 18 1015 91 10000 5.32 325 14:56 21.09.2021
5653 Clouds 19 1014 89 10000 6.17 230 13:40 21.09.2021
5654 Clouds 19 1014 90 10000 6.17 230 13:19 21.09.2021
5655 Rain 21 1011 94 10000 5.66 207 11:21 21.09.2021
5656 Rain 19 1011 93 10000 6.81 212 09:54 21.09.2021
5657 Clouds 24 1012 73 10000 7.72 190 07:51 21.09.2021
5658 Clouds 24 1011 73 10000 7.2 190 06:38 21.09.2021
5659 Clouds 27 1011 71 10000 6.14 185 23:58 20.09.2021
5660 Clouds 27 1012 54 10000 6.17 180 22:18 20.09.2021
5661 Clouds 27 1013 54 10000 6.17 210 21:36 20.09.2021
5662 Clouds 25 1013 65 10000 6.17 190 20:29 20.09.2021
5663 Clouds 24 1014 74 10000 1.79 192 19:28 20.09.2021
5664 Clouds 23 1015 81 10000 0.89 213 17:39 20.09.2021
5665 Clouds 22 1015 87 10000 5.66 170 16:33 20.09.2021
5666 Clouds 21 1015 87 10000 1.79 209 15:47 20.09.2021
5667 Clouds 22 1015 85 10000 0.45 195 15:22 20.09.2021
5668 Clouds 22 1015 79 10000 0.89 200 13:43 20.09.2021
5669 Clouds 22 1015 77 10000 1.79 201 12:35 20.09.2021
5670 Clouds 23 1016 73 10000 4.12 180 11:19 20.09.2021
5671 Clouds 23 1016 70 10000 1.34 225 09:55 20.09.2021
5672 Clouds 23 1016 69 10000 1.79 221 09:34 20.09.2021
5673 Clouds 24 1017 68 10000 0.89 215 08:58 20.09.2021
5674 Clouds 25 1017 63 10000 4.64 173 06:51 20.09.2021
5675 Clouds 30 1017 54 10000 4.12 80 23:45 19.09.2021
5676 Clouds 31 1019 47 10000 0.45 103 21:56 19.09.2021
5677 Clouds 31 1018 45 10000 3.6 140 21:34 19.09.2021
5678 Clouds 31 1019 47 10000 0.89 153 20:34 19.09.2021
5679 Clear 30 1020 48 10000 0.45 154 19:18 19.09.2021
5680 Clear 28 1021 57 10000 0 0 18:26 19.09.2021
5681 Clouds 25 1021 62 10000 0 0 17:22 19.09.2021
5682 Clear 22 1021 71 10000 0.89 146 15:55 19.09.2021
5683 Clear 22 1021 71 10000 0.89 146 15:55 19.09.2021
5684 Clear 19 1020 78 10000 1.54 0 14:50 19.09.2021
5685 Clear 18 1020 81 10000 1.54 0 14:30 19.09.2021
5686 Clear 18 1020 80 10000 2.06 110 13:20 19.09.2021
5687 Clear 18 1019 81 10000 2.67 146 12:47 19.09.2021
5688 Clear 18 1019 86 10000 2.71 135 11:27 19.09.2021
5689 Clear 18 1019 88 10000 2.71 135 10:35 19.09.2021
5690 Clear 18 1019 86 10000 2.38 128 09:39 19.09.2021
5691 Clear 19 1022 83 10000 2.59 72 07:31 19.09.2021
5692 Clear 19 1022 78 10000 1.34 87 05:55 19.09.2021
5693 Clouds 24 1022 61 10000 2.24 45 23:36 18.09.2021
5694 Clear 25 1023 62 10000 1.79 36 21:59 18.09.2021
5695 Clouds 24 1023 65 10000 2.68 44 20:51 18.09.2021
5696 Clouds 24 1023 66 10000 3.13 99 20:31 18.09.2021
5697 Clouds 24 1024 69 10000 2.68 37 19:39 18.09.2021
5698 Clouds 24 1024 70 10000 2.68 55 19:20 18.09.2021
5699 Clouds 23 1024 72 10000 2.24 98 18:32 18.09.2021
5700 Clouds 23 1024 74 10000 1.79 68 17:29 18.09.2021
5701 Clouds 21 1023 74 10000 3.58 75 15:50 18.09.2021
5702 Clouds 19 1022 68 10000 1.34 57 13:46 18.09.2021
5703 Clouds 19 1022 68 10000 2.68 49 13:27 18.09.2021
5704 Clouds 20 1022 68 10000 1.79 37 12:49 18.09.2021
5705 Clouds 20 1022 70 10000 1.79 40 11:38 18.09.2021
5706 Clouds 20 1022 70 10000 3.13 44 10:31 18.09.2021
5707 Clouds 21 1022 73 10000 2.68 62 09:27 18.09.2021
5708 Clouds 21 1022 75 10000 2.68 14 08:48 18.09.2021
5709 Clear 30 1018 34 10000 3.63 229 00:59 18.09.2021
5710 Clear 31 1018 34 10000 3.63 229 00:41 18.09.2021
5711 Clear 32 1018 32 10000 0.45 239 23:44 17.09.2021
5712 Clear 32 1019 32 10000 3.97 232 22:33 17.09.2021
5713 Clear 31 1019 33 10000 0.89 233 21:55 17.09.2021
5714 Clouds 30 1019 37 10000 0.89 214 20:25 17.09.2021
5715 Clouds 28 1020 42 10000 1.79 241 18:51 17.09.2021
5716 Clouds 24 1020 64 10000 3.09 210 16:50 17.09.2021
5717 Clouds 23 1020 70 10000 1.79 267 16:18 17.09.2021
5718 Clouds 18 1018 78 10000 2.06 210 12:36 17.09.2021
5719 Clear 18 1018 70 10000 0.89 217 10:41 17.09.2021
5720 Clear 19 1019 61 10000 3.09 170 08:19 17.09.2021
5721 Clear 19 1019 66 10000 3.84 170 06:49 17.09.2021
5722 Clear 26 1018 44 10000 1.79 130 00:49 17.09.2021
5723 Clear 28 1018 38 10000 0.45 202 22:50 16.09.2021
5724 Clear 28 1018 37 10000 1.34 162 22:24 16.09.2021
5725 Clear 27 1019 36 10000 2.24 113 21:40 16.09.2021
5726 Clear 27 1019 36 10000 2.24 132 20:50 16.09.2021
5727 Clear 26 1020 37 10000 0.89 150 19:41 16.09.2021
5728 Clear 25 1021 38 10000 1.34 173 18:19 16.09.2021
5729 Clear 23 1021 46 10000 1.79 206 17:22 16.09.2021
5730 Clear 16 1020 72 10000 2.93 154 14:53 16.09.2021
5731 Clear 14 1019 69 10000 1.54 160 13:48 16.09.2021
5732 Clear 13 1019 61 10000 2.23 133 12:47 16.09.2021
5733 Clear 13 1018 59 10000 2.39 133 12:27 16.09.2021
5734 Clear 14 1018 69 10000 1.54 150 11:25 16.09.2021
5735 Clear 15 1018 76 10000 1.54 160 10:31 16.09.2021
5736 Clear 15 1018 75 10000 1.54 160 10:30 16.09.2021
5737 Clear 15 1018 76 10000 1.54 160 10:30 16.09.2021
5738 Clear 15 1019 72 10000 0 0 09:53 16.09.2021
5739 Clear 15 1019 67 10000 0 0 08:41 16.09.2021
5740 Clear 16 1019 71 10000 2.57 140 07:22 16.09.2021
5741 Clear 17 1019 67 10000 2.06 120 06:39 16.09.2021
5742 Clear 19 1021 61 10000 0.89 134 04:31 16.09.2021
5743 Clear 22 1019 53 10000 2.68 104 00:59 16.09.2021
5744 Clouds 24 1018 47 10000 2.24 67 23:32 15.09.2021
5745 Clouds 24 1018 48 10000 0.89 133 23:32 15.09.2021
5746 Clouds 24 1017 45 10000 2.24 78 22:45 15.09.2021
5747 Clouds 24 1018 42 10000 2.24 75 21:37 15.09.2021
5748 Clear 24 1019 39 10000 2.24 68 20:54 15.09.2021
5749 Clouds 24 1018 36 10000 1.79 52 19:35 15.09.2021
5750 Clear 24 1019 39 10000 2.24 65 18:59 15.09.2021
5751 Clouds 22 1018 45 10000 1.34 15 17:46 15.09.2021
5752 Clouds 20 1018 59 10000 1.34 11 16:44 15.09.2021
5753 Clouds 17 1017 74 10000 2.24 14 15:29 15.09.2021
5754 Clouds 15 1017 80 10000 2.06 290 14:44 15.09.2021
5755 Clouds 14 1015 83 10000 2.06 300 13:51 15.09.2021
5756 Clouds 15 1015 81 10000 2.06 300 13:29 15.09.2021
5757 Clouds 15 1014 80 10000 1.54 300 12:34 15.09.2021
5758 Clouds 16 1015 79 10000 0.89 337 11:51 15.09.2021
5759 Clouds 16 1016 78 10000 4.21 330 10:58 15.09.2021
5760 Clouds 17 1016 75 10000 4.21 330 10:35 15.09.2021
5761 Clouds 18 1015 71 10000 1.54 320 09:23 15.09.2021
5762 Clouds 19 1015 67 10000 2.68 347 07:30 15.09.2021
5763 Clouds 19 1015 67 10000 2.68 347 07:30 15.09.2021
5764 Clouds 21 1011 60 10000 3.13 335 02:50 15.09.2021
5765 Clouds 29 1009 51 10000 2.68 255 22:36 14.09.2021
5766 Clouds 29 1009 53 10000 4.02 266 21:34 14.09.2021
5767 Clouds 29 1009 53 10000 3.58 284 20:25 14.09.2021
5768 Clouds 29 1009 54 10000 2.68 236 19:41 14.09.2021
5769 Clouds 27 1010 62 10000 2.24 253 17:34 14.09.2021
5770 Clouds 26 1011 67 10000 1.79 250 16:49 14.09.2021
5771 Clouds 24 1010 75 10000 1.79 244 15:25 14.09.2021
5772 Clouds 23 1010 79 10000 0.89 203 14:19 14.09.2021
5773 Clouds 23 1011 76 10000 1.34 225 11:48 14.09.2021
5774 Clouds 23 1012 72 10000 2.68 252 10:47 14.09.2021
5775 Clouds 23 1013 71 10000 1.34 224 09:49 14.09.2021
5776 Clouds 22 1014 67 10000 3.6 170 07:58 14.09.2021
5777 Clouds 24 1016 82 10000 1.79 79 02:55 14.09.2021
5778 Clouds 30 1015 51 10000 1.34 220 23:34 13.09.2021
5779 Clouds 30 1015 54 10000 0.89 35 22:28 13.09.2021
5780 Clouds 30 1016 54 10000 1.79 67 21:56 13.09.2021
5781 Clouds 30 1016 56 10000 3.13 73 21:33 13.09.2021
5782 Clouds 28 1017 61 10000 0.45 283 19:41 13.09.2021
5783 Clouds 27 1018 63 10000 0.89 247 18:45 13.09.2021
5784 Clouds 25 1018 69 10000 1.34 279 17:38 13.09.2021
5785 Clouds 23 1019 74 10000 4.12 200 16:49 13.09.2021
5786 Clouds 21 1018 84 10000 0 0 14:45 13.09.2021
5787 Clouds 20 1020 87 10000 1.34 87 11:44 13.09.2021
5788 Clouds 20 1019 87 10000 2.47 52 10:50 13.09.2021
5789 Clouds 21 1020 84 10000 1.63 68 08:41 13.09.2021
5790 Clouds 29 1014 56 10000 6.17 240 00:38 13.09.2021
5791 Clouds 30 1015 48 10000 3.13 273 22:51 12.09.2021
5792 Clouds 31 1015 46 10000 1.79 295 22:22 12.09.2021
5793 Clouds 30 1016 48 10000 4.29 240 20:57 12.09.2021
5794 Clouds 30 1016 49 10000 1.79 272 20:19 12.09.2021
5795 Clouds 29 1015 51 10000 3.13 292 19:36 12.09.2021
5796 Clouds 29 1015 53 10000 0.89 222 19:18 12.09.2021
5797 Clouds 27 1016 58 10000 2.68 266 17:50 12.09.2021
5798 Clouds 23 1015 68 10000 2.24 275 15:56 12.09.2021
5799 Clouds 22 1014 72 10000 5.66 230 14:47 12.09.2021
5800 Clouds 22 1014 73 10000 0.89 253 12:42 12.09.2021
5801 Clouds 22 1014 73 10000 1.34 224 10:30 12.09.2021
5802 Clouds 23 1015 71 10000 4.63 200 08:39 12.09.2021
5803 Clouds 24 1015 68 10000 3.09 190 07:30 12.09.2021
5804 Clouds 30 1013 53 10000 1.34 241 00:47 12.09.2021
5805 Clouds 30 1013 54 10000 1.79 271 22:39 11.09.2021
5806 Clouds 30 1013 53 10000 1.79 208 21:39 11.09.2021
5807 Clear 27 1014 56 10000 1.34 247 19:39 11.09.2021
5808 Clouds 24 1016 62 10000 0.89 215 17:57 11.09.2021
5809 Clear 23 1015 63 10000 0.45 257 17:28 11.09.2021
5810 Clouds 20 1015 71 10000 0.45 222 15:36 11.09.2021
5811 Clouds 18 1015 73 10000 3.6 200 13:23 11.09.2021
5812 Clouds 19 1015 68 10000 1.79 220 11:42 11.09.2021
5813 Clouds 19 1016 67 10000 3.6 190 10:27 11.09.2021
5814 Clouds 19 1017 63 10000 0.89 207 08:51 11.09.2021
5815 Clouds 20 1017 60 10000 4.12 190 07:43 11.09.2021
5816 Clear 21 1018 55 10000 4.42 189 04:23 11.09.2021
5817 Clouds 27 1017 37 10000 3.6 190 22:37 10.09.2021
5818 Clear 26 1019 38 10000 1.79 188 21:57 10.09.2021
5819 Clouds 26 1018 38 10000 1.79 228 21:36 10.09.2021
5820 Clouds 25 1019 40 10000 0.45 264 19:30 10.09.2021
5821 Clouds 25 1019 40 10000 0.45 264 19:30 10.09.2021
5822 Clouds 24 1020 49 10000 1.79 261 17:56 10.09.2021
5823 Clouds 20 1020 60 10000 2.06 240 16:27 10.09.2021
5824 Clouds 14 1019 69 10000 2.06 210 13:26 10.09.2021
5825 Clouds 16 1019 69 10000 2.57 200 10:32 10.09.2021
5826 Clouds 17 1019 66 10000 2.57 200 07:52 10.09.2021
5827 Clouds 17 1019 65 10000 2.06 170 06:37 10.09.2021
5828 Clouds 23 1017 48 10000 1.79 107 00:24 10.09.2021
5829 Clouds 24 1017 42 10000 2.24 70 21:49 09.09.2021
5830 Clouds 24 1017 44 10000 2.24 89 20:48 09.09.2021
5831 Clouds 24 1017 42 10000 2.68 120 20:26 09.09.2021
5832 Clouds 23 1018 48 10000 2.68 37 18:41 09.09.2021
5833 Clouds 22 1018 51 10000 2.06 320 17:47 09.09.2021
5834 Clouds 19 1017 64 10000 0.89 22 16:28 09.09.2021
5835 Clouds 16 1017 71 10000 1.34 352 15:24 09.09.2021
5836 Clear 14 1015 74 10000 0.89 14 12:23 09.09.2021
5837 Clear 15 1015 73 10000 1.34 345 11:22 09.09.2021
5838 Clear 15 1015 73 10000 1.34 345 11:22 09.09.2021
5839 Clear 15 1014 69 10000 2.06 310 09:35 09.09.2021
5840 Clouds 17 1014 60 10000 2.68 333 07:43 09.09.2021
5841 Clouds 19 1014 56 10000 2.24 333 05:40 09.09.2021
5842 Clouds 24 1011 41 10000 4.02 324 23:54 08.09.2021
5843 Clouds 26 1009 32 10000 4.02 331 21:47 08.09.2021
5844 Clouds 26 1009 34 10000 4.02 295 20:48 08.09.2021
5845 Clouds 25 1010 35 10000 2.68 313 19:46 08.09.2021
5846 Clear 24 1010 37 10000 2.24 309 18:47 08.09.2021
5847 Clear 23 1011 41 10000 3.13 287 17:59 08.09.2021
5848 Clear 23 1011 42 10000 2.68 265 17:39 08.09.2021
5849 Clear 17 1010 68 10000 0.89 322 15:21 08.09.2021
5850 Clear 14 1009 74 10000 2.57 260 13:28 08.09.2021
5851 Clear 15 1008 73 10000 3.84 300 12:41 08.09.2021
5852 Clear 15 1009 70 10000 3.09 300 12:22 08.09.2021
5853 Clear 16 1009 71 10000 2.57 280 11:23 08.09.2021
5854 Clear 16 1009 69 10000 3.6 280 10:29 08.09.2021
5855 Clear 17 1009 70 10000 2.06 270 09:37 08.09.2021
5856 Clouds 18 1009 70 10000 2.06 290 07:44 08.09.2021
5857 Clouds 19 1009 71 10000 2.06 270 06:40 08.09.2021
5858 Thunderstorm 23 1004 78 9656 2.57 350 23:18 07.09.2021
5859 Rain 29 1004 50 10000 7.2 220 22:19 07.09.2021
5860 Clouds 31 1005 43 10000 1.34 315 20:40 07.09.2021
5861 Clouds 29 1007 49 10000 2.68 228 18:52 07.09.2021
5862 Clouds 28 1007 48 10000 2.24 241 18:24 07.09.2021
5863 Clouds 26 1008 55 10000 1.34 225 17:22 07.09.2021
5864 Clouds 23 1010 66 10000 0.89 226 15:56 07.09.2021
5865 Clouds 21 1010 73 10000 1.34 228 14:47 07.09.2021
5866 Clouds 20 1011 78 10000 0.89 236 13:50 07.09.2021
5867 Clear 19 1009 76 10000 4.13 200 11:58 07.09.2021
5868 Clear 19 1011 67 10000 3.09 190 10:45 07.09.2021
5869 Clear 19 1012 63 10000 0.45 221 09:40 07.09.2021
5870 Clear 19 1013 62 10000 0.89 204 07:46 07.09.2021
5871 Clear 19 1014 65 10000 2.57 150 06:19 07.09.2021
5872 Clear 22 1013 62 10000 0.89 165 02:38 07.09.2021
5873 Clouds 24 1014 53 10000 1.34 144 00:55 07.09.2021
5874 Clouds 26 1014 47 10000 2.24 126 23:46 06.09.2021
5875 Clouds 26 1014 47 10000 1.34 148 23:28 06.09.2021
5876 Clouds 26 1014 47 10000 2.68 106 22:49 06.09.2021
5877 Clouds 27 1014 46 10000 2.68 89 21:52 06.09.2021
5878 Clouds 26 1015 43 10000 2.68 91 20:34 06.09.2021
5879 Clouds 26 1016 47 10000 2.24 78 19:18 06.09.2021
5880 Clouds 25 1016 47 10000 2.68 45 18:33 06.09.2021
5881 Clouds 24 1016 48 10000 1.79 80 17:50 06.09.2021
5882 Clouds 21 1016 61 10000 0.89 11 16:20 06.09.2021
5883 Clouds 22 1016 60 10000 0 0 16:20 06.09.2021
5884 Clouds 22 1016 60 10000 0 0 16:20 06.09.2021
5885 Clear 18 1016 72 10000 2.28 310 14:59 06.09.2021
5886 Clouds 16 1013 75 10000 2.61 286 12:49 06.09.2021
5887 Clouds 17 1015 70 10000 2.37 288 11:52 06.09.2021
5888 Clouds 19 1014 63 10000 0.89 331 10:19 06.09.2021
5889 Clouds 21 1013 51 10000 1.34 265 07:35 06.09.2021
5890 Clouds 24 1013 39 10000 1.34 277 02:54 06.09.2021
5891 Clouds 28 1012 34 10000 3.58 315 23:20 05.09.2021
5892 Clouds 28 1012 33 10000 3.58 292 22:32 05.09.2021
5893 Clear 28 1013 34 10000 2.24 312 21:55 05.09.2021
5894 Clouds 27 1013 33 10000 2.24 331 21:19 05.09.2021
5895 Clouds 26 1014 35 10000 2.68 347 19:30 05.09.2021
5896 Clouds 24 1014 46 10000 0.89 295 17:51 05.09.2021
5897 Clouds 18 1013 71 10000 1.34 290 15:43 05.09.2021
5898 Clouds 17 1013 75 10000 0.45 285 15:19 05.09.2021
5899 Clear 15 1012 86 10000 2.57 250 12:44 05.09.2021
5900 Clear 15 1013 88 10000 3.46 285 11:31 05.09.2021
5901 Clear 16 1012 85 10000 0 0 10:36 05.09.2021
5902 Clear 16 1014 85 10000 3.3 299 09:33 05.09.2021
5903 Clear 17 1013 82 10000 0.89 312 08:28 05.09.2021
5904 Clouds 21 1013 81 10000 1.79 349 03:22 05.09.2021
5905 Clouds 23 1011 74 10000 1.34 288 00:37 05.09.2021
5906 Clouds 23 1012 75 10000 0.45 292 23:54 04.09.2021
5907 Clouds 23 1011 74 10000 0.45 232 23:21 04.09.2021
5908 Clouds 23 1011 73 10000 3.6 230 22:34 04.09.2021
5909 Clouds 23 1012 69 10000 2.24 265 20:21 04.09.2021
5910 Clouds 23 1012 69 10000 1.79 228 19:33 04.09.2021
5911 Clouds 21 1013 71 10000 2.24 225 17:21 04.09.2021
5912 Clouds 19 1014 75 10000 0.45 196 14:29 04.09.2021
5913 Clouds 20 1015 63 10000 0.89 226 11:22 04.09.2021
5914 Clouds 21 1015 63 10000 1.79 220 10:27 04.09.2021
5915 Clouds 21 1017 62 10000 3.6 140 07:32 04.09.2021
5916 Clouds 23 1017 59 10000 1.34 186 00:49 04.09.2021
5917 Clouds 22 1017 61 10000 1.34 146 23:39 03.09.2021
5918 Clouds 22 1017 63 10000 0.45 202 23:19 03.09.2021
5919 Rain 22 1020 62 10000 0.89 202 21:41 03.09.2021
5920 Rain 23 1021 55 10000 0.89 230 20:54 03.09.2021
5921 Clouds 23 1020 51 10000 1.34 217 20:19 03.09.2021
5922 Clouds 24 1020 49 10000 1.79 220 19:33 03.09.2021
5923 Clouds 24 1020 47 10000 1.34 231 18:20 03.09.2021
5924 Clouds 22 1020 51 10000 1.34 206 16:46 03.09.2021
5925 Clouds 20 1021 55 10000 0.45 221 15:38 03.09.2021
5926 Clouds 17 1020 72 10000 2.97 161 13:24 03.09.2021
5927 Clouds 18 1019 71 10000 2.06 140 10:45 03.09.2021
5928 Clouds 18 1019 70 10000 2.06 150 09:20 03.09.2021
5929 Clouds 19 1019 72 10000 2.77 129 07:54 03.09.2021
5930 Clouds 20 1021 66 10000 2.88 119 06:26 03.09.2021
5931 Clouds 24 1022 49 10000 2.24 124 23:56 02.09.2021
5932 Clouds 25 1021 45 10000 1.79 93 21:49 02.09.2021
5933 Clouds 25 1021 45 10000 0.45 72 20:25 02.09.2021
5934 Clouds 23 1022 53 10000 2.06 180 17:33 02.09.2021
5935 Clouds 22 1021 60 10000 1.79 161 16:20 02.09.2021
5936 Clouds 20 1020 65 10000 2.06 170 15:29 02.09.2021
5937 Clouds 16 1019 83 10000 1.82 100 13:23 02.09.2021
5938 Clouds 16 1019 79 10000 1.54 310 11:41 02.09.2021
5939 Clouds 17 1018 78 10000 1.54 310 10:52 02.09.2021
5940 Clouds 17 1017 72 10000 2.57 310 08:49 02.09.2021
5941 Clouds 18 1018 71 10000 3.09 320 07:22 02.09.2021
5942 Clear 19 1018 66 10000 3.09 10 05:31 02.09.2021
5943 Clear 19 1018 66 10000 3.09 10 05:31 02.09.2021
5944 Clear 21 1018 60 10000 2.68 34 02:35 02.09.2021
5945 Clouds 22 1017 53 10000 4.47 26 01:36 02.09.2021
5946 Clouds 24 1017 49 10000 3.13 22 23:40 01.09.2021
5947 Clouds 24 1016 52 10000 4.47 67 22:42 01.09.2021
5948 Clouds 24 1016 50 10000 1.34 56 21:41 01.09.2021
5949 Clouds 24 1016 49 10000 4.02 105 20:54 01.09.2021
5950 Clouds 24 1016 52 10000 2.68 109 19:24 01.09.2021
5951 Clouds 23 1016 55 10000 4.92 78 17:51 01.09.2021
5952 Clear 23 1017 58 10000 3.13 124 16:55 01.09.2021
5953 Clouds 23 1016 59 10000 1.79 85 16:33 01.09.2021
5954 Clouds 20 1014 67 10000 2.24 75 13:57 01.09.2021
5955 Clouds 21 1012 62 10000 4.02 88 11:47 01.09.2021
5956 Clouds 21 1012 62 10000 1.34 95 11:47 01.09.2021
5957 Clouds 22 1012 64 10000 3.13 91 09:35 01.09.2021
5958 Clouds 22 1012 64 10000 1.79 87 07:58 01.09.2021
5959 Clouds 23 1011 66 10000 4.02 85 06:42 01.09.2021
5960 Clouds 27 1010 49 10000 7.2 70 23:29 31.08.2021
5961 Clouds 27 1011 49 10000 3.13 77 21:45 31.08.2021
5962 Clouds 27 1012 47 10000 1.79 67 19:49 31.08.2021
5963 Clouds 27 1013 49 10000 2.68 88 18:56 31.08.2021
5964 Clouds 26 1012 50 10000 1.79 70 17:39 31.08.2021
5965 Clouds 26 1012 50 10000 0.89 70 17:21 31.08.2021
5966 Clouds 24 1013 52 10000 2.57 120 16:28 31.08.2021
5967 Clear 20 1011 73 10000 1.3 96 14:57 31.08.2021
5968 Clouds 18 1011 78 10000 0.77 8 11:41 31.08.2021
5969 Clouds 18 1011 78 10000 0.55 18 11:18 31.08.2021
5970 Clouds 18 1011 73 10000 0.11 134 10:22 31.08.2021
5971 Clouds 19 1011 70 10000 0.11 134 09:40 31.08.2021
5972 Clouds 20 1012 74 10000 1.69 130 07:39 31.08.2021
5973 Clouds 22 1013 66 10000 2.06 80 05:56 31.08.2021
5974 Clouds 28 1014 47 10000 1.79 153 23:36 30.08.2021
5975 Clouds 28 1014 45 10000 1.79 136 22:30 30.08.2021
5976 Clouds 28 1014 44 10000 2.68 99 21:35 30.08.2021
5977 Clouds 28 1015 44 10000 3.58 98 20:35 30.08.2021
5978 Clouds 28 1016 44 10000 1.34 159 19:32 30.08.2021
5979 Clouds 27 1017 46 10000 1.34 86 18:58 30.08.2021
5980 Clouds 26 1016 49 10000 0.89 67 17:49 30.08.2021
5981 Clouds 24 1017 58 10000 1.79 360 16:26 30.08.2021
5982 Clouds 22 1017 66 10000 1.34 17 15:40 30.08.2021
5983 Clouds 19 1015 84 10000 3.3 329 13:51 30.08.2021
5984 Clouds 19 1015 82 10000 3.25 324 12:49 30.08.2021
5985 Clouds 21 1017 76 10000 1.34 333 10:42 30.08.2021
5986 Clouds 26 1015 70 10000 1.79 287 03:24 30.08.2021
5987 Clouds 31 1015 54 10000 3.13 267 21:33 29.08.2021
5988 Clouds 31 1015 56 10000 2.24 271 20:45 29.08.2021
5989 Clouds 30 1015 60 10000 1.79 252 19:26 29.08.2021
5990 Clouds 28 1017 69 10000 0.89 220 17:58 29.08.2021
5991 Clouds 26 1018 70 10000 4.02 266 15:50 29.08.2021
5992 Clouds 25 1017 79 10000 3.6 200 14:27 29.08.2021
5993 Clouds 24 1018 79 10000 3.6 200 13:47 29.08.2021
5994 Clear 24 1018 78 10000 0.89 228 12:42 29.08.2021
5995 Clear 24 1019 78 10000 3.84 215 11:53 29.08.2021
5996 Clear 25 1018 76 10000 1.34 221 11:28 29.08.2021
5997 Clear 25 1019 75 10000 3.6 230 10:46 29.08.2021
5998 Clear 25 1019 74 10000 3.6 230 10:27 29.08.2021
5999 Clouds 26 1019 71 10000 3.09 230 09:21 29.08.2021
6000 Clouds 30 1016 64 10000 4.29 197 02:37 29.08.2021
6001 Clouds 33 1018 54 10000 1.79 229 22:25 28.08.2021
6002 Clouds 33 1019 53 10000 0.89 225 20:30 28.08.2021
6003 Clouds 31 1019 60 10000 0.89 263 18:51 28.08.2021
6004 Clouds 30 1019 62 10000 0.89 229 18:21 28.08.2021
6005 Clouds 29 1019 67 10000 0.45 268 17:27 28.08.2021
6006 Clouds 26 1020 75 10000 1.34 254 15:57 28.08.2021
6007 Clouds 24 1019 79 10000 2.24 220 14:42 28.08.2021
6008 Clouds 24 1019 80 10000 4.12 200 13:46 28.08.2021
6009 Clear 24 1019 78 10000 2.57 200 12:45 28.08.2021
6010 Clear 24 1019 77 10000 0.89 210 11:57 28.08.2021
6011 Clear 25 1019 76 10000 0.45 225 10:43 28.08.2021
6012 Clear 26 1018 75 10000 0.45 231 09:32 28.08.2021
6013 Clouds 27 1017 73 10000 1.79 218 07:25 28.08.2021
6014 Clouds 33 1017 56 10000 2.24 149 22:48 27.08.2021
6015 Clouds 33 1018 54 10000 0.89 202 21:24 27.08.2021
6016 Clouds 32 1018 53 10000 1.34 126 20:33 27.08.2021
6017 Clouds 31 1018 54 10000 3.09 190 19:26 27.08.2021
6018 Clouds 30 1018 56 10000 1.54 0 18:38 27.08.2021
6019 Clouds 28 1019 62 10000 0.89 198 17:27 27.08.2021
6020 Clouds 25 1019 70 10000 0.45 307 15:57 27.08.2021
6021 Clouds 23 1019 78 10000 0.45 236 14:44 27.08.2021
6022 Clouds 22 1017 82 10000 2.06 250 12:55 27.08.2021
6023 Clouds 23 1018 80 10000 4.12 180 11:37 27.08.2021
6024 Clear 23 1017 81 10000 1.79 202 10:44 27.08.2021
6025 Clouds 24 1018 82 10000 3.09 170 09:47 27.08.2021
6026 Clouds 24 1020 80 10000 2.57 240 08:48 27.08.2021
6027 Clear 25 1021 78 10000 0.85 178 06:58 27.08.2021
6028 Clouds 26 1019 78 10000 4.12 170 05:28 27.08.2021
6029 Thunderstorm 30 1020 66 10000 0.89 129 00:36 27.08.2021
6030 Thunderstorm 31 1020 61 10000 1.79 168 23:19 26.08.2021
6031 Clouds 31 1020 57 10000 1.34 131 22:19 26.08.2021
6032 Clouds 31 1020 57 10000 1.34 131 22:19 26.08.2021
6033 Clouds 31 1021 53 10000 1.34 188 20:44 26.08.2021
6034 Clear 29 1022 56 10000 2.69 102 18:53 26.08.2021
6035 Clouds 28 1022 62 10000 1.34 202 17:45 26.08.2021
6036 Clouds 26 1022 68 10000 0.89 287 16:35 26.08.2021
6037 Clear 24 1023 74 10000 1.26 85 15:55 26.08.2021
6038 Clouds 21 1020 83 10000 0.78 15 13:48 26.08.2021
6039 Clouds 21 1020 87 10000 2.06 260 12:55 26.08.2021
6040 Clouds 21 1020 86 10000 2.06 260 12:30 26.08.2021
6041 Clouds 22 1021 92 10000 1.4 287 10:21 26.08.2021
6042 Clouds 22 1021 86 10000 3.6 120 08:34 26.08.2021
6043 Thunderstorm 22 1022 80 10000 5.14 230 06:18 26.08.2021
6044 Clouds 33 1019 56 10000 1.34 101 22:54 25.08.2021
6045 Clouds 33 1018 55 10000 0.45 152 22:35 25.08.2021
6046 Clouds 33 1018 54 10000 1.34 100 21:42 25.08.2021
6047 Clouds 33 1018 54 10000 1.34 4 20:48 25.08.2021
6048 Clouds 32 1019 55 10000 0.89 358 20:28 25.08.2021
6049 Clouds 30 1019 62 10000 1.79 259 18:42 25.08.2021
6050 Clouds 28 1019 66 10000 1.79 313 17:36 25.08.2021
6051 Clouds 25 1018 76 10000 3.6 220 15:44 25.08.2021
6052 Clouds 22 1017 87 10000 2.57 210 14:48 25.08.2021
6053 Clouds 22 1017 89 10000 2.57 210 14:29 25.08.2021
6054 Clouds 21 1016 91 10000 3.54 181 12:56 25.08.2021
6055 Clouds 22 1015 90 10000 3.86 197 11:26 25.08.2021
6056 Clouds 22 1019 90 10000 3.86 197 10:43 25.08.2021
6057 Clouds 22 1019 88 10000 4.89 192 09:55 25.08.2021
6058 Clouds 22 1016 88 10000 3.09 180 08:50 25.08.2021
6059 Clouds 22 1016 87 10000 3.09 180 08:29 25.08.2021
6060 Thunderstorm 23 1015 83 10000 4.12 360 03:53 25.08.2021
6061 Clouds 34 1014 49 10000 6.17 230 23:44 24.08.2021
6062 Clouds 35 1015 49 10000 7.72 230 21:49 24.08.2021
6063 Clouds 34 1015 50 10000 1.34 269 20:48 24.08.2021
6064 Clouds 33 1015 53 10000 1.34 216 19:52 24.08.2021
6065 Clear 30 1015 56 10000 3.08 204 17:58 24.08.2021
6066 Clear 30 1016 57 10000 0.89 303 17:58 24.08.2021
6067 Clear 30 1016 57 10000 0.89 303 17:58 24.08.2021
6068 Clear 30 1016 57 10000 0.89 303 17:58 24.08.2021
6069 Clouds 29 1016 62 10000 3.09 220 17:28 24.08.2021
6070 Clear 29 1017 64 10000 2.97 220 16:56 24.08.2021
6071 Clouds 24 1015 80 10000 2.06 240 14:29 24.08.2021
6072 Clouds 23 1015 85 10000 3.09 220 13:25 24.08.2021
6073 Clouds 24 1016 84 10000 3.09 210 11:46 24.08.2021
6074 Clouds 24 1016 84 10000 2.26 225 10:48 24.08.2021
6075 Clouds 24 1016 83 10000 2.62 217 10:26 24.08.2021
6076 Clouds 25 1016 79 10000 3.09 210 08:50 24.08.2021
6077 Clouds 26 1015 75 10000 2.57 200 06:51 24.08.2021
6078 Clear 27 1016 68 10000 2.98 206 04:54 24.08.2021
6079 Clouds 30 1015 54 10000 3.6 190 00:47 24.08.2021
6080 Clouds 30 1015 50 10000 0.89 274 22:52 23.08.2021
6081 Clouds 30 1015 51 10000 0.89 243 22:21 23.08.2021
6082 Clouds 29 1014 48 10000 0.45 204 20:31 23.08.2021
6083 Clouds 28 1016 53 10000 4.12 280 19:19 23.08.2021
6084 Clouds 25 1017 68 10000 0.89 208 16:39 23.08.2021
6085 Clouds 20 1015 88 10000 1.74 202 14:46 23.08.2021
6086 Clouds 18 1015 90 10000 1.06 215 12:57 23.08.2021
6087 Clouds 18 1015 90 10000 0.52 213 11:49 23.08.2021
6088 Clear 19 1015 88 10000 0.33 271 10:38 23.08.2021
6089 Clear 19 1015 87 10000 0.32 216 09:41 23.08.2021
6090 Clear 19 1015 85 10000 0.51 143 08:33 23.08.2021
6091 Clear 21 1017 81 10000 0.98 40 06:50 23.08.2021
6092 Clear 21 1017 80 10000 1.34 86 06:21 23.08.2021
6093 Clouds 25 1016 68 10000 3.13 50 00:52 23.08.2021
6094 Clouds 27 1016 64 10000 3.13 66 22:45 22.08.2021
6095 Clouds 27 1017 62 10000 3.13 60 22:26 22.08.2021
6096 Clouds 27 1017 64 10000 3.13 72 20:22 22.08.2021
6097 Clouds 27 1017 64 10000 2.68 81 19:35 22.08.2021
6098 Clouds 24 1017 73 10000 2.24 34 16:48 22.08.2021
6099 Clouds 22 1017 75 10000 1.79 28 15:22 22.08.2021
6100 Clouds 21 1016 74 10000 2.68 33 14:37 22.08.2021
6101 Clouds 21 1016 72 10000 1.79 360 13:21 22.08.2021
6102 Clouds 22 1016 71 10000 1.34 345 12:51 22.08.2021
6103 Clouds 22 1016 72 10000 1.79 23 12:25 22.08.2021
6104 Clouds 22 1015 71 10000 3.13 6 11:42 22.08.2021
6105 Clouds 23 1013 73 10000 4.76 347 10:22 22.08.2021
6106 Clouds 24 1014 85 10000 2.57 310 08:19 22.08.2021
6107 Clear 25 1013 83 10000 1.93 235 04:56 22.08.2021
6108 Clouds 27 1012 76 10000 0.45 253 23:58 21.08.2021
6109 Clouds 28 1012 63 10000 6.71 318 22:34 21.08.2021
6110 Clouds 30 1012 56 10000 6.69 180 20:35 21.08.2021
6111 Clouds 30 1012 53 10000 1.79 211 18:39 21.08.2021
6112 Clouds 29 1012 56 10000 1.79 208 17:59 21.08.2021
6113 Clouds 28 1013 60 10000 2.24 201 16:54 21.08.2021
6114 Clouds 27 1012 63 10000 3.09 180 16:25 21.08.2021
6115 Clouds 26 1013 70 10000 2.57 170 15:35 21.08.2021
6116 Clouds 23 1012 77 10000 2.57 200 14:38 21.08.2021
6117 Clouds 23 1011 80 10000 3.6 200 13:29 21.08.2021
6118 Clouds 23 1011 79 10000 3.09 170 12:24 21.08.2021
6119 Clouds 23 1011 79 10000 3.09 176 09:29 21.08.2021
6120 Clear 24 1011 74 10000 2.98 168 05:41 21.08.2021
6121 Clear 31 1014 58 10000 0.45 215 22:56 20.08.2021
6122 Clouds 31 1014 54 10000 0.89 169 21:41 20.08.2021
6123 Clouds 29 1016 65 10000 0.45 113 17:47 20.08.2021
6124 Clear 25 1015 80 10000 2.38 134 15:57 20.08.2021
6125 Clear 21 1015 92 10000 1.25 143 13:36 20.08.2021
6126 Clear 21 1015 91 10000 1.67 147 11:37 20.08.2021
6127 Clear 21 1015 90 10000 1.58 136 10:43 20.08.2021
6128 Clear 22 1017 88 10000 1.6 132 09:40 20.08.2021
6129 Clear 22 1015 88 10000 2.09 133 08:41 20.08.2021
6130 Clear 23 1018 85 10000 2.22 103 06:59 20.08.2021
6131 Clear 25 1018 79 10000 1.34 74 04:22 20.08.2021
6132 Clouds 29 1017 59 10000 2.68 60 00:19 20.08.2021
6133 Clouds 30 1018 56 10000 1.79 88 23:18 19.08.2021
6134 Clouds 30 1018 59 10000 0.45 50 22:31 19.08.2021
6135 Clouds 28 1019 71 10000 0.45 34 20:32 19.08.2021
6136 Thunderstorm 28 1019 74 10000 1.34 105 19:35 19.08.2021
6137 Clouds 28 1020 67 10000 0.89 73 17:19 19.08.2021
6138 Clear 25 1019 80 10000 1.42 206 15:53 19.08.2021
6139 Clear 21 1018 91 10000 0.76 177 13:29 19.08.2021
6140 Clear 21 1018 90 10000 0.76 177 12:33 19.08.2021
6141 Clear 22 1020 90 10000 1.51 182 11:24 19.08.2021
6142 Clear 22 1018 89 10000 1.71 161 10:20 19.08.2021
6143 Clear 22 1020 88 10000 1.71 161 09:44 19.08.2021
6144 Clear 22 1020 87 10000 1.66 143 09:18 19.08.2021
6145 Clear 24 1021 83 10000 2.28 129 06:51 19.08.2021
6146 Clouds 27 1019 74 10000 0.89 66 02:22 19.08.2021
6147 Clouds 26 1019 74 10000 0.45 40 02:22 19.08.2021
6148 Clouds 27 1019 72 10000 2.68 87 01:48 19.08.2021
6149 Thunderstorm 28 1019 64 10000 2.68 95 22:55 18.08.2021
6150 Clouds 29 1020 61 10000 1.79 48 21:40 18.08.2021
6151 Clouds 28 1020 65 10000 2.68 102 20:31 18.08.2021
6152 Clouds 28 1020 67 10000 2.24 85 19:32 18.08.2021
6153 Clouds 28 1020 68 10000 2.68 91 18:47 18.08.2021
6154 Clouds 27 1020 72 10000 1.79 76 17:57 18.08.2021
6155 Clouds 24 1020 81 10000 2.24 77 15:46 18.08.2021
6156 Clouds 24 1020 82 10000 1.34 111 15:23 18.08.2021
6157 Clouds 22 1018 87 10000 1.54 40 14:49 18.08.2021
6158 Clouds 21 1019 89 10000 1.28 153 12:42 18.08.2021
6159 Clouds 21 1017 89 10000 1.5 157 12:24 18.08.2021
6160 Clouds 21 1016 86 10000 1.63 160 09:53 18.08.2021
6161 Clouds 22 1016 82 10000 1.68 119 07:42 18.08.2021
6162 Clouds 27 1016 63 10000 1.79 89 00:43 18.08.2021
6163 Clouds 28 1017 58 10000 2.24 85 22:29 17.08.2021
6164 Clouds 28 1018 59 10000 3.58 107 21:27 17.08.2021
6165 Clouds 27 1018 62 10000 5.14 100 20:44 17.08.2021
6166 Clouds 27 1019 63 10000 2.68 85 18:57 17.08.2021
6167 Clouds 26 1019 63 10000 1.79 120 17:33 17.08.2021
6168 Clouds 25 1019 67 10000 1.34 60 16:34 17.08.2021
6169 Clouds 23 1018 75 10000 0 0 15:36 17.08.2021
6170 Clouds 19 1018 84 10000 1.54 110 14:28 17.08.2021
6171 Clear 17 1016 84 10000 0.5 76 11:49 17.08.2021
6172 Clear 18 1016 83 10000 1.63 108 09:21 17.08.2021
6173 Clear 19 1016 78 10000 2.11 111 07:45 17.08.2021
6174 Clear 22 1018 60 10000 2.24 94 03:26 17.08.2021
6175 Clear 26 1020 44 10000 2.24 115 22:55 16.08.2021
6176 Clouds 26 1019 43 10000 2.68 70 22:37 16.08.2021
6177 Clear 26 1021 46 10000 3.66 71 21:54 16.08.2021
6178 Clouds 26 1020 45 10000 1.34 116 20:54 16.08.2021
6179 Clouds 26 1021 47 10000 6.17 80 19:45 16.08.2021
6180 Clouds 26 1021 46 10000 2.68 103 19:23 16.08.2021
6181 Clouds 25 1021 48 10000 2.24 70 18:24 16.08.2021
6182 Clouds 25 1021 48 10000 1.34 100 17:51 16.08.2021
6183 Clouds 21 1021 60 10000 1.79 129 15:40 16.08.2021
6184 Clouds 19 1020 70 10000 1.54 110 14:49 16.08.2021
6185 Clouds 16 1019 82 10000 2.23 112 13:37 16.08.2021
6186 Clouds 16 1021 80 10000 2.24 115 12:41 16.08.2021
6187 Clouds 17 1019 80 10000 2.06 134 10:37 16.08.2021
6188 Clouds 17 1019 82 10000 2.97 147 08:48 16.08.2021
6189 Clouds 18 1019 79 10000 3.27 128 07:34 16.08.2021
6190 Clouds 19 1020 75 10000 2.89 110 06:36 16.08.2021
6191 Clouds 23 1021 54 10000 2.68 78 02:22 16.08.2021
6192 Clouds 26 1023 43 10000 3.58 93 22:49 15.08.2021
6193 Clouds 26 1024 35 10000 2.24 146 20:41 15.08.2021
6194 Clouds 25 1026 38 10000 4.12 150 18:47 15.08.2021
6195 Clear 25 1027 41 10000 3.66 109 17:56 15.08.2021
6196 Clouds 24 1026 43 10000 1.34 172 17:33 15.08.2021
6197 Clouds 23 1026 50 10000 1.34 128 16:26 15.08.2021
6198 Clouds 18 1024 73 10000 0 0 14:48 15.08.2021
6199 Clear 15 1024 78 10000 2.33 143 13:55 15.08.2021
6200 Clear 15 1024 76 10000 0 0 11:30 15.08.2021
6201 Clear 15 1024 71 10000 3.14 141 09:26 15.08.2021
6202 Clouds 22 1025 46 10000 0.89 104 03:23 15.08.2021
6203 Clouds 25 1025 36 10000 2.68 79 00:38 15.08.2021
6204 Clouds 26 1026 36 10000 3.13 60 22:18 14.08.2021
6205 Clouds 26 1027 37 10000 2.68 78 20:58 14.08.2021
6206 Clouds 26 1027 40 10000 3.6 70 19:44 14.08.2021
6207 Clouds 25 1026 41 10000 2.68 112 18:56 14.08.2021
6208 Clouds 24 1026 49 10000 0.45 172 16:59 14.08.2021
6209 Clouds 23 1026 60 10000 0.89 146 15:52 14.08.2021
6210 Clouds 18 1024 72 10000 1.54 340 14:25 14.08.2021
6211 Clear 17 1023 75 10000 2.57 350 12:21 14.08.2021
6212 Clouds 18 1022 75 10000 3.48 18 10:48 14.08.2021
6213 Clouds 21 1022 58 10000 1.79 15 07:48 14.08.2021
6214 Clouds 26 1021 51 10000 2.07 55 23:53 13.08.2021
6215 Clouds 27 1020 53 10000 4.63 70 22:30 13.08.2021
6216 Clouds 27 1021 52 10000 2.57 60 21:40 13.08.2021
6217 Clouds 25 1020 48 10000 1.79 67 18:48 13.08.2021
6218 Clouds 24 1020 49 10000 1.34 30 17:55 13.08.2021
6219 Clouds 23 1012 54 10000 0.45 22 16:25 13.08.2021
6220 Clouds 22 1018 78 10000 0 0 13:30 13.08.2021
6221 Clouds 22 1017 84 10000 2.06 250 11:20 13.08.2021
6222 Clouds 22 1017 84 10000 2.06 250 09:49 13.08.2021
6223 Clouds 23 1016 81 10000 1.34 273 08:36 13.08.2021
6224 Clouds 23 1016 81 10000 0.45 284 07:20 13.08.2021
6225 Clouds 24 1016 78 10000 2.76 239 04:59 13.08.2021
6226 Clouds 26 1014 69 10000 8.75 230 23:37 12.08.2021
6227 Clouds 28 1014 71 10000 10.29 210 21:20 12.08.2021
6228 Clouds 29 1014 64 10000 6.69 230 20:22 12.08.2021
6229 Clouds 29 1014 62 10000 5.66 230 19:45 12.08.2021
6230 Clouds 27 1015 63 10000 4.12 230 17:51 12.08.2021
6231 Clouds 25 1015 69 10000 2.57 240 16:29 12.08.2021
6232 Clouds 25 1015 71 10000 2.57 240 16:29 12.08.2021
6233 Clouds 22 1014 75 10000 4.63 210 14:52 12.08.2021
6234 Clouds 23 1011 66 10000 2.2 257 12:59 12.08.2021
6235 Clouds 25 1011 59 10000 2.35 284 11:20 12.08.2021
6236 Clouds 28 1010 76 10000 1.79 280 07:57 12.08.2021
6237 Clouds 30 1009 64 10000 2.24 243 01:52 12.08.2021
6238 Clouds 30 1008 54 10000 7.94 222 22:54 11.08.2021
6239 Clouds 29 1011 49 10000 0.89 215 20:45 11.08.2021
6240 Thunderstorm 24 1013 53 10000 10.29 280 18:28 11.08.2021
6241 Clouds 26 1011 84 10000 6.17 210 15:39 11.08.2021
6242 Clouds 25 1011 86 10000 6.17 210 15:20 11.08.2021
6243 Clouds 24 1012 90 10000 4.63 190 14:22 11.08.2021
6244 Clouds 24 1012 90 10000 4.63 190 14:22 11.08.2021
6245 Clouds 23 1012 90 10000 0.89 225 12:31 11.08.2021
6246 Thunderstorm 23 1012 90 6437 2.57 170 11:46 11.08.2021
6247 Clouds 23 1013 90 10000 3.6 200 11:22 11.08.2021
6248 Clouds 22 1014 90 10000 4.11 223 09:59 11.08.2021
6249 Clouds 22 1014 90 10000 4.52 217 08:30 11.08.2021
6250 Clouds 34 1010 58 10000 2.68 193 23:42 10.08.2021
6251 Clouds 34 1011 56 10000 1.34 258 22:32 10.08.2021
6252 Clouds 34 1012 57 10000 5.66 240 21:33 10.08.2021
6253 Clouds 33 1013 60 10000 0.89 292 20:35 10.08.2021
6254 Clouds 30 1014 71 10000 0.89 225 18:39 10.08.2021
6255 Clouds 27 1013 75 10000 1.54 210 16:41 10.08.2021
6256 Clouds 25 1013 84 10000 2.57 190 15:21 10.08.2021
6257 Clouds 22 1012 91 10000 2.02 256 12:49 10.08.2021
6258 Clouds 23 1011 87 10000 2.41 275 10:47 10.08.2021
6259 Clouds 25 1012 88 10000 2.57 310 06:57 10.08.2021
6260 Clouds 25 1011 86 10000 5.14 250 04:58 10.08.2021
6261 Clouds 27 1010 74 10000 3.58 230 23:44 09.08.2021
6262 Clouds 26 1011 71 10000 1.34 202 21:55 09.08.2021
6263 Clouds 26 1011 69 10000 1.79 247 21:37 09.08.2021
6264 Clouds 26 1012 69 10000 3.58 232 19:50 09.08.2021
6265 Clouds 23 1013 88 10000 0.89 217 17:54 09.08.2021
6266 Clouds 23 1012 81 10000 2.68 209 15:35 09.08.2021
6267 Clouds 22 1013 82 10000 5.66 200 14:25 09.08.2021
6268 Clouds 21 1012 81 10000 0.89 218 13:28 09.08.2021
6269 Clouds 22 1013 79 10000 5.14 180 11:47 09.08.2021
6270 Clouds 22 1013 83 10000 3.09 210 08:34 09.08.2021
6271 Rain 23 1013 76 10000 1.79 219 03:37 09.08.2021
6272 Clouds 32 1012 50 10000 1.79 227 21:28 08.08.2021
6273 Clouds 31 1013 53 10000 2.24 225 19:51 08.08.2021
6274 Clouds 27 1014 65 10000 1.79 202 16:55 08.08.2021
6275 Clouds 25 1014 74 10000 4.63 190 15:42 08.08.2021
6276 Clouds 23 1012 78 10000 3.09 190 13:53 08.08.2021
6277 Clouds 24 1014 77 10000 4.12 220 11:41 08.08.2021
6278 Clouds 26 1014 70 10000 6.69 200 08:21 08.08.2021
6279 Clouds 26 1013 61 10000 5.66 190 06:40 08.08.2021
6280 Clouds 29 1014 61 10000 4.63 210 00:34 08.08.2021
6281 Clouds 30 1014 62 10000 5.66 220 23:18 07.08.2021
6282 Clouds 31 1015 56 10000 0.89 238 21:41 07.08.2021
6283 Clouds 30 1015 57 10000 0.89 281 20:55 07.08.2021
6284 Clouds 27 1016 70 10000 0.45 301 17:46 07.08.2021
6285 Clouds 26 1016 75 10000 3.09 190 16:50 07.08.2021
6286 Clouds 22 1016 89 10000 2.57 200 14:56 07.08.2021
6287 Clouds 20 1015 90 10000 3.6 200 13:33 07.08.2021
6288 Clouds 20 1015 90 10000 3.6 200 13:33 07.08.2021
6289 Clouds 19 1017 91 10000 2.54 231 10:25 07.08.2021
6290 Thunderstorm 20 1016 85 10000 1.54 40 06:31 07.08.2021
6291 Clouds 27 1015 62 10000 2.68 285 01:50 07.08.2021
6292 Clouds 27 1015 62 10000 2.68 285 01:50 07.08.2021
6293 Clouds 27 1016 63 10000 0.89 237 21:38 06.08.2021
6294 Mist 26 1016 68 9656 0.45 229 20:33 06.08.2021
6295 Clouds 27 1016 62 10000 2.24 269 19:56 06.08.2021
6296 Clouds 26 1016 63 10000 0.45 234 18:32 06.08.2021
6297 Clouds 26 1016 63 10000 0.45 234 18:32 06.08.2021
6298 Clouds 26 1017 63 10000 6.69 230 18:32 06.08.2021
6299 Clouds 26 1016 63 10000 0.45 234 18:32 06.08.2021
6300 Clouds 26 1017 63 10000 6.69 230 18:32 06.08.2021
6301 Clouds 23 1017 63 10000 2.24 239 15:48 06.08.2021
6302 Clouds 23 1017 64 10000 1.34 221 10:51 06.08.2021
6303 Clouds 23 1017 63 10000 0.45 246 09:56 06.08.2021
6304 Clouds 24 1018 55 10000 1.34 223 07:32 06.08.2021
6305 Clouds 29 1018 36 10000 6.17 190 23:33 05.08.2021
6306 Clouds 29 1019 34 10000 3.09 220 21:32 05.08.2021
6307 Clouds 29 1019 34 10000 1.34 202 20:43 05.08.2021
6308 Clouds 29 1020 35 10000 1.79 247 19:21 05.08.2021
6309 Clouds 25 1021 56 10000 0.89 218 16:24 05.08.2021
6310 Clouds 18 1019 80 10000 1.9 228 14:19 05.08.2021
6311 Clouds 18 1019 73 10000 2.66 240 10:56 05.08.2021
6312 Clouds 19 1019 65 10000 2.82 233 08:33 05.08.2021
6313 Clear 22 1021 56 10000 2.68 214 04:34 05.08.2021
6314 Clouds 28 1020 37 10000 2.24 128 23:19 04.08.2021
6315 Clouds 28 1021 37 10000 1.34 173 21:44 04.08.2021
6316 Clouds 28 1021 36 10000 0.45 178 21:21 04.08.2021
6317 Clear 26 1021 47 10000 0.45 121 17:25 04.08.2021
6318 Clear 22 1021 63 10000 0 0 15:36 04.08.2021
6319 Clouds 19 1020 75 10000 0 0 14:41 04.08.2021
6320 Clear 16 1018 78 10000 1.93 243 10:51 04.08.2021
6321 Clouds 27 1019 42 10000 0.45 112 23:43 03.08.2021
6322 Clouds 26 1020 44 10000 0.89 133 20:34 03.08.2021
6323 Clouds 26 1021 44 10000 1.54 10 19:46 03.08.2021
6324 Clouds 25 1021 47 10000 1.79 307 17:50 03.08.2021
6325 Clear 19 1021 66 10000 0.89 294 14:58 03.08.2021
6326 Clear 16 1019 79 10000 2.05 260 11:44 03.08.2021
6327 Clear 16 1019 76 10000 1.93 238 10:39 03.08.2021
6328 Clouds 24 1021 47 10000 2.24 81 23:48 02.08.2021
6329 Clouds 23 1023 49 10000 2.06 0 17:32 02.08.2021
6330 Clouds 22 1023 56 10000 3.09 0 16:32 02.08.2021
6331 Clouds 15 1021 79 10000 1.54 300 13:39 02.08.2021
6332 Clouds 15 1020 80 10000 1.97 79 11:58 02.08.2021
6333 Clouds 15 1020 76 10000 2.54 63 10:58 02.08.2021
6334 Clouds 16 1020 75 10000 2.57 320 09:47 02.08.2021
6335 Clouds 24 1019 55 10000 4.02 15 21:43 01.08.2021
6336 Clouds 24 1018 59 10000 3.58 47 18:18 01.08.2021
6337 Clouds 19 1014 81 10000 3.09 350 13:18 01.08.2021
6338 Clear 19 1015 79 10000 1.79 26 11:37 01.08.2021
6339 Clouds 23 1015 65 10000 4.12 280 04:53 01.08.2021
6340 Clouds 24 1015 61 10000 1.34 301 03:47 01.08.2021
6341 Clouds 26 1015 48 10000 1.79 287 22:43 31.07.2021
6342 Clouds 25 1017 48 10000 1.79 286 19:53 31.07.2021
6343 Clouds 22 1018 58 10000 1.79 337 16:38 31.07.2021
6344 Clouds 20 1018 65 10000 1.34 337 15:27 31.07.2021
6345 Clouds 16 1019 76 10000 0.89 17 11:49 31.07.2021
6346 Clouds 19 1021 68 10000 2.24 67 05:50 31.07.2021
6347 Clouds 21 1021 60 10000 3.13 85 22:43 30.07.2021
6348 Clouds 23 1022 54 10000 4.02 53 20:25 30.07.2021
6349 Clouds 20 1022 64 10000 3.58 38 15:56 30.07.2021
6350 Clouds 29 1014 70 10000 7.72 300 19:57 29.07.2021
6351 Clouds 27 1014 81 10000 3.09 230 08:43 29.07.2021
6352 Clouds 27 1013 75 10000 3.45 232 04:52 29.07.2021
6353 Clouds 28 1015 74 10000 3.09 230 04:27 29.07.2021
6354 Clouds 30 1018 58 10000 2.24 279 18:46 28.07.2021
6355 Clouds 28 1018 64 10000 0.45 264 17:18 28.07.2021
6356 Clouds 24 1017 73 10000 2.57 220 09:56 28.07.2021
6357 Clouds 31 1017 46 10000 0.89 292 23:56 27.07.2021
6358 Clouds 30 1017 49 10000 3.13 247 21:36 27.07.2021
6359 Clouds 25 1019 63 10000 2.06 340 15:35 27.07.2021
6360 Clouds 23 1018 71 10000 1.54 260 14:51 27.07.2021
6361 Clouds 22 1018 71 10000 3.09 220 10:33 27.07.2021
6362 Clear 29 1017 34 10000 1.87 168 02:58 27.07.2021
6363 Clouds 25 1017 56 10000 2.06 310 15:34 26.07.2021
6364 Clear 20 1015 69 10000 3.57 321 10:38 26.07.2021
6365 Clouds 32 1015 29 10000 2.06 270 20:58 25.07.2021
6366 Clouds 32 1015 31 10000 2.06 270 20:37 25.07.2021
6367 Clouds 32 1015 31 10000 2.06 270 20:37 25.07.2021
6368 Clouds 29 1015 44 10000 2.06 320 17:22 25.07.2021
6369 Clouds 22 1015 87 10000 2.06 270 13:33 25.07.2021
6370 Clouds 24 1013 81 10000 0 0 08:21 25.07.2021
6371 Clouds 24 1012 81 10000 2.77 314 07:52 25.07.2021
6372 Clouds 32 1012 57 10000 2.68 247 20:22 24.07.2021
6373 Clouds 32 1013 57 10000 2.24 227 19:36 24.07.2021
6374 Clouds 25 1016 78 10000 3.65 223 09:49 24.07.2021
6375 Clouds 29 1020 62 10000 4.63 270 17:35 23.07.2021
6376 Mist 23 1020 83 6437 3.09 250 14:35 23.07.2021
6377 Clouds 23 1020 90 10000 2.38 228 12:40 23.07.2021
6378 Clouds 29 1021 62 10000 1.34 102 22:50 22.07.2021
6379 Clouds 20 1025 83 10000 2.26 162 14:57 22.07.2021
6380 Clouds 17 1024 88 10000 1.7 152 11:18 22.07.2021
6381 Clouds 18 1024 85 10000 0.89 90 08:26 22.07.2021
6382 Clouds 23 1022 68 10000 3.6 40 22:33 21.07.2021
6383 Clouds 23 1022 67 10000 1.34 104 21:33 21.07.2021
6384 Clouds 22 1022 69 10000 1.79 30 19:27 21.07.2021
6385 Clouds 19 1019 80 10000 3.58 18 10:37 21.07.2021
6386 Clouds 19 1020 79 10000 1.79 37 09:19 21.07.2021
6387 Clouds 19 1020 79 10000 1.79 37 09:19 21.07.2021
6388 Clouds 21 1019 75 10000 2.68 52 04:51 21.07.2021
6389 Clouds 30 1018 46 10000 1.79 321 21:43 20.07.2021
6390 Clouds 26 1019 55 10000 1.79 301 16:36 20.07.2021
6391 Clouds 23 1020 65 10000 0.89 295 15:27 20.07.2021
6392 Clear 19 1020 77 10000 2.06 260 11:20 20.07.2021
6393 Clear 19 1019 71 10000 1.73 282 07:37 20.07.2021
6394 Clouds 25 1021 54 10000 3.6 90 02:58 20.07.2021
6395 Clouds 26 1023 64 10000 0.89 99 17:50 19.07.2021
6396 Clear 18 1021 87 10000 1.24 23 12:47 19.07.2021
6397 Clear 21 1023 71 10000 1.79 67 04:58 19.07.2021
6398 Clouds 23 1024 76 10000 1.34 56 15:45 18.07.2021
6399 Clouds 19 1024 82 10000 0.89 24 10:19 18.07.2021
6400 Clouds 24 1021 69 10000 3.58 51 22:30 17.07.2021
6401 Clouds 24 1021 69 10000 3.58 73 21:58 17.07.2021
6402 Clouds 24 1022 69 10000 2.68 38 21:40 17.07.2021
6403 Clouds 19 1019 85 10000 2.24 25 13:46 17.07.2021
6404 Clouds 20 1017 84 10000 1.34 23 11:30 17.07.2021
6405 Clouds 20 1017 87 10000 2.68 22 04:48 17.07.2021
6406 Clouds 21 1017 85 10000 1.34 46 17:41 16.07.2021
6407 Clouds 19 1016 90 10000 2.24 23 11:44 16.07.2021
6408 Mist 20 1017 89 8047 2.24 20 07:24 16.07.2021
6409 Clouds 24 1016 77 10000 1.34 279 19:47 15.07.2021
6410 Clouds 21 1015 84 10000 2.68 284 13:50 15.07.2021
6411 Clouds 25 1015 72 10000 2.24 218 09:51 15.07.2021
6412 Rain 26 1020 66 10000 4.92 198 00:31 15.07.2021
6413 Clouds 26 1021 66 10000 4.63 260 16:54 14.07.2021
6414 Clouds 20 1021 85 10000 3.21 242 11:59 14.07.2021
6415 Clouds 23 1018 73 10000 3.09 230 04:44 14.07.2021
6416 Clouds 23 1018 78 10000 3.13 288 20:23 13.07.2021
6417 Clouds 23 1017 78 10000 0.89 298 19:50 13.07.2021
6418 Clouds 23 1018 81 10000 1.34 293 19:23 13.07.2021
6419 Clouds 22 1017 83 10000 3.13 336 18:44 13.07.2021
6420 Clouds 22 1017 84 10000 2.68 325 18:24 13.07.2021
6421 Mist 21 1017 93 6437 3.6 210 14:34 13.07.2021
6422 Mist 20 1016 92 4828 0 0 09:38 13.07.2021
6423 Clouds 23 1017 79 10000 1.79 72 22:51 12.07.2021
6424 Clouds 21 1018 80 10000 1.34 182 17:29 12.07.2021
6425 Clouds 20 1018 85 10000 0.45 47 15:20 12.07.2021
6426 Clouds 20 1016 83 10000 3.58 52 00:31 12.07.2021
6427 Rain 19 1017 84 10000 2.24 71 21:57 11.07.2021
6428 Rain 19 1014 85 10000 2.24 85 15:50 11.07.2021
6429 Rain 21 1014 84 10000 1.34 85 02:31 11.07.2021
6430 Clouds 22 1017 70 10000 1.79 121 17:38 10.07.2021
6431 Clouds 17 1018 69 10000 1.34 113 07:57 10.07.2021
6432 Clouds 17 1019 68 10000 1.34 134 07:22 10.07.2021
6433 Clouds 23 1019 54 10000 1.34 32 19:57 09.07.2021
6434 Clouds 17 1019 75 10000 2.68 32 14:51 09.07.2021
6435 Clouds 14 1018 87 10000 0.89 315 12:55 09.07.2021
6436 Clouds 19 1015 76 10000 2.24 28 00:48 09.07.2021
6437 Mist 19 1015 78 9656 2.68 83 22:52 08.07.2021
6438 Clouds 20 1014 64 10000 1.54 30 20:20 08.07.2021
6439 Clouds 19 1014 78 10000 2.24 20 18:23 08.07.2021
6440 Clouds 18 1013 83 10000 2.68 5 13:52 08.07.2021
6441 Clouds 18 1013 83 10000 3.58 47 13:30 08.07.2021
6442 Clouds 18 1013 84 10000 4.47 43 12:35 08.07.2021
6443 Clouds 18 1013 85 10000 3.58 16 11:21 08.07.2021
6444 Rain 20 1013 84 10000 0.89 44 06:52 08.07.2021
6445 Clouds 21 1013 83 10000 3.58 31 03:52 08.07.2021
6446 Clouds 28 1011 61 10000 1.85 323 22:59 07.07.2021
6447 Clouds 30 1011 53 10000 6.17 260 22:20 07.07.2021
6448 Clouds 30 1012 51 10000 1.34 269 21:45 07.07.2021
6449 Clouds 31 1012 50 10000 1.34 239 21:24 07.07.2021
6450 Clouds 30 1013 52 10000 5.66 270 19:59 07.07.2021
6451 Clouds 29 1013 61 10000 5.66 270 19:30 07.07.2021
6452 Clouds 29 1013 61 10000 5.66 270 19:30 07.07.2021
6453 Clouds 29 1013 57 10000 5.14 230 18:52 07.07.2021
6454 Clouds 26 1014 65 10000 3.6 230 15:55 07.07.2021
6455 Clouds 25 1014 72 10000 3.6 210 14:58 07.07.2021
6456 Clouds 25 1014 72 10000 3.6 210 14:58 07.07.2021
6457 Clouds 23 1015 76 10000 1.34 256 11:24 07.07.2021
6458 Clouds 25 1015 67 10000 3.09 220 07:19 07.07.2021
6459 Clouds 26 1015 63 10000 3.09 230 05:50 07.07.2021
6460 Clouds 29 1016 56 10000 4.39 235 02:54 07.07.2021
6461 Clouds 32 1017 47 10000 0.45 253 20:18 06.07.2021
6462 Clouds 31 1017 48 10000 2.68 253 18:57 06.07.2021
6463 Clouds 31 1017 49 10000 1.79 284 18:35 06.07.2021
6464 Clouds 29 1018 53 10000 0.89 292 17:32 06.07.2021
6465 Clouds 24 1017 72 10000 4.12 240 13:33 06.07.2021
6466 Rain 25 1016 70 10000 3.6 240 09:43 06.07.2021
6467 Rain 25 1017 69 10000 4.12 230 08:35 06.07.2021
6468 Clouds 26 1017 68 10000 3.6 230 07:39 06.07.2021
6469 Clouds 31 1015 52 10000 2.24 247 01:55 06.07.2021
6470 Clear 32 1015 46 10000 4.92 278 23:57 05.07.2021
6471 Clouds 32 1015 45 10000 1.79 248 21:58 05.07.2021
6472 Clouds 29 1016 55 10000 3.58 317 17:21 05.07.2021
6473 Clouds 24 1016 72 10000 4.12 240 09:22 05.07.2021
6474 Clouds 26 1015 65 10000 3.6 250 05:49 05.07.2021
6475 Clouds 27 1015 63 10000 3.6 230 04:41 05.07.2021
6476 Clouds 27 1015 63 10000 3.6 230 04:41 05.07.2021
6477 Clouds 32 1015 46 10000 5.14 240 23:22 04.07.2021
6478 Clouds 31 1015 45 10000 0.89 283 20:47 04.07.2021
6479 Clouds 28 1016 54 10000 1.79 337 17:35 04.07.2021
6480 Clouds 22 1015 71 10000 0.89 271 14:36 04.07.2021
6481 Clouds 22 1015 70 10000 2.57 290 10:19 04.07.2021
6482 Clear 29 1014 47 10000 1.79 326 01:33 04.07.2021
6483 Clear 30 1015 43 10000 4.02 323 23:19 03.07.2021
6484 Clear 26 1017 46 10000 1.34 336 18:33 03.07.2021
6485 Clouds 14 1019 74 10000 1.54 280 12:39 03.07.2021
6486 Clear 14 1020 82 10000 2.67 272 10:59 03.07.2021
6487 Clear 14 1020 83 10000 1.65 308 09:27 03.07.2021
6488 Clouds 14 1018 80 10000 1.54 290 08:45 03.07.2021
6489 Clouds 22 1020 55 10000 2.24 90 21:31 02.07.2021
6490 Clouds 16 1019 76 10000 2.24 25 08:28 02.07.2021
6491 Clouds 16 1019 74 10000 3.13 29 07:28 02.07.2021
6492 Clouds 20 1019 65 10000 4.92 42 02:19 02.07.2021
6493 Clouds 24 1018 52 10000 6.71 26 22:30 01.07.2021
6494 Clouds 24 1018 57 10000 4.02 29 21:34 01.07.2021
6495 Clouds 24 1018 58 10000 3.13 22 19:40 01.07.2021
6496 Clouds 24 1018 59 10000 4.92 31 19:20 01.07.2021
6497 Clouds 24 1018 63 10000 4.47 28 18:47 01.07.2021
6498 Clouds 23 1018 71 10000 3.58 45 17:33 01.07.2021
6499 Clouds 21 1018 77 10000 3.58 50 15:57 01.07.2021
6500 Clouds 21 1018 77 10000 3.58 50 15:57 01.07.2021
6501 Clouds 21 1017 78 10000 4.47 59 15:22 01.07.2021
6502 Clouds 19 1016 89 10000 1.34 40 12:31 01.07.2021
6503 Mist 20 1017 85 9656 2.06 320 09:40 01.07.2021
6504 Clouds 27 1018 73 10000 3.09 170 00:30 01.07.2021
6505 Clouds 27 1018 69 10000 3.09 130 23:18 30.06.2021
6506 Clouds 26 1019 76 10000 4.63 70 21:57 30.06.2021
6507 Clouds 26 1019 77 10000 4.63 70 21:18 30.06.2021
6508 Clouds 25 1019 78 10000 1.34 76 20:20 30.06.2021
6509 Clouds 24 1021 79 10000 3.09 230 16:45 30.06.2021
6510 Clouds 22 1020 83 10000 2.06 250 13:26 30.06.2021
6511 Clouds 23 1020 80 10000 2.06 270 10:27 30.06.2021
6512 Clouds 29 1019 54 10000 4.12 220 00:31 30.06.2021
6513 Clouds 26 1022 76 10000 1.79 270 19:47 29.06.2021
6514 Rain 22 1023 91 4828 3.09 210 17:46 29.06.2021
6515 Rain 22 1023 90 4828 0.45 191 17:28 29.06.2021
6516 Clouds 23 1023 91 10000 1.79 180 15:51 29.06.2021
6517 Clouds 23 1023 91 10000 1.79 180 15:51 29.06.2021
6518 Clouds 23 1023 91 10000 1.79 180 15:51 29.06.2021
6519 Clouds 23 1023 91 10000 1.79 180 15:51 29.06.2021
6520 Rain 23 1023 92 9656 1.34 186 14:55 29.06.2021
6521 Clouds 22 1022 91 10000 1.54 200 13:24 29.06.2021
6522 Clouds 23 1021 87 10000 2.06 240 04:38 29.06.2021
6523 Rain 24 1019 84 10000 2.57 280 23:26 28.06.2021
6524 Clouds 27 1021 68 10000 2.68 86 20:59 28.06.2021
6525 Clouds 24 1021 73 10000 0.89 22 18:42 28.06.2021
6526 Clouds 21 1021 83 10000 1.79 57 16:58 28.06.2021
6527 Clouds 19 1020 89 10000 3.09 120 14:31 28.06.2021
6528 Clouds 19 1020 91 10000 1.34 90 12:24 28.06.2021
6529 Clouds 28 1015 53 10000 1.79 254 23:47 27.06.2021
6530 Clouds 28 1015 54 10000 4.02 281 22:32 27.06.2021
6531 Clouds 26 1015 63 10000 2.24 253 19:44 27.06.2021
6532 Clouds 25 1014 65 10000 3.58 265 18:56 27.06.2021
6533 Clouds 24 1012 80 10000 0.89 239 15:39 27.06.2021
6534 Clouds 23 1010 89 10000 1.79 225 11:23 27.06.2021
6535 Rain 24 1009 88 10000 0.89 214 00:54 27.06.2021
6536 Rain 26 1009 83 3219 2.68 270 22:22 26.06.2021
6537 Clouds 24 1010 90 10000 0.89 292 20:53 26.06.2021
6538 Clouds 24 1010 91 10000 0.89 276 20:34 26.06.2021
6539 Clouds 22 1011 92 10000 1.79 230 15:40 26.06.2021
6540 Rain 22 1011 91 3219 1.34 214 14:37 26.06.2021
6541 Clouds 21 1011 91 10000 1.79 220 11:44 26.06.2021
6542 Clouds 23 1011 86 10000 2.06 210 07:25 26.06.2021
6543 Clouds 24 1012 84 10000 4.63 240 22:49 25.06.2021
6544 Clouds 24 1011 85 10000 1.79 243 20:37 25.06.2021
6545 Rain 23 1013 92 10000 0.89 266 18:58 25.06.2021
6546 Rain 22 1011 92 8047 2.68 205 17:30 25.06.2021
6547 Rain 21 1011 93 4828 3.58 193 16:23 25.06.2021
6548 Rain 21 1012 92 8047 0.89 183 13:56 25.06.2021
6549 Rain 21 1013 87 4828 1.79 229 10:29 25.06.2021
6550 Clouds 21 1015 88 10000 1.79 206 07:24 25.06.2021
6551 Clouds 21 1016 88 10000 3.6 190 06:31 25.06.2021
6552 Rain 21 1015 90 10000 1.34 175 01:38 25.06.2021
6553 Rain 21 1017 87 10000 2.24 292 21:48 24.06.2021
6554 Rain 22 1015 73 10000 7.72 220 20:44 24.06.2021
6555 Clouds 23 1016 71 10000 1.34 224 20:19 24.06.2021
6556 Clouds 24 1015 61 10000 1.34 214 18:35 24.06.2021
6557 Clouds 24 1015 61 10000 1.34 214 18:35 24.06.2021
6558 Clouds 21 1016 59 10000 2.24 224 15:24 24.06.2021
6559 Clouds 21 1017 60 10000 3.58 219 14:55 24.06.2021
6560 Clouds 20 1016 60 10000 3.13 221 13:39 24.06.2021
6561 Clouds 20 1016 56 10000 3.58 233 10:36 24.06.2021
6562 Clouds 21 1017 51 10000 1.79 216 08:33 24.06.2021
6563 Clouds 22 1017 51 10000 1.34 208 07:34 24.06.2021
6564 Clouds 26 1016 42 10000 3.58 214 01:24 24.06.2021
6565 Clouds 24 1017 49 10000 3.13 211 22:30 23.06.2021
6566 Clouds 22 1018 52 10000 2.68 197 21:35 23.06.2021
6567 Clouds 20 1018 56 10000 1.79 174 20:21 23.06.2021
6568 Rain 19 1019 65 10000 3.58 263 18:32 23.06.2021
6569 Clouds 19 1019 66 10000 1.79 219 17:18 23.06.2021
6570 Clouds 18 1018 62 10000 2.24 246 14:31 23.06.2021
6571 Clouds 18 1017 57 10000 1.79 218 12:50 23.06.2021
6572 Clouds 18 1017 58 10000 0.45 202 11:38 23.06.2021
6573 Clouds 19 1016 53 10000 0.89 196 09:54 23.06.2021
6574 Clouds 19 1016 55 10000 0.89 187 08:42 23.06.2021
6575 Clouds 19 1017 52 10000 1.34 198 07:50 23.06.2021
6576 Clouds 19 1017 59 10000 3.41 161 05:55 23.06.2021
6577 Clouds 22 1015 39 10000 1.79 299 02:19 23.06.2021
6578 Clouds 23 1015 37 10000 2.68 360 00:19 23.06.2021
6579 Clouds 23 1015 35 10000 1.34 315 23:46 22.06.2021
6580 Clouds 23 1015 33 10000 3.13 270 22:42 22.06.2021
6581 Clouds 22 1015 32 10000 2.68 292 21:46 22.06.2021
6582 Clouds 22 1016 32 10000 4.02 308 20:55 22.06.2021
6583 Clouds 21 1017 38 10000 4.02 277 19:22 22.06.2021
6584 Clouds 20 1017 40 10000 2.24 307 18:37 22.06.2021
6585 Clouds 20 1017 39 10000 2.24 342 17:40 22.06.2021
6586 Clouds 19 1017 40 10000 1.34 292 17:19 22.06.2021
6587 Clouds 17 1017 49 10000 1.79 272 15:45 22.06.2021
6588 Clouds 14 1016 73 10000 1.79 253 14:29 22.06.2021
6589 Clouds 12 1015 82 10000 2.57 230 13:40 22.06.2021
6590 Clouds 11 1014 83 10000 2.06 220 12:31 22.06.2021
6591 Clouds 11 1016 79 10000 0.55 178 10:55 22.06.2021
6592 Clouds 13 1016 75 10000 1.37 67 08:52 22.06.2021
6593 Clouds 21 1012 40 10000 3.13 328 00:57 22.06.2021
6594 Clouds 21 1010 39 10000 2.68 3 00:22 22.06.2021
6595 Clouds 22 1009 38 10000 3.58 4 22:52 21.06.2021
6596 Clouds 22 1008 44 10000 4.47 324 21:37 21.06.2021
6597 Clouds 22 1008 48 10000 4.02 339 20:51 21.06.2021
6598 Clouds 22 1009 52 10000 3.58 324 19:56 21.06.2021
6599 Clouds 21 1009 54 10000 4.02 346 19:29 21.06.2021
6600 Clouds 20 1008 58 10000 2.68 340 18:20 21.06.2021
6601 Clouds 18 1008 66 10000 2.24 315 16:53 21.06.2021
6602 Clouds 18 1008 65 10000 8.39 318 16:27 21.06.2021
6603 Clouds 18 1006 66 10000 4.02 1 15:56 21.06.2021
6604 Clouds 18 1004 72 10000 5.36 348 14:28 21.06.2021
6605 Clouds 18 1003 81 10000 8.85 302 13:40 21.06.2021
6606 Clouds 19 1001 88 10000 6.69 280 12:55 21.06.2021
6607 Clouds 19 1001 88 10000 4.92 289 12:31 21.06.2021
6608 Clouds 19 1000 91 10000 2.24 299 10:42 21.06.2021
6609 Clouds 19 1000 91 10000 2.68 266 10:18 21.06.2021
6610 Clouds 20 1001 93 10000 5.46 244 08:30 21.06.2021
6611 Clouds 20 1000 92 10000 2.24 222 07:56 21.06.2021
6612 Clouds 24 1001 79 10000 5.14 240 01:20 21.06.2021
6613 Clouds 25 1003 78 10000 4.03 235 23:48 20.06.2021
6614 Clouds 26 1003 72 10000 2.57 230 23:28 20.06.2021
6615 Clouds 26 1004 70 10000 3.09 210 22:47 20.06.2021
6616 Clouds 27 1004 64 10000 2.57 190 21:37 20.06.2021
6617 Clouds 26 1006 68 10000 3.6 190 20:26 20.06.2021
6618 Clouds 26 1007 64 10000 1.54 0 19:35 20.06.2021
6619 Clouds 26 1008 65 10000 2.57 0 18:44 20.06.2021
6620 Clouds 24 1007 67 10000 1.54 0 17:37 20.06.2021
6621 Clouds 23 1008 70 10000 0.45 202 16:39 20.06.2021
6622 Clouds 21 1008 75 10000 1.54 140 15:38 20.06.2021
6623 Clouds 20 1009 80 10000 1.54 40 14:55 20.06.2021
6624 Clouds 20 1009 80 10000 1.54 40 14:36 20.06.2021
6625 Clouds 17 1009 86 10000 1.6 58 13:19 20.06.2021
6626 Clouds 17 1008 83 10000 0 0 11:48 20.06.2021
6627 Clear 18 1008 81 10000 1.54 360 10:55 20.06.2021
6628 Clear 18 1008 82 10000 2.57 10 09:49 20.06.2021
6629 Clear 18 1009 81 10000 1.79 22 08:57 20.06.2021
6630 Clouds 29 1006 50 10000 1.34 67 00:38 20.06.2021
6631 Clouds 31 1006 45 10000 3.58 292 23:33 19.06.2021
6632 Clouds 31 1007 47 10000